<?xml version="1.0" encoding="UTF-8" ?>
<gpx xmlns="http://www.topografix.com/GPX/1/1" version="1.1" creator="RouteGadget GPS Tracking" xmlns:xsi="http://www.w3.org/2001/XMLSchema-instance" xmlns:tp1="http://www.garmin.com/xmlschemas/TrackPointExtension/v1" xsi:schemaLocation="http://www.topografix.com/GPX/1/1 http://www.topografix.com/GPX/1/1/gpx.xsd http://www.garmin.com/xmlschemas/TrackPointExtension/v1 http://www.garmin.com/xmlschemas/TrackPointExtensionv1.xsd">
<trk>
<trkseg><trkpt lat="39.48414" lon="-8.464039">
<time>2021-10-05T14:12:15Z</time>
</trkpt>
<trkpt lat="39.48414" lon="-8.464039">
<time>2021-10-05T14:12:16Z</time>
</trkpt>
<trkpt lat="39.48414" lon="-8.464037">
<time>2021-10-05T14:12:17Z</time>
</trkpt>
<trkpt lat="39.48414" lon="-8.464037">
<time>2021-10-05T14:12:18Z</time>
</trkpt>
<trkpt lat="39.48414" lon="-8.464037">
<time>2021-10-05T14:12:19Z</time>
</trkpt>
<trkpt lat="39.484146" lon="-8.464037">
<time>2021-10-05T14:12:20Z</time>
</trkpt>
<trkpt lat="39.484188" lon="-8.464047">
<time>2021-10-05T14:12:21Z</time>
</trkpt>
<trkpt lat="39.484238" lon="-8.46406">
<time>2021-10-05T14:12:22Z</time>
</trkpt>
<trkpt lat="39.484293" lon="-8.464075">
<time>2021-10-05T14:12:23Z</time>
</trkpt>
<trkpt lat="39.484355" lon="-8.464089">
<time>2021-10-05T14:12:24Z</time>
</trkpt>
<trkpt lat="39.484418" lon="-8.4641">
<time>2021-10-05T14:12:25Z</time>
</trkpt>
<trkpt lat="39.484483" lon="-8.464112">
<time>2021-10-05T14:12:26Z</time>
</trkpt>
<trkpt lat="39.48455" lon="-8.464124">
<time>2021-10-05T14:12:27Z</time>
</trkpt>
<trkpt lat="39.484615" lon="-8.464137">
<time>2021-10-05T14:12:28Z</time>
</trkpt>
<trkpt lat="39.484681" lon="-8.46415">
<time>2021-10-05T14:12:29Z</time>
</trkpt>
<trkpt lat="39.48474" lon="-8.464164">
<time>2021-10-05T14:12:30Z</time>
</trkpt>
<trkpt lat="39.4848" lon="-8.464175">
<time>2021-10-05T14:12:31Z</time>
</trkpt>
<trkpt lat="39.48486" lon="-8.464185">
<time>2021-10-05T14:12:32Z</time>
</trkpt>
<trkpt lat="39.484918" lon="-8.464194">
<time>2021-10-05T14:12:33Z</time>
</trkpt>
<trkpt lat="39.484976" lon="-8.4642">
<time>2021-10-05T14:12:34Z</time>
</trkpt>
<trkpt lat="39.485035" lon="-8.464205">
<time>2021-10-05T14:12:35Z</time>
</trkpt>
<trkpt lat="39.485093" lon="-8.464209">
<time>2021-10-05T14:12:36Z</time>
</trkpt>
<trkpt lat="39.48515" lon="-8.464215">
<time>2021-10-05T14:12:37Z</time>
</trkpt>
<trkpt lat="39.48521" lon="-8.464224">
<time>2021-10-05T14:12:38Z</time>
</trkpt>
<trkpt lat="39.48527" lon="-8.464234">
<time>2021-10-05T14:12:39Z</time>
</trkpt>
<trkpt lat="39.485328" lon="-8.464247">
<time>2021-10-05T14:12:40Z</time>
</trkpt>
<trkpt lat="39.485386" lon="-8.46426">
<time>2021-10-05T14:12:41Z</time>
</trkpt>
<trkpt lat="39.485443" lon="-8.464274">
<time>2021-10-05T14:12:42Z</time>
</trkpt>
<trkpt lat="39.485503" lon="-8.464289">
<time>2021-10-05T14:12:43Z</time>
</trkpt>
<trkpt lat="39.485561" lon="-8.464299">
<time>2021-10-05T14:12:44Z</time>
</trkpt>
<trkpt lat="39.485615" lon="-8.464307">
<time>2021-10-05T14:12:45Z</time>
</trkpt>
<trkpt lat="39.485668" lon="-8.464317">
<time>2021-10-05T14:12:46Z</time>
</trkpt>
<trkpt lat="39.48572" lon="-8.464325">
<time>2021-10-05T14:12:47Z</time>
</trkpt>
<trkpt lat="39.485773" lon="-8.464337">
<time>2021-10-05T14:12:48Z</time>
</trkpt>
<trkpt lat="39.485825" lon="-8.46435">
<time>2021-10-05T14:12:49Z</time>
</trkpt>
<trkpt lat="39.485875" lon="-8.46436">
<time>2021-10-05T14:12:50Z</time>
</trkpt>
<trkpt lat="39.485925" lon="-8.46437">
<time>2021-10-05T14:12:51Z</time>
</trkpt>
<trkpt lat="39.485975" lon="-8.464377">
<time>2021-10-05T14:12:52Z</time>
</trkpt>
<trkpt lat="39.486025" lon="-8.464382">
<time>2021-10-05T14:12:53Z</time>
</trkpt>
<trkpt lat="39.486075" lon="-8.464389">
<time>2021-10-05T14:12:54Z</time>
</trkpt>
<trkpt lat="39.486126" lon="-8.464395">
<time>2021-10-05T14:12:55Z</time>
</trkpt>
<trkpt lat="39.486176" lon="-8.464399">
<time>2021-10-05T14:12:56Z</time>
</trkpt>
<trkpt lat="39.486226" lon="-8.464404">
<time>2021-10-05T14:12:57Z</time>
</trkpt>
<trkpt lat="39.486275" lon="-8.46441">
<time>2021-10-05T14:12:58Z</time>
</trkpt>
<trkpt lat="39.486323" lon="-8.464417">
<time>2021-10-05T14:12:59Z</time>
</trkpt>
<trkpt lat="39.48637" lon="-8.464424">
<time>2021-10-05T14:13:00Z</time>
</trkpt>
<trkpt lat="39.486416" lon="-8.464432">
<time>2021-10-05T14:13:01Z</time>
</trkpt>
<trkpt lat="39.486461" lon="-8.464442">
<time>2021-10-05T14:13:02Z</time>
</trkpt>
<trkpt lat="39.486506" lon="-8.464452">
<time>2021-10-05T14:13:03Z</time>
</trkpt>
<trkpt lat="39.486553" lon="-8.464462">
<time>2021-10-05T14:13:04Z</time>
</trkpt>
<trkpt lat="39.486598" lon="-8.46447">
<time>2021-10-05T14:13:05Z</time>
</trkpt>
<trkpt lat="39.486643" lon="-8.464479">
<time>2021-10-05T14:13:06Z</time>
</trkpt>
<trkpt lat="39.48669" lon="-8.46449">
<time>2021-10-05T14:13:07Z</time>
</trkpt>
<trkpt lat="39.486738" lon="-8.464504">
<time>2021-10-05T14:13:08Z</time>
</trkpt>
<trkpt lat="39.48679" lon="-8.464514">
<time>2021-10-05T14:13:09Z</time>
</trkpt>
<trkpt lat="39.48684" lon="-8.464529">
<time>2021-10-05T14:13:10Z</time>
</trkpt>
<trkpt lat="39.486891" lon="-8.464545">
<time>2021-10-05T14:13:11Z</time>
</trkpt>
<trkpt lat="39.486941" lon="-8.464562">
<time>2021-10-05T14:13:12Z</time>
</trkpt>
<trkpt lat="39.486993" lon="-8.464582">
<time>2021-10-05T14:13:13Z</time>
</trkpt>
<trkpt lat="39.487045" lon="-8.464604">
<time>2021-10-05T14:13:14Z</time>
</trkpt>
<trkpt lat="39.487093" lon="-8.464624">
<time>2021-10-05T14:13:15Z</time>
</trkpt>
<trkpt lat="39.48714" lon="-8.464645">
<time>2021-10-05T14:13:16Z</time>
</trkpt>
<trkpt lat="39.487185" lon="-8.464665">
<time>2021-10-05T14:13:17Z</time>
</trkpt>
<trkpt lat="39.487231" lon="-8.464687">
<time>2021-10-05T14:13:18Z</time>
</trkpt>
<trkpt lat="39.487278" lon="-8.46471">
<time>2021-10-05T14:13:19Z</time>
</trkpt>
<trkpt lat="39.487323" lon="-8.464732">
<time>2021-10-05T14:13:20Z</time>
</trkpt>
<trkpt lat="39.48737" lon="-8.464754">
<time>2021-10-05T14:13:21Z</time>
</trkpt>
<trkpt lat="39.487411" lon="-8.464775">
<time>2021-10-05T14:13:22Z</time>
</trkpt>
<trkpt lat="39.487453" lon="-8.464797">
<time>2021-10-05T14:13:23Z</time>
</trkpt>
<trkpt lat="39.487495" lon="-8.464817">
<time>2021-10-05T14:13:24Z</time>
</trkpt>
<trkpt lat="39.487535" lon="-8.464837">
<time>2021-10-05T14:13:25Z</time>
</trkpt>
<trkpt lat="39.487576" lon="-8.464859">
<time>2021-10-05T14:13:26Z</time>
</trkpt>
<trkpt lat="39.487618" lon="-8.46488">
<time>2021-10-05T14:13:27Z</time>
</trkpt>
<trkpt lat="39.48766" lon="-8.464902">
<time>2021-10-05T14:13:28Z</time>
</trkpt>
<trkpt lat="39.487701" lon="-8.464924">
<time>2021-10-05T14:13:29Z</time>
</trkpt>
<trkpt lat="39.487743" lon="-8.464947">
<time>2021-10-05T14:13:30Z</time>
</trkpt>
<trkpt lat="39.487788" lon="-8.464972">
<time>2021-10-05T14:13:31Z</time>
</trkpt>
<trkpt lat="39.487831" lon="-8.464997">
<time>2021-10-05T14:13:32Z</time>
</trkpt>
<trkpt lat="39.487878" lon="-8.465029">
<time>2021-10-05T14:13:33Z</time>
</trkpt>
<trkpt lat="39.487923" lon="-8.46506">
<time>2021-10-05T14:13:34Z</time>
</trkpt>
<trkpt lat="39.48797" lon="-8.465099">
<time>2021-10-05T14:13:35Z</time>
</trkpt>
<trkpt lat="39.488018" lon="-8.465137">
<time>2021-10-05T14:13:36Z</time>
</trkpt>
<trkpt lat="39.488065" lon="-8.465179">
<time>2021-10-05T14:13:37Z</time>
</trkpt>
<trkpt lat="39.488108" lon="-8.465224">
<time>2021-10-05T14:13:38Z</time>
</trkpt>
<trkpt lat="39.48815" lon="-8.46527">
<time>2021-10-05T14:13:39Z</time>
</trkpt>
<trkpt lat="39.48819" lon="-8.46532">
<time>2021-10-05T14:13:40Z</time>
</trkpt>
<trkpt lat="39.48823" lon="-8.465369">
<time>2021-10-05T14:13:41Z</time>
</trkpt>
<trkpt lat="39.488268" lon="-8.46542">
<time>2021-10-05T14:13:42Z</time>
</trkpt>
<trkpt lat="39.488305" lon="-8.46547">
<time>2021-10-05T14:13:43Z</time>
</trkpt>
<trkpt lat="39.488345" lon="-8.465524">
<time>2021-10-05T14:13:44Z</time>
</trkpt>
<trkpt lat="39.488383" lon="-8.465582">
<time>2021-10-05T14:13:45Z</time>
</trkpt>
<trkpt lat="39.488423" lon="-8.46564">
<time>2021-10-05T14:13:46Z</time>
</trkpt>
<trkpt lat="39.488463" lon="-8.465704">
<time>2021-10-05T14:13:47Z</time>
</trkpt>
<trkpt lat="39.488503" lon="-8.465765">
<time>2021-10-05T14:13:48Z</time>
</trkpt>
<trkpt lat="39.488541" lon="-8.465827">
<time>2021-10-05T14:13:49Z</time>
</trkpt>
<trkpt lat="39.488586" lon="-8.465887">
<time>2021-10-05T14:13:50Z</time>
</trkpt>
<trkpt lat="39.488631" lon="-8.465942">
<time>2021-10-05T14:13:51Z</time>
</trkpt>
<trkpt lat="39.488681" lon="-8.465994">
<time>2021-10-05T14:13:52Z</time>
</trkpt>
<trkpt lat="39.488736" lon="-8.466034">
<time>2021-10-05T14:13:53Z</time>
</trkpt>
<trkpt lat="39.488798" lon="-8.466064">
<time>2021-10-05T14:13:54Z</time>
</trkpt>
<trkpt lat="39.488861" lon="-8.466082">
<time>2021-10-05T14:13:55Z</time>
</trkpt>
<trkpt lat="39.488925" lon="-8.4661">
<time>2021-10-05T14:13:56Z</time>
</trkpt>
<trkpt lat="39.488986" lon="-8.46612">
<time>2021-10-05T14:13:57Z</time>
</trkpt>
<trkpt lat="39.489045" lon="-8.466144">
<time>2021-10-05T14:13:58Z</time>
</trkpt>
<trkpt lat="39.489096" lon="-8.466164">
<time>2021-10-05T14:13:59Z</time>
</trkpt>
<trkpt lat="39.489145" lon="-8.46617">
<time>2021-10-05T14:14:00Z</time>
</trkpt>
<trkpt lat="39.489183" lon="-8.466157">
<time>2021-10-05T14:14:01Z</time>
</trkpt>
<trkpt lat="39.489218" lon="-8.466124">
<time>2021-10-05T14:14:02Z</time>
</trkpt>
<trkpt lat="39.489253" lon="-8.46608">
<time>2021-10-05T14:14:03Z</time>
</trkpt>
<trkpt lat="39.489293" lon="-8.466027">
<time>2021-10-05T14:14:04Z</time>
</trkpt>
<trkpt lat="39.489341" lon="-8.465965">
<time>2021-10-05T14:14:05Z</time>
</trkpt>
<trkpt lat="39.489393" lon="-8.465899">
<time>2021-10-05T14:14:06Z</time>
</trkpt>
<trkpt lat="39.48944" lon="-8.465834">
<time>2021-10-05T14:14:07Z</time>
</trkpt>
<trkpt lat="39.489476" lon="-8.465769">
<time>2021-10-05T14:14:08Z</time>
</trkpt>
<trkpt lat="39.489506" lon="-8.465714">
<time>2021-10-05T14:14:09Z</time>
</trkpt>
<trkpt lat="39.489536" lon="-8.46567">
<time>2021-10-05T14:14:10Z</time>
</trkpt>
<trkpt lat="39.489565" lon="-8.465634">
<time>2021-10-05T14:14:11Z</time>
</trkpt>
<trkpt lat="39.48959" lon="-8.465597">
<time>2021-10-05T14:14:12Z</time>
</trkpt>
<trkpt lat="39.489606" lon="-8.465555">
<time>2021-10-05T14:14:13Z</time>
</trkpt>
<trkpt lat="39.48962" lon="-8.465507">
<time>2021-10-05T14:14:14Z</time>
</trkpt>
<trkpt lat="39.489628" lon="-8.465457">
<time>2021-10-05T14:14:15Z</time>
</trkpt>
<trkpt lat="39.489635" lon="-8.465404">
<time>2021-10-05T14:14:16Z</time>
</trkpt>
<trkpt lat="39.48964" lon="-8.46535">
<time>2021-10-05T14:14:17Z</time>
</trkpt>
<trkpt lat="39.489645" lon="-8.465294">
<time>2021-10-05T14:14:18Z</time>
</trkpt>
<trkpt lat="39.48965" lon="-8.465235">
<time>2021-10-05T14:14:19Z</time>
</trkpt>
<trkpt lat="39.489653" lon="-8.465177">
<time>2021-10-05T14:14:20Z</time>
</trkpt>
<trkpt lat="39.48966" lon="-8.465119">
<time>2021-10-05T14:14:21Z</time>
</trkpt>
<trkpt lat="39.489665" lon="-8.465064">
<time>2021-10-05T14:14:22Z</time>
</trkpt>
<trkpt lat="39.489668" lon="-8.465009">
<time>2021-10-05T14:14:23Z</time>
</trkpt>
<trkpt lat="39.489671" lon="-8.464955">
<time>2021-10-05T14:14:24Z</time>
</trkpt>
<trkpt lat="39.489676" lon="-8.464907">
<time>2021-10-05T14:14:25Z</time>
</trkpt>
<trkpt lat="39.489683" lon="-8.464859">
<time>2021-10-05T14:14:26Z</time>
</trkpt>
<trkpt lat="39.48969" lon="-8.464812">
<time>2021-10-05T14:14:27Z</time>
</trkpt>
<trkpt lat="39.489698" lon="-8.464764">
<time>2021-10-05T14:14:28Z</time>
</trkpt>
<trkpt lat="39.489706" lon="-8.464717">
<time>2021-10-05T14:14:29Z</time>
</trkpt>
<trkpt lat="39.489715" lon="-8.464669">
<time>2021-10-05T14:14:30Z</time>
</trkpt>
<trkpt lat="39.48972" lon="-8.464622">
<time>2021-10-05T14:14:31Z</time>
</trkpt>
<trkpt lat="39.489726" lon="-8.464574">
<time>2021-10-05T14:14:32Z</time>
</trkpt>
<trkpt lat="39.489731" lon="-8.464527">
<time>2021-10-05T14:14:33Z</time>
</trkpt>
<trkpt lat="39.489735" lon="-8.464482">
<time>2021-10-05T14:14:34Z</time>
</trkpt>
<trkpt lat="39.48974" lon="-8.464435">
<time>2021-10-05T14:14:35Z</time>
</trkpt>
<trkpt lat="39.489743" lon="-8.464392">
<time>2021-10-05T14:14:36Z</time>
</trkpt>
<trkpt lat="39.489748" lon="-8.464347">
<time>2021-10-05T14:14:37Z</time>
</trkpt>
<trkpt lat="39.489756" lon="-8.464302">
<time>2021-10-05T14:14:38Z</time>
</trkpt>
<trkpt lat="39.489763" lon="-8.464259">
<time>2021-10-05T14:14:39Z</time>
</trkpt>
<trkpt lat="39.489773" lon="-8.464219">
<time>2021-10-05T14:14:40Z</time>
</trkpt>
<trkpt lat="39.489785" lon="-8.464177">
<time>2021-10-05T14:14:41Z</time>
</trkpt>
<trkpt lat="39.489793" lon="-8.464139">
<time>2021-10-05T14:14:42Z</time>
</trkpt>
<trkpt lat="39.489805" lon="-8.4641">
<time>2021-10-05T14:14:43Z</time>
</trkpt>
<trkpt lat="39.489816" lon="-8.464059">
<time>2021-10-05T14:14:44Z</time>
</trkpt>
<trkpt lat="39.489828" lon="-8.464019">
<time>2021-10-05T14:14:45Z</time>
</trkpt>
<trkpt lat="39.489841" lon="-8.463982">
<time>2021-10-05T14:14:46Z</time>
</trkpt>
<trkpt lat="39.489853" lon="-8.463944">
<time>2021-10-05T14:14:47Z</time>
</trkpt>
<trkpt lat="39.489866" lon="-8.463907">
<time>2021-10-05T14:14:48Z</time>
</trkpt>
<trkpt lat="39.48988" lon="-8.463874">
<time>2021-10-05T14:14:49Z</time>
</trkpt>
<trkpt lat="39.489891" lon="-8.463842">
<time>2021-10-05T14:14:50Z</time>
</trkpt>
<trkpt lat="39.489901" lon="-8.463814">
<time>2021-10-05T14:14:51Z</time>
</trkpt>
<trkpt lat="39.489915" lon="-8.463787">
<time>2021-10-05T14:14:52Z</time>
</trkpt>
<trkpt lat="39.489926" lon="-8.46376">
<time>2021-10-05T14:14:53Z</time>
</trkpt>
<trkpt lat="39.48994" lon="-8.463734">
<time>2021-10-05T14:14:54Z</time>
</trkpt>
<trkpt lat="39.489953" lon="-8.463707">
<time>2021-10-05T14:14:55Z</time>
</trkpt>
<trkpt lat="39.489968" lon="-8.46368">
<time>2021-10-05T14:14:56Z</time>
</trkpt>
<trkpt lat="39.48998" lon="-8.46365">
<time>2021-10-05T14:14:57Z</time>
</trkpt>
<trkpt lat="39.48999" lon="-8.463617">
<time>2021-10-05T14:14:58Z</time>
</trkpt>
<trkpt lat="39.49" lon="-8.463582">
<time>2021-10-05T14:14:59Z</time>
</trkpt>
<trkpt lat="39.49001" lon="-8.463545">
<time>2021-10-05T14:15:00Z</time>
</trkpt>
<trkpt lat="39.490018" lon="-8.463507">
<time>2021-10-05T14:15:01Z</time>
</trkpt>
<trkpt lat="39.490031" lon="-8.463465">
<time>2021-10-05T14:15:02Z</time>
</trkpt>
<trkpt lat="39.490048" lon="-8.463422">
<time>2021-10-05T14:15:03Z</time>
</trkpt>
<trkpt lat="39.490066" lon="-8.463379">
<time>2021-10-05T14:15:04Z</time>
</trkpt>
<trkpt lat="39.490086" lon="-8.463334">
<time>2021-10-05T14:15:05Z</time>
</trkpt>
<trkpt lat="39.490105" lon="-8.463287">
<time>2021-10-05T14:15:06Z</time>
</trkpt>
<trkpt lat="39.490121" lon="-8.463242">
<time>2021-10-05T14:15:07Z</time>
</trkpt>
<trkpt lat="39.490146" lon="-8.463205">
<time>2021-10-05T14:15:08Z</time>
</trkpt>
<trkpt lat="39.490176" lon="-8.463179">
<time>2021-10-05T14:15:09Z</time>
</trkpt>
<trkpt lat="39.49021" lon="-8.463165">
<time>2021-10-05T14:15:10Z</time>
</trkpt>
<trkpt lat="39.490246" lon="-8.463162">
<time>2021-10-05T14:15:11Z</time>
</trkpt>
<trkpt lat="39.490285" lon="-8.463167">
<time>2021-10-05T14:15:12Z</time>
</trkpt>
<trkpt lat="39.490323" lon="-8.463177">
<time>2021-10-05T14:15:13Z</time>
</trkpt>
<trkpt lat="39.490361" lon="-8.463194">
<time>2021-10-05T14:15:14Z</time>
</trkpt>
<trkpt lat="39.490403" lon="-8.463214">
<time>2021-10-05T14:15:15Z</time>
</trkpt>
<trkpt lat="39.490445" lon="-8.463237">
<time>2021-10-05T14:15:16Z</time>
</trkpt>
<trkpt lat="39.490488" lon="-8.463259">
<time>2021-10-05T14:15:17Z</time>
</trkpt>
<trkpt lat="39.490533" lon="-8.46328">
<time>2021-10-05T14:15:18Z</time>
</trkpt>
<trkpt lat="39.49058" lon="-8.4633">
<time>2021-10-05T14:15:19Z</time>
</trkpt>
<trkpt lat="39.490628" lon="-8.463319">
<time>2021-10-05T14:15:20Z</time>
</trkpt>
<trkpt lat="39.490676" lon="-8.463334">
<time>2021-10-05T14:15:21Z</time>
</trkpt>
<trkpt lat="39.490726" lon="-8.463354">
<time>2021-10-05T14:15:22Z</time>
</trkpt>
<trkpt lat="39.490773" lon="-8.463374">
<time>2021-10-05T14:15:23Z</time>
</trkpt>
<trkpt lat="39.490821" lon="-8.463397">
<time>2021-10-05T14:15:24Z</time>
</trkpt>
<trkpt lat="39.490871" lon="-8.463422">
<time>2021-10-05T14:15:25Z</time>
</trkpt>
<trkpt lat="39.490925" lon="-8.463447">
<time>2021-10-05T14:15:26Z</time>
</trkpt>
<trkpt lat="39.490983" lon="-8.463474">
<time>2021-10-05T14:15:27Z</time>
</trkpt>
<trkpt lat="39.491043" lon="-8.4635">
<time>2021-10-05T14:15:28Z</time>
</trkpt>
<trkpt lat="39.491103" lon="-8.463525">
<time>2021-10-05T14:15:29Z</time>
</trkpt>
<trkpt lat="39.491161" lon="-8.463554">
<time>2021-10-05T14:15:30Z</time>
</trkpt>
<trkpt lat="39.491215" lon="-8.463582">
<time>2021-10-05T14:15:31Z</time>
</trkpt>
<trkpt lat="39.491265" lon="-8.463619">
<time>2021-10-05T14:15:32Z</time>
</trkpt>
<trkpt lat="39.49131" lon="-8.46366">
<time>2021-10-05T14:15:33Z</time>
</trkpt>
<trkpt lat="39.491355" lon="-8.463705">
<time>2021-10-05T14:15:34Z</time>
</trkpt>
<trkpt lat="39.4914" lon="-8.463754">
<time>2021-10-05T14:15:35Z</time>
</trkpt>
<trkpt lat="39.49144" lon="-8.46381">
<time>2021-10-05T14:15:36Z</time>
</trkpt>
<trkpt lat="39.491476" lon="-8.46387">
<time>2021-10-05T14:15:37Z</time>
</trkpt>
<trkpt lat="39.491513" lon="-8.463927">
<time>2021-10-05T14:15:38Z</time>
</trkpt>
<trkpt lat="39.491553" lon="-8.463979">
<time>2021-10-05T14:15:39Z</time>
</trkpt>
<trkpt lat="39.491595" lon="-8.464025">
<time>2021-10-05T14:15:40Z</time>
</trkpt>
<trkpt lat="39.491636" lon="-8.464067">
<time>2021-10-05T14:15:41Z</time>
</trkpt>
<trkpt lat="39.491675" lon="-8.464105">
<time>2021-10-05T14:15:42Z</time>
</trkpt>
<trkpt lat="39.491711" lon="-8.464139">
<time>2021-10-05T14:15:43Z</time>
</trkpt>
<trkpt lat="39.491746" lon="-8.46417">
<time>2021-10-05T14:15:44Z</time>
</trkpt>
<trkpt lat="39.49178" lon="-8.464197">
<time>2021-10-05T14:15:45Z</time>
</trkpt>
<trkpt lat="39.491818" lon="-8.464212">
<time>2021-10-05T14:15:46Z</time>
</trkpt>
<trkpt lat="39.491855" lon="-8.464209">
<time>2021-10-05T14:15:47Z</time>
</trkpt>
<trkpt lat="39.49189" lon="-8.464187">
<time>2021-10-05T14:15:48Z</time>
</trkpt>
<trkpt lat="39.49192" lon="-8.46415">
<time>2021-10-05T14:15:49Z</time>
</trkpt>
<trkpt lat="39.491946" lon="-8.464099">
<time>2021-10-05T14:15:50Z</time>
</trkpt>
<trkpt lat="39.491971" lon="-8.464037">
<time>2021-10-05T14:15:51Z</time>
</trkpt>
<trkpt lat="39.491995" lon="-8.463969">
<time>2021-10-05T14:15:52Z</time>
</trkpt>
<trkpt lat="39.49202" lon="-8.463895">
<time>2021-10-05T14:15:53Z</time>
</trkpt>
<trkpt lat="39.492045" lon="-8.46382">
<time>2021-10-05T14:15:54Z</time>
</trkpt>
<trkpt lat="39.492068" lon="-8.463742">
<time>2021-10-05T14:15:55Z</time>
</trkpt>
<trkpt lat="39.492093" lon="-8.46366">
<time>2021-10-05T14:15:56Z</time>
</trkpt>
<trkpt lat="39.492116" lon="-8.463577">
<time>2021-10-05T14:15:57Z</time>
</trkpt>
<trkpt lat="39.49214" lon="-8.463494">
<time>2021-10-05T14:15:58Z</time>
</trkpt>
<trkpt lat="39.492168" lon="-8.463412">
<time>2021-10-05T14:15:59Z</time>
</trkpt>
<trkpt lat="39.492196" lon="-8.463325">
<time>2021-10-05T14:16:00Z</time>
</trkpt>
<trkpt lat="39.492221" lon="-8.46324">
<time>2021-10-05T14:16:01Z</time>
</trkpt>
<trkpt lat="39.49225" lon="-8.463155">
<time>2021-10-05T14:16:02Z</time>
</trkpt>
<trkpt lat="39.492276" lon="-8.463074">
<time>2021-10-05T14:16:03Z</time>
</trkpt>
<trkpt lat="39.492305" lon="-8.462997">
<time>2021-10-05T14:16:04Z</time>
</trkpt>
<trkpt lat="39.49233" lon="-8.462922">
<time>2021-10-05T14:16:05Z</time>
</trkpt>
<trkpt lat="39.492355" lon="-8.462849">
<time>2021-10-05T14:16:06Z</time>
</trkpt>
<trkpt lat="39.492381" lon="-8.46278">
<time>2021-10-05T14:16:07Z</time>
</trkpt>
<trkpt lat="39.492408" lon="-8.462715">
<time>2021-10-05T14:16:08Z</time>
</trkpt>
<trkpt lat="39.492435" lon="-8.46265">
<time>2021-10-05T14:16:09Z</time>
</trkpt>
<trkpt lat="39.492458" lon="-8.462585">
<time>2021-10-05T14:16:10Z</time>
</trkpt>
<trkpt lat="39.492481" lon="-8.462519">
<time>2021-10-05T14:16:11Z</time>
</trkpt>
<trkpt lat="39.492501" lon="-8.462454">
<time>2021-10-05T14:16:12Z</time>
</trkpt>
<trkpt lat="39.492523" lon="-8.462389">
<time>2021-10-05T14:16:13Z</time>
</trkpt>
<trkpt lat="39.492545" lon="-8.462324">
<time>2021-10-05T14:16:14Z</time>
</trkpt>
<trkpt lat="39.492566" lon="-8.462257">
<time>2021-10-05T14:16:15Z</time>
</trkpt>
<trkpt lat="39.492586" lon="-8.46219">
<time>2021-10-05T14:16:16Z</time>
</trkpt>
<trkpt lat="39.492611" lon="-8.462124">
<time>2021-10-05T14:16:17Z</time>
</trkpt>
<trkpt lat="39.492635" lon="-8.462057">
<time>2021-10-05T14:16:18Z</time>
</trkpt>
<trkpt lat="39.492656" lon="-8.461992">
<time>2021-10-05T14:16:19Z</time>
</trkpt>
<trkpt lat="39.492676" lon="-8.461927">
<time>2021-10-05T14:16:20Z</time>
</trkpt>
<trkpt lat="39.492696" lon="-8.461864">
<time>2021-10-05T14:16:21Z</time>
</trkpt>
<trkpt lat="39.492716" lon="-8.461802">
<time>2021-10-05T14:16:22Z</time>
</trkpt>
<trkpt lat="39.492738" lon="-8.461744">
<time>2021-10-05T14:16:23Z</time>
</trkpt>
<trkpt lat="39.492758" lon="-8.461687">
<time>2021-10-05T14:16:24Z</time>
</trkpt>
<trkpt lat="39.492776" lon="-8.46163">
<time>2021-10-05T14:16:25Z</time>
</trkpt>
<trkpt lat="39.492793" lon="-8.461574">
<time>2021-10-05T14:16:26Z</time>
</trkpt>
<trkpt lat="39.49281" lon="-8.461519">
<time>2021-10-05T14:16:27Z</time>
</trkpt>
<trkpt lat="39.49283" lon="-8.461462">
<time>2021-10-05T14:16:28Z</time>
</trkpt>
<trkpt lat="39.492851" lon="-8.461402">
<time>2021-10-05T14:16:29Z</time>
</trkpt>
<trkpt lat="39.492876" lon="-8.461335">
<time>2021-10-05T14:16:30Z</time>
</trkpt>
<trkpt lat="39.492901" lon="-8.461259">
<time>2021-10-05T14:16:31Z</time>
</trkpt>
<trkpt lat="39.49293" lon="-8.461175">
<time>2021-10-05T14:16:32Z</time>
</trkpt>
<trkpt lat="39.49296" lon="-8.461094">
<time>2021-10-05T14:16:33Z</time>
</trkpt>
<trkpt lat="39.492988" lon="-8.461015">
<time>2021-10-05T14:16:34Z</time>
</trkpt>
<trkpt lat="39.493016" lon="-8.460937">
<time>2021-10-05T14:16:35Z</time>
</trkpt>
<trkpt lat="39.493043" lon="-8.460864">
<time>2021-10-05T14:16:36Z</time>
</trkpt>
<trkpt lat="39.493071" lon="-8.460795">
<time>2021-10-05T14:16:37Z</time>
</trkpt>
<trkpt lat="39.493098" lon="-8.460732">
<time>2021-10-05T14:16:38Z</time>
</trkpt>
<trkpt lat="39.493121" lon="-8.46067">
<time>2021-10-05T14:16:39Z</time>
</trkpt>
<trkpt lat="39.49314" lon="-8.460615">
<time>2021-10-05T14:16:40Z</time>
</trkpt>
<trkpt lat="39.493153" lon="-8.460567">
<time>2021-10-05T14:16:41Z</time>
</trkpt>
<trkpt lat="39.493158" lon="-8.46052">
<time>2021-10-05T14:16:42Z</time>
</trkpt>
<trkpt lat="39.493155" lon="-8.460477">
<time>2021-10-05T14:16:43Z</time>
</trkpt>
<trkpt lat="39.49314" lon="-8.460435">
<time>2021-10-05T14:16:44Z</time>
</trkpt>
<trkpt lat="39.49312" lon="-8.460397">
<time>2021-10-05T14:16:45Z</time>
</trkpt>
<trkpt lat="39.4931" lon="-8.460357">
<time>2021-10-05T14:16:46Z</time>
</trkpt>
<trkpt lat="39.493081" lon="-8.46032">
<time>2021-10-05T14:16:47Z</time>
</trkpt>
<trkpt lat="39.493061" lon="-8.460295">
<time>2021-10-05T14:16:48Z</time>
</trkpt>
<trkpt lat="39.493046" lon="-8.46027">
<time>2021-10-05T14:16:49Z</time>
</trkpt>
<trkpt lat="39.49303" lon="-8.46025">
<time>2021-10-05T14:16:50Z</time>
</trkpt>
<trkpt lat="39.49301" lon="-8.46023">
<time>2021-10-05T14:16:51Z</time>
</trkpt>
<trkpt lat="39.492986" lon="-8.460212">
<time>2021-10-05T14:16:52Z</time>
</trkpt>
<trkpt lat="39.49296" lon="-8.4602">
<time>2021-10-05T14:16:53Z</time>
</trkpt>
<trkpt lat="39.492935" lon="-8.460194">
<time>2021-10-05T14:16:54Z</time>
</trkpt>
<trkpt lat="39.492913" lon="-8.460184">
<time>2021-10-05T14:16:55Z</time>
</trkpt>
<trkpt lat="39.492893" lon="-8.46017">
<time>2021-10-05T14:16:56Z</time>
</trkpt>
<trkpt lat="39.492873" lon="-8.46015">
<time>2021-10-05T14:16:57Z</time>
</trkpt>
<trkpt lat="39.492851" lon="-8.46012">
<time>2021-10-05T14:16:58Z</time>
</trkpt>
<trkpt lat="39.492835" lon="-8.460082">
<time>2021-10-05T14:16:59Z</time>
</trkpt>
<trkpt lat="39.49282" lon="-8.46004">
<time>2021-10-05T14:17:00Z</time>
</trkpt>
<trkpt lat="39.492805" lon="-8.459994">
<time>2021-10-05T14:17:01Z</time>
</trkpt>
<trkpt lat="39.492793" lon="-8.45995">
<time>2021-10-05T14:17:02Z</time>
</trkpt>
<trkpt lat="39.49278" lon="-8.459907">
<time>2021-10-05T14:17:03Z</time>
</trkpt>
<trkpt lat="39.492771" lon="-8.459862">
<time>2021-10-05T14:17:04Z</time>
</trkpt>
<trkpt lat="39.49276" lon="-8.459814">
<time>2021-10-05T14:17:05Z</time>
</trkpt>
<trkpt lat="39.492741" lon="-8.45977">
<time>2021-10-05T14:17:06Z</time>
</trkpt>
<trkpt lat="39.492713" lon="-8.459732">
<time>2021-10-05T14:17:07Z</time>
</trkpt>
<trkpt lat="39.492683" lon="-8.459705">
<time>2021-10-05T14:17:08Z</time>
</trkpt>
<trkpt lat="39.49266" lon="-8.459685">
<time>2021-10-05T14:17:09Z</time>
</trkpt>
<trkpt lat="39.492641" lon="-8.459657">
<time>2021-10-05T14:17:10Z</time>
</trkpt>
<trkpt lat="39.492623" lon="-8.459625">
<time>2021-10-05T14:17:11Z</time>
</trkpt>
<trkpt lat="39.492603" lon="-8.459594">
<time>2021-10-05T14:17:12Z</time>
</trkpt>
<trkpt lat="39.492588" lon="-8.459559">
<time>2021-10-05T14:17:13Z</time>
</trkpt>
<trkpt lat="39.492583" lon="-8.45952">
<time>2021-10-05T14:17:14Z</time>
</trkpt>
<trkpt lat="39.49259" lon="-8.459482">
<time>2021-10-05T14:17:15Z</time>
</trkpt>
<trkpt lat="39.492603" lon="-8.459444">
<time>2021-10-05T14:17:16Z</time>
</trkpt>
<trkpt lat="39.492616" lon="-8.459405">
<time>2021-10-05T14:17:17Z</time>
</trkpt>
<trkpt lat="39.492623" lon="-8.459365">
<time>2021-10-05T14:17:18Z</time>
</trkpt>
<trkpt lat="39.492615" lon="-8.459329">
<time>2021-10-05T14:17:19Z</time>
</trkpt>
<trkpt lat="39.492591" lon="-8.459297">
<time>2021-10-05T14:17:20Z</time>
</trkpt>
<trkpt lat="39.492566" lon="-8.459267">
<time>2021-10-05T14:17:21Z</time>
</trkpt>
<trkpt lat="39.492541" lon="-8.459237">
<time>2021-10-05T14:17:22Z</time>
</trkpt>
<trkpt lat="39.492515" lon="-8.459207">
<time>2021-10-05T14:17:23Z</time>
</trkpt>
<trkpt lat="39.492496" lon="-8.459189">
<time>2021-10-05T14:17:24Z</time>
</trkpt>
<trkpt lat="39.492486" lon="-8.459182">
<time>2021-10-05T14:17:25Z</time>
</trkpt>
<trkpt lat="39.492486" lon="-8.459184">
<time>2021-10-05T14:17:26Z</time>
</trkpt>
<trkpt lat="39.492491" lon="-8.459194">
<time>2021-10-05T14:17:27Z</time>
</trkpt>
<trkpt lat="39.4925" lon="-8.459207">
<time>2021-10-05T14:17:28Z</time>
</trkpt>
<trkpt lat="39.492511" lon="-8.45922">
<time>2021-10-05T14:17:29Z</time>
</trkpt>
<trkpt lat="39.492526" lon="-8.459234">
<time>2021-10-05T14:17:30Z</time>
</trkpt>
<trkpt lat="39.492546" lon="-8.459252">
<time>2021-10-05T14:17:31Z</time>
</trkpt>
<trkpt lat="39.492571" lon="-8.459272">
<time>2021-10-05T14:17:32Z</time>
</trkpt>
<trkpt lat="39.492596" lon="-8.459299">
<time>2021-10-05T14:17:33Z</time>
</trkpt>
<trkpt lat="39.492613" lon="-8.45933">
<time>2021-10-05T14:17:34Z</time>
</trkpt>
<trkpt lat="39.492616" lon="-8.459365">
<time>2021-10-05T14:17:35Z</time>
</trkpt>
<trkpt lat="39.492608" lon="-8.459399">
<time>2021-10-05T14:17:36Z</time>
</trkpt>
<trkpt lat="39.492595" lon="-8.459437">
<time>2021-10-05T14:17:37Z</time>
</trkpt>
<trkpt lat="39.492581" lon="-8.459477">
<time>2021-10-05T14:17:38Z</time>
</trkpt>
<trkpt lat="39.492571" lon="-8.45951">
<time>2021-10-05T14:17:39Z</time>
</trkpt>
<trkpt lat="39.492571" lon="-8.459544">
<time>2021-10-05T14:17:40Z</time>
</trkpt>
<trkpt lat="39.492581" lon="-8.459577">
<time>2021-10-05T14:17:41Z</time>
</trkpt>
<trkpt lat="39.4926" lon="-8.459619">
<time>2021-10-05T14:17:42Z</time>
</trkpt>
<trkpt lat="39.492616" lon="-8.459659">
<time>2021-10-05T14:17:43Z</time>
</trkpt>
<trkpt lat="39.492635" lon="-8.459689">
<time>2021-10-05T14:17:44Z</time>
</trkpt>
<trkpt lat="39.492661" lon="-8.459709">
<time>2021-10-05T14:17:45Z</time>
</trkpt>
<trkpt lat="39.49269" lon="-8.45973">
<time>2021-10-05T14:17:46Z</time>
</trkpt>
<trkpt lat="39.492713" lon="-8.459755">
<time>2021-10-05T14:17:47Z</time>
</trkpt>
<trkpt lat="39.492731" lon="-8.459784">
<time>2021-10-05T14:17:48Z</time>
</trkpt>
<trkpt lat="39.492746" lon="-8.459817">
<time>2021-10-05T14:17:49Z</time>
</trkpt>
<trkpt lat="39.492756" lon="-8.45985">
<time>2021-10-05T14:17:50Z</time>
</trkpt>
<trkpt lat="39.492763" lon="-8.459885">
<time>2021-10-05T14:17:51Z</time>
</trkpt>
<trkpt lat="39.492771" lon="-8.45992">
<time>2021-10-05T14:17:52Z</time>
</trkpt>
<trkpt lat="39.49278" lon="-8.459957">
<time>2021-10-05T14:17:53Z</time>
</trkpt>
<trkpt lat="39.492788" lon="-8.459994">
<time>2021-10-05T14:17:54Z</time>
</trkpt>
<trkpt lat="39.492798" lon="-8.46003">
<time>2021-10-05T14:17:55Z</time>
</trkpt>
<trkpt lat="39.49281" lon="-8.460075">
<time>2021-10-05T14:17:56Z</time>
</trkpt>
<trkpt lat="39.492826" lon="-8.46012">
<time>2021-10-05T14:17:57Z</time>
</trkpt>
<trkpt lat="39.492846" lon="-8.460164">
<time>2021-10-05T14:17:58Z</time>
</trkpt>
<trkpt lat="39.492871" lon="-8.4602">
<time>2021-10-05T14:17:59Z</time>
</trkpt>
<trkpt lat="39.492901" lon="-8.460225">
<time>2021-10-05T14:18:00Z</time>
</trkpt>
<trkpt lat="39.492935" lon="-8.460244">
<time>2021-10-05T14:18:01Z</time>
</trkpt>
<trkpt lat="39.492973" lon="-8.460264">
<time>2021-10-05T14:18:02Z</time>
</trkpt>
<trkpt lat="39.493003" lon="-8.460292">
<time>2021-10-05T14:18:03Z</time>
</trkpt>
<trkpt lat="39.493033" lon="-8.46032">
<time>2021-10-05T14:18:04Z</time>
</trkpt>
<trkpt lat="39.493055" lon="-8.46035">
<time>2021-10-05T14:18:05Z</time>
</trkpt>
<trkpt lat="39.493075" lon="-8.460387">
<time>2021-10-05T14:18:06Z</time>
</trkpt>
<trkpt lat="39.4931" lon="-8.460434">
<time>2021-10-05T14:18:07Z</time>
</trkpt>
<trkpt lat="39.493123" lon="-8.460475">
<time>2021-10-05T14:18:08Z</time>
</trkpt>
<trkpt lat="39.493143" lon="-8.460512">
<time>2021-10-05T14:18:09Z</time>
</trkpt>
<trkpt lat="39.493163" lon="-8.460527">
<time>2021-10-05T14:18:10Z</time>
</trkpt>
<trkpt lat="39.49318" lon="-8.460527">
<time>2021-10-05T14:18:11Z</time>
</trkpt>
<trkpt lat="39.493195" lon="-8.460512">
<time>2021-10-05T14:18:12Z</time>
</trkpt>
<trkpt lat="39.493205" lon="-8.460494">
<time>2021-10-05T14:18:13Z</time>
</trkpt>
<trkpt lat="39.493218" lon="-8.460462">
<time>2021-10-05T14:18:14Z</time>
</trkpt>
<trkpt lat="39.493235" lon="-8.460417">
<time>2021-10-05T14:18:15Z</time>
</trkpt>
<trkpt lat="39.493256" lon="-8.46035">
<time>2021-10-05T14:18:16Z</time>
</trkpt>
<trkpt lat="39.493281" lon="-8.46028">
<time>2021-10-05T14:18:17Z</time>
</trkpt>
<trkpt lat="39.493308" lon="-8.4602">
<time>2021-10-05T14:18:18Z</time>
</trkpt>
<trkpt lat="39.493338" lon="-8.46011">
<time>2021-10-05T14:18:19Z</time>
</trkpt>
<trkpt lat="39.493373" lon="-8.460014">
<time>2021-10-05T14:18:20Z</time>
</trkpt>
<trkpt lat="39.493408" lon="-8.459909">
<time>2021-10-05T14:18:21Z</time>
</trkpt>
<trkpt lat="39.493443" lon="-8.4598">
<time>2021-10-05T14:18:22Z</time>
</trkpt>
<trkpt lat="39.493481" lon="-8.45969">
<time>2021-10-05T14:18:23Z</time>
</trkpt>
<trkpt lat="39.493518" lon="-8.459582">
<time>2021-10-05T14:18:24Z</time>
</trkpt>
<trkpt lat="39.493553" lon="-8.459474">
<time>2021-10-05T14:18:25Z</time>
</trkpt>
<trkpt lat="39.493588" lon="-8.45937">
<time>2021-10-05T14:18:26Z</time>
</trkpt>
<trkpt lat="39.493623" lon="-8.459272">
<time>2021-10-05T14:18:27Z</time>
</trkpt>
<trkpt lat="39.493655" lon="-8.459179">
<time>2021-10-05T14:18:28Z</time>
</trkpt>
<trkpt lat="39.493683" lon="-8.45909">
<time>2021-10-05T14:18:29Z</time>
</trkpt>
<trkpt lat="39.493713" lon="-8.459007">
<time>2021-10-05T14:18:30Z</time>
</trkpt>
<trkpt lat="39.493743" lon="-8.458924">
<time>2021-10-05T14:18:31Z</time>
</trkpt>
<trkpt lat="39.493771" lon="-8.458844">
<time>2021-10-05T14:18:32Z</time>
</trkpt>
<trkpt lat="39.4938" lon="-8.458764">
<time>2021-10-05T14:18:33Z</time>
</trkpt>
<trkpt lat="39.493826" lon="-8.458685">
<time>2021-10-05T14:18:34Z</time>
</trkpt>
<trkpt lat="39.493853" lon="-8.458609">
<time>2021-10-05T14:18:35Z</time>
</trkpt>
<trkpt lat="39.49388" lon="-8.458535">
<time>2021-10-05T14:18:36Z</time>
</trkpt>
<trkpt lat="39.493906" lon="-8.458459">
<time>2021-10-05T14:18:37Z</time>
</trkpt>
<trkpt lat="39.49393" lon="-8.458385">
<time>2021-10-05T14:18:38Z</time>
</trkpt>
<trkpt lat="39.493953" lon="-8.458315">
<time>2021-10-05T14:18:39Z</time>
</trkpt>
<trkpt lat="39.493976" lon="-8.458255">
<time>2021-10-05T14:18:40Z</time>
</trkpt>
<trkpt lat="39.494001" lon="-8.458205">
<time>2021-10-05T14:18:41Z</time>
</trkpt>
<trkpt lat="39.494031" lon="-8.45817">
<time>2021-10-05T14:18:42Z</time>
</trkpt>
<trkpt lat="39.494066" lon="-8.458152">
<time>2021-10-05T14:18:43Z</time>
</trkpt>
<trkpt lat="39.494106" lon="-8.458149">
<time>2021-10-05T14:18:44Z</time>
</trkpt>
<trkpt lat="39.49415" lon="-8.458154">
<time>2021-10-05T14:18:45Z</time>
</trkpt>
<trkpt lat="39.494196" lon="-8.458167">
<time>2021-10-05T14:18:46Z</time>
</trkpt>
<trkpt lat="39.494243" lon="-8.458185">
<time>2021-10-05T14:18:47Z</time>
</trkpt>
<trkpt lat="39.494291" lon="-8.458214">
<time>2021-10-05T14:18:48Z</time>
</trkpt>
<trkpt lat="39.494336" lon="-8.45825">
<time>2021-10-05T14:18:49Z</time>
</trkpt>
<trkpt lat="39.494381" lon="-8.458289">
<time>2021-10-05T14:18:50Z</time>
</trkpt>
<trkpt lat="39.494423" lon="-8.45833">
<time>2021-10-05T14:18:51Z</time>
</trkpt>
<trkpt lat="39.494466" lon="-8.458372">
<time>2021-10-05T14:18:52Z</time>
</trkpt>
<trkpt lat="39.494506" lon="-8.458415">
<time>2021-10-05T14:18:53Z</time>
</trkpt>
<trkpt lat="39.494548" lon="-8.458457">
<time>2021-10-05T14:18:54Z</time>
</trkpt>
<trkpt lat="39.49459" lon="-8.458492">
<time>2021-10-05T14:18:55Z</time>
</trkpt>
<trkpt lat="39.494636" lon="-8.458519">
<time>2021-10-05T14:18:56Z</time>
</trkpt>
<trkpt lat="39.494686" lon="-8.45854">
<time>2021-10-05T14:18:57Z</time>
</trkpt>
<trkpt lat="39.494736" lon="-8.458559">
<time>2021-10-05T14:18:58Z</time>
</trkpt>
<trkpt lat="39.494788" lon="-8.458579">
<time>2021-10-05T14:18:59Z</time>
</trkpt>
<trkpt lat="39.494838" lon="-8.458602">
<time>2021-10-05T14:19:00Z</time>
</trkpt>
<trkpt lat="39.49489" lon="-8.458627">
<time>2021-10-05T14:19:01Z</time>
</trkpt>
<trkpt lat="39.494936" lon="-8.45866">
<time>2021-10-05T14:19:02Z</time>
</trkpt>
<trkpt lat="39.494976" lon="-8.458705">
<time>2021-10-05T14:19:03Z</time>
</trkpt>
<trkpt lat="39.495015" lon="-8.458754">
<time>2021-10-05T14:19:04Z</time>
</trkpt>
<trkpt lat="39.49505" lon="-8.458809">
<time>2021-10-05T14:19:05Z</time>
</trkpt>
<trkpt lat="39.495083" lon="-8.458855">
<time>2021-10-05T14:19:06Z</time>
</trkpt>
<trkpt lat="39.495115" lon="-8.45889">
<time>2021-10-05T14:19:07Z</time>
</trkpt>
<trkpt lat="39.495145" lon="-8.458915">
<time>2021-10-05T14:19:08Z</time>
</trkpt>
<trkpt lat="39.495173" lon="-8.458932">
<time>2021-10-05T14:19:09Z</time>
</trkpt>
<trkpt lat="39.495196" lon="-8.458947">
<time>2021-10-05T14:19:10Z</time>
</trkpt>
<trkpt lat="39.495218" lon="-8.458962">
<time>2021-10-05T14:19:11Z</time>
</trkpt>
<trkpt lat="39.495238" lon="-8.45898">
<time>2021-10-05T14:19:12Z</time>
</trkpt>
<trkpt lat="39.495253" lon="-8.458994">
<time>2021-10-05T14:19:13Z</time>
</trkpt>
<trkpt lat="39.495255" lon="-8.458995">
<time>2021-10-05T14:19:14Z</time>
</trkpt>
<trkpt lat="39.495243" lon="-8.458987">
<time>2021-10-05T14:19:15Z</time>
</trkpt>
<trkpt lat="39.495223" lon="-8.458969">
<time>2021-10-05T14:19:16Z</time>
</trkpt>
<trkpt lat="39.495206" lon="-8.45894">
<time>2021-10-05T14:19:17Z</time>
</trkpt>
<trkpt lat="39.495195" lon="-8.458904">
<time>2021-10-05T14:19:18Z</time>
</trkpt>
<trkpt lat="39.495193" lon="-8.458862">
<time>2021-10-05T14:19:19Z</time>
</trkpt>
<trkpt lat="39.495198" lon="-8.45881">
<time>2021-10-05T14:19:20Z</time>
</trkpt>
<trkpt lat="39.495206" lon="-8.458754">
<time>2021-10-05T14:19:21Z</time>
</trkpt>
<trkpt lat="39.495216" lon="-8.458694">
<time>2021-10-05T14:19:22Z</time>
</trkpt>
<trkpt lat="39.495228" lon="-8.458634">
<time>2021-10-05T14:19:23Z</time>
</trkpt>
<trkpt lat="39.495241" lon="-8.458574">
<time>2021-10-05T14:19:24Z</time>
</trkpt>
<trkpt lat="39.495258" lon="-8.458514">
<time>2021-10-05T14:19:25Z</time>
</trkpt>
<trkpt lat="39.495273" lon="-8.458449">
<time>2021-10-05T14:19:26Z</time>
</trkpt>
<trkpt lat="39.49529" lon="-8.45838">
<time>2021-10-05T14:19:27Z</time>
</trkpt>
<trkpt lat="39.49531" lon="-8.458305">
<time>2021-10-05T14:19:28Z</time>
</trkpt>
<trkpt lat="39.495333" lon="-8.458225">
<time>2021-10-05T14:19:29Z</time>
</trkpt>
<trkpt lat="39.495361" lon="-8.458142">
<time>2021-10-05T14:19:30Z</time>
</trkpt>
<trkpt lat="39.495388" lon="-8.458054">
<time>2021-10-05T14:19:31Z</time>
</trkpt>
<trkpt lat="39.49542" lon="-8.457962">
<time>2021-10-05T14:19:32Z</time>
</trkpt>
<trkpt lat="39.495451" lon="-8.457872">
<time>2021-10-05T14:19:33Z</time>
</trkpt>
<trkpt lat="39.495483" lon="-8.457775">
<time>2021-10-05T14:19:34Z</time>
</trkpt>
<trkpt lat="39.495515" lon="-8.457674">
<time>2021-10-05T14:19:35Z</time>
</trkpt>
<trkpt lat="39.49555" lon="-8.457567">
<time>2021-10-05T14:19:36Z</time>
</trkpt>
<trkpt lat="39.495585" lon="-8.457457">
<time>2021-10-05T14:19:37Z</time>
</trkpt>
<trkpt lat="39.495615" lon="-8.457342">
<time>2021-10-05T14:19:38Z</time>
</trkpt>
<trkpt lat="39.495643" lon="-8.457225">
<time>2021-10-05T14:19:39Z</time>
</trkpt>
<trkpt lat="39.495671" lon="-8.45711">
<time>2021-10-05T14:19:40Z</time>
</trkpt>
<trkpt lat="39.495701" lon="-8.456995">
<time>2021-10-05T14:19:41Z</time>
</trkpt>
<trkpt lat="39.495733" lon="-8.456875">
<time>2021-10-05T14:19:42Z</time>
</trkpt>
<trkpt lat="39.495766" lon="-8.456754">
<time>2021-10-05T14:19:43Z</time>
</trkpt>
<trkpt lat="39.4958" lon="-8.45663">
<time>2021-10-05T14:19:44Z</time>
</trkpt>
<trkpt lat="39.495833" lon="-8.45651">
<time>2021-10-05T14:19:45Z</time>
</trkpt>
<trkpt lat="39.495863" lon="-8.456392">
<time>2021-10-05T14:19:46Z</time>
</trkpt>
<trkpt lat="39.495888" lon="-8.456275">
<time>2021-10-05T14:19:47Z</time>
</trkpt>
<trkpt lat="39.495908" lon="-8.45616">
<time>2021-10-05T14:19:48Z</time>
</trkpt>
<trkpt lat="39.495923" lon="-8.456047">
<time>2021-10-05T14:19:49Z</time>
</trkpt>
<trkpt lat="39.495935" lon="-8.455944">
<time>2021-10-05T14:19:50Z</time>
</trkpt>
<trkpt lat="39.495951" lon="-8.455864">
<time>2021-10-05T14:19:51Z</time>
</trkpt>
<trkpt lat="39.495978" lon="-8.45581">
<time>2021-10-05T14:19:52Z</time>
</trkpt>
<trkpt lat="39.496018" lon="-8.455784">
<time>2021-10-05T14:19:53Z</time>
</trkpt>
<trkpt lat="39.496063" lon="-8.455777">
<time>2021-10-05T14:19:54Z</time>
</trkpt>
<trkpt lat="39.496116" lon="-8.455779">
<time>2021-10-05T14:19:55Z</time>
</trkpt>
<trkpt lat="39.496173" lon="-8.455784">
<time>2021-10-05T14:19:56Z</time>
</trkpt>
<trkpt lat="39.496233" lon="-8.455787">
<time>2021-10-05T14:19:57Z</time>
</trkpt>
<trkpt lat="39.496305" lon="-8.455802">
<time>2021-10-05T14:19:58Z</time>
</trkpt>
<trkpt lat="39.49637" lon="-8.455807">
<time>2021-10-05T14:19:59Z</time>
</trkpt>
<trkpt lat="39.496425" lon="-8.455819">
<time>2021-10-05T14:20:00Z</time>
</trkpt>
<trkpt lat="39.496481" lon="-8.455824">
<time>2021-10-05T14:20:01Z</time>
</trkpt>
<trkpt lat="39.49654" lon="-8.45583">
<time>2021-10-05T14:20:02Z</time>
</trkpt>
<trkpt lat="39.496596" lon="-8.455844">
<time>2021-10-05T14:20:03Z</time>
</trkpt>
<trkpt lat="39.496651" lon="-8.455857">
<time>2021-10-05T14:20:04Z</time>
</trkpt>
<trkpt lat="39.49671" lon="-8.455859">
<time>2021-10-05T14:20:05Z</time>
</trkpt>
<trkpt lat="39.496768" lon="-8.455857">
<time>2021-10-05T14:20:06Z</time>
</trkpt>
<trkpt lat="39.496826" lon="-8.455852">
<time>2021-10-05T14:20:07Z</time>
</trkpt>
<trkpt lat="39.49688" lon="-8.455849">
<time>2021-10-05T14:20:08Z</time>
</trkpt>
<trkpt lat="39.49692" lon="-8.45585">
<time>2021-10-05T14:20:09Z</time>
</trkpt>
<trkpt lat="39.496943" lon="-8.455857">
<time>2021-10-05T14:20:10Z</time>
</trkpt>
<trkpt lat="39.49696" lon="-8.455869">
<time>2021-10-05T14:20:11Z</time>
</trkpt>
<trkpt lat="39.496976" lon="-8.455884">
<time>2021-10-05T14:20:12Z</time>
</trkpt>
<trkpt lat="39.496998" lon="-8.455889">
<time>2021-10-05T14:20:13Z</time>
</trkpt>
<trkpt lat="39.497023" lon="-8.455885">
<time>2021-10-05T14:20:14Z</time>
</trkpt>
<trkpt lat="39.497051" lon="-8.455874">
<time>2021-10-05T14:20:15Z</time>
</trkpt>
<trkpt lat="39.49708" lon="-8.455862">
<time>2021-10-05T14:20:16Z</time>
</trkpt>
<trkpt lat="39.497113" lon="-8.455852">
<time>2021-10-05T14:20:17Z</time>
</trkpt>
<trkpt lat="39.497153" lon="-8.455849">
<time>2021-10-05T14:20:18Z</time>
</trkpt>
<trkpt lat="39.4972" lon="-8.455849">
<time>2021-10-05T14:20:19Z</time>
</trkpt>
<trkpt lat="39.497251" lon="-8.455847">
<time>2021-10-05T14:20:20Z</time>
</trkpt>
<trkpt lat="39.497308" lon="-8.455845">
<time>2021-10-05T14:20:21Z</time>
</trkpt>
<trkpt lat="39.497368" lon="-8.455844">
<time>2021-10-05T14:20:22Z</time>
</trkpt>
<trkpt lat="39.497428" lon="-8.455842">
<time>2021-10-05T14:20:23Z</time>
</trkpt>
<trkpt lat="39.497486" lon="-8.45584">
<time>2021-10-05T14:20:24Z</time>
</trkpt>
<trkpt lat="39.497545" lon="-8.455837">
<time>2021-10-05T14:20:25Z</time>
</trkpt>
<trkpt lat="39.497601" lon="-8.455834">
<time>2021-10-05T14:20:26Z</time>
</trkpt>
<trkpt lat="39.497658" lon="-8.455834">
<time>2021-10-05T14:20:27Z</time>
</trkpt>
<trkpt lat="39.497716" lon="-8.455835">
<time>2021-10-05T14:20:28Z</time>
</trkpt>
<trkpt lat="39.497773" lon="-8.455832">
<time>2021-10-05T14:20:29Z</time>
</trkpt>
<trkpt lat="39.497833" lon="-8.455825">
<time>2021-10-05T14:20:30Z</time>
</trkpt>
<trkpt lat="39.497893" lon="-8.45582">
<time>2021-10-05T14:20:31Z</time>
</trkpt>
<trkpt lat="39.497956" lon="-8.455814">
<time>2021-10-05T14:20:32Z</time>
</trkpt>
<trkpt lat="39.49802" lon="-8.455804">
<time>2021-10-05T14:20:33Z</time>
</trkpt>
<trkpt lat="39.498085" lon="-8.45579">
<time>2021-10-05T14:20:34Z</time>
</trkpt>
<trkpt lat="39.498148" lon="-8.455779">
<time>2021-10-05T14:20:35Z</time>
</trkpt>
<trkpt lat="39.498211" lon="-8.455765">
<time>2021-10-05T14:20:36Z</time>
</trkpt>
<trkpt lat="39.498276" lon="-8.45575">
<time>2021-10-05T14:20:37Z</time>
</trkpt>
<trkpt lat="39.49834" lon="-8.455735">
<time>2021-10-05T14:20:38Z</time>
</trkpt>
<trkpt lat="39.498405" lon="-8.45572">
<time>2021-10-05T14:20:39Z</time>
</trkpt>
<trkpt lat="39.49847" lon="-8.455704">
<time>2021-10-05T14:20:40Z</time>
</trkpt>
<trkpt lat="39.498535" lon="-8.455685">
<time>2021-10-05T14:20:41Z</time>
</trkpt>
<trkpt lat="39.498603" lon="-8.455664">
<time>2021-10-05T14:20:42Z</time>
</trkpt>
<trkpt lat="39.498673" lon="-8.455642">
<time>2021-10-05T14:20:43Z</time>
</trkpt>
<trkpt lat="39.498748" lon="-8.455615">
<time>2021-10-05T14:20:44Z</time>
</trkpt>
<trkpt lat="39.498823" lon="-8.455587">
<time>2021-10-05T14:20:45Z</time>
</trkpt>
<trkpt lat="39.4989" lon="-8.455557">
<time>2021-10-05T14:20:46Z</time>
</trkpt>
<trkpt lat="39.498978" lon="-8.455529">
<time>2021-10-05T14:20:47Z</time>
</trkpt>
<trkpt lat="39.499058" lon="-8.455502">
<time>2021-10-05T14:20:48Z</time>
</trkpt>
<trkpt lat="39.499136" lon="-8.455479">
<time>2021-10-05T14:20:49Z</time>
</trkpt>
<trkpt lat="39.499213" lon="-8.455455">
<time>2021-10-05T14:20:50Z</time>
</trkpt>
<trkpt lat="39.499286" lon="-8.455434">
<time>2021-10-05T14:20:51Z</time>
</trkpt>
<trkpt lat="39.499351" lon="-8.455414">
<time>2021-10-05T14:20:52Z</time>
</trkpt>
<trkpt lat="39.499403" lon="-8.455409">
<time>2021-10-05T14:20:53Z</time>
</trkpt>
<trkpt lat="39.499443" lon="-8.455415">
<time>2021-10-05T14:20:54Z</time>
</trkpt>
<trkpt lat="39.499481" lon="-8.45543">
<time>2021-10-05T14:20:55Z</time>
</trkpt>
<trkpt lat="39.499518" lon="-8.455449">
<time>2021-10-05T14:20:56Z</time>
</trkpt>
<trkpt lat="39.49955" lon="-8.455472">
<time>2021-10-05T14:20:57Z</time>
</trkpt>
<trkpt lat="39.499566" lon="-8.455504">
<time>2021-10-05T14:20:58Z</time>
</trkpt>
<trkpt lat="39.499573" lon="-8.45554">
<time>2021-10-05T14:20:59Z</time>
</trkpt>
<trkpt lat="39.499573" lon="-8.455582">
<time>2021-10-05T14:21:00Z</time>
</trkpt>
<trkpt lat="39.49957" lon="-8.455622">
<time>2021-10-05T14:21:01Z</time>
</trkpt>
<trkpt lat="39.499563" lon="-8.455664">
<time>2021-10-05T14:21:02Z</time>
</trkpt>
<trkpt lat="39.499558" lon="-8.455707">
<time>2021-10-05T14:21:03Z</time>
</trkpt>
<trkpt lat="39.499561" lon="-8.455752">
<time>2021-10-05T14:21:04Z</time>
</trkpt>
<trkpt lat="39.499566" lon="-8.455797">
<time>2021-10-05T14:21:05Z</time>
</trkpt>
<trkpt lat="39.499575" lon="-8.455844">
<time>2021-10-05T14:21:06Z</time>
</trkpt>
<trkpt lat="39.499585" lon="-8.455892">
<time>2021-10-05T14:21:07Z</time>
</trkpt>
<trkpt lat="39.499598" lon="-8.455939">
<time>2021-10-05T14:21:08Z</time>
</trkpt>
<trkpt lat="39.499608" lon="-8.455989">
<time>2021-10-05T14:21:09Z</time>
</trkpt>
<trkpt lat="39.499621" lon="-8.45604">
<time>2021-10-05T14:21:10Z</time>
</trkpt>
<trkpt lat="39.499633" lon="-8.45609">
<time>2021-10-05T14:21:11Z</time>
</trkpt>
<trkpt lat="39.499645" lon="-8.456142">
<time>2021-10-05T14:21:12Z</time>
</trkpt>
<trkpt lat="39.499651" lon="-8.456192">
<time>2021-10-05T14:21:13Z</time>
</trkpt>
<trkpt lat="39.499658" lon="-8.45624">
<time>2021-10-05T14:21:14Z</time>
</trkpt>
<trkpt lat="39.499666" lon="-8.456285">
<time>2021-10-05T14:21:15Z</time>
</trkpt>
<trkpt lat="39.499676" lon="-8.456327">
<time>2021-10-05T14:21:16Z</time>
</trkpt>
<trkpt lat="39.499685" lon="-8.456365">
<time>2021-10-05T14:21:17Z</time>
</trkpt>
<trkpt lat="39.499695" lon="-8.456395">
<time>2021-10-05T14:21:18Z</time>
</trkpt>
<trkpt lat="39.4997" lon="-8.456425">
<time>2021-10-05T14:21:19Z</time>
</trkpt>
<trkpt lat="39.499703" lon="-8.456455">
<time>2021-10-05T14:21:20Z</time>
</trkpt>
<trkpt lat="39.499706" lon="-8.45648">
<time>2021-10-05T14:21:21Z</time>
</trkpt>
<trkpt lat="39.49971" lon="-8.456505">
<time>2021-10-05T14:21:22Z</time>
</trkpt>
<trkpt lat="39.49971" lon="-8.456529">
<time>2021-10-05T14:21:23Z</time>
</trkpt>
<trkpt lat="39.49971" lon="-8.456549">
<time>2021-10-05T14:21:24Z</time>
</trkpt>
<trkpt lat="39.499711" lon="-8.456562">
<time>2021-10-05T14:21:25Z</time>
</trkpt>
<trkpt lat="39.499713" lon="-8.456575">
<time>2021-10-05T14:21:26Z</time>
</trkpt>
<trkpt lat="39.499711" lon="-8.456584">
<time>2021-10-05T14:21:27Z</time>
</trkpt>
<trkpt lat="39.499708" lon="-8.456592">
<time>2021-10-05T14:21:28Z</time>
</trkpt>
<trkpt lat="39.499701" lon="-8.456605">
<time>2021-10-05T14:21:29Z</time>
</trkpt>
<trkpt lat="39.499695" lon="-8.456624">
<time>2021-10-05T14:21:30Z</time>
</trkpt>
<trkpt lat="39.499688" lon="-8.456645">
<time>2021-10-05T14:21:31Z</time>
</trkpt>
<trkpt lat="39.499688" lon="-8.456672">
<time>2021-10-05T14:21:32Z</time>
</trkpt>
<trkpt lat="39.49969" lon="-8.4567">
<time>2021-10-05T14:21:33Z</time>
</trkpt>
<trkpt lat="39.499688" lon="-8.45673">
<time>2021-10-05T14:21:34Z</time>
</trkpt>
<trkpt lat="39.499688" lon="-8.456764">
<time>2021-10-05T14:21:35Z</time>
</trkpt>
<trkpt lat="39.49969" lon="-8.456799">
<time>2021-10-05T14:21:36Z</time>
</trkpt>
<trkpt lat="39.499691" lon="-8.45684">
<time>2021-10-05T14:21:37Z</time>
</trkpt>
<trkpt lat="39.499695" lon="-8.456884">
<time>2021-10-05T14:21:38Z</time>
</trkpt>
<trkpt lat="39.499693" lon="-8.456934">
<time>2021-10-05T14:21:39Z</time>
</trkpt>
<trkpt lat="39.499693" lon="-8.456985">
<time>2021-10-05T14:21:40Z</time>
</trkpt>
<trkpt lat="39.499691" lon="-8.457039">
<time>2021-10-05T14:21:41Z</time>
</trkpt>
<trkpt lat="39.499691" lon="-8.457092">
<time>2021-10-05T14:21:42Z</time>
</trkpt>
<trkpt lat="39.499691" lon="-8.457144">
<time>2021-10-05T14:21:43Z</time>
</trkpt>
<trkpt lat="39.499693" lon="-8.457194">
<time>2021-10-05T14:21:44Z</time>
</trkpt>
<trkpt lat="39.499693" lon="-8.457242">
<time>2021-10-05T14:21:45Z</time>
</trkpt>
<trkpt lat="39.499695" lon="-8.457289">
<time>2021-10-05T14:21:46Z</time>
</trkpt>
<trkpt lat="39.4997" lon="-8.457335">
<time>2021-10-05T14:21:47Z</time>
</trkpt>
<trkpt lat="39.499706" lon="-8.457377">
<time>2021-10-05T14:21:48Z</time>
</trkpt>
<trkpt lat="39.499713" lon="-8.457419">
<time>2021-10-05T14:21:49Z</time>
</trkpt>
<trkpt lat="39.499716" lon="-8.457464">
<time>2021-10-05T14:21:50Z</time>
</trkpt>
<trkpt lat="39.499721" lon="-8.457512">
<time>2021-10-05T14:21:51Z</time>
</trkpt>
<trkpt lat="39.499726" lon="-8.457557">
<time>2021-10-05T14:21:52Z</time>
</trkpt>
<trkpt lat="39.499733" lon="-8.457604">
<time>2021-10-05T14:21:53Z</time>
</trkpt>
<trkpt lat="39.499736" lon="-8.45765">
<time>2021-10-05T14:21:54Z</time>
</trkpt>
<trkpt lat="39.499743" lon="-8.457699">
<time>2021-10-05T14:21:55Z</time>
</trkpt>
<trkpt lat="39.499748" lon="-8.457744">
<time>2021-10-05T14:21:56Z</time>
</trkpt>
<trkpt lat="39.499753" lon="-8.45779">
<time>2021-10-05T14:21:57Z</time>
</trkpt>
<trkpt lat="39.499758" lon="-8.45784">
<time>2021-10-05T14:21:58Z</time>
</trkpt>
<trkpt lat="39.499763" lon="-8.457889">
<time>2021-10-05T14:21:59Z</time>
</trkpt>
<trkpt lat="39.499766" lon="-8.457937">
<time>2021-10-05T14:22:00Z</time>
</trkpt>
<trkpt lat="39.49977" lon="-8.457989">
<time>2021-10-05T14:22:01Z</time>
</trkpt>
<trkpt lat="39.499773" lon="-8.458039">
<time>2021-10-05T14:22:02Z</time>
</trkpt>
<trkpt lat="39.499775" lon="-8.458087">
<time>2021-10-05T14:22:03Z</time>
</trkpt>
<trkpt lat="39.499778" lon="-8.458135">
<time>2021-10-05T14:22:04Z</time>
</trkpt>
<trkpt lat="39.499781" lon="-8.458182">
<time>2021-10-05T14:22:05Z</time>
</trkpt>
<trkpt lat="39.499786" lon="-8.458229">
<time>2021-10-05T14:22:06Z</time>
</trkpt>
<trkpt lat="39.499791" lon="-8.458275">
<time>2021-10-05T14:22:07Z</time>
</trkpt>
<trkpt lat="39.499796" lon="-8.458327">
<time>2021-10-05T14:22:08Z</time>
</trkpt>
<trkpt lat="39.4998" lon="-8.458379">
<time>2021-10-05T14:22:09Z</time>
</trkpt>
<trkpt lat="39.499806" lon="-8.458435">
<time>2021-10-05T14:22:10Z</time>
</trkpt>
<trkpt lat="39.499811" lon="-8.458494">
<time>2021-10-05T14:22:11Z</time>
</trkpt>
<trkpt lat="39.499813" lon="-8.458552">
<time>2021-10-05T14:22:12Z</time>
</trkpt>
<trkpt lat="39.499813" lon="-8.458614">
<time>2021-10-05T14:22:13Z</time>
</trkpt>
<trkpt lat="39.499811" lon="-8.458679">
<time>2021-10-05T14:22:14Z</time>
</trkpt>
<trkpt lat="39.499808" lon="-8.458745">
<time>2021-10-05T14:22:15Z</time>
</trkpt>
<trkpt lat="39.499801" lon="-8.458812">
<time>2021-10-05T14:22:16Z</time>
</trkpt>
<trkpt lat="39.499786" lon="-8.458879">
<time>2021-10-05T14:22:17Z</time>
</trkpt>
<trkpt lat="39.499766" lon="-8.45894">
<time>2021-10-05T14:22:18Z</time>
</trkpt>
<trkpt lat="39.49974" lon="-8.459002">
<time>2021-10-05T14:22:19Z</time>
</trkpt>
<trkpt lat="39.499705" lon="-8.459062">
<time>2021-10-05T14:22:20Z</time>
</trkpt>
<trkpt lat="39.49967" lon="-8.459115">
<time>2021-10-05T14:22:21Z</time>
</trkpt>
<trkpt lat="39.499643" lon="-8.459164">
<time>2021-10-05T14:22:22Z</time>
</trkpt>
<trkpt lat="39.499626" lon="-8.459202">
<time>2021-10-05T14:22:23Z</time>
</trkpt>
<trkpt lat="39.499618" lon="-8.459234">
<time>2021-10-05T14:22:24Z</time>
</trkpt>
<trkpt lat="39.499611" lon="-8.459262">
<time>2021-10-05T14:22:25Z</time>
</trkpt>
<trkpt lat="39.499605" lon="-8.459289">
<time>2021-10-05T14:22:26Z</time>
</trkpt>
<trkpt lat="39.499598" lon="-8.459317">
<time>2021-10-05T14:22:27Z</time>
</trkpt>
<trkpt lat="39.499591" lon="-8.459344">
<time>2021-10-05T14:22:28Z</time>
</trkpt>
<trkpt lat="39.49959" lon="-8.45937">
<time>2021-10-05T14:22:29Z</time>
</trkpt>
<trkpt lat="39.499591" lon="-8.459397">
<time>2021-10-05T14:22:30Z</time>
</trkpt>
<trkpt lat="39.499598" lon="-8.45942">
<time>2021-10-05T14:22:31Z</time>
</trkpt>
<trkpt lat="39.499608" lon="-8.459442">
<time>2021-10-05T14:22:32Z</time>
</trkpt>
<trkpt lat="39.499621" lon="-8.459455">
<time>2021-10-05T14:22:33Z</time>
</trkpt>
<trkpt lat="39.499638" lon="-8.45947">
<time>2021-10-05T14:22:34Z</time>
</trkpt>
<trkpt lat="39.499658" lon="-8.45948">
<time>2021-10-05T14:22:35Z</time>
</trkpt>
<trkpt lat="39.499681" lon="-8.459492">
<time>2021-10-05T14:22:36Z</time>
</trkpt>
<trkpt lat="39.499706" lon="-8.459505">
<time>2021-10-05T14:22:37Z</time>
</trkpt>
<trkpt lat="39.499726" lon="-8.459525">
<time>2021-10-05T14:22:38Z</time>
</trkpt>
<trkpt lat="39.499741" lon="-8.459549">
<time>2021-10-05T14:22:39Z</time>
</trkpt>
<trkpt lat="39.49975" lon="-8.459572">
<time>2021-10-05T14:22:40Z</time>
</trkpt>
<trkpt lat="39.499753" lon="-8.459592">
<time>2021-10-05T14:22:41Z</time>
</trkpt>
<trkpt lat="39.499753" lon="-8.459605">
<time>2021-10-05T14:22:42Z</time>
</trkpt>
<trkpt lat="39.499756" lon="-8.45962">
<time>2021-10-05T14:22:43Z</time>
</trkpt>
<trkpt lat="39.499765" lon="-8.459637">
<time>2021-10-05T14:22:44Z</time>
</trkpt>
<trkpt lat="39.499776" lon="-8.459654">
<time>2021-10-05T14:22:45Z</time>
</trkpt>
<trkpt lat="39.499788" lon="-8.459669">
<time>2021-10-05T14:22:46Z</time>
</trkpt>
<trkpt lat="39.499803" lon="-8.459675">
<time>2021-10-05T14:22:47Z</time>
</trkpt>
<trkpt lat="39.499821" lon="-8.459667">
<time>2021-10-05T14:22:48Z</time>
</trkpt>
<trkpt lat="39.499841" lon="-8.459652">
<time>2021-10-05T14:22:49Z</time>
</trkpt>
<trkpt lat="39.499861" lon="-8.459637">
<time>2021-10-05T14:22:50Z</time>
</trkpt>
<trkpt lat="39.499881" lon="-8.45963">
<time>2021-10-05T14:22:51Z</time>
</trkpt>
<trkpt lat="39.499903" lon="-8.45963">
<time>2021-10-05T14:22:52Z</time>
</trkpt>
<trkpt lat="39.499928" lon="-8.459632">
<time>2021-10-05T14:22:53Z</time>
</trkpt>
<trkpt lat="39.49995" lon="-8.45963">
<time>2021-10-05T14:22:54Z</time>
</trkpt>
<trkpt lat="39.499971" lon="-8.459625">
<time>2021-10-05T14:22:55Z</time>
</trkpt>
<trkpt lat="39.499995" lon="-8.459624">
<time>2021-10-05T14:22:56Z</time>
</trkpt>
<trkpt lat="39.50002" lon="-8.459625">
<time>2021-10-05T14:22:57Z</time>
</trkpt>
<trkpt lat="39.500045" lon="-8.459632">
<time>2021-10-05T14:22:58Z</time>
</trkpt>
<trkpt lat="39.500078" lon="-8.459642">
<time>2021-10-05T14:22:59Z</time>
</trkpt>
<trkpt lat="39.500108" lon="-8.459657">
<time>2021-10-05T14:23:00Z</time>
</trkpt>
<trkpt lat="39.50013" lon="-8.45968">
<time>2021-10-05T14:23:01Z</time>
</trkpt>
<trkpt lat="39.50015" lon="-8.459709">
<time>2021-10-05T14:23:02Z</time>
</trkpt>
<trkpt lat="39.500173" lon="-8.45974">
<time>2021-10-05T14:23:03Z</time>
</trkpt>
<trkpt lat="39.500185" lon="-8.459772">
<time>2021-10-05T14:23:04Z</time>
</trkpt>
<trkpt lat="39.500188" lon="-8.459807">
<time>2021-10-05T14:23:05Z</time>
</trkpt>
<trkpt lat="39.500181" lon="-8.459842">
<time>2021-10-05T14:23:06Z</time>
</trkpt>
<trkpt lat="39.500176" lon="-8.459882">
<time>2021-10-05T14:23:07Z</time>
</trkpt>
<trkpt lat="39.50018" lon="-8.459919">
<time>2021-10-05T14:23:08Z</time>
</trkpt>
<trkpt lat="39.500185" lon="-8.459957">
<time>2021-10-05T14:23:09Z</time>
</trkpt>
<trkpt lat="39.500193" lon="-8.46">
<time>2021-10-05T14:23:10Z</time>
</trkpt>
<trkpt lat="39.500208" lon="-8.460029">
<time>2021-10-05T14:23:11Z</time>
</trkpt>
<trkpt lat="39.500226" lon="-8.460044">
<time>2021-10-05T14:23:12Z</time>
</trkpt>
<trkpt lat="39.500248" lon="-8.460047">
<time>2021-10-05T14:23:13Z</time>
</trkpt>
<trkpt lat="39.500275" lon="-8.460047">
<time>2021-10-05T14:23:14Z</time>
</trkpt>
<trkpt lat="39.500298" lon="-8.460037">
<time>2021-10-05T14:23:15Z</time>
</trkpt>
<trkpt lat="39.500328" lon="-8.460035">
<time>2021-10-05T14:23:16Z</time>
</trkpt>
<trkpt lat="39.50036" lon="-8.46004">
<time>2021-10-05T14:23:17Z</time>
</trkpt>
<trkpt lat="39.500388" lon="-8.46005">
<time>2021-10-05T14:23:18Z</time>
</trkpt>
<trkpt lat="39.500418" lon="-8.46006">
<time>2021-10-05T14:23:19Z</time>
</trkpt>
<trkpt lat="39.500446" lon="-8.460072">
<time>2021-10-05T14:23:20Z</time>
</trkpt>
<trkpt lat="39.500468" lon="-8.460084">
<time>2021-10-05T14:23:21Z</time>
</trkpt>
<trkpt lat="39.500481" lon="-8.460105">
<time>2021-10-05T14:23:22Z</time>
</trkpt>
<trkpt lat="39.500491" lon="-8.460134">
<time>2021-10-05T14:23:23Z</time>
</trkpt>
<trkpt lat="39.500505" lon="-8.460155">
<time>2021-10-05T14:23:24Z</time>
</trkpt>
<trkpt lat="39.500523" lon="-8.460165">
<time>2021-10-05T14:23:25Z</time>
</trkpt>
<trkpt lat="39.500546" lon="-8.46017">
<time>2021-10-05T14:23:26Z</time>
</trkpt>
<trkpt lat="39.500568" lon="-8.460172">
<time>2021-10-05T14:23:27Z</time>
</trkpt>
<trkpt lat="39.500588" lon="-8.460177">
<time>2021-10-05T14:23:28Z</time>
</trkpt>
<trkpt lat="39.500598" lon="-8.460189">
<time>2021-10-05T14:23:29Z</time>
</trkpt>
<trkpt lat="39.500593" lon="-8.460205">
<time>2021-10-05T14:23:30Z</time>
</trkpt>
<trkpt lat="39.500578" lon="-8.46023">
<time>2021-10-05T14:23:31Z</time>
</trkpt>
<trkpt lat="39.500563" lon="-8.460264">
<time>2021-10-05T14:23:32Z</time>
</trkpt>
<trkpt lat="39.500555" lon="-8.460302">
<time>2021-10-05T14:23:33Z</time>
</trkpt>
<trkpt lat="39.500563" lon="-8.460337">
<time>2021-10-05T14:23:34Z</time>
</trkpt>
<trkpt lat="39.50058" lon="-8.460365">
<time>2021-10-05T14:23:35Z</time>
</trkpt>
<trkpt lat="39.50059" lon="-8.460395">
<time>2021-10-05T14:23:36Z</time>
</trkpt>
<trkpt lat="39.500593" lon="-8.460424">
<time>2021-10-05T14:23:37Z</time>
</trkpt>
<trkpt lat="39.500585" lon="-8.460445">
<time>2021-10-05T14:23:38Z</time>
</trkpt>
<trkpt lat="39.500563" lon="-8.460459">
<time>2021-10-05T14:23:39Z</time>
</trkpt>
<trkpt lat="39.50053" lon="-8.460472">
<time>2021-10-05T14:23:40Z</time>
</trkpt>
<trkpt lat="39.500491" lon="-8.460477">
<time>2021-10-05T14:23:41Z</time>
</trkpt>
<trkpt lat="39.500446" lon="-8.460487">
<time>2021-10-05T14:23:42Z</time>
</trkpt>
<trkpt lat="39.500401" lon="-8.460497">
<time>2021-10-05T14:23:43Z</time>
</trkpt>
<trkpt lat="39.500363" lon="-8.460505">
<time>2021-10-05T14:23:44Z</time>
</trkpt>
<trkpt lat="39.500336" lon="-8.460519">
<time>2021-10-05T14:23:45Z</time>
</trkpt>
<trkpt lat="39.500316" lon="-8.460537">
<time>2021-10-05T14:23:46Z</time>
</trkpt>
<trkpt lat="39.500303" lon="-8.460549">
<time>2021-10-05T14:23:47Z</time>
</trkpt>
<trkpt lat="39.500281" lon="-8.460559">
<time>2021-10-05T14:23:48Z</time>
</trkpt>
<trkpt lat="39.50025" lon="-8.46056">
<time>2021-10-05T14:23:49Z</time>
</trkpt>
<trkpt lat="39.500216" lon="-8.460565">
<time>2021-10-05T14:23:50Z</time>
</trkpt>
<trkpt lat="39.500195" lon="-8.46058">
<time>2021-10-05T14:23:51Z</time>
</trkpt>
<trkpt lat="39.500185" lon="-8.460605">
<time>2021-10-05T14:23:52Z</time>
</trkpt>
<trkpt lat="39.500185" lon="-8.460625">
<time>2021-10-05T14:23:53Z</time>
</trkpt>
<trkpt lat="39.500193" lon="-8.460652">
<time>2021-10-05T14:23:54Z</time>
</trkpt>
<trkpt lat="39.500208" lon="-8.460679">
<time>2021-10-05T14:23:55Z</time>
</trkpt>
<trkpt lat="39.500221" lon="-8.460719">
<time>2021-10-05T14:23:56Z</time>
</trkpt>
<trkpt lat="39.500231" lon="-8.460757">
<time>2021-10-05T14:23:57Z</time>
</trkpt>
<trkpt lat="39.500235" lon="-8.460795">
<time>2021-10-05T14:23:58Z</time>
</trkpt>
<trkpt lat="39.500238" lon="-8.460827">
<time>2021-10-05T14:23:59Z</time>
</trkpt>
<trkpt lat="39.500246" lon="-8.460854">
<time>2021-10-05T14:24:00Z</time>
</trkpt>
<trkpt lat="39.500256" lon="-8.46088">
<time>2021-10-05T14:24:01Z</time>
</trkpt>
<trkpt lat="39.500265" lon="-8.460912">
<time>2021-10-05T14:24:02Z</time>
</trkpt>
<trkpt lat="39.500271" lon="-8.460947">
<time>2021-10-05T14:24:03Z</time>
</trkpt>
<trkpt lat="39.500283" lon="-8.460975">
<time>2021-10-05T14:24:04Z</time>
</trkpt>
<trkpt lat="39.500293" lon="-8.461">
<time>2021-10-05T14:24:05Z</time>
</trkpt>
<trkpt lat="39.500303" lon="-8.461024">
<time>2021-10-05T14:24:06Z</time>
</trkpt>
<trkpt lat="39.500306" lon="-8.461052">
<time>2021-10-05T14:24:07Z</time>
</trkpt>
<trkpt lat="39.500311" lon="-8.461077">
<time>2021-10-05T14:24:08Z</time>
</trkpt>
<trkpt lat="39.500315" lon="-8.461104">
<time>2021-10-05T14:24:09Z</time>
</trkpt>
<trkpt lat="39.50032" lon="-8.461132">
<time>2021-10-05T14:24:10Z</time>
</trkpt>
<trkpt lat="39.500325" lon="-8.461162">
<time>2021-10-05T14:24:11Z</time>
</trkpt>
<trkpt lat="39.50033" lon="-8.461194">
<time>2021-10-05T14:24:12Z</time>
</trkpt>
<trkpt lat="39.500336" lon="-8.461224">
<time>2021-10-05T14:24:13Z</time>
</trkpt>
<trkpt lat="39.500348" lon="-8.461244">
<time>2021-10-05T14:24:14Z</time>
</trkpt>
<trkpt lat="39.500365" lon="-8.461255">
<time>2021-10-05T14:24:15Z</time>
</trkpt>
<trkpt lat="39.500385" lon="-8.46126">
<time>2021-10-05T14:24:16Z</time>
</trkpt>
<trkpt lat="39.50041" lon="-8.461265">
<time>2021-10-05T14:24:17Z</time>
</trkpt>
<trkpt lat="39.500436" lon="-8.461264">
<time>2021-10-05T14:24:18Z</time>
</trkpt>
<trkpt lat="39.500468" lon="-8.46126">
<time>2021-10-05T14:24:19Z</time>
</trkpt>
<trkpt lat="39.500498" lon="-8.461259">
<time>2021-10-05T14:24:20Z</time>
</trkpt>
<trkpt lat="39.500525" lon="-8.461254">
<time>2021-10-05T14:24:21Z</time>
</trkpt>
<trkpt lat="39.500553" lon="-8.461245">
<time>2021-10-05T14:24:22Z</time>
</trkpt>
<trkpt lat="39.500581" lon="-8.461239">
<time>2021-10-05T14:24:23Z</time>
</trkpt>
<trkpt lat="39.500611" lon="-8.461235">
<time>2021-10-05T14:24:24Z</time>
</trkpt>
<trkpt lat="39.500638" lon="-8.461235">
<time>2021-10-05T14:24:25Z</time>
</trkpt>
<trkpt lat="39.500665" lon="-8.461234">
<time>2021-10-05T14:24:26Z</time>
</trkpt>
<trkpt lat="39.50069" lon="-8.461235">
<time>2021-10-05T14:24:27Z</time>
</trkpt>
<trkpt lat="39.500715" lon="-8.461239">
<time>2021-10-05T14:24:28Z</time>
</trkpt>
<trkpt lat="39.500741" lon="-8.46124">
<time>2021-10-05T14:24:29Z</time>
</trkpt>
<trkpt lat="39.50077" lon="-8.461237">
<time>2021-10-05T14:24:30Z</time>
</trkpt>
<trkpt lat="39.500795" lon="-8.461235">
<time>2021-10-05T14:24:31Z</time>
</trkpt>
<trkpt lat="39.500821" lon="-8.46123">
<time>2021-10-05T14:24:32Z</time>
</trkpt>
<trkpt lat="39.500851" lon="-8.461222">
<time>2021-10-05T14:24:33Z</time>
</trkpt>
<trkpt lat="39.500886" lon="-8.461214">
<time>2021-10-05T14:24:34Z</time>
</trkpt>
<trkpt lat="39.500923" lon="-8.461204">
<time>2021-10-05T14:24:35Z</time>
</trkpt>
<trkpt lat="39.500963" lon="-8.461195">
<time>2021-10-05T14:24:36Z</time>
</trkpt>
<trkpt lat="39.501" lon="-8.461184">
<time>2021-10-05T14:24:37Z</time>
</trkpt>
<trkpt lat="39.501033" lon="-8.461167">
<time>2021-10-05T14:24:38Z</time>
</trkpt>
<trkpt lat="39.501071" lon="-8.461152">
<time>2021-10-05T14:24:39Z</time>
</trkpt>
<trkpt lat="39.501115" lon="-8.461137">
<time>2021-10-05T14:24:40Z</time>
</trkpt>
<trkpt lat="39.501161" lon="-8.46113">
<time>2021-10-05T14:24:41Z</time>
</trkpt>
<trkpt lat="39.501213" lon="-8.46113">
<time>2021-10-05T14:24:42Z</time>
</trkpt>
<trkpt lat="39.50127" lon="-8.461137">
<time>2021-10-05T14:24:43Z</time>
</trkpt>
<trkpt lat="39.501325" lon="-8.461147">
<time>2021-10-05T14:24:44Z</time>
</trkpt>
<trkpt lat="39.501378" lon="-8.461169">
<time>2021-10-05T14:24:45Z</time>
</trkpt>
<trkpt lat="39.501428" lon="-8.461199">
<time>2021-10-05T14:24:46Z</time>
</trkpt>
<trkpt lat="39.501471" lon="-8.461227">
<time>2021-10-05T14:24:47Z</time>
</trkpt>
<trkpt lat="39.501506" lon="-8.461257">
<time>2021-10-05T14:24:48Z</time>
</trkpt>
<trkpt lat="39.501538" lon="-8.461285">
<time>2021-10-05T14:24:49Z</time>
</trkpt>
<trkpt lat="39.501568" lon="-8.461317">
<time>2021-10-05T14:24:50Z</time>
</trkpt>
<trkpt lat="39.5016" lon="-8.461347">
<time>2021-10-05T14:24:51Z</time>
</trkpt>
<trkpt lat="39.501633" lon="-8.461379">
<time>2021-10-05T14:24:52Z</time>
</trkpt>
<trkpt lat="39.501671" lon="-8.461409">
<time>2021-10-05T14:24:53Z</time>
</trkpt>
<trkpt lat="39.501711" lon="-8.461445">
<time>2021-10-05T14:24:54Z</time>
</trkpt>
<trkpt lat="39.501751" lon="-8.461484">
<time>2021-10-05T14:24:55Z</time>
</trkpt>
<trkpt lat="39.501798" lon="-8.461525">
<time>2021-10-05T14:24:56Z</time>
</trkpt>
<trkpt lat="39.501851" lon="-8.46157">
<time>2021-10-05T14:24:57Z</time>
</trkpt>
<trkpt lat="39.501905" lon="-8.461617">
<time>2021-10-05T14:24:58Z</time>
</trkpt>
<trkpt lat="39.501961" lon="-8.461669">
<time>2021-10-05T14:24:59Z</time>
</trkpt>
<trkpt lat="39.502025" lon="-8.461725">
<time>2021-10-05T14:25:00Z</time>
</trkpt>
<trkpt lat="39.50209" lon="-8.461789">
<time>2021-10-05T14:25:01Z</time>
</trkpt>
<trkpt lat="39.502158" lon="-8.461859">
<time>2021-10-05T14:25:02Z</time>
</trkpt>
<trkpt lat="39.502223" lon="-8.461932">
<time>2021-10-05T14:25:03Z</time>
</trkpt>
<trkpt lat="39.502288" lon="-8.462004">
<time>2021-10-05T14:25:04Z</time>
</trkpt>
<trkpt lat="39.50235" lon="-8.46207">
<time>2021-10-05T14:25:05Z</time>
</trkpt>
<trkpt lat="39.502411" lon="-8.462142">
<time>2021-10-05T14:25:06Z</time>
</trkpt>
<trkpt lat="39.50247" lon="-8.462219">
<time>2021-10-05T14:25:07Z</time>
</trkpt>
<trkpt lat="39.502513" lon="-8.462307">
<time>2021-10-05T14:25:08Z</time>
</trkpt>
<trkpt lat="39.502555" lon="-8.4624">
<time>2021-10-05T14:25:09Z</time>
</trkpt>
<trkpt lat="39.502598" lon="-8.46249">
<time>2021-10-05T14:25:10Z</time>
</trkpt>
<trkpt lat="39.502646" lon="-8.462567">
<time>2021-10-05T14:25:11Z</time>
</trkpt>
<trkpt lat="39.502693" lon="-8.462625">
<time>2021-10-05T14:25:12Z</time>
</trkpt>
<trkpt lat="39.502745" lon="-8.462674">
<time>2021-10-05T14:25:13Z</time>
</trkpt>
<trkpt lat="39.502795" lon="-8.462712">
<time>2021-10-05T14:25:14Z</time>
</trkpt>
<trkpt lat="39.502835" lon="-8.462752">
<time>2021-10-05T14:25:15Z</time>
</trkpt>
<trkpt lat="39.502865" lon="-8.462799">
<time>2021-10-05T14:25:16Z</time>
</trkpt>
<trkpt lat="39.502893" lon="-8.462845">
<time>2021-10-05T14:25:17Z</time>
</trkpt>
<trkpt lat="39.502921" lon="-8.462897">
<time>2021-10-05T14:25:18Z</time>
</trkpt>
<trkpt lat="39.502958" lon="-8.462945">
<time>2021-10-05T14:25:19Z</time>
</trkpt>
<trkpt lat="39.502998" lon="-8.462995">
<time>2021-10-05T14:25:20Z</time>
</trkpt>
<trkpt lat="39.503045" lon="-8.46305">
<time>2021-10-05T14:25:21Z</time>
</trkpt>
<trkpt lat="39.503093" lon="-8.463099">
<time>2021-10-05T14:25:22Z</time>
</trkpt>
<trkpt lat="39.503135" lon="-8.463155">
<time>2021-10-05T14:25:23Z</time>
</trkpt>
<trkpt lat="39.503161" lon="-8.463217">
<time>2021-10-05T14:25:24Z</time>
</trkpt>
<trkpt lat="39.503173" lon="-8.463279">
<time>2021-10-05T14:25:25Z</time>
</trkpt>
<trkpt lat="39.503173" lon="-8.46334">
<time>2021-10-05T14:25:26Z</time>
</trkpt>
<trkpt lat="39.503161" lon="-8.463405">
<time>2021-10-05T14:25:27Z</time>
</trkpt>
<trkpt lat="39.503141" lon="-8.463479">
<time>2021-10-05T14:25:28Z</time>
</trkpt>
<trkpt lat="39.503115" lon="-8.463554">
<time>2021-10-05T14:25:29Z</time>
</trkpt>
<trkpt lat="39.503083" lon="-8.463637">
<time>2021-10-05T14:25:30Z</time>
</trkpt>
<trkpt lat="39.503051" lon="-8.46372">
<time>2021-10-05T14:25:31Z</time>
</trkpt>
<trkpt lat="39.503025" lon="-8.463812">
<time>2021-10-05T14:25:32Z</time>
</trkpt>
<trkpt lat="39.503003" lon="-8.463904">
<time>2021-10-05T14:25:33Z</time>
</trkpt>
<trkpt lat="39.502976" lon="-8.464004">
<time>2021-10-05T14:25:34Z</time>
</trkpt>
<trkpt lat="39.50294" lon="-8.464114">
<time>2021-10-05T14:25:35Z</time>
</trkpt>
<trkpt lat="39.502901" lon="-8.464232">
<time>2021-10-05T14:25:36Z</time>
</trkpt>
<trkpt lat="39.50286" lon="-8.464345">
<time>2021-10-05T14:25:37Z</time>
</trkpt>
<trkpt lat="39.502823" lon="-8.464452">
<time>2021-10-05T14:25:38Z</time>
</trkpt>
<trkpt lat="39.502788" lon="-8.46456">
<time>2021-10-05T14:25:39Z</time>
</trkpt>
<trkpt lat="39.502753" lon="-8.464669">
<time>2021-10-05T14:25:40Z</time>
</trkpt>
<trkpt lat="39.502728" lon="-8.46478">
<time>2021-10-05T14:25:41Z</time>
</trkpt>
<trkpt lat="39.502711" lon="-8.464897">
<time>2021-10-05T14:25:42Z</time>
</trkpt>
<trkpt lat="39.502693" lon="-8.465017">
<time>2021-10-05T14:25:43Z</time>
</trkpt>
<trkpt lat="39.502666" lon="-8.465144">
<time>2021-10-05T14:25:44Z</time>
</trkpt>
<trkpt lat="39.502631" lon="-8.46527">
<time>2021-10-05T14:25:45Z</time>
</trkpt>
<trkpt lat="39.50259" lon="-8.465392">
<time>2021-10-05T14:25:46Z</time>
</trkpt>
<trkpt lat="39.502555" lon="-8.465507">
<time>2021-10-05T14:25:47Z</time>
</trkpt>
<trkpt lat="39.502531" lon="-8.46562">
<time>2021-10-05T14:25:48Z</time>
</trkpt>
<trkpt lat="39.502516" lon="-8.465732">
<time>2021-10-05T14:25:49Z</time>
</trkpt>
<trkpt lat="39.502515" lon="-8.465842">
<time>2021-10-05T14:25:50Z</time>
</trkpt>
<trkpt lat="39.502513" lon="-8.465949">
<time>2021-10-05T14:25:51Z</time>
</trkpt>
<trkpt lat="39.502505" lon="-8.466055">
<time>2021-10-05T14:25:52Z</time>
</trkpt>
<trkpt lat="39.502486" lon="-8.46616">
<time>2021-10-05T14:25:53Z</time>
</trkpt>
<trkpt lat="39.502465" lon="-8.466262">
<time>2021-10-05T14:25:54Z</time>
</trkpt>
<trkpt lat="39.502443" lon="-8.466365">
<time>2021-10-05T14:25:55Z</time>
</trkpt>
<trkpt lat="39.502423" lon="-8.46647">
<time>2021-10-05T14:25:56Z</time>
</trkpt>
<trkpt lat="39.502401" lon="-8.466575">
<time>2021-10-05T14:25:57Z</time>
</trkpt>
<trkpt lat="39.50238" lon="-8.466682">
<time>2021-10-05T14:25:58Z</time>
</trkpt>
<trkpt lat="39.502356" lon="-8.466787">
<time>2021-10-05T14:25:59Z</time>
</trkpt>
<trkpt lat="39.502326" lon="-8.466889">
<time>2021-10-05T14:26:00Z</time>
</trkpt>
<trkpt lat="39.502291" lon="-8.46698">
<time>2021-10-05T14:26:01Z</time>
</trkpt>
<trkpt lat="39.502245" lon="-8.46706">
<time>2021-10-05T14:26:02Z</time>
</trkpt>
<trkpt lat="39.50219" lon="-8.467127">
<time>2021-10-05T14:26:03Z</time>
</trkpt>
<trkpt lat="39.502128" lon="-8.467175">
<time>2021-10-05T14:26:04Z</time>
</trkpt>
<trkpt lat="39.502061" lon="-8.46721">
<time>2021-10-05T14:26:05Z</time>
</trkpt>
<trkpt lat="39.501991" lon="-8.467234">
<time>2021-10-05T14:26:06Z</time>
</trkpt>
<trkpt lat="39.501921" lon="-8.46725">
<time>2021-10-05T14:26:07Z</time>
</trkpt>
<trkpt lat="39.501851" lon="-8.467269">
<time>2021-10-05T14:26:08Z</time>
</trkpt>
<trkpt lat="39.501781" lon="-8.467289">
<time>2021-10-05T14:26:09Z</time>
</trkpt>
<trkpt lat="39.501711" lon="-8.46731">
<time>2021-10-05T14:26:10Z</time>
</trkpt>
<trkpt lat="39.50165" lon="-8.467337">
<time>2021-10-05T14:26:11Z</time>
</trkpt>
<trkpt lat="39.50159" lon="-8.467364">
<time>2021-10-05T14:26:12Z</time>
</trkpt>
<trkpt lat="39.501533" lon="-8.46739">
<time>2021-10-05T14:26:13Z</time>
</trkpt>
<trkpt lat="39.501478" lon="-8.467422">
<time>2021-10-05T14:26:14Z</time>
</trkpt>
<trkpt lat="39.501426" lon="-8.467455">
<time>2021-10-05T14:26:15Z</time>
</trkpt>
<trkpt lat="39.501378" lon="-8.467487">
<time>2021-10-05T14:26:16Z</time>
</trkpt>
<trkpt lat="39.501326" lon="-8.46751">
<time>2021-10-05T14:26:17Z</time>
</trkpt>
<trkpt lat="39.501281" lon="-8.467535">
<time>2021-10-05T14:26:18Z</time>
</trkpt>
<trkpt lat="39.501241" lon="-8.467567">
<time>2021-10-05T14:26:19Z</time>
</trkpt>
<trkpt lat="39.501206" lon="-8.4676">
<time>2021-10-05T14:26:20Z</time>
</trkpt>
<trkpt lat="39.501175" lon="-8.467639">
<time>2021-10-05T14:26:21Z</time>
</trkpt>
<trkpt lat="39.501145" lon="-8.46768">
<time>2021-10-05T14:26:22Z</time>
</trkpt>
<trkpt lat="39.50112" lon="-8.467722">
<time>2021-10-05T14:26:23Z</time>
</trkpt>
<trkpt lat="39.501095" lon="-8.467767">
<time>2021-10-05T14:26:24Z</time>
</trkpt>
<trkpt lat="39.501066" lon="-8.467809">
<time>2021-10-05T14:26:25Z</time>
</trkpt>
<trkpt lat="39.50104" lon="-8.467852">
<time>2021-10-05T14:26:26Z</time>
</trkpt>
<trkpt lat="39.501013" lon="-8.4679">
<time>2021-10-05T14:26:27Z</time>
</trkpt>
<trkpt lat="39.500986" lon="-8.46795">
<time>2021-10-05T14:26:28Z</time>
</trkpt>
<trkpt lat="39.500958" lon="-8.467999">
<time>2021-10-05T14:26:29Z</time>
</trkpt>
<trkpt lat="39.500928" lon="-8.468047">
<time>2021-10-05T14:26:30Z</time>
</trkpt>
<trkpt lat="39.500895" lon="-8.468094">
<time>2021-10-05T14:26:31Z</time>
</trkpt>
<trkpt lat="39.500861" lon="-8.468137">
<time>2021-10-05T14:26:32Z</time>
</trkpt>
<trkpt lat="39.500826" lon="-8.46818">
<time>2021-10-05T14:26:33Z</time>
</trkpt>
<trkpt lat="39.50079" lon="-8.468224">
<time>2021-10-05T14:26:34Z</time>
</trkpt>
<trkpt lat="39.500753" lon="-8.468265">
<time>2021-10-05T14:26:35Z</time>
</trkpt>
<trkpt lat="39.500715" lon="-8.468302">
<time>2021-10-05T14:26:36Z</time>
</trkpt>
<trkpt lat="39.500675" lon="-8.468335">
<time>2021-10-05T14:26:37Z</time>
</trkpt>
<trkpt lat="39.500635" lon="-8.468362">
<time>2021-10-05T14:26:38Z</time>
</trkpt>
<trkpt lat="39.500598" lon="-8.468389">
<time>2021-10-05T14:26:39Z</time>
</trkpt>
<trkpt lat="39.500566" lon="-8.468422">
<time>2021-10-05T14:26:40Z</time>
</trkpt>
<trkpt lat="39.500543" lon="-8.46846">
<time>2021-10-05T14:26:41Z</time>
</trkpt>
<trkpt lat="39.500521" lon="-8.4685">
<time>2021-10-05T14:26:42Z</time>
</trkpt>
<trkpt lat="39.500505" lon="-8.468544">
<time>2021-10-05T14:26:43Z</time>
</trkpt>
<trkpt lat="39.500493" lon="-8.46859">
<time>2021-10-05T14:26:44Z</time>
</trkpt>
<trkpt lat="39.500481" lon="-8.468642">
<time>2021-10-05T14:26:45Z</time>
</trkpt>
<trkpt lat="39.50047" lon="-8.468695">
<time>2021-10-05T14:26:46Z</time>
</trkpt>
<trkpt lat="39.500461" lon="-8.468749">
<time>2021-10-05T14:26:47Z</time>
</trkpt>
<trkpt lat="39.500455" lon="-8.468804">
<time>2021-10-05T14:26:48Z</time>
</trkpt>
<trkpt lat="39.500448" lon="-8.468859">
<time>2021-10-05T14:26:49Z</time>
</trkpt>
<trkpt lat="39.500443" lon="-8.468914">
<time>2021-10-05T14:26:50Z</time>
</trkpt>
<trkpt lat="39.500433" lon="-8.468974">
<time>2021-10-05T14:26:51Z</time>
</trkpt>
<trkpt lat="39.500423" lon="-8.469012">
<time>2021-10-05T14:26:52Z</time>
</trkpt>
<trkpt lat="39.500405" lon="-8.469052">
<time>2021-10-05T14:26:53Z</time>
</trkpt>
<trkpt lat="39.500378" lon="-8.469079">
<time>2021-10-05T14:26:54Z</time>
</trkpt>
<trkpt lat="39.50034" lon="-8.469097">
<time>2021-10-05T14:26:55Z</time>
</trkpt>
<trkpt lat="39.500295" lon="-8.469109">
<time>2021-10-05T14:26:56Z</time>
</trkpt>
<trkpt lat="39.500245" lon="-8.469112">
<time>2021-10-05T14:26:57Z</time>
</trkpt>
<trkpt lat="39.500188" lon="-8.46911">
<time>2021-10-05T14:26:58Z</time>
</trkpt>
<trkpt lat="39.500125" lon="-8.469104">
<time>2021-10-05T14:26:59Z</time>
</trkpt>
<trkpt lat="39.500056" lon="-8.46909">
<time>2021-10-05T14:27:00Z</time>
</trkpt>
<trkpt lat="39.499983" lon="-8.46907">
<time>2021-10-05T14:27:01Z</time>
</trkpt>
<trkpt lat="39.499905" lon="-8.469044">
<time>2021-10-05T14:27:02Z</time>
</trkpt>
<trkpt lat="39.499826" lon="-8.469017">
<time>2021-10-05T14:27:03Z</time>
</trkpt>
<trkpt lat="39.499748" lon="-8.468982">
<time>2021-10-05T14:27:04Z</time>
</trkpt>
<trkpt lat="39.499676" lon="-8.46894">
<time>2021-10-05T14:27:05Z</time>
</trkpt>
<trkpt lat="39.49961" lon="-8.468899">
<time>2021-10-05T14:27:06Z</time>
</trkpt>
<trkpt lat="39.499548" lon="-8.468862">
<time>2021-10-05T14:27:07Z</time>
</trkpt>
<trkpt lat="39.499486" lon="-8.468839">
<time>2021-10-05T14:27:08Z</time>
</trkpt>
<trkpt lat="39.499426" lon="-8.468834">
<time>2021-10-05T14:27:09Z</time>
</trkpt>
<trkpt lat="39.499368" lon="-8.468835">
<time>2021-10-05T14:27:10Z</time>
</trkpt>
<trkpt lat="39.499308" lon="-8.468847">
<time>2021-10-05T14:27:11Z</time>
</trkpt>
<trkpt lat="39.499243" lon="-8.468865">
<time>2021-10-05T14:27:12Z</time>
</trkpt>
<trkpt lat="39.499178" lon="-8.468884">
<time>2021-10-05T14:27:13Z</time>
</trkpt>
<trkpt lat="39.499111" lon="-8.468899">
<time>2021-10-05T14:27:14Z</time>
</trkpt>
<trkpt lat="39.499046" lon="-8.468914">
<time>2021-10-05T14:27:15Z</time>
</trkpt>
<trkpt lat="39.498975" lon="-8.468937">
<time>2021-10-05T14:27:16Z</time>
</trkpt>
<trkpt lat="39.4989" lon="-8.468944">
<time>2021-10-05T14:27:17Z</time>
</trkpt>
<trkpt lat="39.498806" lon="-8.468944">
<time>2021-10-05T14:27:18Z</time>
</trkpt>
<trkpt lat="39.498741" lon="-8.468947">
<time>2021-10-05T14:27:19Z</time>
</trkpt>
<trkpt lat="39.498656" lon="-8.468942">
<time>2021-10-05T14:27:20Z</time>
</trkpt>
<trkpt lat="39.498566" lon="-8.468934">
<time>2021-10-05T14:27:21Z</time>
</trkpt>
<trkpt lat="39.498471" lon="-8.46892">
<time>2021-10-05T14:27:22Z</time>
</trkpt>
<trkpt lat="39.498373" lon="-8.468905">
<time>2021-10-05T14:27:23Z</time>
</trkpt>
<trkpt lat="39.498278" lon="-8.468892">
<time>2021-10-05T14:27:24Z</time>
</trkpt>
<trkpt lat="39.49818" lon="-8.468879">
<time>2021-10-05T14:27:25Z</time>
</trkpt>
<trkpt lat="39.498081" lon="-8.468869">
<time>2021-10-05T14:27:26Z</time>
</trkpt>
<trkpt lat="39.497983" lon="-8.468859">
<time>2021-10-05T14:27:27Z</time>
</trkpt>
<trkpt lat="39.497881" lon="-8.468847">
<time>2021-10-05T14:27:28Z</time>
</trkpt>
<trkpt lat="39.497776" lon="-8.468839">
<time>2021-10-05T14:27:29Z</time>
</trkpt>
<trkpt lat="39.497665" lon="-8.468827">
<time>2021-10-05T14:27:30Z</time>
</trkpt>
<trkpt lat="39.497553" lon="-8.468817">
<time>2021-10-05T14:27:31Z</time>
</trkpt>
<trkpt lat="39.497435" lon="-8.46881">
<time>2021-10-05T14:27:32Z</time>
</trkpt>
<trkpt lat="39.497316" lon="-8.468814">
<time>2021-10-05T14:27:33Z</time>
</trkpt>
<trkpt lat="39.497195" lon="-8.46883">
<time>2021-10-05T14:27:34Z</time>
</trkpt>
<trkpt lat="39.497068" lon="-8.46886">
<time>2021-10-05T14:27:35Z</time>
</trkpt>
<trkpt lat="39.496941" lon="-8.468899">
<time>2021-10-05T14:27:36Z</time>
</trkpt>
<trkpt lat="39.496813" lon="-8.468939">
<time>2021-10-05T14:27:37Z</time>
</trkpt>
<trkpt lat="39.496683" lon="-8.46898">
<time>2021-10-05T14:27:38Z</time>
</trkpt>
<trkpt lat="39.496555" lon="-8.46902">
<time>2021-10-05T14:27:39Z</time>
</trkpt>
<trkpt lat="39.496423" lon="-8.469045">
<time>2021-10-05T14:27:40Z</time>
</trkpt>
<trkpt lat="39.496291" lon="-8.469055">
<time>2021-10-05T14:27:41Z</time>
</trkpt>
<trkpt lat="39.496163" lon="-8.469047">
<time>2021-10-05T14:27:42Z</time>
</trkpt>
<trkpt lat="39.49604" lon="-8.46903">
<time>2021-10-05T14:27:43Z</time>
</trkpt>
<trkpt lat="39.495918" lon="-8.469009">
<time>2021-10-05T14:27:44Z</time>
</trkpt>
<trkpt lat="39.495801" lon="-8.468985">
<time>2021-10-05T14:27:45Z</time>
</trkpt>
<trkpt lat="39.49569" lon="-8.468969">
<time>2021-10-05T14:27:46Z</time>
</trkpt>
<trkpt lat="39.495591" lon="-8.468954">
<time>2021-10-05T14:27:47Z</time>
</trkpt>
<trkpt lat="39.495503" lon="-8.468952">
<time>2021-10-05T14:27:48Z</time>
</trkpt>
<trkpt lat="39.49542" lon="-8.468967">
<time>2021-10-05T14:27:49Z</time>
</trkpt>
<trkpt lat="39.495346" lon="-8.468999">
<time>2021-10-05T14:27:50Z</time>
</trkpt>
<trkpt lat="39.495276" lon="-8.469042">
<time>2021-10-05T14:27:51Z</time>
</trkpt>
<trkpt lat="39.495206" lon="-8.469092">
<time>2021-10-05T14:27:52Z</time>
</trkpt>
<trkpt lat="39.495136" lon="-8.469147">
<time>2021-10-05T14:27:53Z</time>
</trkpt>
<trkpt lat="39.495061" lon="-8.469195">
<time>2021-10-05T14:27:54Z</time>
</trkpt>
<trkpt lat="39.494978" lon="-8.469234">
<time>2021-10-05T14:27:55Z</time>
</trkpt>
<trkpt lat="39.49489" lon="-8.469262">
<time>2021-10-05T14:27:56Z</time>
</trkpt>
<trkpt lat="39.494798" lon="-8.469282">
<time>2021-10-05T14:27:57Z</time>
</trkpt>
<trkpt lat="39.494701" lon="-8.469299">
<time>2021-10-05T14:27:58Z</time>
</trkpt>
<trkpt lat="39.494605" lon="-8.469317">
<time>2021-10-05T14:27:59Z</time>
</trkpt>
<trkpt lat="39.494501" lon="-8.469334">
<time>2021-10-05T14:28:00Z</time>
</trkpt>
<trkpt lat="39.494398" lon="-8.469354">
<time>2021-10-05T14:28:01Z</time>
</trkpt>
<trkpt lat="39.494296" lon="-8.469385">
<time>2021-10-05T14:28:02Z</time>
</trkpt>
<trkpt lat="39.4942" lon="-8.469432">
<time>2021-10-05T14:28:03Z</time>
</trkpt>
<trkpt lat="39.49411" lon="-8.469497">
<time>2021-10-05T14:28:04Z</time>
</trkpt>
<trkpt lat="39.49403" lon="-8.46958">
<time>2021-10-05T14:28:05Z</time>
</trkpt>
<trkpt lat="39.493955" lon="-8.469672">
<time>2021-10-05T14:28:06Z</time>
</trkpt>
<trkpt lat="39.493885" lon="-8.469769">
<time>2021-10-05T14:28:07Z</time>
</trkpt>
<trkpt lat="39.493825" lon="-8.469869">
<time>2021-10-05T14:28:08Z</time>
</trkpt>
<trkpt lat="39.493775" lon="-8.469969">
<time>2021-10-05T14:28:09Z</time>
</trkpt>
<trkpt lat="39.493726" lon="-8.47006">
<time>2021-10-05T14:28:10Z</time>
</trkpt>
<trkpt lat="39.493673" lon="-8.470135">
<time>2021-10-05T14:28:11Z</time>
</trkpt>
<trkpt lat="39.493615" lon="-8.470182">
<time>2021-10-05T14:28:12Z</time>
</trkpt>
<trkpt lat="39.493553" lon="-8.470199">
<time>2021-10-05T14:28:13Z</time>
</trkpt>
<trkpt lat="39.493495" lon="-8.47018">
<time>2021-10-05T14:28:14Z</time>
</trkpt>
<trkpt lat="39.493441" lon="-8.470132">
<time>2021-10-05T14:28:15Z</time>
</trkpt>
<trkpt lat="39.493413" lon="-8.470049">
<time>2021-10-05T14:28:16Z</time>
</trkpt>
<trkpt lat="39.493371" lon="-8.469939">
<time>2021-10-05T14:28:17Z</time>
</trkpt>
<trkpt lat="39.493336" lon="-8.469842">
<time>2021-10-05T14:28:18Z</time>
</trkpt>
<trkpt lat="39.493303" lon="-8.469744">
<time>2021-10-05T14:28:19Z</time>
</trkpt>
<trkpt lat="39.493271" lon="-8.469644">
<time>2021-10-05T14:28:20Z</time>
</trkpt>
<trkpt lat="39.493238" lon="-8.469549">
<time>2021-10-05T14:28:21Z</time>
</trkpt>
<trkpt lat="39.493201" lon="-8.469459">
<time>2021-10-05T14:28:22Z</time>
</trkpt>
<trkpt lat="39.49316" lon="-8.469377">
<time>2021-10-05T14:28:23Z</time>
</trkpt>
<trkpt lat="39.493118" lon="-8.469295">
<time>2021-10-05T14:28:24Z</time>
</trkpt>
<trkpt lat="39.49309" lon="-8.469215">
<time>2021-10-05T14:28:25Z</time>
</trkpt>
<trkpt lat="39.493073" lon="-8.469139">
<time>2021-10-05T14:28:26Z</time>
</trkpt>
<trkpt lat="39.493065" lon="-8.469079">
<time>2021-10-05T14:28:27Z</time>
</trkpt>
<trkpt lat="39.493065" lon="-8.469044">
<time>2021-10-05T14:28:28Z</time>
</trkpt>
<trkpt lat="39.49306" lon="-8.46903">
<time>2021-10-05T14:28:29Z</time>
</trkpt>
<trkpt lat="39.493056" lon="-8.46903">
<time>2021-10-05T14:28:30Z</time>
</trkpt>
<trkpt lat="39.493056" lon="-8.469044">
<time>2021-10-05T14:28:31Z</time>
</trkpt>
<trkpt lat="39.493055" lon="-8.46907">
<time>2021-10-05T14:28:32Z</time>
</trkpt>
<trkpt lat="39.49305" lon="-8.46911">
<time>2021-10-05T14:28:33Z</time>
</trkpt>
<trkpt lat="39.493033" lon="-8.469135">
<time>2021-10-05T14:28:34Z</time>
</trkpt>
<trkpt lat="39.493013" lon="-8.469142">
<time>2021-10-05T14:28:35Z</time>
</trkpt>
<trkpt lat="39.492985" lon="-8.469132">
<time>2021-10-05T14:28:36Z</time>
</trkpt>
<trkpt lat="39.49295" lon="-8.469119">
<time>2021-10-05T14:28:37Z</time>
</trkpt>
<trkpt lat="39.492913" lon="-8.469102">
<time>2021-10-05T14:28:38Z</time>
</trkpt>
<trkpt lat="39.492873" lon="-8.469077">
<time>2021-10-05T14:28:39Z</time>
</trkpt>
<trkpt lat="39.49283" lon="-8.469054">
<time>2021-10-05T14:28:40Z</time>
</trkpt>
<trkpt lat="39.492788" lon="-8.46903">
<time>2021-10-05T14:28:41Z</time>
</trkpt>
<trkpt lat="39.492751" lon="-8.469005">
<time>2021-10-05T14:28:42Z</time>
</trkpt>
<trkpt lat="39.49272" lon="-8.468975">
<time>2021-10-05T14:28:43Z</time>
</trkpt>
<trkpt lat="39.492705" lon="-8.468939">
<time>2021-10-05T14:28:44Z</time>
</trkpt>
<trkpt lat="39.492705" lon="-8.468899">
<time>2021-10-05T14:28:45Z</time>
</trkpt>
<trkpt lat="39.492713" lon="-8.468862">
<time>2021-10-05T14:28:46Z</time>
</trkpt>
<trkpt lat="39.49273" lon="-8.468822">
<time>2021-10-05T14:28:47Z</time>
</trkpt>
<trkpt lat="39.492743" lon="-8.468789">
<time>2021-10-05T14:28:48Z</time>
</trkpt>
<trkpt lat="39.492758" lon="-8.468744">
<time>2021-10-05T14:28:49Z</time>
</trkpt>
<trkpt lat="39.492773" lon="-8.468689">
<time>2021-10-05T14:28:50Z</time>
</trkpt>
<trkpt lat="39.492785" lon="-8.468644">
<time>2021-10-05T14:28:51Z</time>
</trkpt>
<trkpt lat="39.492796" lon="-8.468597">
<time>2021-10-05T14:28:52Z</time>
</trkpt>
<trkpt lat="39.492806" lon="-8.468552">
<time>2021-10-05T14:28:53Z</time>
</trkpt>
<trkpt lat="39.492815" lon="-8.468515">
<time>2021-10-05T14:28:54Z</time>
</trkpt>
<trkpt lat="39.492825" lon="-8.468455">
<time>2021-10-05T14:28:55Z</time>
</trkpt>
<trkpt lat="39.492836" lon="-8.468402">
<time>2021-10-05T14:28:56Z</time>
</trkpt>
<trkpt lat="39.492846" lon="-8.468347">
<time>2021-10-05T14:28:57Z</time>
</trkpt>
<trkpt lat="39.49286" lon="-8.468289">
<time>2021-10-05T14:28:58Z</time>
</trkpt>
<trkpt lat="39.492871" lon="-8.46823">
<time>2021-10-05T14:28:59Z</time>
</trkpt>
<trkpt lat="39.492883" lon="-8.468177">
<time>2021-10-05T14:29:00Z</time>
</trkpt>
<trkpt lat="39.492895" lon="-8.468122">
<time>2021-10-05T14:29:01Z</time>
</trkpt>
<trkpt lat="39.492906" lon="-8.46807">
<time>2021-10-05T14:29:02Z</time>
</trkpt>
<trkpt lat="39.492918" lon="-8.46802">
<time>2021-10-05T14:29:03Z</time>
</trkpt>
<trkpt lat="39.492931" lon="-8.467969">
<time>2021-10-05T14:29:04Z</time>
</trkpt>
<trkpt lat="39.492941" lon="-8.46792">
<time>2021-10-05T14:29:05Z</time>
</trkpt>
<trkpt lat="39.49295" lon="-8.467872">
<time>2021-10-05T14:29:06Z</time>
</trkpt>
<trkpt lat="39.492956" lon="-8.467835">
<time>2021-10-05T14:29:07Z</time>
</trkpt>
<trkpt lat="39.492963" lon="-8.467782">
<time>2021-10-05T14:29:08Z</time>
</trkpt>
<trkpt lat="39.49297" lon="-8.467739">
<time>2021-10-05T14:29:09Z</time>
</trkpt>
<trkpt lat="39.492975" lon="-8.467697">
<time>2021-10-05T14:29:10Z</time>
</trkpt>
<trkpt lat="39.492981" lon="-8.467654">
<time>2021-10-05T14:29:11Z</time>
</trkpt>
<trkpt lat="39.49299" lon="-8.467612">
<time>2021-10-05T14:29:12Z</time>
</trkpt>
<trkpt lat="39.493001" lon="-8.467567">
<time>2021-10-05T14:29:13Z</time>
</trkpt>
<trkpt lat="39.493015" lon="-8.467522">
<time>2021-10-05T14:29:14Z</time>
</trkpt>
<trkpt lat="39.493031" lon="-8.467472">
<time>2021-10-05T14:29:15Z</time>
</trkpt>
<trkpt lat="39.493045" lon="-8.467417">
<time>2021-10-05T14:29:16Z</time>
</trkpt>
<trkpt lat="39.493056" lon="-8.467369">
<time>2021-10-05T14:29:17Z</time>
</trkpt>
<trkpt lat="39.493073" lon="-8.467295">
<time>2021-10-05T14:29:18Z</time>
</trkpt>
<trkpt lat="39.493088" lon="-8.467229">
<time>2021-10-05T14:29:19Z</time>
</trkpt>
<trkpt lat="39.493103" lon="-8.467159">
<time>2021-10-05T14:29:20Z</time>
</trkpt>
<trkpt lat="39.493115" lon="-8.467099">
<time>2021-10-05T14:29:21Z</time>
</trkpt>
<trkpt lat="39.493135" lon="-8.467007">
<time>2021-10-05T14:29:22Z</time>
</trkpt>
<trkpt lat="39.493153" lon="-8.466924">
<time>2021-10-05T14:29:23Z</time>
</trkpt>
<trkpt lat="39.493171" lon="-8.466832">
<time>2021-10-05T14:29:24Z</time>
</trkpt>
<trkpt lat="39.493191" lon="-8.466735">
<time>2021-10-05T14:29:25Z</time>
</trkpt>
<trkpt lat="39.493211" lon="-8.466635">
<time>2021-10-05T14:29:26Z</time>
</trkpt>
<trkpt lat="39.49323" lon="-8.466535">
<time>2021-10-05T14:29:27Z</time>
</trkpt>
<trkpt lat="39.493248" lon="-8.466439">
<time>2021-10-05T14:29:28Z</time>
</trkpt>
<trkpt lat="39.493265" lon="-8.466345">
<time>2021-10-05T14:29:29Z</time>
</trkpt>
<trkpt lat="39.493278" lon="-8.466259">
<time>2021-10-05T14:29:30Z</time>
</trkpt>
<trkpt lat="39.493288" lon="-8.466182">
<time>2021-10-05T14:29:31Z</time>
</trkpt>
<trkpt lat="39.493293" lon="-8.466125">
<time>2021-10-05T14:29:32Z</time>
</trkpt>
<trkpt lat="39.493303" lon="-8.466052">
<time>2021-10-05T14:29:33Z</time>
</trkpt>
<trkpt lat="39.493308" lon="-8.465994">
<time>2021-10-05T14:29:34Z</time>
</trkpt>
<trkpt lat="39.493311" lon="-8.465935">
<time>2021-10-05T14:29:35Z</time>
</trkpt>
<trkpt lat="39.493311" lon="-8.465875">
<time>2021-10-05T14:29:36Z</time>
</trkpt>
<trkpt lat="39.493301" lon="-8.46581">
<time>2021-10-05T14:29:37Z</time>
</trkpt>
<trkpt lat="39.493286" lon="-8.465745">
<time>2021-10-05T14:29:38Z</time>
</trkpt>
<trkpt lat="39.493268" lon="-8.46568">
<time>2021-10-05T14:29:39Z</time>
</trkpt>
<trkpt lat="39.493248" lon="-8.465614">
<time>2021-10-05T14:29:40Z</time>
</trkpt>
<trkpt lat="39.493231" lon="-8.465542">
<time>2021-10-05T14:29:41Z</time>
</trkpt>
<trkpt lat="39.493215" lon="-8.465467">
<time>2021-10-05T14:29:42Z</time>
</trkpt>
<trkpt lat="39.493203" lon="-8.46539">
<time>2021-10-05T14:29:43Z</time>
</trkpt>
<trkpt lat="39.4932" lon="-8.465314">
<time>2021-10-05T14:29:44Z</time>
</trkpt>
<trkpt lat="39.493198" lon="-8.465239">
<time>2021-10-05T14:29:45Z</time>
</trkpt>
<trkpt lat="39.493195" lon="-8.465162">
<time>2021-10-05T14:29:46Z</time>
</trkpt>
<trkpt lat="39.493186" lon="-8.465089">
<time>2021-10-05T14:29:47Z</time>
</trkpt>
<trkpt lat="39.493166" lon="-8.465019">
<time>2021-10-05T14:29:48Z</time>
</trkpt>
<trkpt lat="39.493135" lon="-8.464957">
<time>2021-10-05T14:29:49Z</time>
</trkpt>
<trkpt lat="39.493095" lon="-8.464907">
<time>2021-10-05T14:29:50Z</time>
</trkpt>
<trkpt lat="39.493051" lon="-8.464862">
<time>2021-10-05T14:29:51Z</time>
</trkpt>
<trkpt lat="39.493003" lon="-8.464825">
<time>2021-10-05T14:29:52Z</time>
</trkpt>
<trkpt lat="39.492955" lon="-8.464792">
<time>2021-10-05T14:29:53Z</time>
</trkpt>
<trkpt lat="39.492906" lon="-8.46476">
<time>2021-10-05T14:29:54Z</time>
</trkpt>
<trkpt lat="39.492856" lon="-8.46473">
<time>2021-10-05T14:29:55Z</time>
</trkpt>
<trkpt lat="39.492803" lon="-8.464702">
<time>2021-10-05T14:29:56Z</time>
</trkpt>
<trkpt lat="39.492748" lon="-8.46467">
<time>2021-10-05T14:29:57Z</time>
</trkpt>
<trkpt lat="39.492693" lon="-8.464644">
<time>2021-10-05T14:29:58Z</time>
</trkpt>
<trkpt lat="39.492636" lon="-8.464615">
<time>2021-10-05T14:29:59Z</time>
</trkpt>
<trkpt lat="39.49258" lon="-8.464587">
<time>2021-10-05T14:30:00Z</time>
</trkpt>
<trkpt lat="39.492521" lon="-8.464557">
<time>2021-10-05T14:30:01Z</time>
</trkpt>
<trkpt lat="39.492465" lon="-8.464522">
<time>2021-10-05T14:30:02Z</time>
</trkpt>
<trkpt lat="39.492406" lon="-8.464487">
<time>2021-10-05T14:30:03Z</time>
</trkpt>
<trkpt lat="39.492351" lon="-8.464452">
<time>2021-10-05T14:30:04Z</time>
</trkpt>
<trkpt lat="39.492298" lon="-8.464415">
<time>2021-10-05T14:30:05Z</time>
</trkpt>
<trkpt lat="39.492245" lon="-8.464382">
<time>2021-10-05T14:30:06Z</time>
</trkpt>
<trkpt lat="39.49219" lon="-8.464354">
<time>2021-10-05T14:30:07Z</time>
</trkpt>
<trkpt lat="39.492135" lon="-8.464324">
<time>2021-10-05T14:30:08Z</time>
</trkpt>
<trkpt lat="39.492081" lon="-8.464294">
<time>2021-10-05T14:30:09Z</time>
</trkpt>
<trkpt lat="39.49203" lon="-8.464265">
<time>2021-10-05T14:30:10Z</time>
</trkpt>
<trkpt lat="39.49198" lon="-8.464237">
<time>2021-10-05T14:30:11Z</time>
</trkpt>
<trkpt lat="39.491931" lon="-8.464212">
<time>2021-10-05T14:30:12Z</time>
</trkpt>
<trkpt lat="39.491888" lon="-8.464195">
<time>2021-10-05T14:30:13Z</time>
</trkpt>
<trkpt lat="39.491846" lon="-8.464189">
<time>2021-10-05T14:30:14Z</time>
</trkpt>
<trkpt lat="39.49181" lon="-8.464182">
<time>2021-10-05T14:30:15Z</time>
</trkpt>
<trkpt lat="39.49178" lon="-8.464177">
<time>2021-10-05T14:30:16Z</time>
</trkpt>
<trkpt lat="39.491758" lon="-8.464174">
<time>2021-10-05T14:30:17Z</time>
</trkpt>
<trkpt lat="39.491746" lon="-8.464167">
<time>2021-10-05T14:30:18Z</time>
</trkpt>
<trkpt lat="39.491748" lon="-8.46416">
<time>2021-10-05T14:30:19Z</time>
</trkpt>
<trkpt lat="39.491758" lon="-8.46416">
<time>2021-10-05T14:30:20Z</time>
</trkpt>
<trkpt lat="39.49177" lon="-8.464164">
<time>2021-10-05T14:30:21Z</time>
</trkpt>
<trkpt lat="39.491785" lon="-8.464172">
<time>2021-10-05T14:30:22Z</time>
</trkpt>
<trkpt lat="39.491803" lon="-8.464182">
<time>2021-10-05T14:30:23Z</time>
</trkpt>
<trkpt lat="39.491818" lon="-8.464184">
<time>2021-10-05T14:30:24Z</time>
</trkpt>
<trkpt lat="39.491835" lon="-8.464179">
<time>2021-10-05T14:30:25Z</time>
</trkpt>
<trkpt lat="39.491851" lon="-8.464162">
<time>2021-10-05T14:30:26Z</time>
</trkpt>
<trkpt lat="39.491868" lon="-8.464135">
<time>2021-10-05T14:30:27Z</time>
</trkpt>
<trkpt lat="39.491885" lon="-8.464097">
<time>2021-10-05T14:30:28Z</time>
</trkpt>
<trkpt lat="39.4919" lon="-8.464054">
<time>2021-10-05T14:30:29Z</time>
</trkpt>
<trkpt lat="39.491916" lon="-8.464007">
<time>2021-10-05T14:30:30Z</time>
</trkpt>
<trkpt lat="39.491931" lon="-8.463957">
<time>2021-10-05T14:30:31Z</time>
</trkpt>
<trkpt lat="39.49195" lon="-8.463905">
<time>2021-10-05T14:30:32Z</time>
</trkpt>
<trkpt lat="39.491968" lon="-8.463854">
<time>2021-10-05T14:30:33Z</time>
</trkpt>
<trkpt lat="39.49199" lon="-8.463799">
<time>2021-10-05T14:30:34Z</time>
</trkpt>
<trkpt lat="39.49201" lon="-8.463742">
<time>2021-10-05T14:30:35Z</time>
</trkpt>
<trkpt lat="39.492031" lon="-8.463684">
<time>2021-10-05T14:30:36Z</time>
</trkpt>
<trkpt lat="39.492055" lon="-8.463624">
<time>2021-10-05T14:30:37Z</time>
</trkpt>
<trkpt lat="39.492073" lon="-8.463572">
<time>2021-10-05T14:30:38Z</time>
</trkpt>
<trkpt lat="39.4921" lon="-8.463494">
<time>2021-10-05T14:30:39Z</time>
</trkpt>
<trkpt lat="39.492126" lon="-8.463425">
<time>2021-10-05T14:30:40Z</time>
</trkpt>
<trkpt lat="39.492153" lon="-8.463355">
<time>2021-10-05T14:30:41Z</time>
</trkpt>
<trkpt lat="39.492178" lon="-8.463284">
<time>2021-10-05T14:30:42Z</time>
</trkpt>
<trkpt lat="39.492205" lon="-8.46321">
<time>2021-10-05T14:30:43Z</time>
</trkpt>
<trkpt lat="39.492231" lon="-8.463137">
<time>2021-10-05T14:30:44Z</time>
</trkpt>
<trkpt lat="39.492255" lon="-8.463065">
<time>2021-10-05T14:30:45Z</time>
</trkpt>
<trkpt lat="39.492283" lon="-8.462995">
<time>2021-10-05T14:30:46Z</time>
</trkpt>
<trkpt lat="39.49231" lon="-8.462927">
<time>2021-10-05T14:30:47Z</time>
</trkpt>
<trkpt lat="39.492336" lon="-8.46286">
<time>2021-10-05T14:30:48Z</time>
</trkpt>
<trkpt lat="39.492363" lon="-8.462792">
<time>2021-10-05T14:30:49Z</time>
</trkpt>
<trkpt lat="39.49239" lon="-8.462725">
<time>2021-10-05T14:30:50Z</time>
</trkpt>
<trkpt lat="39.492413" lon="-8.462659">
<time>2021-10-05T14:30:51Z</time>
</trkpt>
<trkpt lat="39.492436" lon="-8.462592">
<time>2021-10-05T14:30:52Z</time>
</trkpt>
<trkpt lat="39.492455" lon="-8.462537">
<time>2021-10-05T14:30:53Z</time>
</trkpt>
<trkpt lat="39.492481" lon="-8.462457">
<time>2021-10-05T14:30:54Z</time>
</trkpt>
<trkpt lat="39.492503" lon="-8.462389">
<time>2021-10-05T14:30:55Z</time>
</trkpt>
<trkpt lat="39.492526" lon="-8.46232">
<time>2021-10-05T14:30:56Z</time>
</trkpt>
<trkpt lat="39.492546" lon="-8.462265">
<time>2021-10-05T14:30:57Z</time>
</trkpt>
<trkpt lat="39.492571" lon="-8.462197">
<time>2021-10-05T14:30:58Z</time>
</trkpt>
<trkpt lat="39.4926" lon="-8.462115">
<time>2021-10-05T14:30:59Z</time>
</trkpt>
<trkpt lat="39.492625" lon="-8.462049">
<time>2021-10-05T14:31:00Z</time>
</trkpt>
<trkpt lat="39.49265" lon="-8.461979">
<time>2021-10-05T14:31:01Z</time>
</trkpt>
<trkpt lat="39.492675" lon="-8.461912">
<time>2021-10-05T14:31:02Z</time>
</trkpt>
<trkpt lat="39.4927" lon="-8.46185">
<time>2021-10-05T14:31:03Z</time>
</trkpt>
<trkpt lat="39.492721" lon="-8.461787">
<time>2021-10-05T14:31:04Z</time>
</trkpt>
<trkpt lat="39.492743" lon="-8.461727">
<time>2021-10-05T14:31:05Z</time>
</trkpt>
<trkpt lat="39.492763" lon="-8.461667">
<time>2021-10-05T14:31:06Z</time>
</trkpt>
<trkpt lat="39.492783" lon="-8.461607">
<time>2021-10-05T14:31:07Z</time>
</trkpt>
<trkpt lat="39.4928" lon="-8.461549">
<time>2021-10-05T14:31:08Z</time>
</trkpt>
<trkpt lat="39.492818" lon="-8.46149">
<time>2021-10-05T14:31:09Z</time>
</trkpt>
<trkpt lat="39.492838" lon="-8.461432">
<time>2021-10-05T14:31:10Z</time>
</trkpt>
<trkpt lat="39.492861" lon="-8.461365">
<time>2021-10-05T14:31:11Z</time>
</trkpt>
<trkpt lat="39.492888" lon="-8.461292">
<time>2021-10-05T14:31:12Z</time>
</trkpt>
<trkpt lat="39.492918" lon="-8.461209">
<time>2021-10-05T14:31:13Z</time>
</trkpt>
<trkpt lat="39.49295" lon="-8.461122">
<time>2021-10-05T14:31:14Z</time>
</trkpt>
<trkpt lat="39.492981" lon="-8.461035">
<time>2021-10-05T14:31:15Z</time>
</trkpt>
<trkpt lat="39.493011" lon="-8.460947">
<time>2021-10-05T14:31:16Z</time>
</trkpt>
<trkpt lat="39.493041" lon="-8.460857">
<time>2021-10-05T14:31:17Z</time>
</trkpt>
<trkpt lat="39.493078" lon="-8.460759">
<time>2021-10-05T14:31:18Z</time>
</trkpt>
<trkpt lat="39.493116" lon="-8.460657">
<time>2021-10-05T14:31:19Z</time>
</trkpt>
<trkpt lat="39.493156" lon="-8.460555">
<time>2021-10-05T14:31:20Z</time>
</trkpt>
<trkpt lat="39.493195" lon="-8.460445">
<time>2021-10-05T14:31:21Z</time>
</trkpt>
<trkpt lat="39.493236" lon="-8.460327">
<time>2021-10-05T14:31:22Z</time>
</trkpt>
<trkpt lat="39.493281" lon="-8.4602">
<time>2021-10-05T14:31:23Z</time>
</trkpt>
<trkpt lat="39.49333" lon="-8.460065">
<time>2021-10-05T14:31:24Z</time>
</trkpt>
<trkpt lat="39.493378" lon="-8.459922">
<time>2021-10-05T14:31:25Z</time>
</trkpt>
<trkpt lat="39.493428" lon="-8.459775">
<time>2021-10-05T14:31:26Z</time>
</trkpt>
<trkpt lat="39.493468" lon="-8.459659">
<time>2021-10-05T14:31:27Z</time>
</trkpt>
<trkpt lat="39.493523" lon="-8.459492">
<time>2021-10-05T14:31:28Z</time>
</trkpt>
<trkpt lat="39.493566" lon="-8.459359">
<time>2021-10-05T14:31:29Z</time>
</trkpt>
<trkpt lat="39.493608" lon="-8.459237">
<time>2021-10-05T14:31:30Z</time>
</trkpt>
<trkpt lat="39.493651" lon="-8.459122">
<time>2021-10-05T14:31:31Z</time>
</trkpt>
<trkpt lat="39.49369" lon="-8.459014">
<time>2021-10-05T14:31:32Z</time>
</trkpt>
<trkpt lat="39.493728" lon="-8.458914">
<time>2021-10-05T14:31:33Z</time>
</trkpt>
<trkpt lat="39.493765" lon="-8.458817">
<time>2021-10-05T14:31:34Z</time>
</trkpt>
<trkpt lat="39.493796" lon="-8.458724">
<time>2021-10-05T14:31:35Z</time>
</trkpt>
<trkpt lat="39.493826" lon="-8.458637">
<time>2021-10-05T14:31:36Z</time>
</trkpt>
<trkpt lat="39.49385" lon="-8.45857">
<time>2021-10-05T14:31:37Z</time>
</trkpt>
<trkpt lat="39.493883" lon="-8.458479">
<time>2021-10-05T14:31:38Z</time>
</trkpt>
<trkpt lat="39.493911" lon="-8.458407">
<time>2021-10-05T14:31:39Z</time>
</trkpt>
<trkpt lat="39.493936" lon="-8.458339">
<time>2021-10-05T14:31:40Z</time>
</trkpt>
<trkpt lat="39.493961" lon="-8.458272">
<time>2021-10-05T14:31:41Z</time>
</trkpt>
<trkpt lat="39.493985" lon="-8.458214">
<time>2021-10-05T14:31:42Z</time>
</trkpt>
<trkpt lat="39.49401" lon="-8.458164">
<time>2021-10-05T14:31:43Z</time>
</trkpt>
<trkpt lat="39.49404" lon="-8.458134">
<time>2021-10-05T14:31:44Z</time>
</trkpt>
<trkpt lat="39.494076" lon="-8.458119">
<time>2021-10-05T14:31:45Z</time>
</trkpt>
<trkpt lat="39.494116" lon="-8.45812">
<time>2021-10-05T14:31:46Z</time>
</trkpt>
<trkpt lat="39.49416" lon="-8.45813">
<time>2021-10-05T14:31:47Z</time>
</trkpt>
<trkpt lat="39.494205" lon="-8.458145">
<time>2021-10-05T14:31:48Z</time>
</trkpt>
<trkpt lat="39.49425" lon="-8.458172">
<time>2021-10-05T14:31:49Z</time>
</trkpt>
<trkpt lat="39.494296" lon="-8.458204">
<time>2021-10-05T14:31:50Z</time>
</trkpt>
<trkpt lat="39.494343" lon="-8.458242">
<time>2021-10-05T14:31:51Z</time>
</trkpt>
<trkpt lat="39.494381" lon="-8.458275">
<time>2021-10-05T14:31:52Z</time>
</trkpt>
<trkpt lat="39.494438" lon="-8.458324">
<time>2021-10-05T14:31:53Z</time>
</trkpt>
<trkpt lat="39.494485" lon="-8.45837">
<time>2021-10-05T14:31:54Z</time>
</trkpt>
<trkpt lat="39.49453" lon="-8.458417">
<time>2021-10-05T14:31:55Z</time>
</trkpt>
<trkpt lat="39.494576" lon="-8.45846">
<time>2021-10-05T14:31:56Z</time>
</trkpt>
<trkpt lat="39.494615" lon="-8.458489">
<time>2021-10-05T14:31:57Z</time>
</trkpt>
<trkpt lat="39.494675" lon="-8.45852">
<time>2021-10-05T14:31:58Z</time>
</trkpt>
<trkpt lat="39.494726" lon="-8.458542">
<time>2021-10-05T14:31:59Z</time>
</trkpt>
<trkpt lat="39.494781" lon="-8.458562">
<time>2021-10-05T14:32:00Z</time>
</trkpt>
<trkpt lat="39.494835" lon="-8.458584">
<time>2021-10-05T14:32:01Z</time>
</trkpt>
<trkpt lat="39.494891" lon="-8.45861">
<time>2021-10-05T14:32:02Z</time>
</trkpt>
<trkpt lat="39.494945" lon="-8.458642">
<time>2021-10-05T14:32:03Z</time>
</trkpt>
<trkpt lat="39.49499" lon="-8.458687">
<time>2021-10-05T14:32:04Z</time>
</trkpt>
<trkpt lat="39.49503" lon="-8.458739">
<time>2021-10-05T14:32:05Z</time>
</trkpt>
<trkpt lat="39.495065" lon="-8.458795">
<time>2021-10-05T14:32:06Z</time>
</trkpt>
<trkpt lat="39.495095" lon="-8.45884">
<time>2021-10-05T14:32:07Z</time>
</trkpt>
<trkpt lat="39.495135" lon="-8.458885">
<time>2021-10-05T14:32:08Z</time>
</trkpt>
<trkpt lat="39.495188" lon="-8.458925">
<time>2021-10-05T14:32:09Z</time>
</trkpt>
<trkpt lat="39.495235" lon="-8.458955">
<time>2021-10-05T14:32:10Z</time>
</trkpt>
<trkpt lat="39.495278" lon="-8.45899">
<time>2021-10-05T14:32:11Z</time>
</trkpt>
<trkpt lat="39.495321" lon="-8.459024">
<time>2021-10-05T14:32:12Z</time>
</trkpt>
<trkpt lat="39.49537" lon="-8.459059">
<time>2021-10-05T14:32:13Z</time>
</trkpt>
<trkpt lat="39.495418" lon="-8.459094">
<time>2021-10-05T14:32:14Z</time>
</trkpt>
<trkpt lat="39.49547" lon="-8.459129">
<time>2021-10-05T14:32:15Z</time>
</trkpt>
<trkpt lat="39.495518" lon="-8.459165">
<time>2021-10-05T14:32:16Z</time>
</trkpt>
<trkpt lat="39.495561" lon="-8.459202">
<time>2021-10-05T14:32:17Z</time>
</trkpt>
<trkpt lat="39.495606" lon="-8.459234">
<time>2021-10-05T14:32:18Z</time>
</trkpt>
<trkpt lat="39.495653" lon="-8.459262">
<time>2021-10-05T14:32:19Z</time>
</trkpt>
<trkpt lat="39.495693" lon="-8.459287">
<time>2021-10-05T14:32:20Z</time>
</trkpt>
<trkpt lat="39.495733" lon="-8.459314">
<time>2021-10-05T14:32:21Z</time>
</trkpt>
<trkpt lat="39.495771" lon="-8.459337">
<time>2021-10-05T14:32:22Z</time>
</trkpt>
<trkpt lat="39.49581" lon="-8.459357">
<time>2021-10-05T14:32:23Z</time>
</trkpt>
<trkpt lat="39.495848" lon="-8.459374">
<time>2021-10-05T14:32:24Z</time>
</trkpt>
<trkpt lat="39.495881" lon="-8.459384">
<time>2021-10-05T14:32:25Z</time>
</trkpt>
<trkpt lat="39.495913" lon="-8.459392">
<time>2021-10-05T14:32:26Z</time>
</trkpt>
<trkpt lat="39.495938" lon="-8.459395">
<time>2021-10-05T14:32:27Z</time>
</trkpt>
<trkpt lat="39.495971" lon="-8.459397">
<time>2021-10-05T14:32:28Z</time>
</trkpt>
<trkpt lat="39.495996" lon="-8.459394">
<time>2021-10-05T14:32:29Z</time>
</trkpt>
<trkpt lat="39.496023" lon="-8.459387">
<time>2021-10-05T14:32:30Z</time>
</trkpt>
<trkpt lat="39.496051" lon="-8.459382">
<time>2021-10-05T14:32:31Z</time>
</trkpt>
<trkpt lat="39.496081" lon="-8.45938">
<time>2021-10-05T14:32:32Z</time>
</trkpt>
<trkpt lat="39.49611" lon="-8.45938">
<time>2021-10-05T14:32:33Z</time>
</trkpt>
<trkpt lat="39.496138" lon="-8.459382">
<time>2021-10-05T14:32:34Z</time>
</trkpt>
<trkpt lat="39.49617" lon="-8.459389">
<time>2021-10-05T14:32:35Z</time>
</trkpt>
<trkpt lat="39.4962" lon="-8.459397">
<time>2021-10-05T14:32:36Z</time>
</trkpt>
<trkpt lat="39.496231" lon="-8.459409">
<time>2021-10-05T14:32:37Z</time>
</trkpt>
<trkpt lat="39.496268" lon="-8.459422">
<time>2021-10-05T14:32:38Z</time>
</trkpt>
<trkpt lat="39.496305" lon="-8.459432">
<time>2021-10-05T14:32:39Z</time>
</trkpt>
<trkpt lat="39.496345" lon="-8.459434">
<time>2021-10-05T14:32:40Z</time>
</trkpt>
<trkpt lat="39.496376" lon="-8.459429">
<time>2021-10-05T14:32:41Z</time>
</trkpt>
<trkpt lat="39.496421" lon="-8.459419">
<time>2021-10-05T14:32:42Z</time>
</trkpt>
<trkpt lat="39.496463" lon="-8.459414">
<time>2021-10-05T14:32:43Z</time>
</trkpt>
<trkpt lat="39.496501" lon="-8.459407">
<time>2021-10-05T14:32:44Z</time>
</trkpt>
<trkpt lat="39.496541" lon="-8.459402">
<time>2021-10-05T14:32:45Z</time>
</trkpt>
<trkpt lat="39.496573" lon="-8.459402">
<time>2021-10-05T14:32:46Z</time>
</trkpt>
<trkpt lat="39.49661" lon="-8.45941">
<time>2021-10-05T14:32:47Z</time>
</trkpt>
<trkpt lat="39.496653" lon="-8.459424">
<time>2021-10-05T14:32:48Z</time>
</trkpt>
<trkpt lat="39.49669" lon="-8.459435">
<time>2021-10-05T14:32:49Z</time>
</trkpt>
<trkpt lat="39.496728" lon="-8.459445">
<time>2021-10-05T14:32:50Z</time>
</trkpt>
<trkpt lat="39.496768" lon="-8.45945">
<time>2021-10-05T14:32:51Z</time>
</trkpt>
<trkpt lat="39.496801" lon="-8.459457">
<time>2021-10-05T14:32:52Z</time>
</trkpt>
<trkpt lat="39.496846" lon="-8.459467">
<time>2021-10-05T14:32:53Z</time>
</trkpt>
<trkpt lat="39.496885" lon="-8.459472">
<time>2021-10-05T14:32:54Z</time>
</trkpt>
<trkpt lat="39.496921" lon="-8.459479">
<time>2021-10-05T14:32:55Z</time>
</trkpt>
<trkpt lat="39.496956" lon="-8.45949">
<time>2021-10-05T14:32:56Z</time>
</trkpt>
<trkpt lat="39.496983" lon="-8.4595">
<time>2021-10-05T14:32:57Z</time>
</trkpt>
<trkpt lat="39.497016" lon="-8.459517">
<time>2021-10-05T14:32:58Z</time>
</trkpt>
<trkpt lat="39.497055" lon="-8.459535">
<time>2021-10-05T14:32:59Z</time>
</trkpt>
<trkpt lat="39.497086" lon="-8.459552">
<time>2021-10-05T14:33:00Z</time>
</trkpt>
<trkpt lat="39.497116" lon="-8.45957">
<time>2021-10-05T14:33:01Z</time>
</trkpt>
<trkpt lat="39.49714" lon="-8.459587">
<time>2021-10-05T14:33:02Z</time>
</trkpt>
<trkpt lat="39.497166" lon="-8.459612">
<time>2021-10-05T14:33:03Z</time>
</trkpt>
<trkpt lat="39.497198" lon="-8.459644">
<time>2021-10-05T14:33:04Z</time>
</trkpt>
<trkpt lat="39.497225" lon="-8.459672">
<time>2021-10-05T14:33:05Z</time>
</trkpt>
<trkpt lat="39.497251" lon="-8.459697">
<time>2021-10-05T14:33:06Z</time>
</trkpt>
<trkpt lat="39.49728" lon="-8.459719">
<time>2021-10-05T14:33:07Z</time>
</trkpt>
<trkpt lat="39.497306" lon="-8.45974">
<time>2021-10-05T14:33:08Z</time>
</trkpt>
<trkpt lat="39.497335" lon="-8.459762">
<time>2021-10-05T14:33:09Z</time>
</trkpt>
<trkpt lat="39.497361" lon="-8.459782">
<time>2021-10-05T14:33:10Z</time>
</trkpt>
<trkpt lat="39.497381" lon="-8.4598">
<time>2021-10-05T14:33:11Z</time>
</trkpt>
<trkpt lat="39.497398" lon="-8.459822">
<time>2021-10-05T14:33:12Z</time>
</trkpt>
<trkpt lat="39.497413" lon="-8.459849">
<time>2021-10-05T14:33:13Z</time>
</trkpt>
<trkpt lat="39.497423" lon="-8.45988">
<time>2021-10-05T14:33:14Z</time>
</trkpt>
<trkpt lat="39.497433" lon="-8.459914">
<time>2021-10-05T14:33:15Z</time>
</trkpt>
<trkpt lat="39.497443" lon="-8.459952">
<time>2021-10-05T14:33:16Z</time>
</trkpt>
<trkpt lat="39.497455" lon="-8.459994">
<time>2021-10-05T14:33:17Z</time>
</trkpt>
<trkpt lat="39.497466" lon="-8.460037">
<time>2021-10-05T14:33:18Z</time>
</trkpt>
<trkpt lat="39.49748" lon="-8.460084">
<time>2021-10-05T14:33:19Z</time>
</trkpt>
<trkpt lat="39.497495" lon="-8.460132">
<time>2021-10-05T14:33:20Z</time>
</trkpt>
<trkpt lat="39.497511" lon="-8.460182">
<time>2021-10-05T14:33:21Z</time>
</trkpt>
<trkpt lat="39.49753" lon="-8.460234">
<time>2021-10-05T14:33:22Z</time>
</trkpt>
<trkpt lat="39.49755" lon="-8.46029">
<time>2021-10-05T14:33:23Z</time>
</trkpt>
<trkpt lat="39.497571" lon="-8.460345">
<time>2021-10-05T14:33:24Z</time>
</trkpt>
<trkpt lat="39.497598" lon="-8.4604">
<time>2021-10-05T14:33:25Z</time>
</trkpt>
<trkpt lat="39.497628" lon="-8.460449">
<time>2021-10-05T14:33:26Z</time>
</trkpt>
<trkpt lat="39.497666" lon="-8.460489">
<time>2021-10-05T14:33:27Z</time>
</trkpt>
<trkpt lat="39.497706" lon="-8.460512">
<time>2021-10-05T14:33:28Z</time>
</trkpt>
<trkpt lat="39.497745" lon="-8.460514">
<time>2021-10-05T14:33:29Z</time>
</trkpt>
<trkpt lat="39.497778" lon="-8.460497">
<time>2021-10-05T14:33:30Z</time>
</trkpt>
<trkpt lat="39.497806" lon="-8.460469">
<time>2021-10-05T14:33:31Z</time>
</trkpt>
<trkpt lat="39.497833" lon="-8.460432">
<time>2021-10-05T14:33:32Z</time>
</trkpt>
<trkpt lat="39.497861" lon="-8.460395">
<time>2021-10-05T14:33:33Z</time>
</trkpt>
<trkpt lat="39.497893" lon="-8.460355">
<time>2021-10-05T14:33:34Z</time>
</trkpt>
<trkpt lat="39.49793" lon="-8.460325">
<time>2021-10-05T14:33:35Z</time>
</trkpt>
<trkpt lat="39.49797" lon="-8.460307">
<time>2021-10-05T14:33:36Z</time>
</trkpt>
<trkpt lat="39.498011" lon="-8.460297">
<time>2021-10-05T14:33:37Z</time>
</trkpt>
<trkpt lat="39.49805" lon="-8.460292">
<time>2021-10-05T14:33:38Z</time>
</trkpt>
<trkpt lat="39.498091" lon="-8.46029">
<time>2021-10-05T14:33:39Z</time>
</trkpt>
<trkpt lat="39.498136" lon="-8.460297">
<time>2021-10-05T14:33:40Z</time>
</trkpt>
<trkpt lat="39.498178" lon="-8.460309">
<time>2021-10-05T14:33:41Z</time>
</trkpt>
<trkpt lat="39.498225" lon="-8.460314">
<time>2021-10-05T14:33:42Z</time>
</trkpt>
<trkpt lat="39.498268" lon="-8.460319">
<time>2021-10-05T14:33:43Z</time>
</trkpt>
<trkpt lat="39.498316" lon="-8.460319">
<time>2021-10-05T14:33:44Z</time>
</trkpt>
<trkpt lat="39.498361" lon="-8.460312">
<time>2021-10-05T14:33:45Z</time>
</trkpt>
<trkpt lat="39.498403" lon="-8.460305">
<time>2021-10-05T14:33:46Z</time>
</trkpt>
<trkpt lat="39.498445" lon="-8.4603">
<time>2021-10-05T14:33:47Z</time>
</trkpt>
<trkpt lat="39.498488" lon="-8.460292">
<time>2021-10-05T14:33:48Z</time>
</trkpt>
<trkpt lat="39.49853" lon="-8.460287">
<time>2021-10-05T14:33:49Z</time>
</trkpt>
<trkpt lat="39.498575" lon="-8.460282">
<time>2021-10-05T14:33:50Z</time>
</trkpt>
<trkpt lat="39.49862" lon="-8.460264">
<time>2021-10-05T14:33:51Z</time>
</trkpt>
<trkpt lat="39.498665" lon="-8.460235">
<time>2021-10-05T14:33:52Z</time>
</trkpt>
<trkpt lat="39.498705" lon="-8.460199">
<time>2021-10-05T14:33:53Z</time>
</trkpt>
<trkpt lat="39.498746" lon="-8.460164">
<time>2021-10-05T14:33:54Z</time>
</trkpt>
<trkpt lat="39.498785" lon="-8.460127">
<time>2021-10-05T14:33:55Z</time>
</trkpt>
<trkpt lat="39.498815" lon="-8.460084">
<time>2021-10-05T14:33:56Z</time>
</trkpt>
<trkpt lat="39.498836" lon="-8.460034">
<time>2021-10-05T14:33:57Z</time>
</trkpt>
<trkpt lat="39.498851" lon="-8.459977">
<time>2021-10-05T14:33:58Z</time>
</trkpt>
<trkpt lat="39.49887" lon="-8.459922">
<time>2021-10-05T14:33:59Z</time>
</trkpt>
<trkpt lat="39.498896" lon="-8.459874">
<time>2021-10-05T14:34:00Z</time>
</trkpt>
<trkpt lat="39.49893" lon="-8.459842">
<time>2021-10-05T14:34:01Z</time>
</trkpt>
<trkpt lat="39.498961" lon="-8.45983">
<time>2021-10-05T14:34:02Z</time>
</trkpt>
<trkpt lat="39.499005" lon="-8.459829">
<time>2021-10-05T14:34:03Z</time>
</trkpt>
<trkpt lat="39.49904" lon="-8.45984">
<time>2021-10-05T14:34:04Z</time>
</trkpt>
<trkpt lat="39.499073" lon="-8.459855">
<time>2021-10-05T14:34:05Z</time>
</trkpt>
<trkpt lat="39.499098" lon="-8.459874">
<time>2021-10-05T14:34:06Z</time>
</trkpt>
<trkpt lat="39.499126" lon="-8.459887">
<time>2021-10-05T14:34:07Z</time>
</trkpt>
<trkpt lat="39.499148" lon="-8.459894">
<time>2021-10-05T14:34:08Z</time>
</trkpt>
<trkpt lat="39.499168" lon="-8.459892">
<time>2021-10-05T14:34:09Z</time>
</trkpt>
<trkpt lat="39.499193" lon="-8.459889">
<time>2021-10-05T14:34:10Z</time>
</trkpt>
<trkpt lat="39.499225" lon="-8.459882">
<time>2021-10-05T14:34:11Z</time>
</trkpt>
<trkpt lat="39.499263" lon="-8.459874">
<time>2021-10-05T14:34:12Z</time>
</trkpt>
<trkpt lat="39.499305" lon="-8.459859">
<time>2021-10-05T14:34:13Z</time>
</trkpt>
<trkpt lat="39.499343" lon="-8.459844">
<time>2021-10-05T14:34:14Z</time>
</trkpt>
<trkpt lat="39.499366" lon="-8.459829">
<time>2021-10-05T14:34:15Z</time>
</trkpt>
<trkpt lat="39.499385" lon="-8.459815">
<time>2021-10-05T14:34:16Z</time>
</trkpt>
<trkpt lat="39.49939" lon="-8.459812">
<time>2021-10-05T14:34:17Z</time>
</trkpt>
<trkpt lat="39.499393" lon="-8.45981">
<time>2021-10-05T14:34:18Z</time>
</trkpt>
<trkpt lat="39.499395" lon="-8.459812">
<time>2021-10-05T14:34:19Z</time>
</trkpt>
<trkpt lat="39.499396" lon="-8.459814">
<time>2021-10-05T14:34:20Z</time>
</trkpt>
<trkpt lat="39.499395" lon="-8.459814">
<time>2021-10-05T14:34:21Z</time>
</trkpt>
<trkpt lat="39.499391" lon="-8.459812">
<time>2021-10-05T14:34:22Z</time>
</trkpt>
<trkpt lat="39.499381" lon="-8.45981">
<time>2021-10-05T14:34:23Z</time>
</trkpt>
<trkpt lat="39.499366" lon="-8.459815">
<time>2021-10-05T14:34:24Z</time>
</trkpt>
<trkpt lat="39.499351" lon="-8.459822">
<time>2021-10-05T14:34:25Z</time>
</trkpt>
<trkpt lat="39.499335" lon="-8.459832">
<time>2021-10-05T14:34:26Z</time>
</trkpt>
<trkpt lat="39.499315" lon="-8.459842">
<time>2021-10-05T14:34:27Z</time>
</trkpt>
<trkpt lat="39.499296" lon="-8.459852">
<time>2021-10-05T14:34:28Z</time>
</trkpt>
<trkpt lat="39.499276" lon="-8.45986">
<time>2021-10-05T14:34:29Z</time>
</trkpt>
<trkpt lat="39.499255" lon="-8.459865">
<time>2021-10-05T14:34:30Z</time>
</trkpt>
<trkpt lat="39.499233" lon="-8.459869">
<time>2021-10-05T14:34:31Z</time>
</trkpt>
<trkpt lat="39.499213" lon="-8.459874">
<time>2021-10-05T14:34:32Z</time>
</trkpt>
<trkpt lat="39.499195" lon="-8.459877">
<time>2021-10-05T14:34:33Z</time>
</trkpt>
<trkpt lat="39.499178" lon="-8.459882">
<time>2021-10-05T14:34:34Z</time>
</trkpt>
<trkpt lat="39.499158" lon="-8.459892">
<time>2021-10-05T14:34:35Z</time>
</trkpt>
<trkpt lat="39.499141" lon="-8.45991">
<time>2021-10-05T14:34:36Z</time>
</trkpt>
<trkpt lat="39.499128" lon="-8.459932">
<time>2021-10-05T14:34:37Z</time>
</trkpt>
<trkpt lat="39.499118" lon="-8.459962">
<time>2021-10-05T14:34:38Z</time>
</trkpt>
<trkpt lat="39.49911" lon="-8.46">
<time>2021-10-05T14:34:39Z</time>
</trkpt>
<trkpt lat="39.4991" lon="-8.460039">
<time>2021-10-05T14:34:40Z</time>
</trkpt>
<trkpt lat="39.499088" lon="-8.460079">
<time>2021-10-05T14:34:41Z</time>
</trkpt>
<trkpt lat="39.49908" lon="-8.460124">
<time>2021-10-05T14:34:42Z</time>
</trkpt>
<trkpt lat="39.499075" lon="-8.460172">
<time>2021-10-05T14:34:43Z</time>
</trkpt>
<trkpt lat="39.499078" lon="-8.460222">
<time>2021-10-05T14:34:44Z</time>
</trkpt>
<trkpt lat="39.499088" lon="-8.460262">
<time>2021-10-05T14:34:45Z</time>
</trkpt>
<trkpt lat="39.499101" lon="-8.460309">
<time>2021-10-05T14:34:46Z</time>
</trkpt>
<trkpt lat="39.499126" lon="-8.460369">
<time>2021-10-05T14:34:47Z</time>
</trkpt>
<trkpt lat="39.499158" lon="-8.460415">
<time>2021-10-05T14:34:48Z</time>
</trkpt>
<trkpt lat="39.499191" lon="-8.460457">
<time>2021-10-05T14:34:49Z</time>
</trkpt>
<trkpt lat="39.499218" lon="-8.460485">
<time>2021-10-05T14:34:50Z</time>
</trkpt>
<trkpt lat="39.499263" lon="-8.460529">
<time>2021-10-05T14:34:51Z</time>
</trkpt>
<trkpt lat="39.499303" lon="-8.460569">
<time>2021-10-05T14:34:52Z</time>
</trkpt>
<trkpt lat="39.499346" lon="-8.460609">
<time>2021-10-05T14:34:53Z</time>
</trkpt>
<trkpt lat="39.499393" lon="-8.460652">
<time>2021-10-05T14:34:54Z</time>
</trkpt>
<trkpt lat="39.499441" lon="-8.460699">
<time>2021-10-05T14:34:55Z</time>
</trkpt>
<trkpt lat="39.499481" lon="-8.460739">
<time>2021-10-05T14:34:56Z</time>
</trkpt>
<trkpt lat="39.499536" lon="-8.4608">
<time>2021-10-05T14:34:57Z</time>
</trkpt>
<trkpt lat="39.49958" lon="-8.460855">
<time>2021-10-05T14:34:58Z</time>
</trkpt>
<trkpt lat="39.499628" lon="-8.460912">
<time>2021-10-05T14:34:59Z</time>
</trkpt>
<trkpt lat="39.499676" lon="-8.460965">
<time>2021-10-05T14:35:00Z</time>
</trkpt>
<trkpt lat="39.49973" lon="-8.461017">
<time>2021-10-05T14:35:01Z</time>
</trkpt>
<trkpt lat="39.499783" lon="-8.46107">
<time>2021-10-05T14:35:02Z</time>
</trkpt>
<trkpt lat="39.499835" lon="-8.461119">
<time>2021-10-05T14:35:03Z</time>
</trkpt>
<trkpt lat="39.499891" lon="-8.461164">
<time>2021-10-05T14:35:04Z</time>
</trkpt>
<trkpt lat="39.499951" lon="-8.461199">
<time>2021-10-05T14:35:05Z</time>
</trkpt>
<trkpt lat="39.500015" lon="-8.461225">
<time>2021-10-05T14:35:06Z</time>
</trkpt>
<trkpt lat="39.50008" lon="-8.461245">
<time>2021-10-05T14:35:07Z</time>
</trkpt>
<trkpt lat="39.500141" lon="-8.461264">
<time>2021-10-05T14:35:08Z</time>
</trkpt>
<trkpt lat="39.500198" lon="-8.461282">
<time>2021-10-05T14:35:09Z</time>
</trkpt>
<trkpt lat="39.500255" lon="-8.461302">
<time>2021-10-05T14:35:10Z</time>
</trkpt>
<trkpt lat="39.50031" lon="-8.461317">
<time>2021-10-05T14:35:11Z</time>
</trkpt>
<trkpt lat="39.500365" lon="-8.461325">
<time>2021-10-05T14:35:12Z</time>
</trkpt>
<trkpt lat="39.500418" lon="-8.461327">
<time>2021-10-05T14:35:13Z</time>
</trkpt>
<trkpt lat="39.50047" lon="-8.461322">
<time>2021-10-05T14:35:14Z</time>
</trkpt>
<trkpt lat="39.500518" lon="-8.461309">
<time>2021-10-05T14:35:15Z</time>
</trkpt>
<trkpt lat="39.500568" lon="-8.461295">
<time>2021-10-05T14:35:16Z</time>
</trkpt>
<trkpt lat="39.50061" lon="-8.461285">
<time>2021-10-05T14:35:17Z</time>
</trkpt>
<trkpt lat="39.500648" lon="-8.461277">
<time>2021-10-05T14:35:18Z</time>
</trkpt>
<trkpt lat="39.500685" lon="-8.461274">
<time>2021-10-05T14:35:19Z</time>
</trkpt>
<trkpt lat="39.50072" lon="-8.461272">
<time>2021-10-05T14:35:20Z</time>
</trkpt>
<trkpt lat="39.500756" lon="-8.461269">
<time>2021-10-05T14:35:21Z</time>
</trkpt>
<trkpt lat="39.500791" lon="-8.461265">
<time>2021-10-05T14:35:22Z</time>
</trkpt>
<trkpt lat="39.50082" lon="-8.461262">
<time>2021-10-05T14:35:23Z</time>
</trkpt>
<trkpt lat="39.500863" lon="-8.461254">
<time>2021-10-05T14:35:24Z</time>
</trkpt>
<trkpt lat="39.500898" lon="-8.461242">
<time>2021-10-05T14:35:25Z</time>
</trkpt>
<trkpt lat="39.500936" lon="-8.461232">
<time>2021-10-05T14:35:26Z</time>
</trkpt>
<trkpt lat="39.500976" lon="-8.46122">
<time>2021-10-05T14:35:27Z</time>
</trkpt>
<trkpt lat="39.501023" lon="-8.461205">
<time>2021-10-05T14:35:28Z</time>
</trkpt>
<trkpt lat="39.501058" lon="-8.46119">
<time>2021-10-05T14:35:29Z</time>
</trkpt>
<trkpt lat="39.501105" lon="-8.461167">
<time>2021-10-05T14:35:30Z</time>
</trkpt>
<trkpt lat="39.501143" lon="-8.46115">
<time>2021-10-05T14:35:31Z</time>
</trkpt>
<trkpt lat="39.501185" lon="-8.461145">
<time>2021-10-05T14:35:32Z</time>
</trkpt>
<trkpt lat="39.50123" lon="-8.461147">
<time>2021-10-05T14:35:33Z</time>
</trkpt>
<trkpt lat="39.501278" lon="-8.46115">
<time>2021-10-05T14:35:34Z</time>
</trkpt>
<trkpt lat="39.501315" lon="-8.461155">
<time>2021-10-05T14:35:35Z</time>
</trkpt>
<trkpt lat="39.50135" lon="-8.461157">
<time>2021-10-05T14:35:36Z</time>
</trkpt>
<trkpt lat="39.501361" lon="-8.461155">
<time>2021-10-05T14:35:37Z</time>
</trkpt>
<trkpt lat="39.501365" lon="-8.461155">
<time>2021-10-05T14:35:38Z</time>
</trkpt>
<trkpt lat="39.501361" lon="-8.461154">
<time>2021-10-05T14:35:39Z</time>
</trkpt>
<trkpt lat="39.501355" lon="-8.46115">
<time>2021-10-05T14:35:40Z</time>
</trkpt>
<trkpt lat="39.501345" lon="-8.461149">
<time>2021-10-05T14:35:41Z</time>
</trkpt>
<trkpt lat="39.501328" lon="-8.461149">
<time>2021-10-05T14:35:42Z</time>
</trkpt>
<trkpt lat="39.501318" lon="-8.461137">
<time>2021-10-05T14:35:43Z</time>
</trkpt>
<trkpt lat="39.501311" lon="-8.461122">
<time>2021-10-05T14:35:44Z</time>
</trkpt>
<trkpt lat="39.501306" lon="-8.461094">
<time>2021-10-05T14:35:45Z</time>
</trkpt>
<trkpt lat="39.501306" lon="-8.461057">
<time>2021-10-05T14:35:46Z</time>
</trkpt>
<trkpt lat="39.501305" lon="-8.461019">
<time>2021-10-05T14:35:47Z</time>
</trkpt>
<trkpt lat="39.501303" lon="-8.460972">
<time>2021-10-05T14:35:48Z</time>
</trkpt>
<trkpt lat="39.501301" lon="-8.460912">
<time>2021-10-05T14:35:49Z</time>
</trkpt>
<trkpt lat="39.5013" lon="-8.46085">
<time>2021-10-05T14:35:50Z</time>
</trkpt>
<trkpt lat="39.501305" lon="-8.460739">
<time>2021-10-05T14:35:51Z</time>
</trkpt>
<trkpt lat="39.501316" lon="-8.460624">
<time>2021-10-05T14:35:52Z</time>
</trkpt>
<trkpt lat="39.501331" lon="-8.460504">
<time>2021-10-05T14:35:53Z</time>
</trkpt>
<trkpt lat="39.501346" lon="-8.460384">
<time>2021-10-05T14:35:54Z</time>
</trkpt>
<trkpt lat="39.501363" lon="-8.460275">
<time>2021-10-05T14:35:55Z</time>
</trkpt>
<trkpt lat="39.501383" lon="-8.460187">
<time>2021-10-05T14:35:56Z</time>
</trkpt>
<trkpt lat="39.501411" lon="-8.460122">
<time>2021-10-05T14:35:57Z</time>
</trkpt>
<trkpt lat="39.501445" lon="-8.460079">
<time>2021-10-05T14:35:58Z</time>
</trkpt>
<trkpt lat="39.501475" lon="-8.46005">
<time>2021-10-05T14:35:59Z</time>
</trkpt>
<trkpt lat="39.501513" lon="-8.460014">
<time>2021-10-05T14:36:00Z</time>
</trkpt>
<trkpt lat="39.501561" lon="-8.459969">
<time>2021-10-05T14:36:01Z</time>
</trkpt>
<trkpt lat="39.501603" lon="-8.459932">
<time>2021-10-05T14:36:02Z</time>
</trkpt>
<trkpt lat="39.501645" lon="-8.459895">
<time>2021-10-05T14:36:03Z</time>
</trkpt>
<trkpt lat="39.501678" lon="-8.459862">
<time>2021-10-05T14:36:04Z</time>
</trkpt>
<trkpt lat="39.501728" lon="-8.459809">
<time>2021-10-05T14:36:05Z</time>
</trkpt>
<trkpt lat="39.501773" lon="-8.459764">
<time>2021-10-05T14:36:06Z</time>
</trkpt>
<trkpt lat="39.501818" lon="-8.45972">
<time>2021-10-05T14:36:07Z</time>
</trkpt>
<trkpt lat="39.501855" lon="-8.459674">
<time>2021-10-05T14:36:08Z</time>
</trkpt>
<trkpt lat="39.501875" lon="-8.459635">
<time>2021-10-05T14:36:09Z</time>
</trkpt>
<trkpt lat="39.501885" lon="-8.459582">
<time>2021-10-05T14:36:10Z</time>
</trkpt>
<trkpt lat="39.501876" lon="-8.459539">
<time>2021-10-05T14:36:11Z</time>
</trkpt>
<trkpt lat="39.501858" lon="-8.459495">
<time>2021-10-05T14:36:12Z</time>
</trkpt>
<trkpt lat="39.501835" lon="-8.459457">
<time>2021-10-05T14:36:13Z</time>
</trkpt>
<trkpt lat="39.501811" lon="-8.45942">
<time>2021-10-05T14:36:14Z</time>
</trkpt>
<trkpt lat="39.501781" lon="-8.459392">
<time>2021-10-05T14:36:15Z</time>
</trkpt>
<trkpt lat="39.50176" lon="-8.459362">
<time>2021-10-05T14:36:16Z</time>
</trkpt>
<trkpt lat="39.501741" lon="-8.459335">
<time>2021-10-05T14:36:17Z</time>
</trkpt>
<trkpt lat="39.50172" lon="-8.45931">
<time>2021-10-05T14:36:18Z</time>
</trkpt>
<trkpt lat="39.501696" lon="-8.459282">
<time>2021-10-05T14:36:19Z</time>
</trkpt>
<trkpt lat="39.501676" lon="-8.45924">
<time>2021-10-05T14:36:20Z</time>
</trkpt>
<trkpt lat="39.501651" lon="-8.459179">
<time>2021-10-05T14:36:21Z</time>
</trkpt>
<trkpt lat="39.501631" lon="-8.459127">
<time>2021-10-05T14:36:22Z</time>
</trkpt>
<trkpt lat="39.501606" lon="-8.45906">
<time>2021-10-05T14:36:23Z</time>
</trkpt>
<trkpt lat="39.501578" lon="-8.458974">
<time>2021-10-05T14:36:24Z</time>
</trkpt>
<trkpt lat="39.501561" lon="-8.458892">
<time>2021-10-05T14:36:25Z</time>
</trkpt>
<trkpt lat="39.501551" lon="-8.458805">
<time>2021-10-05T14:36:26Z</time>
</trkpt>
<trkpt lat="39.501551" lon="-8.458712">
<time>2021-10-05T14:36:27Z</time>
</trkpt>
<trkpt lat="39.501556" lon="-8.458619">
<time>2021-10-05T14:36:28Z</time>
</trkpt>
<trkpt lat="39.501558" lon="-8.45852">
<time>2021-10-05T14:36:29Z</time>
</trkpt>
<trkpt lat="39.501555" lon="-8.458422">
<time>2021-10-05T14:36:30Z</time>
</trkpt>
<trkpt lat="39.501543" lon="-8.45832">
<time>2021-10-05T14:36:31Z</time>
</trkpt>
<trkpt lat="39.501521" lon="-8.45822">
<time>2021-10-05T14:36:32Z</time>
</trkpt>
<trkpt lat="39.501498" lon="-8.458145">
<time>2021-10-05T14:36:33Z</time>
</trkpt>
<trkpt lat="39.50147" lon="-8.458047">
<time>2021-10-05T14:36:34Z</time>
</trkpt>
<trkpt lat="39.501455" lon="-8.457982">
<time>2021-10-05T14:36:35Z</time>
</trkpt>
<trkpt lat="39.501446" lon="-8.457927">
<time>2021-10-05T14:36:36Z</time>
</trkpt>
<trkpt lat="39.501446" lon="-8.457884">
<time>2021-10-05T14:36:37Z</time>
</trkpt>
<trkpt lat="39.501458" lon="-8.457854">
<time>2021-10-05T14:36:38Z</time>
</trkpt>
<trkpt lat="39.501473" lon="-8.457812">
<time>2021-10-05T14:36:39Z</time>
</trkpt>
<trkpt lat="39.50149" lon="-8.457765">
<time>2021-10-05T14:36:40Z</time>
</trkpt>
<trkpt lat="39.501501" lon="-8.457735">
<time>2021-10-05T14:36:41Z</time>
</trkpt>
<trkpt lat="39.50151" lon="-8.457712">
<time>2021-10-05T14:36:42Z</time>
</trkpt>
<trkpt lat="39.501518" lon="-8.457694">
<time>2021-10-05T14:36:43Z</time>
</trkpt>
<trkpt lat="39.501528" lon="-8.457664">
<time>2021-10-05T14:36:44Z</time>
</trkpt>
<trkpt lat="39.501543" lon="-8.457644">
<time>2021-10-05T14:36:45Z</time>
</trkpt>
<trkpt lat="39.501566" lon="-8.45762">
<time>2021-10-05T14:36:46Z</time>
</trkpt>
<trkpt lat="39.501598" lon="-8.45759">
<time>2021-10-05T14:36:47Z</time>
</trkpt>
<trkpt lat="39.501626" lon="-8.45756">
<time>2021-10-05T14:36:48Z</time>
</trkpt>
<trkpt lat="39.501658" lon="-8.457535">
<time>2021-10-05T14:36:49Z</time>
</trkpt>
<trkpt lat="39.50169" lon="-8.457517">
<time>2021-10-05T14:36:50Z</time>
</trkpt>
<trkpt lat="39.501721" lon="-8.457502">
<time>2021-10-05T14:36:51Z</time>
</trkpt>
<trkpt lat="39.50176" lon="-8.457489">
<time>2021-10-05T14:36:52Z</time>
</trkpt>
<trkpt lat="39.501801" lon="-8.457472">
<time>2021-10-05T14:36:53Z</time>
</trkpt>
<trkpt lat="39.501846" lon="-8.457454">
<time>2021-10-05T14:36:54Z</time>
</trkpt>
<trkpt lat="39.50189" lon="-8.457434">
<time>2021-10-05T14:36:55Z</time>
</trkpt>
<trkpt lat="39.501931" lon="-8.457415">
<time>2021-10-05T14:36:56Z</time>
</trkpt>
<trkpt lat="39.501966" lon="-8.457399">
<time>2021-10-05T14:36:57Z</time>
</trkpt>
<trkpt lat="39.501995" lon="-8.457385">
<time>2021-10-05T14:36:58Z</time>
</trkpt>
<trkpt lat="39.502016" lon="-8.457375">
<time>2021-10-05T14:36:59Z</time>
</trkpt>
<trkpt lat="39.502033" lon="-8.457364">
<time>2021-10-05T14:37:00Z</time>
</trkpt>
<trkpt lat="39.50205" lon="-8.457354">
<time>2021-10-05T14:37:01Z</time>
</trkpt>
<trkpt lat="39.502065" lon="-8.45734">
<time>2021-10-05T14:37:02Z</time>
</trkpt>
<trkpt lat="39.502078" lon="-8.457327">
<time>2021-10-05T14:37:03Z</time>
</trkpt>
<trkpt lat="39.50209" lon="-8.457315">
<time>2021-10-05T14:37:04Z</time>
</trkpt>
<trkpt lat="39.502101" lon="-8.457305">
<time>2021-10-05T14:37:05Z</time>
</trkpt>
<trkpt lat="39.502113" lon="-8.457294">
<time>2021-10-05T14:37:06Z</time>
</trkpt>
<trkpt lat="39.502126" lon="-8.457282">
<time>2021-10-05T14:37:07Z</time>
</trkpt>
<trkpt lat="39.502138" lon="-8.457267">
<time>2021-10-05T14:37:08Z</time>
</trkpt>
<trkpt lat="39.502145" lon="-8.457255">
<time>2021-10-05T14:37:09Z</time>
</trkpt>
<trkpt lat="39.502151" lon="-8.457234">
<time>2021-10-05T14:37:10Z</time>
</trkpt>
<trkpt lat="39.502158" lon="-8.457217">
<time>2021-10-05T14:37:11Z</time>
</trkpt>
<trkpt lat="39.502165" lon="-8.457199">
<time>2021-10-05T14:37:12Z</time>
</trkpt>
<trkpt lat="39.502168" lon="-8.457177">
<time>2021-10-05T14:37:13Z</time>
</trkpt>
<trkpt lat="39.502168" lon="-8.457157">
<time>2021-10-05T14:37:14Z</time>
</trkpt>
<trkpt lat="39.502168" lon="-8.457135">
<time>2021-10-05T14:37:15Z</time>
</trkpt>
<trkpt lat="39.50217" lon="-8.457112">
<time>2021-10-05T14:37:16Z</time>
</trkpt>
<trkpt lat="39.502173" lon="-8.457089">
<time>2021-10-05T14:37:17Z</time>
</trkpt>
<trkpt lat="39.502176" lon="-8.45707">
<time>2021-10-05T14:37:18Z</time>
</trkpt>
<trkpt lat="39.502178" lon="-8.457042">
<time>2021-10-05T14:37:19Z</time>
</trkpt>
<trkpt lat="39.50218" lon="-8.45702">
<time>2021-10-05T14:37:20Z</time>
</trkpt>
<trkpt lat="39.502181" lon="-8.456997">
<time>2021-10-05T14:37:21Z</time>
</trkpt>
<trkpt lat="39.50218" lon="-8.456977">
<time>2021-10-05T14:37:22Z</time>
</trkpt>
<trkpt lat="39.502175" lon="-8.456955">
<time>2021-10-05T14:37:23Z</time>
</trkpt>
<trkpt lat="39.502168" lon="-8.456937">
<time>2021-10-05T14:37:24Z</time>
</trkpt>
<trkpt lat="39.50216" lon="-8.45692">
<time>2021-10-05T14:37:25Z</time>
</trkpt>
<trkpt lat="39.502151" lon="-8.456904">
<time>2021-10-05T14:37:26Z</time>
</trkpt>
<trkpt lat="39.502143" lon="-8.456885">
<time>2021-10-05T14:37:27Z</time>
</trkpt>
<trkpt lat="39.502136" lon="-8.456869">
<time>2021-10-05T14:37:28Z</time>
</trkpt>
<trkpt lat="39.502125" lon="-8.456847">
<time>2021-10-05T14:37:29Z</time>
</trkpt>
<trkpt lat="39.502111" lon="-8.456829">
<time>2021-10-05T14:37:30Z</time>
</trkpt>
<trkpt lat="39.502098" lon="-8.456812">
<time>2021-10-05T14:37:31Z</time>
</trkpt>
<trkpt lat="39.502085" lon="-8.456797">
<time>2021-10-05T14:37:32Z</time>
</trkpt>
<trkpt lat="39.502071" lon="-8.456782">
<time>2021-10-05T14:37:33Z</time>
</trkpt>
<trkpt lat="39.502053" lon="-8.45676">
<time>2021-10-05T14:37:34Z</time>
</trkpt>
<trkpt lat="39.50203" lon="-8.456732">
<time>2021-10-05T14:37:35Z</time>
</trkpt>
<trkpt lat="39.502011" lon="-8.456705">
<time>2021-10-05T14:37:36Z</time>
</trkpt>
<trkpt lat="39.50199" lon="-8.456677">
<time>2021-10-05T14:37:37Z</time>
</trkpt>
<trkpt lat="39.501971" lon="-8.456645">
<time>2021-10-05T14:37:38Z</time>
</trkpt>
<trkpt lat="39.501956" lon="-8.456615">
<time>2021-10-05T14:37:39Z</time>
</trkpt>
<trkpt lat="39.501935" lon="-8.456569">
<time>2021-10-05T14:37:40Z</time>
</trkpt>
<trkpt lat="39.501916" lon="-8.456525">
<time>2021-10-05T14:37:41Z</time>
</trkpt>
<trkpt lat="39.501903" lon="-8.456477">
<time>2021-10-05T14:37:42Z</time>
</trkpt>
<trkpt lat="39.5019" lon="-8.456427">
<time>2021-10-05T14:37:43Z</time>
</trkpt>
<trkpt lat="39.501905" lon="-8.456375">
<time>2021-10-05T14:37:44Z</time>
</trkpt>
<trkpt lat="39.501921" lon="-8.456334">
<time>2021-10-05T14:37:45Z</time>
</trkpt>
<trkpt lat="39.501945" lon="-8.456302">
<time>2021-10-05T14:37:46Z</time>
</trkpt>
<trkpt lat="39.501973" lon="-8.456277">
<time>2021-10-05T14:37:47Z</time>
</trkpt>
<trkpt lat="39.502005" lon="-8.456254">
<time>2021-10-05T14:37:48Z</time>
</trkpt>
<trkpt lat="39.502038" lon="-8.45623">
<time>2021-10-05T14:37:49Z</time>
</trkpt>
<trkpt lat="39.502075" lon="-8.456207">
<time>2021-10-05T14:37:50Z</time>
</trkpt>
<trkpt lat="39.502111" lon="-8.456184">
<time>2021-10-05T14:37:51Z</time>
</trkpt>
<trkpt lat="39.50215" lon="-8.456162">
<time>2021-10-05T14:37:52Z</time>
</trkpt>
<trkpt lat="39.502186" lon="-8.456147">
<time>2021-10-05T14:37:53Z</time>
</trkpt>
<trkpt lat="39.502225" lon="-8.456135">
<time>2021-10-05T14:37:54Z</time>
</trkpt>
<trkpt lat="39.502266" lon="-8.456125">
<time>2021-10-05T14:37:55Z</time>
</trkpt>
<trkpt lat="39.50231" lon="-8.456117">
<time>2021-10-05T14:37:56Z</time>
</trkpt>
<trkpt lat="39.502355" lon="-8.456114">
<time>2021-10-05T14:37:57Z</time>
</trkpt>
<trkpt lat="39.502403" lon="-8.456114">
<time>2021-10-05T14:37:58Z</time>
</trkpt>
<trkpt lat="39.50245" lon="-8.45612">
<time>2021-10-05T14:37:59Z</time>
</trkpt>
<trkpt lat="39.502498" lon="-8.456132">
<time>2021-10-05T14:38:00Z</time>
</trkpt>
<trkpt lat="39.502548" lon="-8.456147">
<time>2021-10-05T14:38:01Z</time>
</trkpt>
<trkpt lat="39.502598" lon="-8.456167">
<time>2021-10-05T14:38:02Z</time>
</trkpt>
<trkpt lat="39.502646" lon="-8.45619">
<time>2021-10-05T14:38:03Z</time>
</trkpt>
<trkpt lat="39.502695" lon="-8.456215">
<time>2021-10-05T14:38:04Z</time>
</trkpt>
<trkpt lat="39.502746" lon="-8.456242">
<time>2021-10-05T14:38:05Z</time>
</trkpt>
<trkpt lat="39.502798" lon="-8.456272">
<time>2021-10-05T14:38:06Z</time>
</trkpt>
<trkpt lat="39.502853" lon="-8.456297">
<time>2021-10-05T14:38:07Z</time>
</trkpt>
<trkpt lat="39.502908" lon="-8.456322">
<time>2021-10-05T14:38:08Z</time>
</trkpt>
<trkpt lat="39.502965" lon="-8.456349">
<time>2021-10-05T14:38:09Z</time>
</trkpt>
<trkpt lat="39.503021" lon="-8.456374">
<time>2021-10-05T14:38:10Z</time>
</trkpt>
<trkpt lat="39.50308" lon="-8.4564">
<time>2021-10-05T14:38:11Z</time>
</trkpt>
<trkpt lat="39.503138" lon="-8.456425">
<time>2021-10-05T14:38:12Z</time>
</trkpt>
<trkpt lat="39.503201" lon="-8.456445">
<time>2021-10-05T14:38:13Z</time>
</trkpt>
<trkpt lat="39.503263" lon="-8.456454">
<time>2021-10-05T14:38:14Z</time>
</trkpt>
<trkpt lat="39.503325" lon="-8.45646">
<time>2021-10-05T14:38:15Z</time>
</trkpt>
<trkpt lat="39.503385" lon="-8.456469">
<time>2021-10-05T14:38:16Z</time>
</trkpt>
<trkpt lat="39.503446" lon="-8.456477">
<time>2021-10-05T14:38:17Z</time>
</trkpt>
<trkpt lat="39.503506" lon="-8.456487">
<time>2021-10-05T14:38:18Z</time>
</trkpt>
<trkpt lat="39.503565" lon="-8.456502">
<time>2021-10-05T14:38:19Z</time>
</trkpt>
<trkpt lat="39.50362" lon="-8.456527">
<time>2021-10-05T14:38:20Z</time>
</trkpt>
<trkpt lat="39.50367" lon="-8.456562">
<time>2021-10-05T14:38:21Z</time>
</trkpt>
<trkpt lat="39.503708" lon="-8.456612">
<time>2021-10-05T14:38:22Z</time>
</trkpt>
<trkpt lat="39.503743" lon="-8.456669">
<time>2021-10-05T14:38:23Z</time>
</trkpt>
<trkpt lat="39.503775" lon="-8.456725">
<time>2021-10-05T14:38:24Z</time>
</trkpt>
<trkpt lat="39.503811" lon="-8.456777">
<time>2021-10-05T14:38:25Z</time>
</trkpt>
<trkpt lat="39.503855" lon="-8.456815">
<time>2021-10-05T14:38:26Z</time>
</trkpt>
<trkpt lat="39.5039" lon="-8.456839">
<time>2021-10-05T14:38:27Z</time>
</trkpt>
<trkpt lat="39.50395" lon="-8.456847">
<time>2021-10-05T14:38:28Z</time>
</trkpt>
<trkpt lat="39.504" lon="-8.45684">
<time>2021-10-05T14:38:29Z</time>
</trkpt>
<trkpt lat="39.504036" lon="-8.456812">
<time>2021-10-05T14:38:30Z</time>
</trkpt>
<trkpt lat="39.504058" lon="-8.45678">
<time>2021-10-05T14:38:31Z</time>
</trkpt>
<trkpt lat="39.50408" lon="-8.456735">
<time>2021-10-05T14:38:32Z</time>
</trkpt>
<trkpt lat="39.504098" lon="-8.456672">
<time>2021-10-05T14:38:33Z</time>
</trkpt>
<trkpt lat="39.504108" lon="-8.456615">
<time>2021-10-05T14:38:34Z</time>
</trkpt>
<trkpt lat="39.50412" lon="-8.456552">
<time>2021-10-05T14:38:35Z</time>
</trkpt>
<trkpt lat="39.50413" lon="-8.456487">
<time>2021-10-05T14:38:36Z</time>
</trkpt>
<trkpt lat="39.504141" lon="-8.456419">
<time>2021-10-05T14:38:37Z</time>
</trkpt>
<trkpt lat="39.504151" lon="-8.456347">
<time>2021-10-05T14:38:38Z</time>
</trkpt>
<trkpt lat="39.504165" lon="-8.456269">
<time>2021-10-05T14:38:39Z</time>
</trkpt>
<trkpt lat="39.504175" lon="-8.456185">
<time>2021-10-05T14:38:40Z</time>
</trkpt>
<trkpt lat="39.504191" lon="-8.456104">
<time>2021-10-05T14:38:41Z</time>
</trkpt>
<trkpt lat="39.504211" lon="-8.456032">
<time>2021-10-05T14:38:42Z</time>
</trkpt>
<trkpt lat="39.504236" lon="-8.455985">
<time>2021-10-05T14:38:43Z</time>
</trkpt>
<trkpt lat="39.504278" lon="-8.455934">
<time>2021-10-05T14:38:44Z</time>
</trkpt>
<trkpt lat="39.504316" lon="-8.455905">
<time>2021-10-05T14:38:45Z</time>
</trkpt>
<trkpt lat="39.504363" lon="-8.455885">
<time>2021-10-05T14:38:46Z</time>
</trkpt>
<trkpt lat="39.504405" lon="-8.455875">
<time>2021-10-05T14:38:47Z</time>
</trkpt>
<trkpt lat="39.504468" lon="-8.455859">
<time>2021-10-05T14:38:48Z</time>
</trkpt>
<trkpt lat="39.504523" lon="-8.455849">
<time>2021-10-05T14:38:49Z</time>
</trkpt>
<trkpt lat="39.504578" lon="-8.455842">
<time>2021-10-05T14:38:50Z</time>
</trkpt>
<trkpt lat="39.504636" lon="-8.45584">
<time>2021-10-05T14:38:51Z</time>
</trkpt>
<trkpt lat="39.504695" lon="-8.455844">
<time>2021-10-05T14:38:52Z</time>
</trkpt>
<trkpt lat="39.504748" lon="-8.455859">
<time>2021-10-05T14:38:53Z</time>
</trkpt>
<trkpt lat="39.504796" lon="-8.455867">
<time>2021-10-05T14:38:54Z</time>
</trkpt>
<trkpt lat="39.504845" lon="-8.455872">
<time>2021-10-05T14:38:55Z</time>
</trkpt>
<trkpt lat="39.504891" lon="-8.455869">
<time>2021-10-05T14:38:56Z</time>
</trkpt>
<trkpt lat="39.504928" lon="-8.455864">
<time>2021-10-05T14:38:57Z</time>
</trkpt>
<trkpt lat="39.50497" lon="-8.455854">
<time>2021-10-05T14:38:58Z</time>
</trkpt>
<trkpt lat="39.505011" lon="-8.455844">
<time>2021-10-05T14:38:59Z</time>
</trkpt>
<trkpt lat="39.505035" lon="-8.455837">
<time>2021-10-05T14:39:00Z</time>
</trkpt>
<trkpt lat="39.505048" lon="-8.455834">
<time>2021-10-05T14:39:01Z</time>
</trkpt>
<trkpt lat="39.505055" lon="-8.455834">
<time>2021-10-05T14:39:02Z</time>
</trkpt>
<trkpt lat="39.505058" lon="-8.455835">
<time>2021-10-05T14:39:03Z</time>
</trkpt>
<trkpt lat="39.505053" lon="-8.455834">
<time>2021-10-05T14:39:04Z</time>
</trkpt>
<trkpt lat="39.50505" lon="-8.455832">
<time>2021-10-05T14:39:05Z</time>
</trkpt>
<trkpt lat="39.505041" lon="-8.455829">
<time>2021-10-05T14:39:06Z</time>
</trkpt>
<trkpt lat="39.505028" lon="-8.455829">
<time>2021-10-05T14:39:07Z</time>
</trkpt>
<trkpt lat="39.505005" lon="-8.455835">
<time>2021-10-05T14:39:08Z</time>
</trkpt>
<trkpt lat="39.504971" lon="-8.455849">
<time>2021-10-05T14:39:09Z</time>
</trkpt>
<trkpt lat="39.504935" lon="-8.455862">
<time>2021-10-05T14:39:10Z</time>
</trkpt>
<trkpt lat="39.5049" lon="-8.455872">
<time>2021-10-05T14:39:11Z</time>
</trkpt>
<trkpt lat="39.504855" lon="-8.455875">
<time>2021-10-05T14:39:12Z</time>
</trkpt>
<trkpt lat="39.504805" lon="-8.455872">
<time>2021-10-05T14:39:13Z</time>
</trkpt>
<trkpt lat="39.50475" lon="-8.455865">
<time>2021-10-05T14:39:14Z</time>
</trkpt>
<trkpt lat="39.504681" lon="-8.455859">
<time>2021-10-05T14:39:15Z</time>
</trkpt>
<trkpt lat="39.50463" lon="-8.455859">
<time>2021-10-05T14:39:16Z</time>
</trkpt>
<trkpt lat="39.504553" lon="-8.455862">
<time>2021-10-05T14:39:17Z</time>
</trkpt>
<trkpt lat="39.504486" lon="-8.455872">
<time>2021-10-05T14:39:18Z</time>
</trkpt>
<trkpt lat="39.50442" lon="-8.455889">
<time>2021-10-05T14:39:19Z</time>
</trkpt>
<trkpt lat="39.504355" lon="-8.455909">
<time>2021-10-05T14:39:20Z</time>
</trkpt>
<trkpt lat="39.504295" lon="-8.455932">
<time>2021-10-05T14:39:21Z</time>
</trkpt>
<trkpt lat="39.50424" lon="-8.455967">
<time>2021-10-05T14:39:22Z</time>
</trkpt>
<trkpt lat="39.504195" lon="-8.456014">
<time>2021-10-05T14:39:23Z</time>
</trkpt>
<trkpt lat="39.504168" lon="-8.456072">
<time>2021-10-05T14:39:24Z</time>
</trkpt>
<trkpt lat="39.504151" lon="-8.456134">
<time>2021-10-05T14:39:25Z</time>
</trkpt>
<trkpt lat="39.504136" lon="-8.456197">
<time>2021-10-05T14:39:26Z</time>
</trkpt>
<trkpt lat="39.504123" lon="-8.45626">
<time>2021-10-05T14:39:27Z</time>
</trkpt>
<trkpt lat="39.504111" lon="-8.456309">
<time>2021-10-05T14:39:28Z</time>
</trkpt>
<trkpt lat="39.504096" lon="-8.45638">
<time>2021-10-05T14:39:29Z</time>
</trkpt>
<trkpt lat="39.504088" lon="-8.456437">
<time>2021-10-05T14:39:30Z</time>
</trkpt>
<trkpt lat="39.504083" lon="-8.456494">
<time>2021-10-05T14:39:31Z</time>
</trkpt>
<trkpt lat="39.504076" lon="-8.456537">
<time>2021-10-05T14:39:32Z</time>
</trkpt>
<trkpt lat="39.504065" lon="-8.456602">
<time>2021-10-05T14:39:33Z</time>
</trkpt>
<trkpt lat="39.504055" lon="-8.456654">
<time>2021-10-05T14:39:34Z</time>
</trkpt>
<trkpt lat="39.504043" lon="-8.456709">
<time>2021-10-05T14:39:35Z</time>
</trkpt>
<trkpt lat="39.504028" lon="-8.45675">
<time>2021-10-05T14:39:36Z</time>
</trkpt>
<trkpt lat="39.504005" lon="-8.4568">
<time>2021-10-05T14:39:37Z</time>
</trkpt>
<trkpt lat="39.50396" lon="-8.456852">
<time>2021-10-05T14:39:38Z</time>
</trkpt>
<trkpt lat="39.50391" lon="-8.456894">
<time>2021-10-05T14:39:39Z</time>
</trkpt>
<trkpt lat="39.50385" lon="-8.456929">
<time>2021-10-05T14:39:40Z</time>
</trkpt>
<trkpt lat="39.503786" lon="-8.45696">
<time>2021-10-05T14:39:41Z</time>
</trkpt>
<trkpt lat="39.503718" lon="-8.456985">
<time>2021-10-05T14:39:42Z</time>
</trkpt>
<trkpt lat="39.503651" lon="-8.45701">
<time>2021-10-05T14:39:43Z</time>
</trkpt>
<trkpt lat="39.503563" lon="-8.457037">
<time>2021-10-05T14:39:44Z</time>
</trkpt>
<trkpt lat="39.503488" lon="-8.457065">
<time>2021-10-05T14:39:45Z</time>
</trkpt>
<trkpt lat="39.503413" lon="-8.457105">
<time>2021-10-05T14:39:46Z</time>
</trkpt>
<trkpt lat="39.503366" lon="-8.457152">
<time>2021-10-05T14:39:47Z</time>
</trkpt>
<trkpt lat="39.503311" lon="-8.457224">
<time>2021-10-05T14:39:48Z</time>
</trkpt>
<trkpt lat="39.503251" lon="-8.457312">
<time>2021-10-05T14:39:49Z</time>
</trkpt>
<trkpt lat="39.503205" lon="-8.457397">
<time>2021-10-05T14:39:50Z</time>
</trkpt>
<trkpt lat="39.50316" lon="-8.457487">
<time>2021-10-05T14:39:51Z</time>
</trkpt>
<trkpt lat="39.503128" lon="-8.457562">
<time>2021-10-05T14:39:52Z</time>
</trkpt>
<trkpt lat="39.503078" lon="-8.457675">
<time>2021-10-05T14:39:53Z</time>
</trkpt>
<trkpt lat="39.50304" lon="-8.457774">
<time>2021-10-05T14:39:54Z</time>
</trkpt>
<trkpt lat="39.503006" lon="-8.457875">
<time>2021-10-05T14:39:55Z</time>
</trkpt>
<trkpt lat="39.50298" lon="-8.457984">
<time>2021-10-05T14:39:56Z</time>
</trkpt>
<trkpt lat="39.502968" lon="-8.458075">
<time>2021-10-05T14:39:57Z</time>
</trkpt>
<trkpt lat="39.50296" lon="-8.458195">
<time>2021-10-05T14:39:58Z</time>
</trkpt>
<trkpt lat="39.502955" lon="-8.458345">
<time>2021-10-05T14:39:59Z</time>
</trkpt>
<trkpt lat="39.502955" lon="-8.458472">
<time>2021-10-05T14:40:00Z</time>
</trkpt>
<trkpt lat="39.502955" lon="-8.458589">
<time>2021-10-05T14:40:01Z</time>
</trkpt>
<trkpt lat="39.502956" lon="-8.458667">
<time>2021-10-05T14:40:02Z</time>
</trkpt>
<trkpt lat="39.502955" lon="-8.458769">
<time>2021-10-05T14:40:03Z</time>
</trkpt>
<trkpt lat="39.50295" lon="-8.458829">
<time>2021-10-05T14:40:04Z</time>
</trkpt>
<trkpt lat="39.502936" lon="-8.458907">
<time>2021-10-05T14:40:05Z</time>
</trkpt>
<trkpt lat="39.502915" lon="-8.458955">
<time>2021-10-05T14:40:06Z</time>
</trkpt>
<trkpt lat="39.502883" lon="-8.458987">
<time>2021-10-05T14:40:07Z</time>
</trkpt>
<trkpt lat="39.502848" lon="-8.459005">
<time>2021-10-05T14:40:08Z</time>
</trkpt>
<trkpt lat="39.502796" lon="-8.459035">
<time>2021-10-05T14:40:09Z</time>
</trkpt>
<trkpt lat="39.50275" lon="-8.459057">
<time>2021-10-05T14:40:10Z</time>
</trkpt>
<trkpt lat="39.50271" lon="-8.459075">
<time>2021-10-05T14:40:11Z</time>
</trkpt>
<trkpt lat="39.502661" lon="-8.459097">
<time>2021-10-05T14:40:12Z</time>
</trkpt>
<trkpt lat="39.502623" lon="-8.459119">
<time>2021-10-05T14:40:13Z</time>
</trkpt>
<trkpt lat="39.502578" lon="-8.459149">
<time>2021-10-05T14:40:14Z</time>
</trkpt>
<trkpt lat="39.50255" lon="-8.459179">
<time>2021-10-05T14:40:15Z</time>
</trkpt>
<trkpt lat="39.502523" lon="-8.459209">
<time>2021-10-05T14:40:16Z</time>
</trkpt>
<trkpt lat="39.502506" lon="-8.459235">
<time>2021-10-05T14:40:17Z</time>
</trkpt>
<trkpt lat="39.502496" lon="-8.459277">
<time>2021-10-05T14:40:18Z</time>
</trkpt>
<trkpt lat="39.502493" lon="-8.459322">
<time>2021-10-05T14:40:19Z</time>
</trkpt>
<trkpt lat="39.502498" lon="-8.459377">
<time>2021-10-05T14:40:20Z</time>
</trkpt>
<trkpt lat="39.502511" lon="-8.45942">
<time>2021-10-05T14:40:21Z</time>
</trkpt>
<trkpt lat="39.502525" lon="-8.459454">
<time>2021-10-05T14:40:22Z</time>
</trkpt>
<trkpt lat="39.502543" lon="-8.459494">
<time>2021-10-05T14:40:23Z</time>
</trkpt>
<trkpt lat="39.502566" lon="-8.459537">
<time>2021-10-05T14:40:24Z</time>
</trkpt>
<trkpt lat="39.502586" lon="-8.45957">
<time>2021-10-05T14:40:25Z</time>
</trkpt>
<trkpt lat="39.502606" lon="-8.459599">
<time>2021-10-05T14:40:26Z</time>
</trkpt>
<trkpt lat="39.502621" lon="-8.459622">
<time>2021-10-05T14:40:27Z</time>
</trkpt>
<trkpt lat="39.502636" lon="-8.459652">
<time>2021-10-05T14:40:28Z</time>
</trkpt>
<trkpt lat="39.502655" lon="-8.459689">
<time>2021-10-05T14:40:29Z</time>
</trkpt>
<trkpt lat="39.502668" lon="-8.459722">
<time>2021-10-05T14:40:30Z</time>
</trkpt>
<trkpt lat="39.502683" lon="-8.459755">
<time>2021-10-05T14:40:31Z</time>
</trkpt>
<trkpt lat="39.502698" lon="-8.459782">
<time>2021-10-05T14:40:32Z</time>
</trkpt>
<trkpt lat="39.502716" lon="-8.459817">
<time>2021-10-05T14:40:33Z</time>
</trkpt>
<trkpt lat="39.502738" lon="-8.45986">
<time>2021-10-05T14:40:34Z</time>
</trkpt>
<trkpt lat="39.50275" lon="-8.459894">
<time>2021-10-05T14:40:35Z</time>
</trkpt>
<trkpt lat="39.502768" lon="-8.459937">
<time>2021-10-05T14:40:36Z</time>
</trkpt>
<trkpt lat="39.502786" lon="-8.459982">
<time>2021-10-05T14:40:37Z</time>
</trkpt>
<trkpt lat="39.50281" lon="-8.460025">
<time>2021-10-05T14:40:38Z</time>
</trkpt>
<trkpt lat="39.502833" lon="-8.460067">
<time>2021-10-05T14:40:39Z</time>
</trkpt>
<trkpt lat="39.502856" lon="-8.460109">
<time>2021-10-05T14:40:40Z</time>
</trkpt>
<trkpt lat="39.50289" lon="-8.460157">
<time>2021-10-05T14:40:41Z</time>
</trkpt>
<trkpt lat="39.502918" lon="-8.460194">
<time>2021-10-05T14:40:42Z</time>
</trkpt>
<trkpt lat="39.502943" lon="-8.46022">
<time>2021-10-05T14:40:43Z</time>
</trkpt>
<trkpt lat="39.502978" lon="-8.460262">
<time>2021-10-05T14:40:44Z</time>
</trkpt>
<trkpt lat="39.503005" lon="-8.460287">
<time>2021-10-05T14:40:45Z</time>
</trkpt>
<trkpt lat="39.503046" lon="-8.460325">
<time>2021-10-05T14:40:46Z</time>
</trkpt>
<trkpt lat="39.503083" lon="-8.460357">
<time>2021-10-05T14:40:47Z</time>
</trkpt>
<trkpt lat="39.503111" lon="-8.46038">
<time>2021-10-05T14:40:48Z</time>
</trkpt>
<trkpt lat="39.503148" lon="-8.460415">
<time>2021-10-05T14:40:49Z</time>
</trkpt>
<trkpt lat="39.503195" lon="-8.460457">
<time>2021-10-05T14:40:50Z</time>
</trkpt>
<trkpt lat="39.503236" lon="-8.460494">
<time>2021-10-05T14:40:51Z</time>
</trkpt>
<trkpt lat="39.50328" lon="-8.460522">
<time>2021-10-05T14:40:52Z</time>
</trkpt>
<trkpt lat="39.503313" lon="-8.460532">
<time>2021-10-05T14:40:53Z</time>
</trkpt>
<trkpt lat="39.503353" lon="-8.460534">
<time>2021-10-05T14:40:54Z</time>
</trkpt>
<trkpt lat="39.503403" lon="-8.460524">
<time>2021-10-05T14:40:55Z</time>
</trkpt>
<trkpt lat="39.50345" lon="-8.460519">
<time>2021-10-05T14:40:56Z</time>
</trkpt>
<trkpt lat="39.503493" lon="-8.460522">
<time>2021-10-05T14:40:57Z</time>
</trkpt>
<trkpt lat="39.50352" lon="-8.460527">
<time>2021-10-05T14:40:58Z</time>
</trkpt>
<trkpt lat="39.503541" lon="-8.460532">
<time>2021-10-05T14:40:59Z</time>
</trkpt>
<trkpt lat="39.503558" lon="-8.460539">
<time>2021-10-05T14:41:00Z</time>
</trkpt>
<trkpt lat="39.503568" lon="-8.460544">
<time>2021-10-05T14:41:01Z</time>
</trkpt>
<trkpt lat="39.50358" lon="-8.460547">
<time>2021-10-05T14:41:02Z</time>
</trkpt>
<trkpt lat="39.503595" lon="-8.460552">
<time>2021-10-05T14:41:03Z</time>
</trkpt>
<trkpt lat="39.503616" lon="-8.460562">
<time>2021-10-05T14:41:04Z</time>
</trkpt>
<trkpt lat="39.503643" lon="-8.460579">
<time>2021-10-05T14:41:05Z</time>
</trkpt>
<trkpt lat="39.503681" lon="-8.460604">
<time>2021-10-05T14:41:06Z</time>
</trkpt>
<trkpt lat="39.503723" lon="-8.460619">
<time>2021-10-05T14:41:07Z</time>
</trkpt>
<trkpt lat="39.503768" lon="-8.460622">
<time>2021-10-05T14:41:08Z</time>
</trkpt>
<trkpt lat="39.503813" lon="-8.46061">
<time>2021-10-05T14:41:09Z</time>
</trkpt>
<trkpt lat="39.503858" lon="-8.46058">
<time>2021-10-05T14:41:10Z</time>
</trkpt>
<trkpt lat="39.503901" lon="-8.460537">
<time>2021-10-05T14:41:11Z</time>
</trkpt>
<trkpt lat="39.503948" lon="-8.460494">
<time>2021-10-05T14:41:12Z</time>
</trkpt>
<trkpt lat="39.503985" lon="-8.460469">
<time>2021-10-05T14:41:13Z</time>
</trkpt>
<trkpt lat="39.504031" lon="-8.46045">
<time>2021-10-05T14:41:14Z</time>
</trkpt>
<trkpt lat="39.504095" lon="-8.460444">
<time>2021-10-05T14:41:15Z</time>
</trkpt>
<trkpt lat="39.504148" lon="-8.460457">
<time>2021-10-05T14:41:16Z</time>
</trkpt>
<trkpt lat="39.504181" lon="-8.460475">
<time>2021-10-05T14:41:17Z</time>
</trkpt>
<trkpt lat="39.504206" lon="-8.460504">
<time>2021-10-05T14:41:18Z</time>
</trkpt>
<trkpt lat="39.504216" lon="-8.46054">
<time>2021-10-05T14:41:19Z</time>
</trkpt>
<trkpt lat="39.504218" lon="-8.460585">
<time>2021-10-05T14:41:20Z</time>
</trkpt>
<trkpt lat="39.504221" lon="-8.460645">
<time>2021-10-05T14:41:21Z</time>
</trkpt>
<trkpt lat="39.504221" lon="-8.460697">
<time>2021-10-05T14:41:22Z</time>
</trkpt>
<trkpt lat="39.50422" lon="-8.460744">
<time>2021-10-05T14:41:23Z</time>
</trkpt>
<trkpt lat="39.504216" lon="-8.460804">
<time>2021-10-05T14:41:24Z</time>
</trkpt>
<trkpt lat="39.504215" lon="-8.460875">
<time>2021-10-05T14:41:25Z</time>
</trkpt>
<trkpt lat="39.504211" lon="-8.460934">
<time>2021-10-05T14:41:26Z</time>
</trkpt>
<trkpt lat="39.504208" lon="-8.460984">
<time>2021-10-05T14:41:27Z</time>
</trkpt>
<trkpt lat="39.504206" lon="-8.46104">
<time>2021-10-05T14:41:28Z</time>
</trkpt>
<trkpt lat="39.504203" lon="-8.461097">
<time>2021-10-05T14:41:29Z</time>
</trkpt>
<trkpt lat="39.504201" lon="-8.461149">
<time>2021-10-05T14:41:30Z</time>
</trkpt>
<trkpt lat="39.5042" lon="-8.46121">
<time>2021-10-05T14:41:31Z</time>
</trkpt>
<trkpt lat="39.504193" lon="-8.46126">
<time>2021-10-05T14:41:32Z</time>
</trkpt>
<trkpt lat="39.504188" lon="-8.461299">
<time>2021-10-05T14:41:33Z</time>
</trkpt>
<trkpt lat="39.50418" lon="-8.461345">
<time>2021-10-05T14:41:34Z</time>
</trkpt>
<trkpt lat="39.504168" lon="-8.461399">
<time>2021-10-05T14:41:35Z</time>
</trkpt>
<trkpt lat="39.504156" lon="-8.461445">
<time>2021-10-05T14:41:36Z</time>
</trkpt>
<trkpt lat="39.504145" lon="-8.461489">
<time>2021-10-05T14:41:37Z</time>
</trkpt>
<trkpt lat="39.504131" lon="-8.461522">
<time>2021-10-05T14:41:38Z</time>
</trkpt>
<trkpt lat="39.504115" lon="-8.461565">
<time>2021-10-05T14:41:39Z</time>
</trkpt>
<trkpt lat="39.504095" lon="-8.461617">
<time>2021-10-05T14:41:40Z</time>
</trkpt>
<trkpt lat="39.504078" lon="-8.46166">
<time>2021-10-05T14:41:41Z</time>
</trkpt>
<trkpt lat="39.504061" lon="-8.461707">
<time>2021-10-05T14:41:42Z</time>
</trkpt>
<trkpt lat="39.504046" lon="-8.461742">
<time>2021-10-05T14:41:43Z</time>
</trkpt>
<trkpt lat="39.504023" lon="-8.461784">
<time>2021-10-05T14:41:44Z</time>
</trkpt>
<trkpt lat="39.504" lon="-8.461822">
<time>2021-10-05T14:41:45Z</time>
</trkpt>
<trkpt lat="39.503971" lon="-8.461875">
<time>2021-10-05T14:41:46Z</time>
</trkpt>
<trkpt lat="39.50395" lon="-8.461922">
<time>2021-10-05T14:41:47Z</time>
</trkpt>
<trkpt lat="39.503925" lon="-8.461962">
<time>2021-10-05T14:41:48Z</time>
</trkpt>
<trkpt lat="39.503898" lon="-8.461985">
<time>2021-10-05T14:41:49Z</time>
</trkpt>
<trkpt lat="39.503865" lon="-8.461995">
<time>2021-10-05T14:41:50Z</time>
</trkpt>
<trkpt lat="39.503823" lon="-8.461989">
<time>2021-10-05T14:41:51Z</time>
</trkpt>
<trkpt lat="39.503783" lon="-8.461969">
<time>2021-10-05T14:41:52Z</time>
</trkpt>
<trkpt lat="39.503741" lon="-8.461952">
<time>2021-10-05T14:41:53Z</time>
</trkpt>
<trkpt lat="39.503706" lon="-8.46194">
<time>2021-10-05T14:41:54Z</time>
</trkpt>
<trkpt lat="39.50366" lon="-8.46193">
<time>2021-10-05T14:41:55Z</time>
</trkpt>
<trkpt lat="39.503605" lon="-8.461937">
<time>2021-10-05T14:41:56Z</time>
</trkpt>
<trkpt lat="39.503558" lon="-8.461959">
<time>2021-10-05T14:41:57Z</time>
</trkpt>
<trkpt lat="39.503511" lon="-8.461989">
<time>2021-10-05T14:41:58Z</time>
</trkpt>
<trkpt lat="39.503475" lon="-8.462019">
<time>2021-10-05T14:41:59Z</time>
</trkpt>
<trkpt lat="39.50343" lon="-8.462055">
<time>2021-10-05T14:42:00Z</time>
</trkpt>
<trkpt lat="39.503376" lon="-8.462104">
<time>2021-10-05T14:42:01Z</time>
</trkpt>
<trkpt lat="39.50333" lon="-8.462145">
<time>2021-10-05T14:42:02Z</time>
</trkpt>
<trkpt lat="39.503285" lon="-8.462182">
<time>2021-10-05T14:42:03Z</time>
</trkpt>
<trkpt lat="39.503245" lon="-8.462207">
<time>2021-10-05T14:42:04Z</time>
</trkpt>
<trkpt lat="39.503195" lon="-8.462242">
<time>2021-10-05T14:42:05Z</time>
</trkpt>
<trkpt lat="39.503135" lon="-8.462282">
<time>2021-10-05T14:42:06Z</time>
</trkpt>
<trkpt lat="39.503086" lon="-8.462319">
<time>2021-10-05T14:42:07Z</time>
</trkpt>
<trkpt lat="39.503038" lon="-8.462352">
<time>2021-10-05T14:42:08Z</time>
</trkpt>
<trkpt lat="39.503001" lon="-8.462384">
<time>2021-10-05T14:42:09Z</time>
</trkpt>
<trkpt lat="39.502963" lon="-8.46243">
<time>2021-10-05T14:42:10Z</time>
</trkpt>
<trkpt lat="39.502923" lon="-8.46249">
<time>2021-10-05T14:42:11Z</time>
</trkpt>
<trkpt lat="39.50289" lon="-8.46254">
<time>2021-10-05T14:42:12Z</time>
</trkpt>
<trkpt lat="39.502861" lon="-8.462589">
<time>2021-10-05T14:42:13Z</time>
</trkpt>
<trkpt lat="39.502841" lon="-8.462632">
<time>2021-10-05T14:42:14Z</time>
</trkpt>
<trkpt lat="39.502831" lon="-8.462669">
<time>2021-10-05T14:42:15Z</time>
</trkpt>
<trkpt lat="39.502823" lon="-8.462729">
<time>2021-10-05T14:42:16Z</time>
</trkpt>
<trkpt lat="39.502828" lon="-8.462784">
<time>2021-10-05T14:42:17Z</time>
</trkpt>
<trkpt lat="39.502845" lon="-8.462835">
<time>2021-10-05T14:42:18Z</time>
</trkpt>
<trkpt lat="39.502861" lon="-8.462874">
<time>2021-10-05T14:42:19Z</time>
</trkpt>
<trkpt lat="39.502888" lon="-8.462922">
<time>2021-10-05T14:42:20Z</time>
</trkpt>
<trkpt lat="39.502925" lon="-8.462975">
<time>2021-10-05T14:42:21Z</time>
</trkpt>
<trkpt lat="39.50296" lon="-8.463014">
<time>2021-10-05T14:42:22Z</time>
</trkpt>
<trkpt lat="39.50299" lon="-8.46304">
<time>2021-10-05T14:42:23Z</time>
</trkpt>
<trkpt lat="39.503025" lon="-8.46307">
<time>2021-10-05T14:42:24Z</time>
</trkpt>
<trkpt lat="39.503058" lon="-8.463105">
<time>2021-10-05T14:42:25Z</time>
</trkpt>
<trkpt lat="39.503091" lon="-8.463154">
<time>2021-10-05T14:42:26Z</time>
</trkpt>
<trkpt lat="39.503113" lon="-8.463199">
<time>2021-10-05T14:42:27Z</time>
</trkpt>
<trkpt lat="39.503126" lon="-8.463245">
<time>2021-10-05T14:42:28Z</time>
</trkpt>
<trkpt lat="39.503131" lon="-8.463284">
<time>2021-10-05T14:42:29Z</time>
</trkpt>
<trkpt lat="39.50313" lon="-8.46333">
<time>2021-10-05T14:42:30Z</time>
</trkpt>
<trkpt lat="39.50312" lon="-8.46339">
<time>2021-10-05T14:42:31Z</time>
</trkpt>
<trkpt lat="39.503106" lon="-8.463445">
<time>2021-10-05T14:42:32Z</time>
</trkpt>
<trkpt lat="39.503091" lon="-8.463505">
<time>2021-10-05T14:42:33Z</time>
</trkpt>
<trkpt lat="39.503075" lon="-8.46356">
<time>2021-10-05T14:42:34Z</time>
</trkpt>
<trkpt lat="39.503053" lon="-8.463635">
<time>2021-10-05T14:42:35Z</time>
</trkpt>
<trkpt lat="39.503025" lon="-8.463732">
<time>2021-10-05T14:42:36Z</time>
</trkpt>
<trkpt lat="39.502998" lon="-8.46382">
<time>2021-10-05T14:42:37Z</time>
</trkpt>
<trkpt lat="39.502973" lon="-8.463914">
<time>2021-10-05T14:42:38Z</time>
</trkpt>
<trkpt lat="39.502946" lon="-8.464012">
<time>2021-10-05T14:42:39Z</time>
</trkpt>
<trkpt lat="39.502918" lon="-8.46411">
<time>2021-10-05T14:42:40Z</time>
</trkpt>
<trkpt lat="39.502886" lon="-8.46421">
<time>2021-10-05T14:42:41Z</time>
</trkpt>
<trkpt lat="39.502853" lon="-8.46431">
<time>2021-10-05T14:42:42Z</time>
</trkpt>
<trkpt lat="39.502818" lon="-8.464414">
<time>2021-10-05T14:42:43Z</time>
</trkpt>
<trkpt lat="39.50279" lon="-8.464499">
<time>2021-10-05T14:42:44Z</time>
</trkpt>
<trkpt lat="39.502758" lon="-8.464604">
<time>2021-10-05T14:42:45Z</time>
</trkpt>
<trkpt lat="39.502728" lon="-8.464732">
<time>2021-10-05T14:42:46Z</time>
</trkpt>
<trkpt lat="39.502711" lon="-8.464845">
<time>2021-10-05T14:42:47Z</time>
</trkpt>
<trkpt lat="39.502698" lon="-8.464957">
<time>2021-10-05T14:42:48Z</time>
</trkpt>
<trkpt lat="39.502683" lon="-8.46505">
<time>2021-10-05T14:42:49Z</time>
</trkpt>
<trkpt lat="39.502655" lon="-8.46517">
<time>2021-10-05T14:42:50Z</time>
</trkpt>
<trkpt lat="39.502616" lon="-8.465292">
<time>2021-10-05T14:42:51Z</time>
</trkpt>
<trkpt lat="39.502568" lon="-8.46543">
<time>2021-10-05T14:42:52Z</time>
</trkpt>
<trkpt lat="39.502536" lon="-8.465545">
<time>2021-10-05T14:42:53Z</time>
</trkpt>
<trkpt lat="39.502515" lon="-8.465637">
<time>2021-10-05T14:42:54Z</time>
</trkpt>
<trkpt lat="39.5025" lon="-8.465754">
<time>2021-10-05T14:42:55Z</time>
</trkpt>
<trkpt lat="39.502498" lon="-8.46587">
<time>2021-10-05T14:42:56Z</time>
</trkpt>
<trkpt lat="39.502493" lon="-8.466">
<time>2021-10-05T14:42:57Z</time>
</trkpt>
<trkpt lat="39.502478" lon="-8.466105">
<time>2021-10-05T14:42:58Z</time>
</trkpt>
<trkpt lat="39.502463" lon="-8.466187">
<time>2021-10-05T14:42:59Z</time>
</trkpt>
<trkpt lat="39.502443" lon="-8.46629">
<time>2021-10-05T14:43:00Z</time>
</trkpt>
<trkpt lat="39.502421" lon="-8.46639">
<time>2021-10-05T14:43:01Z</time>
</trkpt>
<trkpt lat="39.502398" lon="-8.46651">
<time>2021-10-05T14:43:02Z</time>
</trkpt>
<trkpt lat="39.50238" lon="-8.466614">
<time>2021-10-05T14:43:03Z</time>
</trkpt>
<trkpt lat="39.50236" lon="-8.466715">
<time>2021-10-05T14:43:04Z</time>
</trkpt>
<trkpt lat="39.502343" lon="-8.466799">
<time>2021-10-05T14:43:05Z</time>
</trkpt>
<trkpt lat="39.502316" lon="-8.466897">
<time>2021-10-05T14:43:06Z</time>
</trkpt>
<trkpt lat="39.502275" lon="-8.467005">
<time>2021-10-05T14:43:07Z</time>
</trkpt>
<trkpt lat="39.502225" lon="-8.467082">
<time>2021-10-05T14:43:08Z</time>
</trkpt>
<trkpt lat="39.502166" lon="-8.467145">
<time>2021-10-05T14:43:09Z</time>
</trkpt>
<trkpt lat="39.502113" lon="-8.467182">
<time>2021-10-05T14:43:10Z</time>
</trkpt>
<trkpt lat="39.50204" lon="-8.467212">
<time>2021-10-05T14:43:11Z</time>
</trkpt>
<trkpt lat="39.501948" lon="-8.467244">
<time>2021-10-05T14:43:12Z</time>
</trkpt>
<trkpt lat="39.501875" lon="-8.467265">
<time>2021-10-05T14:43:13Z</time>
</trkpt>
<trkpt lat="39.50182" lon="-8.46728">
<time>2021-10-05T14:43:14Z</time>
</trkpt>
<trkpt lat="39.501751" lon="-8.467302">
<time>2021-10-05T14:43:15Z</time>
</trkpt>
<trkpt lat="39.501675" lon="-8.467327">
<time>2021-10-05T14:43:16Z</time>
</trkpt>
<trkpt lat="39.501615" lon="-8.467352">
<time>2021-10-05T14:43:17Z</time>
</trkpt>
<trkpt lat="39.501558" lon="-8.467377">
<time>2021-10-05T14:43:18Z</time>
</trkpt>
<trkpt lat="39.501515" lon="-8.467397">
<time>2021-10-05T14:43:19Z</time>
</trkpt>
<trkpt lat="39.501463" lon="-8.467424">
<time>2021-10-05T14:43:20Z</time>
</trkpt>
<trkpt lat="39.501403" lon="-8.467464">
<time>2021-10-05T14:43:21Z</time>
</trkpt>
<trkpt lat="39.501355" lon="-8.467492">
<time>2021-10-05T14:43:22Z</time>
</trkpt>
<trkpt lat="39.501311" lon="-8.467524">
<time>2021-10-05T14:43:23Z</time>
</trkpt>
<trkpt lat="39.50128" lon="-8.46755">
<time>2021-10-05T14:43:24Z</time>
</trkpt>
<trkpt lat="39.501245" lon="-8.467585">
<time>2021-10-05T14:43:25Z</time>
</trkpt>
<trkpt lat="39.50121" lon="-8.467622">
<time>2021-10-05T14:43:26Z</time>
</trkpt>
<trkpt lat="39.501175" lon="-8.467659">
<time>2021-10-05T14:43:27Z</time>
</trkpt>
<trkpt lat="39.501141" lon="-8.46771">
<time>2021-10-05T14:43:28Z</time>
</trkpt>
<trkpt lat="39.501121" lon="-8.467742">
<time>2021-10-05T14:43:29Z</time>
</trkpt>
<trkpt lat="39.5011" lon="-8.46778">
<time>2021-10-05T14:43:30Z</time>
</trkpt>
<trkpt lat="39.501076" lon="-8.467817">
<time>2021-10-05T14:43:31Z</time>
</trkpt>
<trkpt lat="39.501053" lon="-8.467865">
<time>2021-10-05T14:43:32Z</time>
</trkpt>
<trkpt lat="39.501031" lon="-8.467907">
<time>2021-10-05T14:43:33Z</time>
</trkpt>
<trkpt lat="39.50101" lon="-8.46795">
<time>2021-10-05T14:43:34Z</time>
</trkpt>
<trkpt lat="39.500993" lon="-8.467985">
<time>2021-10-05T14:43:35Z</time>
</trkpt>
<trkpt lat="39.500971" lon="-8.468029">
<time>2021-10-05T14:43:36Z</time>
</trkpt>
<trkpt lat="39.500935" lon="-8.468084">
<time>2021-10-05T14:43:37Z</time>
</trkpt>
<trkpt lat="39.5009" lon="-8.468127">
<time>2021-10-05T14:43:38Z</time>
</trkpt>
<trkpt lat="39.500863" lon="-8.468172">
<time>2021-10-05T14:43:39Z</time>
</trkpt>
<trkpt lat="39.500831" lon="-8.468207">
<time>2021-10-05T14:43:40Z</time>
</trkpt>
<trkpt lat="39.50079" lon="-8.468249">
<time>2021-10-05T14:43:41Z</time>
</trkpt>
<trkpt lat="39.50074" lon="-8.468299">
<time>2021-10-05T14:43:42Z</time>
</trkpt>
<trkpt lat="39.500695" lon="-8.468339">
<time>2021-10-05T14:43:43Z</time>
</trkpt>
<trkpt lat="39.500651" lon="-8.46838">
<time>2021-10-05T14:43:44Z</time>
</trkpt>
<trkpt lat="39.500618" lon="-8.468412">
<time>2021-10-05T14:43:45Z</time>
</trkpt>
<trkpt lat="39.500578" lon="-8.468455">
<time>2021-10-05T14:43:46Z</time>
</trkpt>
<trkpt lat="39.500543" lon="-8.46852">
<time>2021-10-05T14:43:47Z</time>
</trkpt>
<trkpt lat="39.50052" lon="-8.46858">
<time>2021-10-05T14:43:48Z</time>
</trkpt>
<trkpt lat="39.500503" lon="-8.468644">
<time>2021-10-05T14:43:49Z</time>
</trkpt>
<trkpt lat="39.50049" lon="-8.468694">
<time>2021-10-05T14:43:50Z</time>
</trkpt>
<trkpt lat="39.500478" lon="-8.468759">
<time>2021-10-05T14:43:51Z</time>
</trkpt>
<trkpt lat="39.500466" lon="-8.468835">
<time>2021-10-05T14:43:52Z</time>
</trkpt>
<trkpt lat="39.500456" lon="-8.468895">
<time>2021-10-05T14:43:53Z</time>
</trkpt>
<trkpt lat="39.500441" lon="-8.468952">
<time>2021-10-05T14:43:54Z</time>
</trkpt>
<trkpt lat="39.50043" lon="-8.468992">
<time>2021-10-05T14:43:55Z</time>
</trkpt>
<trkpt lat="39.500413" lon="-8.469039">
<time>2021-10-05T14:43:56Z</time>
</trkpt>
<trkpt lat="39.500383" lon="-8.469082">
<time>2021-10-05T14:43:57Z</time>
</trkpt>
<trkpt lat="39.500353" lon="-8.469105">
<time>2021-10-05T14:43:58Z</time>
</trkpt>
<trkpt lat="39.500318" lon="-8.469122">
<time>2021-10-05T14:43:59Z</time>
</trkpt>
<trkpt lat="39.500285" lon="-8.469127">
<time>2021-10-05T14:44:00Z</time>
</trkpt>
<trkpt lat="39.500238" lon="-8.469127">
<time>2021-10-05T14:44:01Z</time>
</trkpt>
<trkpt lat="39.50019" lon="-8.469122">
<time>2021-10-05T14:44:02Z</time>
</trkpt>
<trkpt lat="39.500128" lon="-8.469114">
<time>2021-10-05T14:44:03Z</time>
</trkpt>
<trkpt lat="39.500071" lon="-8.469102">
<time>2021-10-05T14:44:04Z</time>
</trkpt>
<trkpt lat="39.50001" lon="-8.469089">
<time>2021-10-05T14:44:05Z</time>
</trkpt>
<trkpt lat="39.499956" lon="-8.469079">
<time>2021-10-05T14:44:06Z</time>
</trkpt>
<trkpt lat="39.499891" lon="-8.469059">
<time>2021-10-05T14:44:07Z</time>
</trkpt>
<trkpt lat="39.499815" lon="-8.469025">
<time>2021-10-05T14:44:08Z</time>
</trkpt>
<trkpt lat="39.499755" lon="-8.469005">
<time>2021-10-05T14:44:09Z</time>
</trkpt>
<trkpt lat="39.499711" lon="-8.469">
<time>2021-10-05T14:44:10Z</time>
</trkpt>
<trkpt lat="39.49968" lon="-8.469019">
<time>2021-10-05T14:44:11Z</time>
</trkpt>
<trkpt lat="39.49967" lon="-8.469059">
<time>2021-10-05T14:44:12Z</time>
</trkpt>
<trkpt lat="39.499678" lon="-8.469109">
<time>2021-10-05T14:44:13Z</time>
</trkpt>
<trkpt lat="39.499696" lon="-8.469167">
<time>2021-10-05T14:44:14Z</time>
</trkpt>
<trkpt lat="39.499735" lon="-8.469242">
<time>2021-10-05T14:44:15Z</time>
</trkpt>
<trkpt lat="39.499775" lon="-8.469314">
<time>2021-10-05T14:44:16Z</time>
</trkpt>
<trkpt lat="39.499813" lon="-8.469374">
<time>2021-10-05T14:44:17Z</time>
</trkpt>
<trkpt lat="39.499876" lon="-8.46946">
<time>2021-10-05T14:44:18Z</time>
</trkpt>
<trkpt lat="39.499936" lon="-8.46953">
<time>2021-10-05T14:44:19Z</time>
</trkpt>
<trkpt lat="39.500003" lon="-8.469594">
<time>2021-10-05T14:44:20Z</time>
</trkpt>
<trkpt lat="39.500076" lon="-8.469645">
<time>2021-10-05T14:44:21Z</time>
</trkpt>
<trkpt lat="39.500156" lon="-8.469697">
<time>2021-10-05T14:44:22Z</time>
</trkpt>
<trkpt lat="39.50024" lon="-8.469745">
<time>2021-10-05T14:44:23Z</time>
</trkpt>
<trkpt lat="39.500325" lon="-8.46979">
<time>2021-10-05T14:44:24Z</time>
</trkpt>
<trkpt lat="39.500393" lon="-8.469824">
<time>2021-10-05T14:44:25Z</time>
</trkpt>
<trkpt lat="39.500488" lon="-8.469875">
<time>2021-10-05T14:44:26Z</time>
</trkpt>
<trkpt lat="39.500568" lon="-8.46992">
<time>2021-10-05T14:44:27Z</time>
</trkpt>
<trkpt lat="39.500648" lon="-8.469965">
<time>2021-10-05T14:44:28Z</time>
</trkpt>
<trkpt lat="39.500726" lon="-8.470012">
<time>2021-10-05T14:44:29Z</time>
</trkpt>
<trkpt lat="39.500801" lon="-8.470064">
<time>2021-10-05T14:44:30Z</time>
</trkpt>
<trkpt lat="39.500858" lon="-8.470109">
<time>2021-10-05T14:44:31Z</time>
</trkpt>
<trkpt lat="39.500936" lon="-8.470187">
<time>2021-10-05T14:44:32Z</time>
</trkpt>
<trkpt lat="39.500983" lon="-8.470252">
<time>2021-10-05T14:44:33Z</time>
</trkpt>
<trkpt lat="39.501048" lon="-8.470354">
<time>2021-10-05T14:44:34Z</time>
</trkpt>
<trkpt lat="39.501088" lon="-8.470429">
<time>2021-10-05T14:44:35Z</time>
</trkpt>
<trkpt lat="39.501136" lon="-8.470525">
<time>2021-10-05T14:44:36Z</time>
</trkpt>
<trkpt lat="39.50118" lon="-8.470622">
<time>2021-10-05T14:44:37Z</time>
</trkpt>
<trkpt lat="39.50123" lon="-8.470737">
<time>2021-10-05T14:44:38Z</time>
</trkpt>
<trkpt lat="39.50127" lon="-8.47083">
<time>2021-10-05T14:44:39Z</time>
</trkpt>
<trkpt lat="39.501305" lon="-8.470919">
<time>2021-10-05T14:44:40Z</time>
</trkpt>
<trkpt lat="39.50133" lon="-8.470982">
<time>2021-10-05T14:44:41Z</time>
</trkpt>
<trkpt lat="39.501363" lon="-8.471045">
<time>2021-10-05T14:44:42Z</time>
</trkpt>
<trkpt lat="39.50141" lon="-8.471095">
<time>2021-10-05T14:44:43Z</time>
</trkpt>
<trkpt lat="39.501453" lon="-8.471107">
<time>2021-10-05T14:44:44Z</time>
</trkpt>
<trkpt lat="39.501498" lon="-8.471099">
<time>2021-10-05T14:44:45Z</time>
</trkpt>
<trkpt lat="39.501538" lon="-8.47108">
<time>2021-10-05T14:44:46Z</time>
</trkpt>
<trkpt lat="39.50159" lon="-8.471052">
<time>2021-10-05T14:44:47Z</time>
</trkpt>
<trkpt lat="39.501656" lon="-8.471014">
<time>2021-10-05T14:44:48Z</time>
</trkpt>
<trkpt lat="39.501716" lon="-8.470979">
<time>2021-10-05T14:44:49Z</time>
</trkpt>
<trkpt lat="39.501785" lon="-8.470942">
<time>2021-10-05T14:44:50Z</time>
</trkpt>
<trkpt lat="39.501835" lon="-8.470937">
<time>2021-10-05T14:44:51Z</time>
</trkpt>
<trkpt lat="39.50189" lon="-8.470957">
<time>2021-10-05T14:44:52Z</time>
</trkpt>
<trkpt lat="39.501943" lon="-8.471017">
<time>2021-10-05T14:44:53Z</time>
</trkpt>
<trkpt lat="39.501981" lon="-8.471085">
<time>2021-10-05T14:44:54Z</time>
</trkpt>
<trkpt lat="39.502013" lon="-8.47117">
<time>2021-10-05T14:44:55Z</time>
</trkpt>
<trkpt lat="39.502038" lon="-8.47124">
<time>2021-10-05T14:44:56Z</time>
</trkpt>
<trkpt lat="39.50207" lon="-8.471325">
<time>2021-10-05T14:44:57Z</time>
</trkpt>
<trkpt lat="39.502108" lon="-8.47142">
<time>2021-10-05T14:44:58Z</time>
</trkpt>
<trkpt lat="39.502138" lon="-8.471502">
<time>2021-10-05T14:44:59Z</time>
</trkpt>
<trkpt lat="39.502166" lon="-8.47158">
<time>2021-10-05T14:45:00Z</time>
</trkpt>
<trkpt lat="39.50219" lon="-8.471644">
<time>2021-10-05T14:45:01Z</time>
</trkpt>
<trkpt lat="39.502231" lon="-8.471714">
<time>2021-10-05T14:45:02Z</time>
</trkpt>
<trkpt lat="39.502291" lon="-8.471785">
<time>2021-10-05T14:45:03Z</time>
</trkpt>
<trkpt lat="39.502351" lon="-8.471832">
<time>2021-10-05T14:45:04Z</time>
</trkpt>
<trkpt lat="39.502416" lon="-8.471872">
<time>2021-10-05T14:45:05Z</time>
</trkpt>
<trkpt lat="39.502493" lon="-8.4719">
<time>2021-10-05T14:45:06Z</time>
</trkpt>
<trkpt lat="39.502568" lon="-8.471929">
<time>2021-10-05T14:45:07Z</time>
</trkpt>
<trkpt lat="39.502628" lon="-8.471955">
<time>2021-10-05T14:45:08Z</time>
</trkpt>
<trkpt lat="39.502715" lon="-8.472007">
<time>2021-10-05T14:45:09Z</time>
</trkpt>
<trkpt lat="39.502783" lon="-8.472064">
<time>2021-10-05T14:45:10Z</time>
</trkpt>
<trkpt lat="39.502845" lon="-8.472132">
<time>2021-10-05T14:45:11Z</time>
</trkpt>
<trkpt lat="39.502883" lon="-8.472199">
<time>2021-10-05T14:45:12Z</time>
</trkpt>
<trkpt lat="39.502925" lon="-8.47231">
<time>2021-10-05T14:45:13Z</time>
</trkpt>
<trkpt lat="39.502943" lon="-8.472427">
<time>2021-10-05T14:45:14Z</time>
</trkpt>
<trkpt lat="39.502956" lon="-8.47254">
<time>2021-10-05T14:45:15Z</time>
</trkpt>
<trkpt lat="39.502966" lon="-8.472634">
<time>2021-10-05T14:45:16Z</time>
</trkpt>
<trkpt lat="39.502985" lon="-8.47277">
<time>2021-10-05T14:45:17Z</time>
</trkpt>
<trkpt lat="39.503003" lon="-8.472887">
<time>2021-10-05T14:45:18Z</time>
</trkpt>
<trkpt lat="39.503018" lon="-8.473004">
<time>2021-10-05T14:45:19Z</time>
</trkpt>
<trkpt lat="39.50303" lon="-8.47312">
<time>2021-10-05T14:45:20Z</time>
</trkpt>
<trkpt lat="39.503038" lon="-8.473212">
<time>2021-10-05T14:45:21Z</time>
</trkpt>
<trkpt lat="39.503051" lon="-8.473317">
<time>2021-10-05T14:45:22Z</time>
</trkpt>
<trkpt lat="39.503068" lon="-8.473444">
<time>2021-10-05T14:45:23Z</time>
</trkpt>
<trkpt lat="39.503083" lon="-8.473545">
<time>2021-10-05T14:45:24Z</time>
</trkpt>
<trkpt lat="39.503095" lon="-8.473622">
<time>2021-10-05T14:45:25Z</time>
</trkpt>
<trkpt lat="39.503113" lon="-8.473734">
<time>2021-10-05T14:45:26Z</time>
</trkpt>
<trkpt lat="39.503125" lon="-8.473802">
<time>2021-10-05T14:45:27Z</time>
</trkpt>
<trkpt lat="39.503141" lon="-8.473905">
<time>2021-10-05T14:45:28Z</time>
</trkpt>
<trkpt lat="39.503156" lon="-8.473989">
<time>2021-10-05T14:45:29Z</time>
</trkpt>
<trkpt lat="39.50317" lon="-8.474055">
<time>2021-10-05T14:45:30Z</time>
</trkpt>
<trkpt lat="39.503185" lon="-8.47414">
<time>2021-10-05T14:45:31Z</time>
</trkpt>
<trkpt lat="39.503201" lon="-8.474227">
<time>2021-10-05T14:45:32Z</time>
</trkpt>
<trkpt lat="39.503218" lon="-8.474325">
<time>2021-10-05T14:45:33Z</time>
</trkpt>
<trkpt lat="39.503231" lon="-8.474404">
<time>2021-10-05T14:45:34Z</time>
</trkpt>
<trkpt lat="39.503245" lon="-8.474482">
<time>2021-10-05T14:45:35Z</time>
</trkpt>
<trkpt lat="39.503255" lon="-8.474549">
<time>2021-10-05T14:45:36Z</time>
</trkpt>
<trkpt lat="39.50327" lon="-8.474622">
<time>2021-10-05T14:45:37Z</time>
</trkpt>
<trkpt lat="39.50329" lon="-8.474714">
<time>2021-10-05T14:45:38Z</time>
</trkpt>
<trkpt lat="39.503308" lon="-8.474785">
<time>2021-10-05T14:45:39Z</time>
</trkpt>
<trkpt lat="39.503331" lon="-8.47486">
<time>2021-10-05T14:45:40Z</time>
</trkpt>
<trkpt lat="39.503351" lon="-8.474925">
<time>2021-10-05T14:45:41Z</time>
</trkpt>
<trkpt lat="39.503381" lon="-8.475005">
<time>2021-10-05T14:45:42Z</time>
</trkpt>
<trkpt lat="39.503421" lon="-8.47511">
<time>2021-10-05T14:45:43Z</time>
</trkpt>
<trkpt lat="39.503458" lon="-8.475202">
<time>2021-10-05T14:45:44Z</time>
</trkpt>
<trkpt lat="39.503498" lon="-8.475294">
<time>2021-10-05T14:45:45Z</time>
</trkpt>
<trkpt lat="39.50353" lon="-8.475365">
<time>2021-10-05T14:45:46Z</time>
</trkpt>
<trkpt lat="39.503558" lon="-8.475449">
<time>2021-10-05T14:45:47Z</time>
</trkpt>
<trkpt lat="39.503571" lon="-8.475544">
<time>2021-10-05T14:45:48Z</time>
</trkpt>
<trkpt lat="39.503553" lon="-8.47561">
<time>2021-10-05T14:45:49Z</time>
</trkpt>
<trkpt lat="39.503518" lon="-8.475667">
<time>2021-10-05T14:45:50Z</time>
</trkpt>
<trkpt lat="39.503478" lon="-8.475704">
<time>2021-10-05T14:45:51Z</time>
</trkpt>
<trkpt lat="39.503423" lon="-8.475754">
<time>2021-10-05T14:45:52Z</time>
</trkpt>
<trkpt lat="39.503343" lon="-8.475815">
<time>2021-10-05T14:45:53Z</time>
</trkpt>
<trkpt lat="39.503276" lon="-8.475865">
<time>2021-10-05T14:45:54Z</time>
</trkpt>
<trkpt lat="39.503203" lon="-8.475914">
<time>2021-10-05T14:45:55Z</time>
</trkpt>
<trkpt lat="39.503145" lon="-8.475954">
<time>2021-10-05T14:45:56Z</time>
</trkpt>
<trkpt lat="39.503075" lon="-8.475999">
<time>2021-10-05T14:45:57Z</time>
</trkpt>
<trkpt lat="39.503005" lon="-8.476062">
<time>2021-10-05T14:45:58Z</time>
</trkpt>
<trkpt lat="39.502963" lon="-8.476125">
<time>2021-10-05T14:45:59Z</time>
</trkpt>
<trkpt lat="39.502931" lon="-8.476184">
<time>2021-10-05T14:46:00Z</time>
</trkpt>
<trkpt lat="39.502911" lon="-8.476215">
<time>2021-10-05T14:46:01Z</time>
</trkpt>
<trkpt lat="39.50288" lon="-8.476232">
<time>2021-10-05T14:46:02Z</time>
</trkpt>
<trkpt lat="39.50284" lon="-8.47623">
<time>2021-10-05T14:46:03Z</time>
</trkpt>
<trkpt lat="39.502785" lon="-8.476217">
<time>2021-10-05T14:46:04Z</time>
</trkpt>
<trkpt lat="39.502728" lon="-8.476184">
<time>2021-10-05T14:46:05Z</time>
</trkpt>
<trkpt lat="39.502665" lon="-8.476132">
<time>2021-10-05T14:46:06Z</time>
</trkpt>
<trkpt lat="39.502618" lon="-8.476085">
<time>2021-10-05T14:46:07Z</time>
</trkpt>
<trkpt lat="39.502555" lon="-8.476014">
<time>2021-10-05T14:46:08Z</time>
</trkpt>
<trkpt lat="39.502506" lon="-8.475942">
<time>2021-10-05T14:46:09Z</time>
</trkpt>
<trkpt lat="39.502456" lon="-8.475875">
<time>2021-10-05T14:46:10Z</time>
</trkpt>
<trkpt lat="39.502415" lon="-8.475824">
<time>2021-10-05T14:46:11Z</time>
</trkpt>
<trkpt lat="39.502356" lon="-8.475765">
<time>2021-10-05T14:46:12Z</time>
</trkpt>
<trkpt lat="39.502298" lon="-8.475725">
<time>2021-10-05T14:46:13Z</time>
</trkpt>
<trkpt lat="39.502228" lon="-8.47569">
<time>2021-10-05T14:46:14Z</time>
</trkpt>
<trkpt lat="39.502163" lon="-8.475665">
<time>2021-10-05T14:46:15Z</time>
</trkpt>
<trkpt lat="39.5021" lon="-8.475647">
<time>2021-10-05T14:46:16Z</time>
</trkpt>
<trkpt lat="39.502036" lon="-8.475627">
<time>2021-10-05T14:46:17Z</time>
</trkpt>
<trkpt lat="39.50199" lon="-8.475605">
<time>2021-10-05T14:46:18Z</time>
</trkpt>
<trkpt lat="39.501921" lon="-8.475564">
<time>2021-10-05T14:46:19Z</time>
</trkpt>
<trkpt lat="39.50187" lon="-8.475537">
<time>2021-10-05T14:46:20Z</time>
</trkpt>
<trkpt lat="39.501835" lon="-8.475524">
<time>2021-10-05T14:46:21Z</time>
</trkpt>
<trkpt lat="39.501791" lon="-8.475514">
<time>2021-10-05T14:46:22Z</time>
</trkpt>
<trkpt lat="39.501746" lon="-8.475507">
<time>2021-10-05T14:46:23Z</time>
</trkpt>
<trkpt lat="39.5017" lon="-8.475502">
<time>2021-10-05T14:46:24Z</time>
</trkpt>
<trkpt lat="39.501668" lon="-8.475497">
<time>2021-10-05T14:46:25Z</time>
</trkpt>
<trkpt lat="39.50163" lon="-8.475505">
<time>2021-10-05T14:46:26Z</time>
</trkpt>
<trkpt lat="39.501586" lon="-8.475522">
<time>2021-10-05T14:46:27Z</time>
</trkpt>
<trkpt lat="39.501533" lon="-8.475545">
<time>2021-10-05T14:46:28Z</time>
</trkpt>
<trkpt lat="39.501486" lon="-8.475579">
<time>2021-10-05T14:46:29Z</time>
</trkpt>
<trkpt lat="39.501436" lon="-8.475614">
<time>2021-10-05T14:46:30Z</time>
</trkpt>
<trkpt lat="39.501395" lon="-8.475644">
<time>2021-10-05T14:46:31Z</time>
</trkpt>
<trkpt lat="39.501345" lon="-8.475679">
<time>2021-10-05T14:46:32Z</time>
</trkpt>
<trkpt lat="39.501293" lon="-8.475717">
<time>2021-10-05T14:46:33Z</time>
</trkpt>
<trkpt lat="39.501235" lon="-8.475762">
<time>2021-10-05T14:46:34Z</time>
</trkpt>
<trkpt lat="39.501188" lon="-8.475799">
<time>2021-10-05T14:46:35Z</time>
</trkpt>
<trkpt lat="39.501136" lon="-8.475839">
<time>2021-10-05T14:46:36Z</time>
</trkpt>
<trkpt lat="39.501101" lon="-8.47588">
<time>2021-10-05T14:46:37Z</time>
</trkpt>
<trkpt lat="39.501066" lon="-8.475944">
<time>2021-10-05T14:46:38Z</time>
</trkpt>
<trkpt lat="39.50103" lon="-8.476024">
<time>2021-10-05T14:46:39Z</time>
</trkpt>
<trkpt lat="39.500995" lon="-8.476084">
<time>2021-10-05T14:46:40Z</time>
</trkpt>
<trkpt lat="39.500955" lon="-8.476134">
<time>2021-10-05T14:46:41Z</time>
</trkpt>
<trkpt lat="39.500916" lon="-8.476167">
<time>2021-10-05T14:46:42Z</time>
</trkpt>
<trkpt lat="39.500865" lon="-8.476199">
<time>2021-10-05T14:46:43Z</time>
</trkpt>
<trkpt lat="39.500798" lon="-8.476224">
<time>2021-10-05T14:46:44Z</time>
</trkpt>
<trkpt lat="39.50074" lon="-8.476225">
<time>2021-10-05T14:46:45Z</time>
</trkpt>
<trkpt lat="39.500691" lon="-8.476214">
<time>2021-10-05T14:46:46Z</time>
</trkpt>
<trkpt lat="39.500656" lon="-8.476182">
<time>2021-10-05T14:46:47Z</time>
</trkpt>
<trkpt lat="39.500611" lon="-8.47613">
<time>2021-10-05T14:46:48Z</time>
</trkpt>
<trkpt lat="39.500556" lon="-8.476059">
<time>2021-10-05T14:46:49Z</time>
</trkpt>
<trkpt lat="39.500508" lon="-8.47599">
<time>2021-10-05T14:46:50Z</time>
</trkpt>
<trkpt lat="39.500456" lon="-8.475927">
<time>2021-10-05T14:46:51Z</time>
</trkpt>
<trkpt lat="39.50041" lon="-8.475884">
<time>2021-10-05T14:46:52Z</time>
</trkpt>
<trkpt lat="39.50035" lon="-8.47584">
<time>2021-10-05T14:46:53Z</time>
</trkpt>
<trkpt lat="39.500275" lon="-8.475804">
<time>2021-10-05T14:46:54Z</time>
</trkpt>
<trkpt lat="39.50021" lon="-8.475785">
<time>2021-10-05T14:46:55Z</time>
</trkpt>
<trkpt lat="39.500145" lon="-8.475769">
<time>2021-10-05T14:46:56Z</time>
</trkpt>
<trkpt lat="39.500091" lon="-8.475755">
<time>2021-10-05T14:46:57Z</time>
</trkpt>
<trkpt lat="39.500031" lon="-8.475735">
<time>2021-10-05T14:46:58Z</time>
</trkpt>
<trkpt lat="39.499963" lon="-8.475709">
<time>2021-10-05T14:46:59Z</time>
</trkpt>
<trkpt lat="39.499911" lon="-8.475675">
<time>2021-10-05T14:47:00Z</time>
</trkpt>
<trkpt lat="39.49986" lon="-8.47563">
<time>2021-10-05T14:47:01Z</time>
</trkpt>
<trkpt lat="39.499818" lon="-8.47559">
<time>2021-10-05T14:47:02Z</time>
</trkpt>
<trkpt lat="39.49977" lon="-8.475544">
<time>2021-10-05T14:47:03Z</time>
</trkpt>
<trkpt lat="39.499705" lon="-8.475492">
<time>2021-10-05T14:47:04Z</time>
</trkpt>
<trkpt lat="39.499648" lon="-8.475462">
<time>2021-10-05T14:47:05Z</time>
</trkpt>
<trkpt lat="39.499608" lon="-8.47545">
<time>2021-10-05T14:47:06Z</time>
</trkpt>
<trkpt lat="39.499583" lon="-8.475455">
<time>2021-10-05T14:47:07Z</time>
</trkpt>
<trkpt lat="39.499556" lon="-8.475467">
<time>2021-10-05T14:47:08Z</time>
</trkpt>
<trkpt lat="39.499526" lon="-8.475499">
<time>2021-10-05T14:47:09Z</time>
</trkpt>
<trkpt lat="39.499505" lon="-8.475534">
<time>2021-10-05T14:47:10Z</time>
</trkpt>
<trkpt lat="39.499485" lon="-8.475567">
<time>2021-10-05T14:47:11Z</time>
</trkpt>
<trkpt lat="39.49947" lon="-8.475592">
<time>2021-10-05T14:47:12Z</time>
</trkpt>
<trkpt lat="39.499451" lon="-8.475619">
<time>2021-10-05T14:47:13Z</time>
</trkpt>
<trkpt lat="39.499423" lon="-8.475655">
<time>2021-10-05T14:47:14Z</time>
</trkpt>
<trkpt lat="39.499405" lon="-8.475697">
<time>2021-10-05T14:47:15Z</time>
</trkpt>
<trkpt lat="39.499388" lon="-8.475744">
<time>2021-10-05T14:47:16Z</time>
</trkpt>
<trkpt lat="39.499376" lon="-8.475799">
<time>2021-10-05T14:47:17Z</time>
</trkpt>
<trkpt lat="39.499368" lon="-8.475842">
<time>2021-10-05T14:47:18Z</time>
</trkpt>
<trkpt lat="39.499353" lon="-8.475914">
<time>2021-10-05T14:47:19Z</time>
</trkpt>
<trkpt lat="39.499338" lon="-8.475977">
<time>2021-10-05T14:47:20Z</time>
</trkpt>
<trkpt lat="39.499325" lon="-8.476044">
<time>2021-10-05T14:47:21Z</time>
</trkpt>
<trkpt lat="39.499308" lon="-8.476114">
<time>2021-10-05T14:47:22Z</time>
</trkpt>
<trkpt lat="39.499295" lon="-8.476174">
<time>2021-10-05T14:47:23Z</time>
</trkpt>
<trkpt lat="39.499273" lon="-8.476262">
<time>2021-10-05T14:47:24Z</time>
</trkpt>
<trkpt lat="39.499256" lon="-8.476332">
<time>2021-10-05T14:47:25Z</time>
</trkpt>
<trkpt lat="39.499243" lon="-8.476395">
<time>2021-10-05T14:47:26Z</time>
</trkpt>
<trkpt lat="39.499231" lon="-8.47647">
<time>2021-10-05T14:47:27Z</time>
</trkpt>
<trkpt lat="39.499221" lon="-8.476547">
<time>2021-10-05T14:47:28Z</time>
</trkpt>
<trkpt lat="39.499208" lon="-8.47664">
<time>2021-10-05T14:47:29Z</time>
</trkpt>
<trkpt lat="39.499198" lon="-8.476714">
<time>2021-10-05T14:47:30Z</time>
</trkpt>
<trkpt lat="39.49919" lon="-8.476784">
<time>2021-10-05T14:47:31Z</time>
</trkpt>
<trkpt lat="39.49918" lon="-8.476839">
<time>2021-10-05T14:47:32Z</time>
</trkpt>
<trkpt lat="39.499166" lon="-8.476904">
<time>2021-10-05T14:47:33Z</time>
</trkpt>
<trkpt lat="39.49915" lon="-8.476982">
<time>2021-10-05T14:47:34Z</time>
</trkpt>
<trkpt lat="39.49913" lon="-8.477042">
<time>2021-10-05T14:47:35Z</time>
</trkpt>
<trkpt lat="39.499108" lon="-8.477099">
<time>2021-10-05T14:47:36Z</time>
</trkpt>
<trkpt lat="39.499088" lon="-8.477142">
<time>2021-10-05T14:47:37Z</time>
</trkpt>
<trkpt lat="39.499063" lon="-8.477195">
<time>2021-10-05T14:47:38Z</time>
</trkpt>
<trkpt lat="39.499035" lon="-8.477262">
<time>2021-10-05T14:47:39Z</time>
</trkpt>
<trkpt lat="39.499006" lon="-8.47732">
<time>2021-10-05T14:47:40Z</time>
</trkpt>
<trkpt lat="39.498978" lon="-8.477377">
<time>2021-10-05T14:47:41Z</time>
</trkpt>
<trkpt lat="39.498958" lon="-8.477427">
<time>2021-10-05T14:47:42Z</time>
</trkpt>
<trkpt lat="39.498935" lon="-8.47749">
<time>2021-10-05T14:47:43Z</time>
</trkpt>
<trkpt lat="39.498906" lon="-8.477569">
<time>2021-10-05T14:47:44Z</time>
</trkpt>
<trkpt lat="39.498881" lon="-8.477629">
<time>2021-10-05T14:47:45Z</time>
</trkpt>
<trkpt lat="39.498845" lon="-8.477689">
<time>2021-10-05T14:47:46Z</time>
</trkpt>
<trkpt lat="39.498811" lon="-8.477734">
<time>2021-10-05T14:47:47Z</time>
</trkpt>
<trkpt lat="39.49877" lon="-8.477787">
<time>2021-10-05T14:47:48Z</time>
</trkpt>
<trkpt lat="39.498715" lon="-8.477845">
<time>2021-10-05T14:47:49Z</time>
</trkpt>
<trkpt lat="39.498666" lon="-8.477892">
<time>2021-10-05T14:47:50Z</time>
</trkpt>
<trkpt lat="39.498616" lon="-8.477934">
<time>2021-10-05T14:47:51Z</time>
</trkpt>
<trkpt lat="39.498576" lon="-8.477962">
<time>2021-10-05T14:47:52Z</time>
</trkpt>
<trkpt lat="39.498525" lon="-8.47799">
<time>2021-10-05T14:47:53Z</time>
</trkpt>
<trkpt lat="39.498463" lon="-8.478007">
<time>2021-10-05T14:47:54Z</time>
</trkpt>
<trkpt lat="39.498411" lon="-8.478009">
<time>2021-10-05T14:47:55Z</time>
</trkpt>
<trkpt lat="39.498358" lon="-8.47801">
<time>2021-10-05T14:47:56Z</time>
</trkpt>
<trkpt lat="39.498316" lon="-8.47801">
<time>2021-10-05T14:47:57Z</time>
</trkpt>
<trkpt lat="39.498265" lon="-8.47801">
<time>2021-10-05T14:47:58Z</time>
</trkpt>
<trkpt lat="39.498205" lon="-8.478">
<time>2021-10-05T14:47:59Z</time>
</trkpt>
<trkpt lat="39.49816" lon="-8.477982">
<time>2021-10-05T14:48:00Z</time>
</trkpt>
<trkpt lat="39.498121" lon="-8.477952">
<time>2021-10-05T14:48:01Z</time>
</trkpt>
<trkpt lat="39.498096" lon="-8.477922">
<time>2021-10-05T14:48:02Z</time>
</trkpt>
<trkpt lat="39.49807" lon="-8.477877">
<time>2021-10-05T14:48:03Z</time>
</trkpt>
<trkpt lat="39.49804" lon="-8.477819">
<time>2021-10-05T14:48:04Z</time>
</trkpt>
<trkpt lat="39.498015" lon="-8.477769">
<time>2021-10-05T14:48:05Z</time>
</trkpt>
<trkpt lat="39.497986" lon="-8.477717">
<time>2021-10-05T14:48:06Z</time>
</trkpt>
<trkpt lat="39.49796" lon="-8.477684">
<time>2021-10-05T14:48:07Z</time>
</trkpt>
<trkpt lat="39.497915" lon="-8.47765">
<time>2021-10-05T14:48:08Z</time>
</trkpt>
<trkpt lat="39.497875" lon="-8.477635">
<time>2021-10-05T14:48:09Z</time>
</trkpt>
<trkpt lat="39.497833" lon="-8.477634">
<time>2021-10-05T14:48:10Z</time>
</trkpt>
<trkpt lat="39.497786" lon="-8.477637">
<time>2021-10-05T14:48:11Z</time>
</trkpt>
<trkpt lat="39.497741" lon="-8.47764">
<time>2021-10-05T14:48:12Z</time>
</trkpt>
<trkpt lat="39.497681" lon="-8.477649">
<time>2021-10-05T14:48:13Z</time>
</trkpt>
<trkpt lat="39.497605" lon="-8.47766">
<time>2021-10-05T14:48:14Z</time>
</trkpt>
<trkpt lat="39.497538" lon="-8.47767">
<time>2021-10-05T14:48:15Z</time>
</trkpt>
<trkpt lat="39.497471" lon="-8.477679">
<time>2021-10-05T14:48:16Z</time>
</trkpt>
<trkpt lat="39.497416" lon="-8.477685">
<time>2021-10-05T14:48:17Z</time>
</trkpt>
<trkpt lat="39.497348" lon="-8.477694">
<time>2021-10-05T14:48:18Z</time>
</trkpt>
<trkpt lat="39.497266" lon="-8.477709">
<time>2021-10-05T14:48:19Z</time>
</trkpt>
<trkpt lat="39.497196" lon="-8.47772">
<time>2021-10-05T14:48:20Z</time>
</trkpt>
<trkpt lat="39.49713" lon="-8.47773">
<time>2021-10-05T14:48:21Z</time>
</trkpt>
<trkpt lat="39.49706" lon="-8.477739">
<time>2021-10-05T14:48:22Z</time>
</trkpt>
<trkpt lat="39.497005" lon="-8.477749">
<time>2021-10-05T14:48:23Z</time>
</trkpt>
<trkpt lat="39.496921" lon="-8.477764">
<time>2021-10-05T14:48:24Z</time>
</trkpt>
<trkpt lat="39.496851" lon="-8.477775">
<time>2021-10-05T14:48:25Z</time>
</trkpt>
<trkpt lat="39.496798" lon="-8.477787">
<time>2021-10-05T14:48:26Z</time>
</trkpt>
<trkpt lat="39.49673" lon="-8.477807">
<time>2021-10-05T14:48:27Z</time>
</trkpt>
<trkpt lat="39.496648" lon="-8.47783">
<time>2021-10-05T14:48:28Z</time>
</trkpt>
<trkpt lat="39.496581" lon="-8.477849">
<time>2021-10-05T14:48:29Z</time>
</trkpt>
<trkpt lat="39.49652" lon="-8.477864">
<time>2021-10-05T14:48:30Z</time>
</trkpt>
<trkpt lat="39.496458" lon="-8.477882">
<time>2021-10-05T14:48:31Z</time>
</trkpt>
<trkpt lat="39.496398" lon="-8.4779">
<time>2021-10-05T14:48:32Z</time>
</trkpt>
<trkpt lat="39.496341" lon="-8.477919">
<time>2021-10-05T14:48:33Z</time>
</trkpt>
<trkpt lat="39.496285" lon="-8.47794">
<time>2021-10-05T14:48:34Z</time>
</trkpt>
<trkpt lat="39.496226" lon="-8.477957">
<time>2021-10-05T14:48:35Z</time>
</trkpt>
<trkpt lat="39.496166" lon="-8.477972">
<time>2021-10-05T14:48:36Z</time>
</trkpt>
<trkpt lat="39.49611" lon="-8.477989">
<time>2021-10-05T14:48:37Z</time>
</trkpt>
<trkpt lat="39.496051" lon="-8.478004">
<time>2021-10-05T14:48:38Z</time>
</trkpt>
<trkpt lat="39.495995" lon="-8.478014">
<time>2021-10-05T14:48:39Z</time>
</trkpt>
<trkpt lat="39.49594" lon="-8.478022">
<time>2021-10-05T14:48:40Z</time>
</trkpt>
<trkpt lat="39.495885" lon="-8.478029">
<time>2021-10-05T14:48:41Z</time>
</trkpt>
<trkpt lat="39.495833" lon="-8.47803">
<time>2021-10-05T14:48:42Z</time>
</trkpt>
<trkpt lat="39.495785" lon="-8.478029">
<time>2021-10-05T14:48:43Z</time>
</trkpt>
<trkpt lat="39.495738" lon="-8.478022">
<time>2021-10-05T14:48:44Z</time>
</trkpt>
<trkpt lat="39.495691" lon="-8.478007">
<time>2021-10-05T14:48:45Z</time>
</trkpt>
<trkpt lat="39.495648" lon="-8.477994">
<time>2021-10-05T14:48:46Z</time>
</trkpt>
<trkpt lat="39.495606" lon="-8.47798">
<time>2021-10-05T14:48:47Z</time>
</trkpt>
<trkpt lat="39.495565" lon="-8.477969">
<time>2021-10-05T14:48:48Z</time>
</trkpt>
<trkpt lat="39.495523" lon="-8.477954">
<time>2021-10-05T14:48:49Z</time>
</trkpt>
<trkpt lat="39.495481" lon="-8.477939">
<time>2021-10-05T14:48:50Z</time>
</trkpt>
<trkpt lat="39.495441" lon="-8.477922">
<time>2021-10-05T14:48:51Z</time>
</trkpt>
<trkpt lat="39.495403" lon="-8.477902">
<time>2021-10-05T14:48:52Z</time>
</trkpt>
<trkpt lat="39.495365" lon="-8.47788">
<time>2021-10-05T14:48:53Z</time>
</trkpt>
<trkpt lat="39.495325" lon="-8.477859">
<time>2021-10-05T14:48:54Z</time>
</trkpt>
<trkpt lat="39.495288" lon="-8.477839">
<time>2021-10-05T14:48:55Z</time>
</trkpt>
<trkpt lat="39.495248" lon="-8.477815">
<time>2021-10-05T14:48:56Z</time>
</trkpt>
<trkpt lat="39.495206" lon="-8.477792">
<time>2021-10-05T14:48:57Z</time>
</trkpt>
<trkpt lat="39.495165" lon="-8.477772">
<time>2021-10-05T14:48:58Z</time>
</trkpt>
<trkpt lat="39.495123" lon="-8.477755">
<time>2021-10-05T14:48:59Z</time>
</trkpt>
<trkpt lat="39.495085" lon="-8.477735">
<time>2021-10-05T14:49:00Z</time>
</trkpt>
<trkpt lat="39.495045" lon="-8.477719">
<time>2021-10-05T14:49:01Z</time>
</trkpt>
<trkpt lat="39.495005" lon="-8.477712">
<time>2021-10-05T14:49:02Z</time>
</trkpt>
<trkpt lat="39.494975" lon="-8.477707">
<time>2021-10-05T14:49:03Z</time>
</trkpt>
<trkpt lat="39.49495" lon="-8.477695">
<time>2021-10-05T14:49:04Z</time>
</trkpt>
<trkpt lat="39.494926" lon="-8.477672">
<time>2021-10-05T14:49:05Z</time>
</trkpt>
<trkpt lat="39.494891" lon="-8.477649">
<time>2021-10-05T14:49:06Z</time>
</trkpt>
<trkpt lat="39.494848" lon="-8.477632">
<time>2021-10-05T14:49:07Z</time>
</trkpt>
<trkpt lat="39.494798" lon="-8.477615">
<time>2021-10-05T14:49:08Z</time>
</trkpt>
<trkpt lat="39.494746" lon="-8.4776">
<time>2021-10-05T14:49:09Z</time>
</trkpt>
<trkpt lat="39.49469" lon="-8.477587">
<time>2021-10-05T14:49:10Z</time>
</trkpt>
<trkpt lat="39.494631" lon="-8.477569">
<time>2021-10-05T14:49:11Z</time>
</trkpt>
<trkpt lat="39.494573" lon="-8.477545">
<time>2021-10-05T14:49:12Z</time>
</trkpt>
<trkpt lat="39.494516" lon="-8.477524">
<time>2021-10-05T14:49:13Z</time>
</trkpt>
<trkpt lat="39.494461" lon="-8.477515">
<time>2021-10-05T14:49:14Z</time>
</trkpt>
<trkpt lat="39.494416" lon="-8.477527">
<time>2021-10-05T14:49:15Z</time>
</trkpt>
<trkpt lat="39.494383" lon="-8.477555">
<time>2021-10-05T14:49:16Z</time>
</trkpt>
<trkpt lat="39.494351" lon="-8.477594">
<time>2021-10-05T14:49:17Z</time>
</trkpt>
<trkpt lat="39.494328" lon="-8.477644">
<time>2021-10-05T14:49:18Z</time>
</trkpt>
<trkpt lat="39.494313" lon="-8.477702">
<time>2021-10-05T14:49:19Z</time>
</trkpt>
<trkpt lat="39.494301" lon="-8.477765">
<time>2021-10-05T14:49:20Z</time>
</trkpt>
<trkpt lat="39.494295" lon="-8.477835">
<time>2021-10-05T14:49:21Z</time>
</trkpt>
<trkpt lat="39.49429" lon="-8.477909">
<time>2021-10-05T14:49:22Z</time>
</trkpt>
<trkpt lat="39.494286" lon="-8.477984">
<time>2021-10-05T14:49:23Z</time>
</trkpt>
<trkpt lat="39.49429" lon="-8.47806">
<time>2021-10-05T14:49:24Z</time>
</trkpt>
<trkpt lat="39.494293" lon="-8.478134">
<time>2021-10-05T14:49:25Z</time>
</trkpt>
<trkpt lat="39.494305" lon="-8.478202">
<time>2021-10-05T14:49:26Z</time>
</trkpt>
<trkpt lat="39.494316" lon="-8.47826">
<time>2021-10-05T14:49:27Z</time>
</trkpt>
<trkpt lat="39.494328" lon="-8.478319">
<time>2021-10-05T14:49:28Z</time>
</trkpt>
<trkpt lat="39.494331" lon="-8.478375">
<time>2021-10-05T14:49:29Z</time>
</trkpt>
<trkpt lat="39.494321" lon="-8.478429">
<time>2021-10-05T14:49:30Z</time>
</trkpt>
<trkpt lat="39.4943" lon="-8.47847">
<time>2021-10-05T14:49:31Z</time>
</trkpt>
<trkpt lat="39.494266" lon="-8.478499">
<time>2021-10-05T14:49:32Z</time>
</trkpt>
<trkpt lat="39.494228" lon="-8.478515">
<time>2021-10-05T14:49:33Z</time>
</trkpt>
<trkpt lat="39.494186" lon="-8.478529">
<time>2021-10-05T14:49:34Z</time>
</trkpt>
<trkpt lat="39.494141" lon="-8.478535">
<time>2021-10-05T14:49:35Z</time>
</trkpt>
<trkpt lat="39.494093" lon="-8.478535">
<time>2021-10-05T14:49:36Z</time>
</trkpt>
<trkpt lat="39.494051" lon="-8.478527">
<time>2021-10-05T14:49:37Z</time>
</trkpt>
<trkpt lat="39.49401" lon="-8.478507">
<time>2021-10-05T14:49:38Z</time>
</trkpt>
<trkpt lat="39.493975" lon="-8.47847">
<time>2021-10-05T14:49:39Z</time>
</trkpt>
<trkpt lat="39.493945" lon="-8.478424">
<time>2021-10-05T14:49:40Z</time>
</trkpt>
<trkpt lat="39.493916" lon="-8.478375">
<time>2021-10-05T14:49:41Z</time>
</trkpt>
<trkpt lat="39.493885" lon="-8.478339">
<time>2021-10-05T14:49:42Z</time>
</trkpt>
<trkpt lat="39.493853" lon="-8.478322">
<time>2021-10-05T14:49:43Z</time>
</trkpt>
<trkpt lat="39.493821" lon="-8.47832">
<time>2021-10-05T14:49:44Z</time>
</trkpt>
<trkpt lat="39.493795" lon="-8.478332">
<time>2021-10-05T14:49:45Z</time>
</trkpt>
<trkpt lat="39.493771" lon="-8.478354">
<time>2021-10-05T14:49:46Z</time>
</trkpt>
<trkpt lat="39.493746" lon="-8.478385">
<time>2021-10-05T14:49:47Z</time>
</trkpt>
<trkpt lat="39.493716" lon="-8.478447">
<time>2021-10-05T14:49:48Z</time>
</trkpt>
<trkpt lat="39.49368" lon="-8.478487">
<time>2021-10-05T14:49:49Z</time>
</trkpt>
<trkpt lat="39.493643" lon="-8.478515">
<time>2021-10-05T14:49:50Z</time>
</trkpt>
<trkpt lat="39.4936" lon="-8.478514">
<time>2021-10-05T14:49:51Z</time>
</trkpt>
<trkpt lat="39.49356" lon="-8.478484">
<time>2021-10-05T14:49:52Z</time>
</trkpt>
<trkpt lat="39.493518" lon="-8.478437">
<time>2021-10-05T14:49:53Z</time>
</trkpt>
<trkpt lat="39.493473" lon="-8.478385">
<time>2021-10-05T14:49:54Z</time>
</trkpt>
<trkpt lat="39.493428" lon="-8.478334">
<time>2021-10-05T14:49:55Z</time>
</trkpt>
<trkpt lat="39.493385" lon="-8.47828">
<time>2021-10-05T14:49:56Z</time>
</trkpt>
<trkpt lat="39.49334" lon="-8.478225">
<time>2021-10-05T14:49:57Z</time>
</trkpt>
<trkpt lat="39.493295" lon="-8.478165">
<time>2021-10-05T14:49:58Z</time>
</trkpt>
<trkpt lat="39.493246" lon="-8.478104">
<time>2021-10-05T14:49:59Z</time>
</trkpt>
<trkpt lat="39.493198" lon="-8.478042">
<time>2021-10-05T14:50:00Z</time>
</trkpt>
<trkpt lat="39.493153" lon="-8.477982">
<time>2021-10-05T14:50:01Z</time>
</trkpt>
<trkpt lat="39.49311" lon="-8.47793">
<time>2021-10-05T14:50:02Z</time>
</trkpt>
<trkpt lat="39.493065" lon="-8.477874">
<time>2021-10-05T14:50:03Z</time>
</trkpt>
<trkpt lat="39.493023" lon="-8.477819">
<time>2021-10-05T14:50:04Z</time>
</trkpt>
<trkpt lat="39.492983" lon="-8.477769">
<time>2021-10-05T14:50:05Z</time>
</trkpt>
<trkpt lat="39.49294" lon="-8.477719">
<time>2021-10-05T14:50:06Z</time>
</trkpt>
<trkpt lat="39.492898" lon="-8.477672">
<time>2021-10-05T14:50:07Z</time>
</trkpt>
<trkpt lat="39.492855" lon="-8.477627">
<time>2021-10-05T14:50:08Z</time>
</trkpt>
<trkpt lat="39.492813" lon="-8.47758">
<time>2021-10-05T14:50:09Z</time>
</trkpt>
<trkpt lat="39.492771" lon="-8.477532">
<time>2021-10-05T14:50:10Z</time>
</trkpt>
<trkpt lat="39.492731" lon="-8.477479">
<time>2021-10-05T14:50:11Z</time>
</trkpt>
<trkpt lat="39.492688" lon="-8.477422">
<time>2021-10-05T14:50:12Z</time>
</trkpt>
<trkpt lat="39.49265" lon="-8.477372">
<time>2021-10-05T14:50:13Z</time>
</trkpt>
<trkpt lat="39.492616" lon="-8.477322">
<time>2021-10-05T14:50:14Z</time>
</trkpt>
<trkpt lat="39.492578" lon="-8.477279">
<time>2021-10-05T14:50:15Z</time>
</trkpt>
<trkpt lat="39.49254" lon="-8.47724">
<time>2021-10-05T14:50:16Z</time>
</trkpt>
<trkpt lat="39.492505" lon="-8.477204">
<time>2021-10-05T14:50:17Z</time>
</trkpt>
<trkpt lat="39.49247" lon="-8.477167">
<time>2021-10-05T14:50:18Z</time>
</trkpt>
<trkpt lat="39.492435" lon="-8.47713">
<time>2021-10-05T14:50:19Z</time>
</trkpt>
<trkpt lat="39.492398" lon="-8.477095">
<time>2021-10-05T14:50:20Z</time>
</trkpt>
<trkpt lat="39.492365" lon="-8.47706">
<time>2021-10-05T14:50:21Z</time>
</trkpt>
<trkpt lat="39.492333" lon="-8.47703">
<time>2021-10-05T14:50:22Z</time>
</trkpt>
<trkpt lat="39.492303" lon="-8.476997">
<time>2021-10-05T14:50:23Z</time>
</trkpt>
<trkpt lat="39.49227" lon="-8.476964">
<time>2021-10-05T14:50:24Z</time>
</trkpt>
<trkpt lat="39.492236" lon="-8.476929">
<time>2021-10-05T14:50:25Z</time>
</trkpt>
<trkpt lat="39.492203" lon="-8.476895">
<time>2021-10-05T14:50:26Z</time>
</trkpt>
<trkpt lat="39.492168" lon="-8.476867">
<time>2021-10-05T14:50:27Z</time>
</trkpt>
<trkpt lat="39.492136" lon="-8.476857">
<time>2021-10-05T14:50:28Z</time>
</trkpt>
<trkpt lat="39.492096" lon="-8.476859">
<time>2021-10-05T14:50:29Z</time>
</trkpt>
<trkpt lat="39.492056" lon="-8.476884">
<time>2021-10-05T14:50:30Z</time>
</trkpt>
<trkpt lat="39.492025" lon="-8.47692">
<time>2021-10-05T14:50:31Z</time>
</trkpt>
<trkpt lat="39.491993" lon="-8.476969">
<time>2021-10-05T14:50:32Z</time>
</trkpt>
<trkpt lat="39.491963" lon="-8.477027">
<time>2021-10-05T14:50:33Z</time>
</trkpt>
<trkpt lat="39.491931" lon="-8.477089">
<time>2021-10-05T14:50:34Z</time>
</trkpt>
<trkpt lat="39.491898" lon="-8.47715">
<time>2021-10-05T14:50:35Z</time>
</trkpt>
<trkpt lat="39.491868" lon="-8.477214">
<time>2021-10-05T14:50:36Z</time>
</trkpt>
<trkpt lat="39.491838" lon="-8.47728">
<time>2021-10-05T14:50:37Z</time>
</trkpt>
<trkpt lat="39.491805" lon="-8.477347">
<time>2021-10-05T14:50:38Z</time>
</trkpt>
<trkpt lat="39.491773" lon="-8.477407">
<time>2021-10-05T14:50:39Z</time>
</trkpt>
<trkpt lat="39.491743" lon="-8.477467">
<time>2021-10-05T14:50:40Z</time>
</trkpt>
<trkpt lat="39.491713" lon="-8.477527">
<time>2021-10-05T14:50:41Z</time>
</trkpt>
<trkpt lat="39.491683" lon="-8.477587">
<time>2021-10-05T14:50:42Z</time>
</trkpt>
<trkpt lat="39.491653" lon="-8.477649">
<time>2021-10-05T14:50:43Z</time>
</trkpt>
<trkpt lat="39.49162" lon="-8.477712">
<time>2021-10-05T14:50:44Z</time>
</trkpt>
<trkpt lat="39.491588" lon="-8.477772">
<time>2021-10-05T14:50:45Z</time>
</trkpt>
<trkpt lat="39.49156" lon="-8.477834">
<time>2021-10-05T14:50:46Z</time>
</trkpt>
<trkpt lat="39.49153" lon="-8.477889">
<time>2021-10-05T14:50:47Z</time>
</trkpt>
<trkpt lat="39.4915" lon="-8.477944">
<time>2021-10-05T14:50:48Z</time>
</trkpt>
<trkpt lat="39.491466" lon="-8.477997">
<time>2021-10-05T14:50:49Z</time>
</trkpt>
<trkpt lat="39.491428" lon="-8.478054">
<time>2021-10-05T14:50:50Z</time>
</trkpt>
<trkpt lat="39.49139" lon="-8.47811">
<time>2021-10-05T14:50:51Z</time>
</trkpt>
<trkpt lat="39.49135" lon="-8.478172">
<time>2021-10-05T14:50:52Z</time>
</trkpt>
<trkpt lat="39.491313" lon="-8.478235">
<time>2021-10-05T14:50:53Z</time>
</trkpt>
<trkpt lat="39.491283" lon="-8.478292">
<time>2021-10-05T14:50:54Z</time>
</trkpt>
<trkpt lat="39.491253" lon="-8.478354">
<time>2021-10-05T14:50:55Z</time>
</trkpt>
<trkpt lat="39.49122" lon="-8.478424">
<time>2021-10-05T14:50:56Z</time>
</trkpt>
<trkpt lat="39.491185" lon="-8.478505">
<time>2021-10-05T14:50:57Z</time>
</trkpt>
<trkpt lat="39.491148" lon="-8.47859">
<time>2021-10-05T14:50:58Z</time>
</trkpt>
<trkpt lat="39.491105" lon="-8.478677">
<time>2021-10-05T14:50:59Z</time>
</trkpt>
<trkpt lat="39.49106" lon="-8.478762">
<time>2021-10-05T14:51:00Z</time>
</trkpt>
<trkpt lat="39.491018" lon="-8.47884">
<time>2021-10-05T14:51:01Z</time>
</trkpt>
<trkpt lat="39.490981" lon="-8.478904">
<time>2021-10-05T14:51:02Z</time>
</trkpt>
<trkpt lat="39.490946" lon="-8.478949">
<time>2021-10-05T14:51:03Z</time>
</trkpt>
<trkpt lat="39.490913" lon="-8.478974">
<time>2021-10-05T14:51:04Z</time>
</trkpt>
<trkpt lat="39.490885" lon="-8.47898">
<time>2021-10-05T14:51:05Z</time>
</trkpt>
<trkpt lat="39.490855" lon="-8.478972">
<time>2021-10-05T14:51:06Z</time>
</trkpt>
<trkpt lat="39.490823" lon="-8.478954">
<time>2021-10-05T14:51:07Z</time>
</trkpt>
<trkpt lat="39.490788" lon="-8.478924">
<time>2021-10-05T14:51:08Z</time>
</trkpt>
<trkpt lat="39.490751" lon="-8.478889">
<time>2021-10-05T14:51:09Z</time>
</trkpt>
<trkpt lat="39.490711" lon="-8.478847">
<time>2021-10-05T14:51:10Z</time>
</trkpt>
<trkpt lat="39.490668" lon="-8.478805">
<time>2021-10-05T14:51:11Z</time>
</trkpt>
<trkpt lat="39.490621" lon="-8.478767">
<time>2021-10-05T14:51:12Z</time>
</trkpt>
<trkpt lat="39.49058" lon="-8.478732">
<time>2021-10-05T14:51:13Z</time>
</trkpt>
<trkpt lat="39.490541" lon="-8.478717">
<time>2021-10-05T14:51:14Z</time>
</trkpt>
<trkpt lat="39.490511" lon="-8.478724">
<time>2021-10-05T14:51:15Z</time>
</trkpt>
<trkpt lat="39.490488" lon="-8.478742">
<time>2021-10-05T14:51:16Z</time>
</trkpt>
<trkpt lat="39.490473" lon="-8.47877">
<time>2021-10-05T14:51:17Z</time>
</trkpt>
<trkpt lat="39.490461" lon="-8.478807">
<time>2021-10-05T14:51:18Z</time>
</trkpt>
<trkpt lat="39.490445" lon="-8.478847">
<time>2021-10-05T14:51:19Z</time>
</trkpt>
<trkpt lat="39.490425" lon="-8.478899">
<time>2021-10-05T14:51:20Z</time>
</trkpt>
<trkpt lat="39.49041" lon="-8.478957">
<time>2021-10-05T14:51:21Z</time>
</trkpt>
<trkpt lat="39.490393" lon="-8.479015">
<time>2021-10-05T14:51:22Z</time>
</trkpt>
<trkpt lat="39.490375" lon="-8.479069">
<time>2021-10-05T14:51:23Z</time>
</trkpt>
<trkpt lat="39.490355" lon="-8.47912">
<time>2021-10-05T14:51:24Z</time>
</trkpt>
<trkpt lat="39.490336" lon="-8.479169">
<time>2021-10-05T14:51:25Z</time>
</trkpt>
<trkpt lat="39.490318" lon="-8.479212">
<time>2021-10-05T14:51:26Z</time>
</trkpt>
<trkpt lat="39.490301" lon="-8.479254">
<time>2021-10-05T14:51:27Z</time>
</trkpt>
<trkpt lat="39.490286" lon="-8.479297">
<time>2021-10-05T14:51:28Z</time>
</trkpt>
<trkpt lat="39.490273" lon="-8.47933">
<time>2021-10-05T14:51:29Z</time>
</trkpt>
<trkpt lat="39.490256" lon="-8.479372">
<time>2021-10-05T14:51:30Z</time>
</trkpt>
<trkpt lat="39.490236" lon="-8.47942">
<time>2021-10-05T14:51:31Z</time>
</trkpt>
<trkpt lat="39.49022" lon="-8.479459">
<time>2021-10-05T14:51:32Z</time>
</trkpt>
<trkpt lat="39.490206" lon="-8.479499">
<time>2021-10-05T14:51:33Z</time>
</trkpt>
<trkpt lat="39.490195" lon="-8.47953">
<time>2021-10-05T14:51:34Z</time>
</trkpt>
<trkpt lat="39.49018" lon="-8.47957">
<time>2021-10-05T14:51:35Z</time>
</trkpt>
<trkpt lat="39.490165" lon="-8.479615">
<time>2021-10-05T14:51:36Z</time>
</trkpt>
<trkpt lat="39.490153" lon="-8.479655">
<time>2021-10-05T14:51:37Z</time>
</trkpt>
<trkpt lat="39.490138" lon="-8.4797">
<time>2021-10-05T14:51:38Z</time>
</trkpt>
<trkpt lat="39.490121" lon="-8.479749">
<time>2021-10-05T14:51:39Z</time>
</trkpt>
<trkpt lat="39.490105" lon="-8.479799">
<time>2021-10-05T14:51:40Z</time>
</trkpt>
<trkpt lat="39.490088" lon="-8.47985">
<time>2021-10-05T14:51:41Z</time>
</trkpt>
<trkpt lat="39.490071" lon="-8.479902">
<time>2021-10-05T14:51:42Z</time>
</trkpt>
<trkpt lat="39.490055" lon="-8.479955">
<time>2021-10-05T14:51:43Z</time>
</trkpt>
<trkpt lat="39.490038" lon="-8.480009">
<time>2021-10-05T14:51:44Z</time>
</trkpt>
<trkpt lat="39.490021" lon="-8.480062">
<time>2021-10-05T14:51:45Z</time>
</trkpt>
<trkpt lat="39.490006" lon="-8.480114">
<time>2021-10-05T14:51:46Z</time>
</trkpt>
<trkpt lat="39.489993" lon="-8.480162">
<time>2021-10-05T14:51:47Z</time>
</trkpt>
<trkpt lat="39.489981" lon="-8.48021">
<time>2021-10-05T14:51:48Z</time>
</trkpt>
<trkpt lat="39.489976" lon="-8.480257">
<time>2021-10-05T14:51:49Z</time>
</trkpt>
<trkpt lat="39.489975" lon="-8.480295">
<time>2021-10-05T14:51:50Z</time>
</trkpt>
<trkpt lat="39.489973" lon="-8.480319">
<time>2021-10-05T14:51:51Z</time>
</trkpt>
<trkpt lat="39.489966" lon="-8.48033">
<time>2021-10-05T14:51:52Z</time>
</trkpt>
<trkpt lat="39.48996" lon="-8.480329">
<time>2021-10-05T14:51:53Z</time>
</trkpt>
<trkpt lat="39.489948" lon="-8.48032">
<time>2021-10-05T14:51:54Z</time>
</trkpt>
<trkpt lat="39.48993" lon="-8.480307">
<time>2021-10-05T14:51:55Z</time>
</trkpt>
<trkpt lat="39.4899" lon="-8.48029">
<time>2021-10-05T14:51:56Z</time>
</trkpt>
<trkpt lat="39.489861" lon="-8.48027">
<time>2021-10-05T14:51:57Z</time>
</trkpt>
<trkpt lat="39.489818" lon="-8.480254">
<time>2021-10-05T14:51:58Z</time>
</trkpt>
<trkpt lat="39.489771" lon="-8.480239">
<time>2021-10-05T14:51:59Z</time>
</trkpt>
<trkpt lat="39.489723" lon="-8.480219">
<time>2021-10-05T14:52:00Z</time>
</trkpt>
<trkpt lat="39.48967" lon="-8.480199">
<time>2021-10-05T14:52:01Z</time>
</trkpt>
<trkpt lat="39.48961" lon="-8.480175">
<time>2021-10-05T14:52:02Z</time>
</trkpt>
<trkpt lat="39.489543" lon="-8.48015">
<time>2021-10-05T14:52:03Z</time>
</trkpt>
<trkpt lat="39.489475" lon="-8.480124">
<time>2021-10-05T14:52:04Z</time>
</trkpt>
<trkpt lat="39.489408" lon="-8.480099">
<time>2021-10-05T14:52:05Z</time>
</trkpt>
<trkpt lat="39.489343" lon="-8.480069">
<time>2021-10-05T14:52:06Z</time>
</trkpt>
<trkpt lat="39.489278" lon="-8.480034">
<time>2021-10-05T14:52:07Z</time>
</trkpt>
<trkpt lat="39.489213" lon="-8.479999">
<time>2021-10-05T14:52:08Z</time>
</trkpt>
<trkpt lat="39.489148" lon="-8.479964">
<time>2021-10-05T14:52:09Z</time>
</trkpt>
<trkpt lat="39.489085" lon="-8.479932">
<time>2021-10-05T14:52:10Z</time>
</trkpt>
<trkpt lat="39.489018" lon="-8.479899">
<time>2021-10-05T14:52:11Z</time>
</trkpt>
<trkpt lat="39.488951" lon="-8.479867">
<time>2021-10-05T14:52:12Z</time>
</trkpt>
<trkpt lat="39.488886" lon="-8.479832">
<time>2021-10-05T14:52:13Z</time>
</trkpt>
<trkpt lat="39.48882" lon="-8.479799">
<time>2021-10-05T14:52:14Z</time>
</trkpt>
<trkpt lat="39.488753" lon="-8.479769">
<time>2021-10-05T14:52:15Z</time>
</trkpt>
<trkpt lat="39.488686" lon="-8.479739">
<time>2021-10-05T14:52:16Z</time>
</trkpt>
<trkpt lat="39.488616" lon="-8.47971">
<time>2021-10-05T14:52:17Z</time>
</trkpt>
<trkpt lat="39.488543" lon="-8.479684">
<time>2021-10-05T14:52:18Z</time>
</trkpt>
<trkpt lat="39.48847" lon="-8.479664">
<time>2021-10-05T14:52:19Z</time>
</trkpt>
<trkpt lat="39.488393" lon="-8.479647">
<time>2021-10-05T14:52:20Z</time>
</trkpt>
<trkpt lat="39.488331" lon="-8.479635">
<time>2021-10-05T14:52:21Z</time>
</trkpt>
<trkpt lat="39.488245" lon="-8.479615">
<time>2021-10-05T14:52:22Z</time>
</trkpt>
<trkpt lat="39.488171" lon="-8.479595">
<time>2021-10-05T14:52:23Z</time>
</trkpt>
<trkpt lat="39.488115" lon="-8.479577">
<time>2021-10-05T14:52:24Z</time>
</trkpt>
<trkpt lat="39.488045" lon="-8.47955">
<time>2021-10-05T14:52:25Z</time>
</trkpt>
<trkpt lat="39.487978" lon="-8.479514">
<time>2021-10-05T14:52:26Z</time>
</trkpt>
<trkpt lat="39.487911" lon="-8.479469">
<time>2021-10-05T14:52:27Z</time>
</trkpt>
<trkpt lat="39.487836" lon="-8.479409">
<time>2021-10-05T14:52:28Z</time>
</trkpt>
<trkpt lat="39.48779" lon="-8.479362">
<time>2021-10-05T14:52:29Z</time>
</trkpt>
<trkpt lat="39.487726" lon="-8.479305">
<time>2021-10-05T14:52:30Z</time>
</trkpt>
<trkpt lat="39.48766" lon="-8.479257">
<time>2021-10-05T14:52:31Z</time>
</trkpt>
<trkpt lat="39.487588" lon="-8.479217">
<time>2021-10-05T14:52:32Z</time>
</trkpt>
<trkpt lat="39.487515" lon="-8.479187">
<time>2021-10-05T14:52:33Z</time>
</trkpt>
<trkpt lat="39.487441" lon="-8.479159">
<time>2021-10-05T14:52:34Z</time>
</trkpt>
<trkpt lat="39.487365" lon="-8.479135">
<time>2021-10-05T14:52:35Z</time>
</trkpt>
<trkpt lat="39.48729" lon="-8.479109">
<time>2021-10-05T14:52:36Z</time>
</trkpt>
<trkpt lat="39.487218" lon="-8.47908">
<time>2021-10-05T14:52:37Z</time>
</trkpt>
<trkpt lat="39.487135" lon="-8.479042">
<time>2021-10-05T14:52:38Z</time>
</trkpt>
<trkpt lat="39.487068" lon="-8.479012">
<time>2021-10-05T14:52:39Z</time>
</trkpt>
<trkpt lat="39.487001" lon="-8.478985">
<time>2021-10-05T14:52:40Z</time>
</trkpt>
<trkpt lat="39.486945" lon="-8.478962">
<time>2021-10-05T14:52:41Z</time>
</trkpt>
<trkpt lat="39.486871" lon="-8.47893">
<time>2021-10-05T14:52:42Z</time>
</trkpt>
<trkpt lat="39.486796" lon="-8.478899">
<time>2021-10-05T14:52:43Z</time>
</trkpt>
<trkpt lat="39.486705" lon="-8.478862">
<time>2021-10-05T14:52:44Z</time>
</trkpt>
<trkpt lat="39.486626" lon="-8.478837">
<time>2021-10-05T14:52:45Z</time>
</trkpt>
<trkpt lat="39.486565" lon="-8.47882">
<time>2021-10-05T14:52:46Z</time>
</trkpt>
<trkpt lat="39.486491" lon="-8.478799">
<time>2021-10-05T14:52:47Z</time>
</trkpt>
<trkpt lat="39.486403" lon="-8.47877">
<time>2021-10-05T14:52:48Z</time>
</trkpt>
<trkpt lat="39.486333" lon="-8.478749">
<time>2021-10-05T14:52:49Z</time>
</trkpt>
<trkpt lat="39.486268" lon="-8.478722">
<time>2021-10-05T14:52:50Z</time>
</trkpt>
<trkpt lat="39.486216" lon="-8.4787">
<time>2021-10-05T14:52:51Z</time>
</trkpt>
<trkpt lat="39.486155" lon="-8.478672">
<time>2021-10-05T14:52:52Z</time>
</trkpt>
<trkpt lat="39.486093" lon="-8.478625">
<time>2021-10-05T14:52:53Z</time>
</trkpt>
<trkpt lat="39.486056" lon="-8.478569">
<time>2021-10-05T14:52:54Z</time>
</trkpt>
<trkpt lat="39.486046" lon="-8.478497">
<time>2021-10-05T14:52:55Z</time>
</trkpt>
<trkpt lat="39.486055" lon="-8.478434">
<time>2021-10-05T14:52:56Z</time>
</trkpt>
<trkpt lat="39.486078" lon="-8.478334">
<time>2021-10-05T14:52:57Z</time>
</trkpt>
<trkpt lat="39.486106" lon="-8.478249">
<time>2021-10-05T14:52:58Z</time>
</trkpt>
<trkpt lat="39.486143" lon="-8.478145">
<time>2021-10-05T14:52:59Z</time>
</trkpt>
<trkpt lat="39.486181" lon="-8.478047">
<time>2021-10-05T14:53:00Z</time>
</trkpt>
<trkpt lat="39.486213" lon="-8.47797">
<time>2021-10-05T14:53:01Z</time>
</trkpt>
<trkpt lat="39.486248" lon="-8.477875">
<time>2021-10-05T14:53:02Z</time>
</trkpt>
<trkpt lat="39.486286" lon="-8.47776">
<time>2021-10-05T14:53:03Z</time>
</trkpt>
<trkpt lat="39.48632" lon="-8.477664">
<time>2021-10-05T14:53:04Z</time>
</trkpt>
<trkpt lat="39.486356" lon="-8.477567">
<time>2021-10-05T14:53:05Z</time>
</trkpt>
<trkpt lat="39.486385" lon="-8.47749">
<time>2021-10-05T14:53:06Z</time>
</trkpt>
<trkpt lat="39.486418" lon="-8.477399">
<time>2021-10-05T14:53:07Z</time>
</trkpt>
<trkpt lat="39.486463" lon="-8.477289">
<time>2021-10-05T14:53:08Z</time>
</trkpt>
<trkpt lat="39.486503" lon="-8.477199">
<time>2021-10-05T14:53:09Z</time>
</trkpt>
<trkpt lat="39.486545" lon="-8.47711">
<time>2021-10-05T14:53:10Z</time>
</trkpt>
<trkpt lat="39.486593" lon="-8.477024">
<time>2021-10-05T14:53:11Z</time>
</trkpt>
<trkpt lat="39.486631" lon="-8.476955">
<time>2021-10-05T14:53:12Z</time>
</trkpt>
<trkpt lat="39.48668" lon="-8.47687">
<time>2021-10-05T14:53:13Z</time>
</trkpt>
<trkpt lat="39.486736" lon="-8.476767">
<time>2021-10-05T14:53:14Z</time>
</trkpt>
<trkpt lat="39.486785" lon="-8.476682">
<time>2021-10-05T14:53:15Z</time>
</trkpt>
<trkpt lat="39.486836" lon="-8.476597">
<time>2021-10-05T14:53:16Z</time>
</trkpt>
<trkpt lat="39.486885" lon="-8.476512">
<time>2021-10-05T14:53:17Z</time>
</trkpt>
<trkpt lat="39.486935" lon="-8.476425">
<time>2021-10-05T14:53:18Z</time>
</trkpt>
<trkpt lat="39.486983" lon="-8.476337">
<time>2021-10-05T14:53:19Z</time>
</trkpt>
<trkpt lat="39.487031" lon="-8.476249">
<time>2021-10-05T14:53:20Z</time>
</trkpt>
<trkpt lat="39.487085" lon="-8.476159">
<time>2021-10-05T14:53:21Z</time>
</trkpt>
<trkpt lat="39.48714" lon="-8.476069">
<time>2021-10-05T14:53:22Z</time>
</trkpt>
<trkpt lat="39.487196" lon="-8.47598">
<time>2021-10-05T14:53:23Z</time>
</trkpt>
<trkpt lat="39.48725" lon="-8.47589">
<time>2021-10-05T14:53:24Z</time>
</trkpt>
<trkpt lat="39.4873" lon="-8.4758">
<time>2021-10-05T14:53:25Z</time>
</trkpt>
<trkpt lat="39.487335" lon="-8.47573">
<time>2021-10-05T14:53:26Z</time>
</trkpt>
<trkpt lat="39.487376" lon="-8.475645">
<time>2021-10-05T14:53:27Z</time>
</trkpt>
<trkpt lat="39.487426" lon="-8.475544">
<time>2021-10-05T14:53:28Z</time>
</trkpt>
<trkpt lat="39.487468" lon="-8.475462">
<time>2021-10-05T14:53:29Z</time>
</trkpt>
<trkpt lat="39.487503" lon="-8.475379">
<time>2021-10-05T14:53:30Z</time>
</trkpt>
<trkpt lat="39.487533" lon="-8.475315">
<time>2021-10-05T14:53:31Z</time>
</trkpt>
<trkpt lat="39.48757" lon="-8.475239">
<time>2021-10-05T14:53:32Z</time>
</trkpt>
<trkpt lat="39.487608" lon="-8.475165">
<time>2021-10-05T14:53:33Z</time>
</trkpt>
<trkpt lat="39.487645" lon="-8.475092">
<time>2021-10-05T14:53:34Z</time>
</trkpt>
<trkpt lat="39.48768" lon="-8.475017">
<time>2021-10-05T14:53:35Z</time>
</trkpt>
<trkpt lat="39.487713" lon="-8.47494">
<time>2021-10-05T14:53:36Z</time>
</trkpt>
<trkpt lat="39.48775" lon="-8.474867">
<time>2021-10-05T14:53:37Z</time>
</trkpt>
<trkpt lat="39.487785" lon="-8.474795">
<time>2021-10-05T14:53:38Z</time>
</trkpt>
<trkpt lat="39.487826" lon="-8.47471">
<time>2021-10-05T14:53:39Z</time>
</trkpt>
<trkpt lat="39.487855" lon="-8.474654">
<time>2021-10-05T14:53:40Z</time>
</trkpt>
<trkpt lat="39.48789" lon="-8.474584">
<time>2021-10-05T14:53:41Z</time>
</trkpt>
<trkpt lat="39.487921" lon="-8.474514">
<time>2021-10-05T14:53:42Z</time>
</trkpt>
<trkpt lat="39.487951" lon="-8.474445">
<time>2021-10-05T14:53:43Z</time>
</trkpt>
<trkpt lat="39.487988" lon="-8.474364">
<time>2021-10-05T14:53:44Z</time>
</trkpt>
<trkpt lat="39.488015" lon="-8.474305">
<time>2021-10-05T14:53:45Z</time>
</trkpt>
<trkpt lat="39.48805" lon="-8.474234">
<time>2021-10-05T14:53:46Z</time>
</trkpt>
<trkpt lat="39.488083" lon="-8.474164">
<time>2021-10-05T14:53:47Z</time>
</trkpt>
<trkpt lat="39.488113" lon="-8.47409">
<time>2021-10-05T14:53:48Z</time>
</trkpt>
<trkpt lat="39.48815" lon="-8.474002">
<time>2021-10-05T14:53:49Z</time>
</trkpt>
<trkpt lat="39.488175" lon="-8.473944">
<time>2021-10-05T14:53:50Z</time>
</trkpt>
<trkpt lat="39.488213" lon="-8.473852">
<time>2021-10-05T14:53:51Z</time>
</trkpt>
<trkpt lat="39.488236" lon="-8.473789">
<time>2021-10-05T14:53:52Z</time>
</trkpt>
<trkpt lat="39.48827" lon="-8.473714">
<time>2021-10-05T14:53:53Z</time>
</trkpt>
<trkpt lat="39.488311" lon="-8.473622">
<time>2021-10-05T14:53:54Z</time>
</trkpt>
<trkpt lat="39.488345" lon="-8.473544">
<time>2021-10-05T14:53:55Z</time>
</trkpt>
<trkpt lat="39.488376" lon="-8.473467">
<time>2021-10-05T14:53:56Z</time>
</trkpt>
<trkpt lat="39.488401" lon="-8.473407">
<time>2021-10-05T14:53:57Z</time>
</trkpt>
<trkpt lat="39.488431" lon="-8.473332">
<time>2021-10-05T14:53:58Z</time>
</trkpt>
<trkpt lat="39.48846" lon="-8.47326">
<time>2021-10-05T14:53:59Z</time>
</trkpt>
<trkpt lat="39.488495" lon="-8.473175">
<time>2021-10-05T14:54:00Z</time>
</trkpt>
<trkpt lat="39.488523" lon="-8.473105">
<time>2021-10-05T14:54:01Z</time>
</trkpt>
<trkpt lat="39.488548" lon="-8.473035">
<time>2021-10-05T14:54:02Z</time>
</trkpt>
<trkpt lat="39.488568" lon="-8.472982">
<time>2021-10-05T14:54:03Z</time>
</trkpt>
<trkpt lat="39.488591" lon="-8.472914">
<time>2021-10-05T14:54:04Z</time>
</trkpt>
<trkpt lat="39.488623" lon="-8.47283">
<time>2021-10-05T14:54:05Z</time>
</trkpt>
<trkpt lat="39.48865" lon="-8.472762">
<time>2021-10-05T14:54:06Z</time>
</trkpt>
<trkpt lat="39.488676" lon="-8.472695">
<time>2021-10-05T14:54:07Z</time>
</trkpt>
<trkpt lat="39.488698" lon="-8.472639">
<time>2021-10-05T14:54:08Z</time>
</trkpt>
<trkpt lat="39.488723" lon="-8.472567">
<time>2021-10-05T14:54:09Z</time>
</trkpt>
<trkpt lat="39.488738" lon="-8.472477">
<time>2021-10-05T14:54:10Z</time>
</trkpt>
<trkpt lat="39.488735" lon="-8.472412">
<time>2021-10-05T14:54:11Z</time>
</trkpt>
<trkpt lat="39.488718" lon="-8.472334">
<time>2021-10-05T14:54:12Z</time>
</trkpt>
<trkpt lat="39.48869" lon="-8.472254">
<time>2021-10-05T14:54:13Z</time>
</trkpt>
<trkpt lat="39.488658" lon="-8.472172">
<time>2021-10-05T14:54:14Z</time>
</trkpt>
<trkpt lat="39.48862" lon="-8.472087">
<time>2021-10-05T14:54:15Z</time>
</trkpt>
<trkpt lat="39.488575" lon="-8.471984">
<time>2021-10-05T14:54:16Z</time>
</trkpt>
<trkpt lat="39.488533" lon="-8.471897">
<time>2021-10-05T14:54:17Z</time>
</trkpt>
<trkpt lat="39.488498" lon="-8.471827">
<time>2021-10-05T14:54:18Z</time>
</trkpt>
<trkpt lat="39.488451" lon="-8.47174">
<time>2021-10-05T14:54:19Z</time>
</trkpt>
<trkpt lat="39.48839" lon="-8.471642">
<time>2021-10-05T14:54:20Z</time>
</trkpt>
<trkpt lat="39.488328" lon="-8.471567">
<time>2021-10-05T14:54:21Z</time>
</trkpt>
<trkpt lat="39.488263" lon="-8.4715">
<time>2021-10-05T14:54:22Z</time>
</trkpt>
<trkpt lat="39.488206" lon="-8.47145">
<time>2021-10-05T14:54:23Z</time>
</trkpt>
<trkpt lat="39.488133" lon="-8.471392">
<time>2021-10-05T14:54:24Z</time>
</trkpt>
<trkpt lat="39.488041" lon="-8.471327">
<time>2021-10-05T14:54:25Z</time>
</trkpt>
<trkpt lat="39.487965" lon="-8.471275">
<time>2021-10-05T14:54:26Z</time>
</trkpt>
<trkpt lat="39.4879" lon="-8.471237">
<time>2021-10-05T14:54:27Z</time>
</trkpt>
<trkpt lat="39.48782" lon="-8.47119">
<time>2021-10-05T14:54:28Z</time>
</trkpt>
<trkpt lat="39.487738" lon="-8.47114">
<time>2021-10-05T14:54:29Z</time>
</trkpt>
<trkpt lat="39.487641" lon="-8.471082">
<time>2021-10-05T14:54:30Z</time>
</trkpt>
<trkpt lat="39.487565" lon="-8.471034">
<time>2021-10-05T14:54:31Z</time>
</trkpt>
<trkpt lat="39.487493" lon="-8.47098">
<time>2021-10-05T14:54:32Z</time>
</trkpt>
<trkpt lat="39.487445" lon="-8.47093">
<time>2021-10-05T14:54:33Z</time>
</trkpt>
<trkpt lat="39.487393" lon="-8.470862">
<time>2021-10-05T14:54:34Z</time>
</trkpt>
<trkpt lat="39.487335" lon="-8.470785">
<time>2021-10-05T14:54:35Z</time>
</trkpt>
<trkpt lat="39.487283" lon="-8.470734">
<time>2021-10-05T14:54:36Z</time>
</trkpt>
<trkpt lat="39.487226" lon="-8.470697">
<time>2021-10-05T14:54:37Z</time>
</trkpt>
<trkpt lat="39.48717" lon="-8.470667">
<time>2021-10-05T14:54:38Z</time>
</trkpt>
<trkpt lat="39.48712" lon="-8.470647">
<time>2021-10-05T14:54:39Z</time>
</trkpt>
<trkpt lat="39.48704" lon="-8.470614">
<time>2021-10-05T14:54:40Z</time>
</trkpt>
<trkpt lat="39.48697" lon="-8.47059">
<time>2021-10-05T14:54:41Z</time>
</trkpt>
<trkpt lat="39.486896" lon="-8.470564">
<time>2021-10-05T14:54:42Z</time>
</trkpt>
<trkpt lat="39.486836" lon="-8.470545">
<time>2021-10-05T14:54:43Z</time>
</trkpt>
<trkpt lat="39.486761" lon="-8.470524">
<time>2021-10-05T14:54:44Z</time>
</trkpt>
<trkpt lat="39.486673" lon="-8.470494">
<time>2021-10-05T14:54:45Z</time>
</trkpt>
<trkpt lat="39.486598" lon="-8.47047">
<time>2021-10-05T14:54:46Z</time>
</trkpt>
<trkpt lat="39.486523" lon="-8.470447">
<time>2021-10-05T14:54:47Z</time>
</trkpt>
<trkpt lat="39.486446" lon="-8.470422">
<time>2021-10-05T14:54:48Z</time>
</trkpt>
<trkpt lat="39.486383" lon="-8.470404">
<time>2021-10-05T14:54:49Z</time>
</trkpt>
<trkpt lat="39.48629" lon="-8.470374">
<time>2021-10-05T14:54:50Z</time>
</trkpt>
<trkpt lat="39.486208" lon="-8.470349">
<time>2021-10-05T14:54:51Z</time>
</trkpt>
<trkpt lat="39.48613" lon="-8.470324">
<time>2021-10-05T14:54:52Z</time>
</trkpt>
<trkpt lat="39.48605" lon="-8.470299">
<time>2021-10-05T14:54:53Z</time>
</trkpt>
<trkpt lat="39.485985" lon="-8.470279">
<time>2021-10-05T14:54:54Z</time>
</trkpt>
<trkpt lat="39.485886" lon="-8.470247">
<time>2021-10-05T14:54:55Z</time>
</trkpt>
<trkpt lat="39.485803" lon="-8.470222">
<time>2021-10-05T14:54:56Z</time>
</trkpt>
<trkpt lat="39.48572" lon="-8.470199">
<time>2021-10-05T14:54:57Z</time>
</trkpt>
<trkpt lat="39.485635" lon="-8.470179">
<time>2021-10-05T14:54:58Z</time>
</trkpt>
<trkpt lat="39.485565" lon="-8.470167">
<time>2021-10-05T14:54:59Z</time>
</trkpt>
<trkpt lat="39.485475" lon="-8.470155">
<time>2021-10-05T14:55:00Z</time>
</trkpt>
<trkpt lat="39.485365" lon="-8.470149">
<time>2021-10-05T14:55:01Z</time>
</trkpt>
<trkpt lat="39.485271" lon="-8.470155">
<time>2021-10-05T14:55:02Z</time>
</trkpt>
<trkpt lat="39.48518" lon="-8.470174">
<time>2021-10-05T14:55:03Z</time>
</trkpt>
<trkpt lat="39.485106" lon="-8.470199">
<time>2021-10-05T14:55:04Z</time>
</trkpt>
<trkpt lat="39.485018" lon="-8.470235">
<time>2021-10-05T14:55:05Z</time>
</trkpt>
<trkpt lat="39.484913" lon="-8.470265">
<time>2021-10-05T14:55:06Z</time>
</trkpt>
<trkpt lat="39.48483" lon="-8.470265">
<time>2021-10-05T14:55:07Z</time>
</trkpt>
<trkpt lat="39.484755" lon="-8.470235">
<time>2021-10-05T14:55:08Z</time>
</trkpt>
<trkpt lat="39.484693" lon="-8.47018">
<time>2021-10-05T14:55:09Z</time>
</trkpt>
<trkpt lat="39.484638" lon="-8.470109">
<time>2021-10-05T14:55:10Z</time>
</trkpt>
<trkpt lat="39.484585" lon="-8.470034">
<time>2021-10-05T14:55:11Z</time>
</trkpt>
<trkpt lat="39.484528" lon="-8.469964">
<time>2021-10-05T14:55:12Z</time>
</trkpt>
<trkpt lat="39.48448" lon="-8.469905">
<time>2021-10-05T14:55:13Z</time>
</trkpt>
<trkpt lat="39.484418" lon="-8.469845">
<time>2021-10-05T14:55:14Z</time>
</trkpt>
<trkpt lat="39.484353" lon="-8.469785">
<time>2021-10-05T14:55:15Z</time>
</trkpt>
<trkpt lat="39.484286" lon="-8.469732">
<time>2021-10-05T14:55:16Z</time>
</trkpt>
<trkpt lat="39.484203" lon="-8.469669">
<time>2021-10-05T14:55:17Z</time>
</trkpt>
<trkpt lat="39.48413" lon="-8.469619">
<time>2021-10-05T14:55:18Z</time>
</trkpt>
<trkpt lat="39.48407" lon="-8.46958">
<time>2021-10-05T14:55:19Z</time>
</trkpt>
<trkpt lat="39.483993" lon="-8.469537">
<time>2021-10-05T14:55:20Z</time>
</trkpt>
<trkpt lat="39.4839" lon="-8.46949">
<time>2021-10-05T14:55:21Z</time>
</trkpt>
<trkpt lat="39.48382" lon="-8.469454">
<time>2021-10-05T14:55:22Z</time>
</trkpt>
<trkpt lat="39.48374" lon="-8.46942">
<time>2021-10-05T14:55:23Z</time>
</trkpt>
<trkpt lat="39.483676" lon="-8.469395">
<time>2021-10-05T14:55:24Z</time>
</trkpt>
<trkpt lat="39.483596" lon="-8.469374">
<time>2021-10-05T14:55:25Z</time>
</trkpt>
<trkpt lat="39.483526" lon="-8.469375">
<time>2021-10-05T14:55:26Z</time>
</trkpt>
<trkpt lat="39.483463" lon="-8.469417">
<time>2021-10-05T14:55:27Z</time>
</trkpt>
<trkpt lat="39.483436" lon="-8.469482">
<time>2021-10-05T14:55:28Z</time>
</trkpt>
<trkpt lat="39.483428" lon="-8.469547">
<time>2021-10-05T14:55:29Z</time>
</trkpt>
<trkpt lat="39.483425" lon="-8.469639">
<time>2021-10-05T14:55:30Z</time>
</trkpt>
<trkpt lat="39.483428" lon="-8.469755">
<time>2021-10-05T14:55:31Z</time>
</trkpt>
<trkpt lat="39.483438" lon="-8.469865">
<time>2021-10-05T14:55:32Z</time>
</trkpt>
<trkpt lat="39.483441" lon="-8.469962">
<time>2021-10-05T14:55:33Z</time>
</trkpt>
<trkpt lat="39.483435" lon="-8.470024">
<time>2021-10-05T14:55:34Z</time>
</trkpt>
<trkpt lat="39.483416" lon="-8.470079">
<time>2021-10-05T14:55:35Z</time>
</trkpt>
<trkpt lat="39.48339" lon="-8.470115">
<time>2021-10-05T14:55:36Z</time>
</trkpt>
<trkpt lat="39.483346" lon="-8.470139">
<time>2021-10-05T14:55:37Z</time>
</trkpt>
<trkpt lat="39.483298" lon="-8.470144">
<time>2021-10-05T14:55:38Z</time>
</trkpt>
<trkpt lat="39.48325" lon="-8.470147">
<time>2021-10-05T14:55:39Z</time>
</trkpt>
<trkpt lat="39.483208" lon="-8.470149">
<time>2021-10-05T14:55:40Z</time>
</trkpt>
<trkpt lat="39.483161" lon="-8.470152">
<time>2021-10-05T14:55:41Z</time>
</trkpt>
<trkpt lat="39.483131" lon="-8.470169">
<time>2021-10-05T14:55:42Z</time>
</trkpt>
<trkpt lat="39.483116" lon="-8.470199">
<time>2021-10-05T14:55:43Z</time>
</trkpt>
<trkpt lat="39.483113" lon="-8.470239">
<time>2021-10-05T14:55:44Z</time>
</trkpt>
<trkpt lat="39.483116" lon="-8.470287">
<time>2021-10-05T14:55:45Z</time>
</trkpt>
<trkpt lat="39.483116" lon="-8.470337">
<time>2021-10-05T14:55:46Z</time>
</trkpt>
<trkpt lat="39.483106" lon="-8.470385">
<time>2021-10-05T14:55:47Z</time>
</trkpt>
<trkpt lat="39.483086" lon="-8.470402">
<time>2021-10-05T14:55:48Z</time>
</trkpt>
<trkpt lat="39.483058" lon="-8.470409">
<time>2021-10-05T14:55:49Z</time>
</trkpt>
<trkpt lat="39.483031" lon="-8.47041">
<time>2021-10-05T14:55:50Z</time>
</trkpt>
<trkpt lat="39.482998" lon="-8.47041">
<time>2021-10-05T14:55:51Z</time>
</trkpt>
<trkpt lat="39.482965" lon="-8.470405">
<time>2021-10-05T14:55:52Z</time>
</trkpt>
<trkpt lat="39.482943" lon="-8.470405">
<time>2021-10-05T14:55:53Z</time>
</trkpt>
<trkpt lat="39.482918" lon="-8.470397">
<time>2021-10-05T14:55:54Z</time>
</trkpt>
<trkpt lat="39.482905" lon="-8.470384">
<time>2021-10-05T14:55:55Z</time>
</trkpt>
<trkpt lat="39.482895" lon="-8.470354">
<time>2021-10-05T14:55:56Z</time>
</trkpt>
<trkpt lat="39.482891" lon="-8.470307">
<time>2021-10-05T14:55:57Z</time>
</trkpt>
<trkpt lat="39.48289" lon="-8.470247">
<time>2021-10-05T14:55:58Z</time>
</trkpt>
<trkpt lat="39.482891" lon="-8.470164">
<time>2021-10-05T14:55:59Z</time>
</trkpt>
<trkpt lat="39.482893" lon="-8.470085">
<time>2021-10-05T14:56:00Z</time>
</trkpt>
<trkpt lat="39.482891" lon="-8.470022">
<time>2021-10-05T14:56:01Z</time>
</trkpt>
<trkpt lat="39.482881" lon="-8.469947">
<time>2021-10-05T14:56:02Z</time>
</trkpt>
<trkpt lat="39.482853" lon="-8.46987">
<time>2021-10-05T14:56:03Z</time>
</trkpt>
<trkpt lat="39.482816" lon="-8.469819">
<time>2021-10-05T14:56:04Z</time>
</trkpt>
<trkpt lat="39.482771" lon="-8.469779">
<time>2021-10-05T14:56:05Z</time>
</trkpt>
<trkpt lat="39.48273" lon="-8.469755">
<time>2021-10-05T14:56:06Z</time>
</trkpt>
<trkpt lat="39.482673" lon="-8.469705">
<time>2021-10-05T14:56:07Z</time>
</trkpt>
<trkpt lat="39.482633" lon="-8.469652">
<time>2021-10-05T14:56:08Z</time>
</trkpt>
<trkpt lat="39.482596" lon="-8.469592">
<time>2021-10-05T14:56:09Z</time>
</trkpt>
<trkpt lat="39.482565" lon="-8.469529">
<time>2021-10-05T14:56:10Z</time>
</trkpt>
<trkpt lat="39.482546" lon="-8.469469">
<time>2021-10-05T14:56:11Z</time>
</trkpt>
<trkpt lat="39.482535" lon="-8.469392">
<time>2021-10-05T14:56:12Z</time>
</trkpt>
<trkpt lat="39.48253" lon="-8.469312">
<time>2021-10-05T14:56:13Z</time>
</trkpt>
<trkpt lat="39.482516" lon="-8.469224">
<time>2021-10-05T14:56:14Z</time>
</trkpt>
<trkpt lat="39.48249" lon="-8.469164">
<time>2021-10-05T14:56:15Z</time>
</trkpt>
<trkpt lat="39.482446" lon="-8.469122">
<time>2021-10-05T14:56:16Z</time>
</trkpt>
<trkpt lat="39.482403" lon="-8.469102">
<time>2021-10-05T14:56:17Z</time>
</trkpt>
<trkpt lat="39.482345" lon="-8.469085">
<time>2021-10-05T14:56:18Z</time>
</trkpt>
<trkpt lat="39.482266" lon="-8.469072">
<time>2021-10-05T14:56:19Z</time>
</trkpt>
<trkpt lat="39.482196" lon="-8.469064">
<time>2021-10-05T14:56:20Z</time>
</trkpt>
<trkpt lat="39.482138" lon="-8.469057">
<time>2021-10-05T14:56:21Z</time>
</trkpt>
<trkpt lat="39.48205" lon="-8.469047">
<time>2021-10-05T14:56:22Z</time>
</trkpt>
<trkpt lat="39.481976" lon="-8.469037">
<time>2021-10-05T14:56:23Z</time>
</trkpt>
<trkpt lat="39.481898" lon="-8.469029">
<time>2021-10-05T14:56:24Z</time>
</trkpt>
<trkpt lat="39.481836" lon="-8.469024">
<time>2021-10-05T14:56:25Z</time>
</trkpt>
<trkpt lat="39.481756" lon="-8.469014">
<time>2021-10-05T14:56:26Z</time>
</trkpt>
<trkpt lat="39.481676" lon="-8.469004">
<time>2021-10-05T14:56:27Z</time>
</trkpt>
<trkpt lat="39.481593" lon="-8.468989">
<time>2021-10-05T14:56:28Z</time>
</trkpt>
<trkpt lat="39.481495" lon="-8.468969">
<time>2021-10-05T14:56:29Z</time>
</trkpt>
<trkpt lat="39.48141" lon="-8.46895">
<time>2021-10-05T14:56:30Z</time>
</trkpt>
<trkpt lat="39.48134" lon="-8.468935">
<time>2021-10-05T14:56:31Z</time>
</trkpt>
<trkpt lat="39.481255" lon="-8.468922">
<time>2021-10-05T14:56:32Z</time>
</trkpt>
<trkpt lat="39.481168" lon="-8.46891">
<time>2021-10-05T14:56:33Z</time>
</trkpt>
<trkpt lat="39.481065" lon="-8.468895">
<time>2021-10-05T14:56:34Z</time>
</trkpt>
<trkpt lat="39.480978" lon="-8.468884">
<time>2021-10-05T14:56:35Z</time>
</trkpt>
<trkpt lat="39.480891" lon="-8.468874">
<time>2021-10-05T14:56:36Z</time>
</trkpt>
<trkpt lat="39.48082" lon="-8.468862">
<time>2021-10-05T14:56:37Z</time>
</trkpt>
<trkpt lat="39.480733" lon="-8.468849">
<time>2021-10-05T14:56:38Z</time>
</trkpt>
<trkpt lat="39.480628" lon="-8.468829">
<time>2021-10-05T14:56:39Z</time>
</trkpt>
<trkpt lat="39.48054" lon="-8.468815">
<time>2021-10-05T14:56:40Z</time>
</trkpt>
<trkpt lat="39.480466" lon="-8.468805">
<time>2021-10-05T14:56:41Z</time>
</trkpt>
<trkpt lat="39.480376" lon="-8.468795">
<time>2021-10-05T14:56:42Z</time>
</trkpt>
<trkpt lat="39.480268" lon="-8.468785">
<time>2021-10-05T14:56:43Z</time>
</trkpt>
<trkpt lat="39.480178" lon="-8.46878">
<time>2021-10-05T14:56:44Z</time>
</trkpt>
<trkpt lat="39.480105" lon="-8.468775">
<time>2021-10-05T14:56:45Z</time>
</trkpt>
<trkpt lat="39.480013" lon="-8.468769">
<time>2021-10-05T14:56:46Z</time>
</trkpt>
<trkpt lat="39.479923" lon="-8.468759">
<time>2021-10-05T14:56:47Z</time>
</trkpt>
<trkpt lat="39.479833" lon="-8.468747">
<time>2021-10-05T14:56:48Z</time>
</trkpt>
<trkpt lat="39.479725" lon="-8.468734">
<time>2021-10-05T14:56:49Z</time>
</trkpt>
<trkpt lat="39.479635" lon="-8.468724">
<time>2021-10-05T14:56:50Z</time>
</trkpt>
<trkpt lat="39.479543" lon="-8.468714">
<time>2021-10-05T14:56:51Z</time>
</trkpt>
<trkpt lat="39.479471" lon="-8.468705">
<time>2021-10-05T14:56:52Z</time>
</trkpt>
<trkpt lat="39.47938" lon="-8.468695">
<time>2021-10-05T14:56:53Z</time>
</trkpt>
<trkpt lat="39.479271" lon="-8.46868">
<time>2021-10-05T14:56:54Z</time>
</trkpt>
<trkpt lat="39.47918" lon="-8.468669">
<time>2021-10-05T14:56:55Z</time>
</trkpt>
<trkpt lat="39.479088" lon="-8.468652">
<time>2021-10-05T14:56:56Z</time>
</trkpt>
<trkpt lat="39.479016" lon="-8.468639">
<time>2021-10-05T14:56:57Z</time>
</trkpt>
<trkpt lat="39.478928" lon="-8.468624">
<time>2021-10-05T14:56:58Z</time>
</trkpt>
<trkpt lat="39.478823" lon="-8.468607">
<time>2021-10-05T14:56:59Z</time>
</trkpt>
<trkpt lat="39.478736" lon="-8.468595">
<time>2021-10-05T14:57:00Z</time>
</trkpt>
<trkpt lat="39.47865" lon="-8.468585">
<time>2021-10-05T14:57:01Z</time>
</trkpt>
<trkpt lat="39.47858" lon="-8.468579">
<time>2021-10-05T14:57:02Z</time>
</trkpt>
<trkpt lat="39.478496" lon="-8.46857">
<time>2021-10-05T14:57:03Z</time>
</trkpt>
<trkpt lat="39.478411" lon="-8.46856">
<time>2021-10-05T14:57:04Z</time>
</trkpt>
<trkpt lat="39.47831" lon="-8.468549">
<time>2021-10-05T14:57:05Z</time>
</trkpt>
<trkpt lat="39.478226" lon="-8.468539">
<time>2021-10-05T14:57:06Z</time>
</trkpt>
<trkpt lat="39.478143" lon="-8.468529">
<time>2021-10-05T14:57:07Z</time>
</trkpt>
<trkpt lat="39.478078" lon="-8.468524">
<time>2021-10-05T14:57:08Z</time>
</trkpt>
<trkpt lat="39.477996" lon="-8.468519">
<time>2021-10-05T14:57:09Z</time>
</trkpt>
<trkpt lat="39.477896" lon="-8.46851">
<time>2021-10-05T14:57:10Z</time>
</trkpt>
<trkpt lat="39.477813" lon="-8.468504">
<time>2021-10-05T14:57:11Z</time>
</trkpt>
<trkpt lat="39.47773" lon="-8.468492">
<time>2021-10-05T14:57:12Z</time>
</trkpt>
<trkpt lat="39.477646" lon="-8.468482">
<time>2021-10-05T14:57:13Z</time>
</trkpt>
<trkpt lat="39.477581" lon="-8.468475">
<time>2021-10-05T14:57:14Z</time>
</trkpt>
<trkpt lat="39.47748" lon="-8.468465">
<time>2021-10-05T14:57:15Z</time>
</trkpt>
<trkpt lat="39.477395" lon="-8.468459">
<time>2021-10-05T14:57:16Z</time>
</trkpt>
<trkpt lat="39.477306" lon="-8.468445">
<time>2021-10-05T14:57:17Z</time>
</trkpt>
<trkpt lat="39.477236" lon="-8.468435">
<time>2021-10-05T14:57:18Z</time>
</trkpt>
<trkpt lat="39.477126" lon="-8.46842">
<time>2021-10-05T14:57:19Z</time>
</trkpt>
<trkpt lat="39.477036" lon="-8.468409">
<time>2021-10-05T14:57:20Z</time>
</trkpt>
<trkpt lat="39.476946" lon="-8.4684">
<time>2021-10-05T14:57:21Z</time>
</trkpt>
<trkpt lat="39.476878" lon="-8.468394">
<time>2021-10-05T14:57:22Z</time>
</trkpt>
<trkpt lat="39.476793" lon="-8.468389">
<time>2021-10-05T14:57:23Z</time>
</trkpt>
<trkpt lat="39.476751" lon="-8.468402">
<time>2021-10-05T14:57:24Z</time>
</trkpt>
<trkpt lat="39.476703" lon="-8.468435">
<time>2021-10-05T14:57:25Z</time>
</trkpt>
<trkpt lat="39.476683" lon="-8.468474">
<time>2021-10-05T14:57:26Z</time>
</trkpt>
<trkpt lat="39.476678" lon="-8.468519">
<time>2021-10-05T14:57:27Z</time>
</trkpt>
<trkpt lat="39.47668" lon="-8.46856">
<time>2021-10-05T14:57:28Z</time>
</trkpt>
<trkpt lat="39.476685" lon="-8.468617">
<time>2021-10-05T14:57:29Z</time>
</trkpt>
<trkpt lat="39.476688" lon="-8.468674">
<time>2021-10-05T14:57:30Z</time>
</trkpt>
<trkpt lat="39.476705" lon="-8.46875">
<time>2021-10-05T14:57:31Z</time>
</trkpt>
<trkpt lat="39.476718" lon="-8.468804">
<time>2021-10-05T14:57:32Z</time>
</trkpt>
<trkpt lat="39.476726" lon="-8.468869">
<time>2021-10-05T14:57:33Z</time>
</trkpt>
<trkpt lat="39.476738" lon="-8.468929">
<time>2021-10-05T14:57:34Z</time>
</trkpt>
<trkpt lat="39.476751" lon="-8.468979">
<time>2021-10-05T14:57:35Z</time>
</trkpt>
<trkpt lat="39.476753" lon="-8.469034">
<time>2021-10-05T14:57:36Z</time>
</trkpt>
<trkpt lat="39.476751" lon="-8.469102">
<time>2021-10-05T14:57:37Z</time>
</trkpt>
<trkpt lat="39.476755" lon="-8.46915">
<time>2021-10-05T14:57:38Z</time>
</trkpt>
<trkpt lat="39.47676" lon="-8.469214">
<time>2021-10-05T14:57:39Z</time>
</trkpt>
<trkpt lat="39.476766" lon="-8.469272">
<time>2021-10-05T14:57:40Z</time>
</trkpt>
<trkpt lat="39.476773" lon="-8.469334">
<time>2021-10-05T14:57:41Z</time>
</trkpt>
<trkpt lat="39.47678" lon="-8.469395">
<time>2021-10-05T14:57:42Z</time>
</trkpt>
<trkpt lat="39.476785" lon="-8.46946">
<time>2021-10-05T14:57:43Z</time>
</trkpt>
<trkpt lat="39.476785" lon="-8.469525">
<time>2021-10-05T14:57:44Z</time>
</trkpt>
<trkpt lat="39.476783" lon="-8.46959">
<time>2021-10-05T14:57:45Z</time>
</trkpt>
<trkpt lat="39.476781" lon="-8.469645">
<time>2021-10-05T14:57:46Z</time>
</trkpt>
<trkpt lat="39.476778" lon="-8.469682">
<time>2021-10-05T14:57:47Z</time>
</trkpt>
<trkpt lat="39.476778" lon="-8.469702">
<time>2021-10-05T14:57:48Z</time>
</trkpt>
<trkpt lat="39.476776" lon="-8.469705">
<time>2021-10-05T14:57:49Z</time>
</trkpt>
<trkpt lat="39.476776" lon="-8.469704">
<time>2021-10-05T14:57:50Z</time>
</trkpt>
<trkpt lat="39.476776" lon="-8.469704">
<time>2021-10-05T14:57:51Z</time>
</trkpt>
<trkpt lat="39.476778" lon="-8.469707">
<time>2021-10-05T14:57:52Z</time>
</trkpt>
<trkpt lat="39.476778" lon="-8.469709">
<time>2021-10-05T14:57:53Z</time>
</trkpt>
<trkpt lat="39.476778" lon="-8.469712">
<time>2021-10-05T14:57:54Z</time>
</trkpt>
<trkpt lat="39.476778" lon="-8.469717">
<time>2021-10-05T14:57:55Z</time>
</trkpt>
<trkpt lat="39.476785" lon="-8.469717">
<time>2021-10-05T14:57:56Z</time>
</trkpt>
<trkpt lat="39.476788" lon="-8.469719">
<time>2021-10-05T14:57:57Z</time>
</trkpt>
<trkpt lat="39.476791" lon="-8.469727">
<time>2021-10-05T14:57:58Z</time>
</trkpt>
<trkpt lat="39.476795" lon="-8.469744">
<time>2021-10-05T14:57:59Z</time>
</trkpt>
<trkpt lat="39.476796" lon="-8.469759">
<time>2021-10-05T14:58:00Z</time>
</trkpt>
<trkpt lat="39.476796" lon="-8.469787">
<time>2021-10-05T14:58:01Z</time>
</trkpt>
<trkpt lat="39.476795" lon="-8.469817">
<time>2021-10-05T14:58:02Z</time>
</trkpt>
<trkpt lat="39.476796" lon="-8.469847">
<time>2021-10-05T14:58:03Z</time>
</trkpt>
<trkpt lat="39.476796" lon="-8.469877">
<time>2021-10-05T14:58:04Z</time>
</trkpt>
<trkpt lat="39.476798" lon="-8.469909">
<time>2021-10-05T14:58:05Z</time>
</trkpt>
<trkpt lat="39.476801" lon="-8.469939">
<time>2021-10-05T14:58:06Z</time>
</trkpt>
<trkpt lat="39.476805" lon="-8.469975">
<time>2021-10-05T14:58:07Z</time>
</trkpt>
<trkpt lat="39.476808" lon="-8.470015">
<time>2021-10-05T14:58:08Z</time>
</trkpt>
<trkpt lat="39.47681" lon="-8.470064">
<time>2021-10-05T14:58:09Z</time>
</trkpt>
<trkpt lat="39.476811" lon="-8.4701">
<time>2021-10-05T14:58:10Z</time>
</trkpt>
<trkpt lat="39.476811" lon="-8.470147">
<time>2021-10-05T14:58:11Z</time>
</trkpt>
<trkpt lat="39.476815" lon="-8.470205">
<time>2021-10-05T14:58:12Z</time>
</trkpt>
<trkpt lat="39.47682" lon="-8.470257">
<time>2021-10-05T14:58:13Z</time>
</trkpt>
<trkpt lat="39.476823" lon="-8.470299">
<time>2021-10-05T14:58:14Z</time>
</trkpt>
<trkpt lat="39.476823" lon="-8.470352">
<time>2021-10-05T14:58:15Z</time>
</trkpt>
<trkpt lat="39.476823" lon="-8.47041">
<time>2021-10-05T14:58:16Z</time>
</trkpt>
<trkpt lat="39.476825" lon="-8.47047">
<time>2021-10-05T14:58:17Z</time>
</trkpt>
<trkpt lat="39.476828" lon="-8.470535">
<time>2021-10-05T14:58:18Z</time>
</trkpt>
<trkpt lat="39.476831" lon="-8.470605">
<time>2021-10-05T14:58:19Z</time>
</trkpt>
<trkpt lat="39.476833" lon="-8.470684">
<time>2021-10-05T14:58:20Z</time>
</trkpt>
<trkpt lat="39.476835" lon="-8.470767">
<time>2021-10-05T14:58:21Z</time>
</trkpt>
<trkpt lat="39.476838" lon="-8.470854">
<time>2021-10-05T14:58:22Z</time>
</trkpt>
<trkpt lat="39.476843" lon="-8.470957">
<time>2021-10-05T14:58:23Z</time>
</trkpt>
<trkpt lat="39.476846" lon="-8.471029">
<time>2021-10-05T14:58:24Z</time>
</trkpt>
<trkpt lat="39.47685" lon="-8.471115">
<time>2021-10-05T14:58:25Z</time>
</trkpt>
<trkpt lat="39.476851" lon="-8.471205">
<time>2021-10-05T14:58:26Z</time>
</trkpt>
<trkpt lat="39.476858" lon="-8.471292">
<time>2021-10-05T14:58:27Z</time>
</trkpt>
<trkpt lat="39.476868" lon="-8.471397">
<time>2021-10-05T14:58:28Z</time>
</trkpt>
<trkpt lat="39.47688" lon="-8.471485">
<time>2021-10-05T14:58:29Z</time>
</trkpt>
<trkpt lat="39.47689" lon="-8.471559">
<time>2021-10-05T14:58:30Z</time>
</trkpt>
<trkpt lat="39.476903" lon="-8.471652">
<time>2021-10-05T14:58:31Z</time>
</trkpt>
<trkpt lat="39.476915" lon="-8.471767">
<time>2021-10-05T14:58:32Z</time>
</trkpt>
<trkpt lat="39.476918" lon="-8.471845">
<time>2021-10-05T14:58:33Z</time>
</trkpt>
<trkpt lat="39.476921" lon="-8.471945">
<time>2021-10-05T14:58:34Z</time>
</trkpt>
<trkpt lat="39.476923" lon="-8.472045">
<time>2021-10-05T14:58:35Z</time>
</trkpt>
<trkpt lat="39.47692" lon="-8.472144">
<time>2021-10-05T14:58:36Z</time>
</trkpt>
<trkpt lat="39.476918" lon="-8.472244">
<time>2021-10-05T14:58:37Z</time>
</trkpt>
<trkpt lat="39.476915" lon="-8.472365">
<time>2021-10-05T14:58:38Z</time>
</trkpt>
<trkpt lat="39.476911" lon="-8.472467">
<time>2021-10-05T14:58:39Z</time>
</trkpt>
<trkpt lat="39.47691" lon="-8.472552">
<time>2021-10-05T14:58:40Z</time>
</trkpt>
<trkpt lat="39.476911" lon="-8.472654">
<time>2021-10-05T14:58:41Z</time>
</trkpt>
<trkpt lat="39.476915" lon="-8.472752">
<time>2021-10-05T14:58:42Z</time>
</trkpt>
<trkpt lat="39.476926" lon="-8.472852">
<time>2021-10-05T14:58:43Z</time>
</trkpt>
<trkpt lat="39.476935" lon="-8.472952">
<time>2021-10-05T14:58:44Z</time>
</trkpt>
<trkpt lat="39.476941" lon="-8.473047">
<time>2021-10-05T14:58:45Z</time>
</trkpt>
<trkpt lat="39.47695" lon="-8.473145">
<time>2021-10-05T14:58:46Z</time>
</trkpt>
<trkpt lat="39.476956" lon="-8.473245">
<time>2021-10-05T14:58:47Z</time>
</trkpt>
<trkpt lat="39.476965" lon="-8.473342">
<time>2021-10-05T14:58:48Z</time>
</trkpt>
<trkpt lat="39.476971" lon="-8.47344">
<time>2021-10-05T14:58:49Z</time>
</trkpt>
<trkpt lat="39.476978" lon="-8.473537">
<time>2021-10-05T14:58:50Z</time>
</trkpt>
<trkpt lat="39.476983" lon="-8.47363">
<time>2021-10-05T14:58:51Z</time>
</trkpt>
<trkpt lat="39.47699" lon="-8.473722">
<time>2021-10-05T14:58:52Z</time>
</trkpt>
<trkpt lat="39.477005" lon="-8.473809">
<time>2021-10-05T14:58:53Z</time>
</trkpt>
<trkpt lat="39.477028" lon="-8.473884">
<time>2021-10-05T14:58:54Z</time>
</trkpt>
<trkpt lat="39.477065" lon="-8.473945">
<time>2021-10-05T14:58:55Z</time>
</trkpt>
<trkpt lat="39.477108" lon="-8.473994">
<time>2021-10-05T14:58:56Z</time>
</trkpt>
<trkpt lat="39.477161" lon="-8.474019">
<time>2021-10-05T14:58:57Z</time>
</trkpt>
<trkpt lat="39.477225" lon="-8.47403">
<time>2021-10-05T14:58:58Z</time>
</trkpt>
<trkpt lat="39.47729" lon="-8.474032">
<time>2021-10-05T14:58:59Z</time>
</trkpt>
<trkpt lat="39.47736" lon="-8.47403">
<time>2021-10-05T14:59:00Z</time>
</trkpt>
<trkpt lat="39.477431" lon="-8.474024">
<time>2021-10-05T14:59:01Z</time>
</trkpt>
<trkpt lat="39.477511" lon="-8.473992">
<time>2021-10-05T14:59:02Z</time>
</trkpt>
<trkpt lat="39.477585" lon="-8.473949">
<time>2021-10-05T14:59:03Z</time>
</trkpt>
<trkpt lat="39.477655" lon="-8.473907">
<time>2021-10-05T14:59:04Z</time>
</trkpt>
<trkpt lat="39.47772" lon="-8.473862">
<time>2021-10-05T14:59:05Z</time>
</trkpt>
<trkpt lat="39.477788" lon="-8.473822">
<time>2021-10-05T14:59:06Z</time>
</trkpt>
<trkpt lat="39.477858" lon="-8.4738">
<time>2021-10-05T14:59:07Z</time>
</trkpt>
<trkpt lat="39.477941" lon="-8.473792">
<time>2021-10-05T14:59:08Z</time>
</trkpt>
<trkpt lat="39.478006" lon="-8.473784">
<time>2021-10-05T14:59:09Z</time>
</trkpt>
<trkpt lat="39.478073" lon="-8.473769">
<time>2021-10-05T14:59:10Z</time>
</trkpt>
<trkpt lat="39.478125" lon="-8.47375">
<time>2021-10-05T14:59:11Z</time>
</trkpt>
<trkpt lat="39.478205" lon="-8.47372">
<time>2021-10-05T14:59:12Z</time>
</trkpt>
<trkpt lat="39.478256" lon="-8.473697">
<time>2021-10-05T14:59:13Z</time>
</trkpt>
<trkpt lat="39.478321" lon="-8.473665">
<time>2021-10-05T14:59:14Z</time>
</trkpt>
<trkpt lat="39.478386" lon="-8.47363">
<time>2021-10-05T14:59:15Z</time>
</trkpt>
<trkpt lat="39.478448" lon="-8.473597">
<time>2021-10-05T14:59:16Z</time>
</trkpt>
<trkpt lat="39.478511" lon="-8.473569">
<time>2021-10-05T14:59:17Z</time>
</trkpt>
<trkpt lat="39.478585" lon="-8.473564">
<time>2021-10-05T14:59:18Z</time>
</trkpt>
<trkpt lat="39.478631" lon="-8.47359">
<time>2021-10-05T14:59:19Z</time>
</trkpt>
<trkpt lat="39.478658" lon="-8.473624">
<time>2021-10-05T14:59:20Z</time>
</trkpt>
<trkpt lat="39.478668" lon="-8.47368">
<time>2021-10-05T14:59:21Z</time>
</trkpt>
<trkpt lat="39.478658" lon="-8.473765">
<time>2021-10-05T14:59:22Z</time>
</trkpt>
<trkpt lat="39.478645" lon="-8.473829">
<time>2021-10-05T14:59:23Z</time>
</trkpt>
<trkpt lat="39.478616" lon="-8.473917">
<time>2021-10-05T14:59:24Z</time>
</trkpt>
<trkpt lat="39.478593" lon="-8.474009">
<time>2021-10-05T14:59:25Z</time>
</trkpt>
<trkpt lat="39.478563" lon="-8.4741">
<time>2021-10-05T14:59:26Z</time>
</trkpt>
<trkpt lat="39.478533" lon="-8.47419">
<time>2021-10-05T14:59:27Z</time>
</trkpt>
<trkpt lat="39.478505" lon="-8.474282">
<time>2021-10-05T14:59:28Z</time>
</trkpt>
<trkpt lat="39.478476" lon="-8.474372">
<time>2021-10-05T14:59:29Z</time>
</trkpt>
<trkpt lat="39.478446" lon="-8.47446">
<time>2021-10-05T14:59:30Z</time>
</trkpt>
<trkpt lat="39.478418" lon="-8.47455">
<time>2021-10-05T14:59:31Z</time>
</trkpt>
<trkpt lat="39.478391" lon="-8.474639">
<time>2021-10-05T14:59:32Z</time>
</trkpt>
<trkpt lat="39.478368" lon="-8.474722">
<time>2021-10-05T14:59:33Z</time>
</trkpt>
<trkpt lat="39.47834" lon="-8.47482">
<time>2021-10-05T14:59:34Z</time>
</trkpt>
<trkpt lat="39.478321" lon="-8.474884">
<time>2021-10-05T14:59:35Z</time>
</trkpt>
<trkpt lat="39.478293" lon="-8.474979">
<time>2021-10-05T14:59:36Z</time>
</trkpt>
<trkpt lat="39.478273" lon="-8.47504">
<time>2021-10-05T14:59:37Z</time>
</trkpt>
<trkpt lat="39.47825" lon="-8.475119">
<time>2021-10-05T14:59:38Z</time>
</trkpt>
<trkpt lat="39.478226" lon="-8.475195">
<time>2021-10-05T14:59:39Z</time>
</trkpt>
<trkpt lat="39.478205" lon="-8.47527">
<time>2021-10-05T14:59:40Z</time>
</trkpt>
<trkpt lat="39.478183" lon="-8.475345">
<time>2021-10-05T14:59:41Z</time>
</trkpt>
<trkpt lat="39.478163" lon="-8.47542">
<time>2021-10-05T14:59:42Z</time>
</trkpt>
<trkpt lat="39.478141" lon="-8.475492">
<time>2021-10-05T14:59:43Z</time>
</trkpt>
<trkpt lat="39.478121" lon="-8.475565">
<time>2021-10-05T14:59:44Z</time>
</trkpt>
<trkpt lat="39.4781" lon="-8.475637">
<time>2021-10-05T14:59:45Z</time>
</trkpt>
<trkpt lat="39.47808" lon="-8.475707">
<time>2021-10-05T14:59:46Z</time>
</trkpt>
<trkpt lat="39.478058" lon="-8.475779">
<time>2021-10-05T14:59:47Z</time>
</trkpt>
<trkpt lat="39.47804" lon="-8.475849">
<time>2021-10-05T14:59:48Z</time>
</trkpt>
<trkpt lat="39.478021" lon="-8.475919">
<time>2021-10-05T14:59:49Z</time>
</trkpt>
<trkpt lat="39.478001" lon="-8.475985">
<time>2021-10-05T14:59:50Z</time>
</trkpt>
<trkpt lat="39.477983" lon="-8.476055">
<time>2021-10-05T14:59:51Z</time>
</trkpt>
<trkpt lat="39.477963" lon="-8.476122">
<time>2021-10-05T14:59:52Z</time>
</trkpt>
<trkpt lat="39.477941" lon="-8.476187">
<time>2021-10-05T14:59:53Z</time>
</trkpt>
<trkpt lat="39.477918" lon="-8.476254">
<time>2021-10-05T14:59:54Z</time>
</trkpt>
<trkpt lat="39.477898" lon="-8.47632">
<time>2021-10-05T14:59:55Z</time>
</trkpt>
<trkpt lat="39.477881" lon="-8.476385">
<time>2021-10-05T14:59:56Z</time>
</trkpt>
<trkpt lat="39.477865" lon="-8.47645">
<time>2021-10-05T14:59:57Z</time>
</trkpt>
<trkpt lat="39.477846" lon="-8.476515">
<time>2021-10-05T14:59:58Z</time>
</trkpt>
<trkpt lat="39.47783" lon="-8.47658">
<time>2021-10-05T14:59:59Z</time>
</trkpt>
<trkpt lat="39.477811" lon="-8.476647">
<time>2021-10-05T15:00:00Z</time>
</trkpt>
<trkpt lat="39.477795" lon="-8.476714">
<time>2021-10-05T15:00:01Z</time>
</trkpt>
<trkpt lat="39.477778" lon="-8.476779">
<time>2021-10-05T15:00:02Z</time>
</trkpt>
<trkpt lat="39.477763" lon="-8.476844">
<time>2021-10-05T15:00:03Z</time>
</trkpt>
<trkpt lat="39.477748" lon="-8.476909">
<time>2021-10-05T15:00:04Z</time>
</trkpt>
<trkpt lat="39.477733" lon="-8.476975">
<time>2021-10-05T15:00:05Z</time>
</trkpt>
<trkpt lat="39.477715" lon="-8.477044">
<time>2021-10-05T15:00:06Z</time>
</trkpt>
<trkpt lat="39.477698" lon="-8.47711">
<time>2021-10-05T15:00:07Z</time>
</trkpt>
<trkpt lat="39.477676" lon="-8.477182">
<time>2021-10-05T15:00:08Z</time>
</trkpt>
<trkpt lat="39.477656" lon="-8.477257">
<time>2021-10-05T15:00:09Z</time>
</trkpt>
<trkpt lat="39.477638" lon="-8.47733">
<time>2021-10-05T15:00:10Z</time>
</trkpt>
<trkpt lat="39.477611" lon="-8.477424">
<time>2021-10-05T15:00:11Z</time>
</trkpt>
<trkpt lat="39.477595" lon="-8.477487">
<time>2021-10-05T15:00:12Z</time>
</trkpt>
<trkpt lat="39.477576" lon="-8.477569">
<time>2021-10-05T15:00:13Z</time>
</trkpt>
<trkpt lat="39.477556" lon="-8.477649">
<time>2021-10-05T15:00:14Z</time>
</trkpt>
<trkpt lat="39.477536" lon="-8.477729">
<time>2021-10-05T15:00:15Z</time>
</trkpt>
<trkpt lat="39.477515" lon="-8.47781">
<time>2021-10-05T15:00:16Z</time>
</trkpt>
<trkpt lat="39.477493" lon="-8.477894">
<time>2021-10-05T15:00:17Z</time>
</trkpt>
<trkpt lat="39.477468" lon="-8.477975">
<time>2021-10-05T15:00:18Z</time>
</trkpt>
<trkpt lat="39.477445" lon="-8.478059">
<time>2021-10-05T15:00:19Z</time>
</trkpt>
<trkpt lat="39.477421" lon="-8.478142">
<time>2021-10-05T15:00:20Z</time>
</trkpt>
<trkpt lat="39.477398" lon="-8.478224">
<time>2021-10-05T15:00:21Z</time>
</trkpt>
<trkpt lat="39.477375" lon="-8.478304">
<time>2021-10-05T15:00:22Z</time>
</trkpt>
<trkpt lat="39.477351" lon="-8.478384">
<time>2021-10-05T15:00:23Z</time>
</trkpt>
<trkpt lat="39.47733" lon="-8.478469">
<time>2021-10-05T15:00:24Z</time>
</trkpt>
<trkpt lat="39.477308" lon="-8.478554">
<time>2021-10-05T15:00:25Z</time>
</trkpt>
<trkpt lat="39.477281" lon="-8.478657">
<time>2021-10-05T15:00:26Z</time>
</trkpt>
<trkpt lat="39.47726" lon="-8.478742">
<time>2021-10-05T15:00:27Z</time>
</trkpt>
<trkpt lat="39.477236" lon="-8.478829">
<time>2021-10-05T15:00:28Z</time>
</trkpt>
<trkpt lat="39.477215" lon="-8.478917">
<time>2021-10-05T15:00:29Z</time>
</trkpt>
<trkpt lat="39.47719" lon="-8.479009">
<time>2021-10-05T15:00:30Z</time>
</trkpt>
<trkpt lat="39.477173" lon="-8.479085">
<time>2021-10-05T15:00:31Z</time>
</trkpt>
<trkpt lat="39.477148" lon="-8.479179">
<time>2021-10-05T15:00:32Z</time>
</trkpt>
<trkpt lat="39.477118" lon="-8.479289">
<time>2021-10-05T15:00:33Z</time>
</trkpt>
<trkpt lat="39.477095" lon="-8.47938">
<time>2021-10-05T15:00:34Z</time>
</trkpt>
<trkpt lat="39.477073" lon="-8.47947">
<time>2021-10-05T15:00:35Z</time>
</trkpt>
<trkpt lat="39.477048" lon="-8.479557">
<time>2021-10-05T15:00:36Z</time>
</trkpt>
<trkpt lat="39.477025" lon="-8.479645">
<time>2021-10-05T15:00:37Z</time>
</trkpt>
<trkpt lat="39.477001" lon="-8.479735">
<time>2021-10-05T15:00:38Z</time>
</trkpt>
<trkpt lat="39.476978" lon="-8.479825">
<time>2021-10-05T15:00:39Z</time>
</trkpt>
<trkpt lat="39.476955" lon="-8.479915">
<time>2021-10-05T15:00:40Z</time>
</trkpt>
<trkpt lat="39.476935" lon="-8.479989">
<time>2021-10-05T15:00:41Z</time>
</trkpt>
<trkpt lat="39.47691" lon="-8.480079">
<time>2021-10-05T15:00:42Z</time>
</trkpt>
<trkpt lat="39.476886" lon="-8.480169">
<time>2021-10-05T15:00:43Z</time>
</trkpt>
<trkpt lat="39.476856" lon="-8.480279">
<time>2021-10-05T15:00:44Z</time>
</trkpt>
<trkpt lat="39.476831" lon="-8.48037">
<time>2021-10-05T15:00:45Z</time>
</trkpt>
<trkpt lat="39.476811" lon="-8.480442">
<time>2021-10-05T15:00:46Z</time>
</trkpt>
<trkpt lat="39.476788" lon="-8.480532">
<time>2021-10-05T15:00:47Z</time>
</trkpt>
<trkpt lat="39.476765" lon="-8.480617">
<time>2021-10-05T15:00:48Z</time>
</trkpt>
<trkpt lat="39.476741" lon="-8.480699">
<time>2021-10-05T15:00:49Z</time>
</trkpt>
<trkpt lat="39.476726" lon="-8.480777">
<time>2021-10-05T15:00:50Z</time>
</trkpt>
<trkpt lat="39.476731" lon="-8.480842">
<time>2021-10-05T15:00:51Z</time>
</trkpt>
<trkpt lat="39.47675" lon="-8.480892">
<time>2021-10-05T15:00:52Z</time>
</trkpt>
<trkpt lat="39.476783" lon="-8.480925">
<time>2021-10-05T15:00:53Z</time>
</trkpt>
<trkpt lat="39.47683" lon="-8.480947">
<time>2021-10-05T15:00:54Z</time>
</trkpt>
<trkpt lat="39.476881" lon="-8.480974">
<time>2021-10-05T15:00:55Z</time>
</trkpt>
<trkpt lat="39.476935" lon="-8.480997">
<time>2021-10-05T15:00:56Z</time>
</trkpt>
<trkpt lat="39.477001" lon="-8.481025">
<time>2021-10-05T15:00:57Z</time>
</trkpt>
<trkpt lat="39.477046" lon="-8.481049">
<time>2021-10-05T15:00:58Z</time>
</trkpt>
<trkpt lat="39.477101" lon="-8.481097">
<time>2021-10-05T15:00:59Z</time>
</trkpt>
<trkpt lat="39.47713" lon="-8.48115">
<time>2021-10-05T15:01:00Z</time>
</trkpt>
<trkpt lat="39.477138" lon="-8.481214">
<time>2021-10-05T15:01:01Z</time>
</trkpt>
<trkpt lat="39.47713" lon="-8.481282">
<time>2021-10-05T15:01:02Z</time>
</trkpt>
<trkpt lat="39.477111" lon="-8.48135">
<time>2021-10-05T15:01:03Z</time>
</trkpt>
<trkpt lat="39.47709" lon="-8.481429">
<time>2021-10-05T15:01:04Z</time>
</trkpt>
<trkpt lat="39.477068" lon="-8.481509">
<time>2021-10-05T15:01:05Z</time>
</trkpt>
<trkpt lat="39.47705" lon="-8.481585">
<time>2021-10-05T15:01:06Z</time>
</trkpt>
<trkpt lat="39.477031" lon="-8.481647">
<time>2021-10-05T15:01:07Z</time>
</trkpt>
<trkpt lat="39.477016" lon="-8.481724">
<time>2021-10-05T15:01:08Z</time>
</trkpt>
<trkpt lat="39.477021" lon="-8.481789">
<time>2021-10-05T15:01:09Z</time>
</trkpt>
<trkpt lat="39.47704" lon="-8.481832">
<time>2021-10-05T15:01:10Z</time>
</trkpt>
<trkpt lat="39.477068" lon="-8.481854">
<time>2021-10-05T15:01:11Z</time>
</trkpt>
<trkpt lat="39.477103" lon="-8.481869">
<time>2021-10-05T15:01:12Z</time>
</trkpt>
<trkpt lat="39.477146" lon="-8.481874">
<time>2021-10-05T15:01:13Z</time>
</trkpt>
<trkpt lat="39.477195" lon="-8.481884">
<time>2021-10-05T15:01:14Z</time>
</trkpt>
<trkpt lat="39.477246" lon="-8.481894">
<time>2021-10-05T15:01:15Z</time>
</trkpt>
<trkpt lat="39.477291" lon="-8.48192">
<time>2021-10-05T15:01:16Z</time>
</trkpt>
<trkpt lat="39.477335" lon="-8.481955">
<time>2021-10-05T15:01:17Z</time>
</trkpt>
<trkpt lat="39.477386" lon="-8.481999">
<time>2021-10-05T15:01:18Z</time>
</trkpt>
<trkpt lat="39.477428" lon="-8.482037">
<time>2021-10-05T15:01:19Z</time>
</trkpt>
<trkpt lat="39.477461" lon="-8.482072">
<time>2021-10-05T15:01:20Z</time>
</trkpt>
<trkpt lat="39.477511" lon="-8.48213">
<time>2021-10-05T15:01:21Z</time>
</trkpt>
<trkpt lat="39.477551" lon="-8.482185">
<time>2021-10-05T15:01:22Z</time>
</trkpt>
<trkpt lat="39.477578" lon="-8.482244">
<time>2021-10-05T15:01:23Z</time>
</trkpt>
<trkpt lat="39.477601" lon="-8.482302">
<time>2021-10-05T15:01:24Z</time>
</trkpt>
<trkpt lat="39.477625" lon="-8.482359">
<time>2021-10-05T15:01:25Z</time>
</trkpt>
<trkpt lat="39.477648" lon="-8.482419">
<time>2021-10-05T15:01:26Z</time>
</trkpt>
<trkpt lat="39.477661" lon="-8.482469">
<time>2021-10-05T15:01:27Z</time>
</trkpt>
<trkpt lat="39.477671" lon="-8.482532">
<time>2021-10-05T15:01:28Z</time>
</trkpt>
<trkpt lat="39.477671" lon="-8.482595">
<time>2021-10-05T15:01:29Z</time>
</trkpt>
<trkpt lat="39.47766" lon="-8.482657">
<time>2021-10-05T15:01:30Z</time>
</trkpt>
<trkpt lat="39.477635" lon="-8.482715">
<time>2021-10-05T15:01:31Z</time>
</trkpt>
<trkpt lat="39.477598" lon="-8.482767">
<time>2021-10-05T15:01:32Z</time>
</trkpt>
<trkpt lat="39.477551" lon="-8.482835">
<time>2021-10-05T15:01:33Z</time>
</trkpt>
<trkpt lat="39.477521" lon="-8.4829">
<time>2021-10-05T15:01:34Z</time>
</trkpt>
<trkpt lat="39.4775" lon="-8.482967">
<time>2021-10-05T15:01:35Z</time>
</trkpt>
<trkpt lat="39.477481" lon="-8.483035">
<time>2021-10-05T15:01:36Z</time>
</trkpt>
<trkpt lat="39.47746" lon="-8.483102">
<time>2021-10-05T15:01:37Z</time>
</trkpt>
<trkpt lat="39.477435" lon="-8.483149">
<time>2021-10-05T15:01:38Z</time>
</trkpt>
<trkpt lat="39.477393" lon="-8.483204">
<time>2021-10-05T15:01:39Z</time>
</trkpt>
<trkpt lat="39.477356" lon="-8.483219">
<time>2021-10-05T15:01:40Z</time>
</trkpt>
<trkpt lat="39.477305" lon="-8.48322">
<time>2021-10-05T15:01:41Z</time>
</trkpt>
<trkpt lat="39.477245" lon="-8.483219">
<time>2021-10-05T15:01:42Z</time>
</trkpt>
<trkpt lat="39.477181" lon="-8.483225">
<time>2021-10-05T15:01:43Z</time>
</trkpt>
<trkpt lat="39.47712" lon="-8.48324">
<time>2021-10-05T15:01:44Z</time>
</trkpt>
<trkpt lat="39.477056" lon="-8.483254">
<time>2021-10-05T15:01:45Z</time>
</trkpt>
<trkpt lat="39.476998" lon="-8.48326">
<time>2021-10-05T15:01:46Z</time>
</trkpt>
<trkpt lat="39.47695" lon="-8.483259">
<time>2021-10-05T15:01:47Z</time>
</trkpt>
<trkpt lat="39.476911" lon="-8.483242">
<time>2021-10-05T15:01:48Z</time>
</trkpt>
<trkpt lat="39.476881" lon="-8.483214">
<time>2021-10-05T15:01:49Z</time>
</trkpt>
<trkpt lat="39.476856" lon="-8.483169">
<time>2021-10-05T15:01:50Z</time>
</trkpt>
<trkpt lat="39.476835" lon="-8.48311">
<time>2021-10-05T15:01:51Z</time>
</trkpt>
<trkpt lat="39.476821" lon="-8.48302">
<time>2021-10-05T15:01:52Z</time>
</trkpt>
<trkpt lat="39.476811" lon="-8.482929">
<time>2021-10-05T15:01:53Z</time>
</trkpt>
<trkpt lat="39.476803" lon="-8.482842">
<time>2021-10-05T15:01:54Z</time>
</trkpt>
<trkpt lat="39.476795" lon="-8.482754">
<time>2021-10-05T15:01:55Z</time>
</trkpt>
<trkpt lat="39.476795" lon="-8.482667">
<time>2021-10-05T15:01:56Z</time>
</trkpt>
<trkpt lat="39.476793" lon="-8.482577">
<time>2021-10-05T15:01:57Z</time>
</trkpt>
<trkpt lat="39.476775" lon="-8.482492">
<time>2021-10-05T15:01:58Z</time>
</trkpt>
<trkpt lat="39.476735" lon="-8.482429">
<time>2021-10-05T15:01:59Z</time>
</trkpt>
<trkpt lat="39.476678" lon="-8.482389">
<time>2021-10-05T15:02:00Z</time>
</trkpt>
<trkpt lat="39.476628" lon="-8.482387">
<time>2021-10-05T15:02:01Z</time>
</trkpt>
<trkpt lat="39.476568" lon="-8.4824">
<time>2021-10-05T15:02:02Z</time>
</trkpt>
<trkpt lat="39.476503" lon="-8.48242">
<time>2021-10-05T15:02:03Z</time>
</trkpt>
<trkpt lat="39.476436" lon="-8.482444">
<time>2021-10-05T15:02:04Z</time>
</trkpt>
<trkpt lat="39.47637" lon="-8.482465">
<time>2021-10-05T15:02:05Z</time>
</trkpt>
<trkpt lat="39.476303" lon="-8.482487">
<time>2021-10-05T15:02:06Z</time>
</trkpt>
<trkpt lat="39.476236" lon="-8.48251">
<time>2021-10-05T15:02:07Z</time>
</trkpt>
<trkpt lat="39.476168" lon="-8.482535">
<time>2021-10-05T15:02:08Z</time>
</trkpt>
<trkpt lat="39.476098" lon="-8.482559">
<time>2021-10-05T15:02:09Z</time>
</trkpt>
<trkpt lat="39.476026" lon="-8.48258">
<time>2021-10-05T15:02:10Z</time>
</trkpt>
<trkpt lat="39.475956" lon="-8.482602">
<time>2021-10-05T15:02:11Z</time>
</trkpt>
<trkpt lat="39.475871" lon="-8.482627">
<time>2021-10-05T15:02:12Z</time>
</trkpt>
<trkpt lat="39.475803" lon="-8.482649">
<time>2021-10-05T15:02:13Z</time>
</trkpt>
<trkpt lat="39.475736" lon="-8.482672">
<time>2021-10-05T15:02:14Z</time>
</trkpt>
<trkpt lat="39.47567" lon="-8.482692">
<time>2021-10-05T15:02:15Z</time>
</trkpt>
<trkpt lat="39.475603" lon="-8.482712">
<time>2021-10-05T15:02:16Z</time>
</trkpt>
<trkpt lat="39.475535" lon="-8.482727">
<time>2021-10-05T15:02:17Z</time>
</trkpt>
<trkpt lat="39.475468" lon="-8.482739">
<time>2021-10-05T15:02:18Z</time>
</trkpt>
<trkpt lat="39.475401" lon="-8.482745">
<time>2021-10-05T15:02:19Z</time>
</trkpt>
<trkpt lat="39.475335" lon="-8.482732">
<time>2021-10-05T15:02:20Z</time>
</trkpt>
<trkpt lat="39.475271" lon="-8.482705">
<time>2021-10-05T15:02:21Z</time>
</trkpt>
<trkpt lat="39.47522" lon="-8.48266">
<time>2021-10-05T15:02:22Z</time>
</trkpt>
<trkpt lat="39.475183" lon="-8.482599">
<time>2021-10-05T15:02:23Z</time>
</trkpt>
<trkpt lat="39.475158" lon="-8.482519">
<time>2021-10-05T15:02:24Z</time>
</trkpt>
<trkpt lat="39.475138" lon="-8.482425">
<time>2021-10-05T15:02:25Z</time>
</trkpt>
<trkpt lat="39.475126" lon="-8.482314">
<time>2021-10-05T15:02:26Z</time>
</trkpt>
<trkpt lat="39.475108" lon="-8.482214">
<time>2021-10-05T15:02:27Z</time>
</trkpt>
<trkpt lat="39.475088" lon="-8.482134">
<time>2021-10-05T15:02:28Z</time>
</trkpt>
<trkpt lat="39.475051" lon="-8.482024">
<time>2021-10-05T15:02:29Z</time>
</trkpt>
<trkpt lat="39.47502" lon="-8.481959">
<time>2021-10-05T15:02:30Z</time>
</trkpt>
<trkpt lat="39.474976" lon="-8.481884">
<time>2021-10-05T15:02:31Z</time>
</trkpt>
<trkpt lat="39.474931" lon="-8.481824">
<time>2021-10-05T15:02:32Z</time>
</trkpt>
<trkpt lat="39.474885" lon="-8.481775">
<time>2021-10-05T15:02:33Z</time>
</trkpt>
<trkpt lat="39.474836" lon="-8.481737">
<time>2021-10-05T15:02:34Z</time>
</trkpt>
<trkpt lat="39.47479" lon="-8.481709">
<time>2021-10-05T15:02:35Z</time>
</trkpt>
<trkpt lat="39.474735" lon="-8.481674">
<time>2021-10-05T15:02:36Z</time>
</trkpt>
<trkpt lat="39.474696" lon="-8.481649">
<time>2021-10-05T15:02:37Z</time>
</trkpt>
<trkpt lat="39.474646" lon="-8.481624">
<time>2021-10-05T15:02:38Z</time>
</trkpt>
<trkpt lat="39.474605" lon="-8.481599">
<time>2021-10-05T15:02:39Z</time>
</trkpt>
<trkpt lat="39.474573" lon="-8.481569">
<time>2021-10-05T15:02:40Z</time>
</trkpt>
<trkpt lat="39.474553" lon="-8.481529">
<time>2021-10-05T15:02:41Z</time>
</trkpt>
<trkpt lat="39.47454" lon="-8.481482">
<time>2021-10-05T15:02:42Z</time>
</trkpt>
<trkpt lat="39.474533" lon="-8.48143">
<time>2021-10-05T15:02:43Z</time>
</trkpt>
<trkpt lat="39.474536" lon="-8.481375">
<time>2021-10-05T15:02:44Z</time>
</trkpt>
<trkpt lat="39.47455" lon="-8.481304">
<time>2021-10-05T15:02:45Z</time>
</trkpt>
<trkpt lat="39.474566" lon="-8.481244">
<time>2021-10-05T15:02:46Z</time>
</trkpt>
<trkpt lat="39.474583" lon="-8.481184">
<time>2021-10-05T15:02:47Z</time>
</trkpt>
<trkpt lat="39.474598" lon="-8.481124">
<time>2021-10-05T15:02:48Z</time>
</trkpt>
<trkpt lat="39.474608" lon="-8.481064">
<time>2021-10-05T15:02:49Z</time>
</trkpt>
<trkpt lat="39.47462" lon="-8.481005">
<time>2021-10-05T15:02:50Z</time>
</trkpt>
<trkpt lat="39.474631" lon="-8.480952">
<time>2021-10-05T15:02:51Z</time>
</trkpt>
<trkpt lat="39.474641" lon="-8.480902">
<time>2021-10-05T15:02:52Z</time>
</trkpt>
<trkpt lat="39.47465" lon="-8.480869">
<time>2021-10-05T15:02:53Z</time>
</trkpt>
<trkpt lat="39.474658" lon="-8.480832">
<time>2021-10-05T15:02:54Z</time>
</trkpt>
<trkpt lat="39.474663" lon="-8.48079">
<time>2021-10-05T15:02:55Z</time>
</trkpt>
<trkpt lat="39.474665" lon="-8.480755">
<time>2021-10-05T15:02:56Z</time>
</trkpt>
<trkpt lat="39.474666" lon="-8.480714">
<time>2021-10-05T15:02:57Z</time>
</trkpt>
<trkpt lat="39.474665" lon="-8.480665">
<time>2021-10-05T15:02:58Z</time>
</trkpt>
<trkpt lat="39.474653" lon="-8.480624">
<time>2021-10-05T15:02:59Z</time>
</trkpt>
<trkpt lat="39.474623" lon="-8.480569">
<time>2021-10-05T15:03:00Z</time>
</trkpt>
<trkpt lat="39.474583" lon="-8.480534">
<time>2021-10-05T15:03:01Z</time>
</trkpt>
<trkpt lat="39.47454" lon="-8.4805">
<time>2021-10-05T15:03:02Z</time>
</trkpt>
<trkpt lat="39.474513" lon="-8.480472">
<time>2021-10-05T15:03:03Z</time>
</trkpt>
<trkpt lat="39.474488" lon="-8.480427">
<time>2021-10-05T15:03:04Z</time>
</trkpt>
<trkpt lat="39.47449" lon="-8.48038">
<time>2021-10-05T15:03:05Z</time>
</trkpt>
<trkpt lat="39.474516" lon="-8.480325">
<time>2021-10-05T15:03:06Z</time>
</trkpt>
<trkpt lat="39.474546" lon="-8.480265">
<time>2021-10-05T15:03:07Z</time>
</trkpt>
<trkpt lat="39.474578" lon="-8.480202">
<time>2021-10-05T15:03:08Z</time>
</trkpt>
<trkpt lat="39.474603" lon="-8.480149">
<time>2021-10-05T15:03:09Z</time>
</trkpt>
<trkpt lat="39.47464" lon="-8.480067">
<time>2021-10-05T15:03:10Z</time>
</trkpt>
<trkpt lat="39.474668" lon="-8.479994">
<time>2021-10-05T15:03:11Z</time>
</trkpt>
<trkpt lat="39.474695" lon="-8.479922">
<time>2021-10-05T15:03:12Z</time>
</trkpt>
<trkpt lat="39.474721" lon="-8.479855">
<time>2021-10-05T15:03:13Z</time>
</trkpt>
<trkpt lat="39.47474" lon="-8.479797">
<time>2021-10-05T15:03:14Z</time>
</trkpt>
<trkpt lat="39.474746" lon="-8.479755">
<time>2021-10-05T15:03:15Z</time>
</trkpt>
<trkpt lat="39.474745" lon="-8.47972">
<time>2021-10-05T15:03:16Z</time>
</trkpt>
<trkpt lat="39.474721" lon="-8.479684">
<time>2021-10-05T15:03:17Z</time>
</trkpt>
<trkpt lat="39.474685" lon="-8.479654">
<time>2021-10-05T15:03:18Z</time>
</trkpt>
<trkpt lat="39.474633" lon="-8.479625">
<time>2021-10-05T15:03:19Z</time>
</trkpt>
<trkpt lat="39.474583" lon="-8.479594">
<time>2021-10-05T15:03:20Z</time>
</trkpt>
<trkpt lat="39.474525" lon="-8.47956">
<time>2021-10-05T15:03:21Z</time>
</trkpt>
<trkpt lat="39.474461" lon="-8.479525">
<time>2021-10-05T15:03:22Z</time>
</trkpt>
<trkpt lat="39.474396" lon="-8.479489">
<time>2021-10-05T15:03:23Z</time>
</trkpt>
<trkpt lat="39.47433" lon="-8.479454">
<time>2021-10-05T15:03:24Z</time>
</trkpt>
<trkpt lat="39.474266" lon="-8.479417">
<time>2021-10-05T15:03:25Z</time>
</trkpt>
<trkpt lat="39.474206" lon="-8.479367">
<time>2021-10-05T15:03:26Z</time>
</trkpt>
<trkpt lat="39.47416" lon="-8.479314">
<time>2021-10-05T15:03:27Z</time>
</trkpt>
<trkpt lat="39.474138" lon="-8.479249">
<time>2021-10-05T15:03:28Z</time>
</trkpt>
<trkpt lat="39.474135" lon="-8.47916">
<time>2021-10-05T15:03:29Z</time>
</trkpt>
<trkpt lat="39.474141" lon="-8.479057">
<time>2021-10-05T15:03:30Z</time>
</trkpt>
<trkpt lat="39.474155" lon="-8.478945">
<time>2021-10-05T15:03:31Z</time>
</trkpt>
<trkpt lat="39.47417" lon="-8.478827">
<time>2021-10-05T15:03:32Z</time>
</trkpt>
<trkpt lat="39.474183" lon="-8.478704">
<time>2021-10-05T15:03:33Z</time>
</trkpt>
<trkpt lat="39.474201" lon="-8.478582">
<time>2021-10-05T15:03:34Z</time>
</trkpt>
<trkpt lat="39.474221" lon="-8.478462">
<time>2021-10-05T15:03:35Z</time>
</trkpt>
<trkpt lat="39.474238" lon="-8.47835">
<time>2021-10-05T15:03:36Z</time>
</trkpt>
<trkpt lat="39.474255" lon="-8.47825">
<time>2021-10-05T15:03:37Z</time>
</trkpt>
<trkpt lat="39.474271" lon="-8.47816">
<time>2021-10-05T15:03:38Z</time>
</trkpt>
<trkpt lat="39.474286" lon="-8.478075">
<time>2021-10-05T15:03:39Z</time>
</trkpt>
<trkpt lat="39.474305" lon="-8.477995">
<time>2021-10-05T15:03:40Z</time>
</trkpt>
<trkpt lat="39.474325" lon="-8.477909">
<time>2021-10-05T15:03:41Z</time>
</trkpt>
<trkpt lat="39.474338" lon="-8.477814">
<time>2021-10-05T15:03:42Z</time>
</trkpt>
<trkpt lat="39.474351" lon="-8.47774">
<time>2021-10-05T15:03:43Z</time>
</trkpt>
<trkpt lat="39.474371" lon="-8.477627">
<time>2021-10-05T15:03:44Z</time>
</trkpt>
<trkpt lat="39.474385" lon="-8.477547">
<time>2021-10-05T15:03:45Z</time>
</trkpt>
<trkpt lat="39.4744" lon="-8.477444">
<time>2021-10-05T15:03:46Z</time>
</trkpt>
<trkpt lat="39.474411" lon="-8.477342">
<time>2021-10-05T15:03:47Z</time>
</trkpt>
<trkpt lat="39.474426" lon="-8.47724">
<time>2021-10-05T15:03:48Z</time>
</trkpt>
<trkpt lat="39.474455" lon="-8.477149">
<time>2021-10-05T15:03:49Z</time>
</trkpt>
<trkpt lat="39.474498" lon="-8.477069">
<time>2021-10-05T15:03:50Z</time>
</trkpt>
<trkpt lat="39.474565" lon="-8.476997">
<time>2021-10-05T15:03:51Z</time>
</trkpt>
<trkpt lat="39.474631" lon="-8.476959">
<time>2021-10-05T15:03:52Z</time>
</trkpt>
<trkpt lat="39.474698" lon="-8.476932">
<time>2021-10-05T15:03:53Z</time>
</trkpt>
<trkpt lat="39.474766" lon="-8.476917">
<time>2021-10-05T15:03:54Z</time>
</trkpt>
<trkpt lat="39.474818" lon="-8.47691">
<time>2021-10-05T15:03:55Z</time>
</trkpt>
<trkpt lat="39.474891" lon="-8.476897">
<time>2021-10-05T15:03:56Z</time>
</trkpt>
<trkpt lat="39.474965" lon="-8.476905">
<time>2021-10-05T15:03:57Z</time>
</trkpt>
<trkpt lat="39.475023" lon="-8.476899">
<time>2021-10-05T15:03:58Z</time>
</trkpt>
<trkpt lat="39.47508" lon="-8.476884">
<time>2021-10-05T15:03:59Z</time>
</trkpt>
<trkpt lat="39.475138" lon="-8.476867">
<time>2021-10-05T15:04:00Z</time>
</trkpt>
<trkpt lat="39.4752" lon="-8.476872">
<time>2021-10-05T15:04:01Z</time>
</trkpt>
<trkpt lat="39.475245" lon="-8.476882">
<time>2021-10-05T15:04:02Z</time>
</trkpt>
<trkpt lat="39.475295" lon="-8.476905">
<time>2021-10-05T15:04:03Z</time>
</trkpt>
<trkpt lat="39.475328" lon="-8.47693">
<time>2021-10-05T15:04:04Z</time>
</trkpt>
<trkpt lat="39.475361" lon="-8.476974">
<time>2021-10-05T15:04:05Z</time>
</trkpt>
<trkpt lat="39.475385" lon="-8.477027">
<time>2021-10-05T15:04:06Z</time>
</trkpt>
<trkpt lat="39.475405" lon="-8.477065">
<time>2021-10-05T15:04:07Z</time>
</trkpt>
<trkpt lat="39.475421" lon="-8.477105">
<time>2021-10-05T15:04:08Z</time>
</trkpt>
<trkpt lat="39.475428" lon="-8.477157">
<time>2021-10-05T15:04:09Z</time>
</trkpt>
<trkpt lat="39.475443" lon="-8.477212">
<time>2021-10-05T15:04:10Z</time>
</trkpt>
<trkpt lat="39.475471" lon="-8.477255">
<time>2021-10-05T15:04:11Z</time>
</trkpt>
<trkpt lat="39.475501" lon="-8.477284">
<time>2021-10-05T15:04:12Z</time>
</trkpt>
<trkpt lat="39.475541" lon="-8.477312">
<time>2021-10-05T15:04:13Z</time>
</trkpt>
<trkpt lat="39.47557" lon="-8.477335">
<time>2021-10-05T15:04:14Z</time>
</trkpt>
<trkpt lat="39.475611" lon="-8.477364">
<time>2021-10-05T15:04:15Z</time>
</trkpt>
<trkpt lat="39.475663" lon="-8.477394">
<time>2021-10-05T15:04:16Z</time>
</trkpt>
<trkpt lat="39.475706" lon="-8.47742">
<time>2021-10-05T15:04:17Z</time>
</trkpt>
<trkpt lat="39.475753" lon="-8.477445">
<time>2021-10-05T15:04:18Z</time>
</trkpt>
<trkpt lat="39.475805" lon="-8.477467">
<time>2021-10-05T15:04:19Z</time>
</trkpt>
<trkpt lat="39.475855" lon="-8.477489">
<time>2021-10-05T15:04:20Z</time>
</trkpt>
<trkpt lat="39.475903" lon="-8.477512">
<time>2021-10-05T15:04:21Z</time>
</trkpt>
<trkpt lat="39.47595" lon="-8.477534">
<time>2021-10-05T15:04:22Z</time>
</trkpt>
<trkpt lat="39.476001" lon="-8.477545">
<time>2021-10-05T15:04:23Z</time>
</trkpt>
<trkpt lat="39.476058" lon="-8.477539">
<time>2021-10-05T15:04:24Z</time>
</trkpt>
<trkpt lat="39.476105" lon="-8.47751">
<time>2021-10-05T15:04:25Z</time>
</trkpt>
<trkpt lat="39.476145" lon="-8.477455">
<time>2021-10-05T15:04:26Z</time>
</trkpt>
<trkpt lat="39.476176" lon="-8.477397">
<time>2021-10-05T15:04:27Z</time>
</trkpt>
<trkpt lat="39.4762" lon="-8.477327">
<time>2021-10-05T15:04:28Z</time>
</trkpt>
<trkpt lat="39.476221" lon="-8.477252">
<time>2021-10-05T15:04:29Z</time>
</trkpt>
<trkpt lat="39.47625" lon="-8.477177">
<time>2021-10-05T15:04:30Z</time>
</trkpt>
<trkpt lat="39.476285" lon="-8.477112">
<time>2021-10-05T15:04:31Z</time>
</trkpt>
<trkpt lat="39.47633" lon="-8.477059">
<time>2021-10-05T15:04:32Z</time>
</trkpt>
<trkpt lat="39.476376" lon="-8.477014">
<time>2021-10-05T15:04:33Z</time>
</trkpt>
<trkpt lat="39.476428" lon="-8.476977">
<time>2021-10-05T15:04:34Z</time>
</trkpt>
<trkpt lat="39.476481" lon="-8.476949">
<time>2021-10-05T15:04:35Z</time>
</trkpt>
<trkpt lat="39.476533" lon="-8.476929">
<time>2021-10-05T15:04:36Z</time>
</trkpt>
<trkpt lat="39.476585" lon="-8.476922">
<time>2021-10-05T15:04:37Z</time>
</trkpt>
<trkpt lat="39.476636" lon="-8.476927">
<time>2021-10-05T15:04:38Z</time>
</trkpt>
<trkpt lat="39.476675" lon="-8.47694">
<time>2021-10-05T15:04:39Z</time>
</trkpt>
<trkpt lat="39.476731" lon="-8.476964">
<time>2021-10-05T15:04:40Z</time>
</trkpt>
<trkpt lat="39.47678" lon="-8.476987">
<time>2021-10-05T15:04:41Z</time>
</trkpt>
<trkpt lat="39.476825" lon="-8.47701">
<time>2021-10-05T15:04:42Z</time>
</trkpt>
<trkpt lat="39.476871" lon="-8.477037">
<time>2021-10-05T15:04:43Z</time>
</trkpt>
<trkpt lat="39.47692" lon="-8.477062">
<time>2021-10-05T15:04:44Z</time>
</trkpt>
<trkpt lat="39.476975" lon="-8.477082">
<time>2021-10-05T15:04:45Z</time>
</trkpt>
<trkpt lat="39.477025" lon="-8.477107">
<time>2021-10-05T15:04:46Z</time>
</trkpt>
<trkpt lat="39.477076" lon="-8.477134">
<time>2021-10-05T15:04:47Z</time>
</trkpt>
<trkpt lat="39.477128" lon="-8.477157">
<time>2021-10-05T15:04:48Z</time>
</trkpt>
<trkpt lat="39.477178" lon="-8.477182">
<time>2021-10-05T15:04:49Z</time>
</trkpt>
<trkpt lat="39.477226" lon="-8.4772">
<time>2021-10-05T15:04:50Z</time>
</trkpt>
<trkpt lat="39.477275" lon="-8.477222">
<time>2021-10-05T15:04:51Z</time>
</trkpt>
<trkpt lat="39.477321" lon="-8.477244">
<time>2021-10-05T15:04:52Z</time>
</trkpt>
<trkpt lat="39.47737" lon="-8.477269">
<time>2021-10-05T15:04:53Z</time>
</trkpt>
<trkpt lat="39.477416" lon="-8.477292">
<time>2021-10-05T15:04:54Z</time>
</trkpt>
<trkpt lat="39.477458" lon="-8.477314">
<time>2021-10-05T15:04:55Z</time>
</trkpt>
<trkpt lat="39.477501" lon="-8.477337">
<time>2021-10-05T15:04:56Z</time>
</trkpt>
<trkpt lat="39.477536" lon="-8.477362">
<time>2021-10-05T15:04:57Z</time>
</trkpt>
<trkpt lat="39.477563" lon="-8.477392">
<time>2021-10-05T15:04:58Z</time>
</trkpt>
<trkpt lat="39.477576" lon="-8.47742">
<time>2021-10-05T15:04:59Z</time>
</trkpt>
<trkpt lat="39.477583" lon="-8.477442">
<time>2021-10-05T15:05:00Z</time>
</trkpt>
<trkpt lat="39.477591" lon="-8.477474">
<time>2021-10-05T15:05:01Z</time>
</trkpt>
<trkpt lat="39.47761" lon="-8.477512">
<time>2021-10-05T15:05:02Z</time>
</trkpt>
<trkpt lat="39.477638" lon="-8.477544">
<time>2021-10-05T15:05:03Z</time>
</trkpt>
<trkpt lat="39.477676" lon="-8.477575">
<time>2021-10-05T15:05:04Z</time>
</trkpt>
<trkpt lat="39.477711" lon="-8.4776">
<time>2021-10-05T15:05:05Z</time>
</trkpt>
<trkpt lat="39.47777" lon="-8.477634">
<time>2021-10-05T15:05:06Z</time>
</trkpt>
<trkpt lat="39.477823" lon="-8.47766">
<time>2021-10-05T15:05:07Z</time>
</trkpt>
<trkpt lat="39.47788" lon="-8.477685">
<time>2021-10-05T15:05:08Z</time>
</trkpt>
<trkpt lat="39.477938" lon="-8.477705">
<time>2021-10-05T15:05:09Z</time>
</trkpt>
<trkpt lat="39.477998" lon="-8.477727">
<time>2021-10-05T15:05:10Z</time>
</trkpt>
<trkpt lat="39.478058" lon="-8.477752">
<time>2021-10-05T15:05:11Z</time>
</trkpt>
<trkpt lat="39.47812" lon="-8.477777">
<time>2021-10-05T15:05:12Z</time>
</trkpt>
<trkpt lat="39.47818" lon="-8.477804">
<time>2021-10-05T15:05:13Z</time>
</trkpt>
<trkpt lat="39.47824" lon="-8.477827">
<time>2021-10-05T15:05:14Z</time>
</trkpt>
<trkpt lat="39.478288" lon="-8.477847">
<time>2021-10-05T15:05:15Z</time>
</trkpt>
<trkpt lat="39.478361" lon="-8.477879">
<time>2021-10-05T15:05:16Z</time>
</trkpt>
<trkpt lat="39.478421" lon="-8.477905">
<time>2021-10-05T15:05:17Z</time>
</trkpt>
<trkpt lat="39.478481" lon="-8.47793">
<time>2021-10-05T15:05:18Z</time>
</trkpt>
<trkpt lat="39.478543" lon="-8.477957">
<time>2021-10-05T15:05:19Z</time>
</trkpt>
<trkpt lat="39.478605" lon="-8.477984">
<time>2021-10-05T15:05:20Z</time>
</trkpt>
<trkpt lat="39.478665" lon="-8.478009">
<time>2021-10-05T15:05:21Z</time>
</trkpt>
<trkpt lat="39.478725" lon="-8.478035">
<time>2021-10-05T15:05:22Z</time>
</trkpt>
<trkpt lat="39.478786" lon="-8.478062">
<time>2021-10-05T15:05:23Z</time>
</trkpt>
<trkpt lat="39.47885" lon="-8.478089">
<time>2021-10-05T15:05:24Z</time>
</trkpt>
<trkpt lat="39.478911" lon="-8.478114">
<time>2021-10-05T15:05:25Z</time>
</trkpt>
<trkpt lat="39.478973" lon="-8.478139">
<time>2021-10-05T15:05:26Z</time>
</trkpt>
<trkpt lat="39.479038" lon="-8.478162">
<time>2021-10-05T15:05:27Z</time>
</trkpt>
<trkpt lat="39.479103" lon="-8.478189">
<time>2021-10-05T15:05:28Z</time>
</trkpt>
<trkpt lat="39.47917" lon="-8.478217">
<time>2021-10-05T15:05:29Z</time>
</trkpt>
<trkpt lat="39.479233" lon="-8.478245">
<time>2021-10-05T15:05:30Z</time>
</trkpt>
<trkpt lat="39.479298" lon="-8.478272">
<time>2021-10-05T15:05:31Z</time>
</trkpt>
<trkpt lat="39.479365" lon="-8.478299">
<time>2021-10-05T15:05:32Z</time>
</trkpt>
<trkpt lat="39.479433" lon="-8.478324">
<time>2021-10-05T15:05:33Z</time>
</trkpt>
<trkpt lat="39.4795" lon="-8.478349">
<time>2021-10-05T15:05:34Z</time>
</trkpt>
<trkpt lat="39.479565" lon="-8.478374">
<time>2021-10-05T15:05:35Z</time>
</trkpt>
<trkpt lat="39.47963" lon="-8.4784">
<time>2021-10-05T15:05:36Z</time>
</trkpt>
<trkpt lat="39.479695" lon="-8.478427">
<time>2021-10-05T15:05:37Z</time>
</trkpt>
<trkpt lat="39.47976" lon="-8.47845">
<time>2021-10-05T15:05:38Z</time>
</trkpt>
<trkpt lat="39.479821" lon="-8.47847">
<time>2021-10-05T15:05:39Z</time>
</trkpt>
<trkpt lat="39.47988" lon="-8.478477">
<time>2021-10-05T15:05:40Z</time>
</trkpt>
<trkpt lat="39.479935" lon="-8.478464">
<time>2021-10-05T15:05:41Z</time>
</trkpt>
<trkpt lat="39.479978" lon="-8.47843">
<time>2021-10-05T15:05:42Z</time>
</trkpt>
<trkpt lat="39.480008" lon="-8.478385">
<time>2021-10-05T15:05:43Z</time>
</trkpt>
<trkpt lat="39.480033" lon="-8.478345">
<time>2021-10-05T15:05:44Z</time>
</trkpt>
<trkpt lat="39.480056" lon="-8.478319">
<time>2021-10-05T15:05:45Z</time>
</trkpt>
<trkpt lat="39.480076" lon="-8.478307">
<time>2021-10-05T15:05:46Z</time>
</trkpt>
<trkpt lat="39.4801" lon="-8.478297">
<time>2021-10-05T15:05:47Z</time>
</trkpt>
<trkpt lat="39.480123" lon="-8.478287">
<time>2021-10-05T15:05:48Z</time>
</trkpt>
<trkpt lat="39.480156" lon="-8.478285">
<time>2021-10-05T15:05:49Z</time>
</trkpt>
<trkpt lat="39.480195" lon="-8.478292">
<time>2021-10-05T15:05:50Z</time>
</trkpt>
<trkpt lat="39.480236" lon="-8.478299">
<time>2021-10-05T15:05:51Z</time>
</trkpt>
<trkpt lat="39.48027" lon="-8.478295">
<time>2021-10-05T15:05:52Z</time>
</trkpt>
<trkpt lat="39.480308" lon="-8.478279">
<time>2021-10-05T15:05:53Z</time>
</trkpt>
<trkpt lat="39.480348" lon="-8.478244">
<time>2021-10-05T15:05:54Z</time>
</trkpt>
<trkpt lat="39.480375" lon="-8.478217">
<time>2021-10-05T15:05:55Z</time>
</trkpt>
<trkpt lat="39.48041" lon="-8.478177">
<time>2021-10-05T15:05:56Z</time>
</trkpt>
<trkpt lat="39.480441" lon="-8.478132">
<time>2021-10-05T15:05:57Z</time>
</trkpt>
<trkpt lat="39.480473" lon="-8.478065">
<time>2021-10-05T15:05:58Z</time>
</trkpt>
<trkpt lat="39.480491" lon="-8.478">
<time>2021-10-05T15:05:59Z</time>
</trkpt>
<trkpt lat="39.480503" lon="-8.477944">
<time>2021-10-05T15:06:00Z</time>
</trkpt>
<trkpt lat="39.480515" lon="-8.47787">
<time>2021-10-05T15:06:01Z</time>
</trkpt>
<trkpt lat="39.480528" lon="-8.477799">
<time>2021-10-05T15:06:02Z</time>
</trkpt>
<trkpt lat="39.48054" lon="-8.477725">
<time>2021-10-05T15:06:03Z</time>
</trkpt>
<trkpt lat="39.480553" lon="-8.477652">
<time>2021-10-05T15:06:04Z</time>
</trkpt>
<trkpt lat="39.480568" lon="-8.47758">
<time>2021-10-05T15:06:05Z</time>
</trkpt>
<trkpt lat="39.480585" lon="-8.47751">
<time>2021-10-05T15:06:06Z</time>
</trkpt>
<trkpt lat="39.480601" lon="-8.477444">
<time>2021-10-05T15:06:07Z</time>
</trkpt>
<trkpt lat="39.480618" lon="-8.47738">
<time>2021-10-05T15:06:08Z</time>
</trkpt>
<trkpt lat="39.480635" lon="-8.477315">
<time>2021-10-05T15:06:09Z</time>
</trkpt>
<trkpt lat="39.48065" lon="-8.47725">
<time>2021-10-05T15:06:10Z</time>
</trkpt>
<trkpt lat="39.480668" lon="-8.47717">
<time>2021-10-05T15:06:11Z</time>
</trkpt>
<trkpt lat="39.480685" lon="-8.477099">
<time>2021-10-05T15:06:12Z</time>
</trkpt>
<trkpt lat="39.480701" lon="-8.477025">
<time>2021-10-05T15:06:13Z</time>
</trkpt>
<trkpt lat="39.480718" lon="-8.47695">
<time>2021-10-05T15:06:14Z</time>
</trkpt>
<trkpt lat="39.480738" lon="-8.476874">
<time>2021-10-05T15:06:15Z</time>
</trkpt>
<trkpt lat="39.480758" lon="-8.476797">
<time>2021-10-05T15:06:16Z</time>
</trkpt>
<trkpt lat="39.480778" lon="-8.476717">
<time>2021-10-05T15:06:17Z</time>
</trkpt>
<trkpt lat="39.4808" lon="-8.476639">
<time>2021-10-05T15:06:18Z</time>
</trkpt>
<trkpt lat="39.480821" lon="-8.476557">
<time>2021-10-05T15:06:19Z</time>
</trkpt>
<trkpt lat="39.480845" lon="-8.476472">
<time>2021-10-05T15:06:20Z</time>
</trkpt>
<trkpt lat="39.48087" lon="-8.476385">
<time>2021-10-05T15:06:21Z</time>
</trkpt>
<trkpt lat="39.480896" lon="-8.476292">
<time>2021-10-05T15:06:22Z</time>
</trkpt>
<trkpt lat="39.480921" lon="-8.476197">
<time>2021-10-05T15:06:23Z</time>
</trkpt>
<trkpt lat="39.480946" lon="-8.476099">
<time>2021-10-05T15:06:24Z</time>
</trkpt>
<trkpt lat="39.480973" lon="-8.475999">
<time>2021-10-05T15:06:25Z</time>
</trkpt>
<trkpt lat="39.481001" lon="-8.475897">
<time>2021-10-05T15:06:26Z</time>
</trkpt>
<trkpt lat="39.48103" lon="-8.47579">
<time>2021-10-05T15:06:27Z</time>
</trkpt>
<trkpt lat="39.481058" lon="-8.475684">
<time>2021-10-05T15:06:28Z</time>
</trkpt>
<trkpt lat="39.48109" lon="-8.475575">
<time>2021-10-05T15:06:29Z</time>
</trkpt>
<trkpt lat="39.48112" lon="-8.475469">
<time>2021-10-05T15:06:30Z</time>
</trkpt>
<trkpt lat="39.481143" lon="-8.475382">
<time>2021-10-05T15:06:31Z</time>
</trkpt>
<trkpt lat="39.481176" lon="-8.47525">
<time>2021-10-05T15:06:32Z</time>
</trkpt>
<trkpt lat="39.481201" lon="-8.475167">
<time>2021-10-05T15:06:33Z</time>
</trkpt>
<trkpt lat="39.481238" lon="-8.475082">
<time>2021-10-05T15:06:34Z</time>
</trkpt>
<trkpt lat="39.481293" lon="-8.475012">
<time>2021-10-05T15:06:35Z</time>
</trkpt>
<trkpt lat="39.481348" lon="-8.47499">
<time>2021-10-05T15:06:36Z</time>
</trkpt>
<trkpt lat="39.481403" lon="-8.474987">
<time>2021-10-05T15:06:37Z</time>
</trkpt>
<trkpt lat="39.481456" lon="-8.474995">
<time>2021-10-05T15:06:38Z</time>
</trkpt>
<trkpt lat="39.481511" lon="-8.475005">
<time>2021-10-05T15:06:39Z</time>
</trkpt>
<trkpt lat="39.481556" lon="-8.475025">
<time>2021-10-05T15:06:40Z</time>
</trkpt>
<trkpt lat="39.481583" lon="-8.475055">
<time>2021-10-05T15:06:41Z</time>
</trkpt>
<trkpt lat="39.481596" lon="-8.475087">
<time>2021-10-05T15:06:42Z</time>
</trkpt>
<trkpt lat="39.481588" lon="-8.475105">
<time>2021-10-05T15:06:43Z</time>
</trkpt>
<trkpt lat="39.481565" lon="-8.475104">
<time>2021-10-05T15:06:44Z</time>
</trkpt>
<trkpt lat="39.481525" lon="-8.475085">
<time>2021-10-05T15:06:45Z</time>
</trkpt>
<trkpt lat="39.481465" lon="-8.47505">
<time>2021-10-05T15:06:46Z</time>
</trkpt>
<trkpt lat="39.48141" lon="-8.475012">
<time>2021-10-05T15:06:47Z</time>
</trkpt>
<trkpt lat="39.481361" lon="-8.474965">
<time>2021-10-05T15:06:48Z</time>
</trkpt>
<trkpt lat="39.481325" lon="-8.47491">
<time>2021-10-05T15:06:49Z</time>
</trkpt>
<trkpt lat="39.481305" lon="-8.47485">
<time>2021-10-05T15:06:50Z</time>
</trkpt>
<trkpt lat="39.481301" lon="-8.47478">
<time>2021-10-05T15:06:51Z</time>
</trkpt>
<trkpt lat="39.481313" lon="-8.474705">
<time>2021-10-05T15:06:52Z</time>
</trkpt>
<trkpt lat="39.481331" lon="-8.474627">
<time>2021-10-05T15:06:53Z</time>
</trkpt>
<trkpt lat="39.481353" lon="-8.474547">
<time>2021-10-05T15:06:54Z</time>
</trkpt>
<trkpt lat="39.481376" lon="-8.474467">
<time>2021-10-05T15:06:55Z</time>
</trkpt>
<trkpt lat="39.481401" lon="-8.474382">
<time>2021-10-05T15:06:56Z</time>
</trkpt>
<trkpt lat="39.481425" lon="-8.474294">
<time>2021-10-05T15:06:57Z</time>
</trkpt>
<trkpt lat="39.481451" lon="-8.474202">
<time>2021-10-05T15:06:58Z</time>
</trkpt>
<trkpt lat="39.481478" lon="-8.47411">
<time>2021-10-05T15:06:59Z</time>
</trkpt>
<trkpt lat="39.481505" lon="-8.474015">
<time>2021-10-05T15:07:00Z</time>
</trkpt>
<trkpt lat="39.481531" lon="-8.473919">
<time>2021-10-05T15:07:01Z</time>
</trkpt>
<trkpt lat="39.48156" lon="-8.47382">
<time>2021-10-05T15:07:02Z</time>
</trkpt>
<trkpt lat="39.481588" lon="-8.473717">
<time>2021-10-05T15:07:03Z</time>
</trkpt>
<trkpt lat="39.481618" lon="-8.473607">
<time>2021-10-05T15:07:04Z</time>
</trkpt>
<trkpt lat="39.481646" lon="-8.473494">
<time>2021-10-05T15:07:05Z</time>
</trkpt>
<trkpt lat="39.481676" lon="-8.473379">
<time>2021-10-05T15:07:06Z</time>
</trkpt>
<trkpt lat="39.481703" lon="-8.473264">
<time>2021-10-05T15:07:07Z</time>
</trkpt>
<trkpt lat="39.481725" lon="-8.473147">
<time>2021-10-05T15:07:08Z</time>
</trkpt>
<trkpt lat="39.48174" lon="-8.473029">
<time>2021-10-05T15:07:09Z</time>
</trkpt>
<trkpt lat="39.481748" lon="-8.47291">
<time>2021-10-05T15:07:10Z</time>
</trkpt>
<trkpt lat="39.481745" lon="-8.47279">
<time>2021-10-05T15:07:11Z</time>
</trkpt>
<trkpt lat="39.481733" lon="-8.472674">
<time>2021-10-05T15:07:12Z</time>
</trkpt>
<trkpt lat="39.481713" lon="-8.472559">
<time>2021-10-05T15:07:13Z</time>
</trkpt>
<trkpt lat="39.481693" lon="-8.47245">
<time>2021-10-05T15:07:14Z</time>
</trkpt>
<trkpt lat="39.481675" lon="-8.47235">
<time>2021-10-05T15:07:15Z</time>
</trkpt>
<trkpt lat="39.481656" lon="-8.472257">
<time>2021-10-05T15:07:16Z</time>
</trkpt>
<trkpt lat="39.481638" lon="-8.472165">
<time>2021-10-05T15:07:17Z</time>
</trkpt>
<trkpt lat="39.481626" lon="-8.472077">
<time>2021-10-05T15:07:18Z</time>
</trkpt>
<trkpt lat="39.481623" lon="-8.471985">
<time>2021-10-05T15:07:19Z</time>
</trkpt>
<trkpt lat="39.481631" lon="-8.471894">
<time>2021-10-05T15:07:20Z</time>
</trkpt>
<trkpt lat="39.481641" lon="-8.471795">
<time>2021-10-05T15:07:21Z</time>
</trkpt>
<trkpt lat="39.48165" lon="-8.471692">
<time>2021-10-05T15:07:22Z</time>
</trkpt>
<trkpt lat="39.481653" lon="-8.471589">
<time>2021-10-05T15:07:23Z</time>
</trkpt>
<trkpt lat="39.481655" lon="-8.471482">
<time>2021-10-05T15:07:24Z</time>
</trkpt>
<trkpt lat="39.481655" lon="-8.471372">
<time>2021-10-05T15:07:25Z</time>
</trkpt>
<trkpt lat="39.481656" lon="-8.47126">
<time>2021-10-05T15:07:26Z</time>
</trkpt>
<trkpt lat="39.481658" lon="-8.471149">
<time>2021-10-05T15:07:27Z</time>
</trkpt>
<trkpt lat="39.481658" lon="-8.471035">
<time>2021-10-05T15:07:28Z</time>
</trkpt>
<trkpt lat="39.481656" lon="-8.470924">
<time>2021-10-05T15:07:29Z</time>
</trkpt>
<trkpt lat="39.481655" lon="-8.470835">
<time>2021-10-05T15:07:30Z</time>
</trkpt>
<trkpt lat="39.481651" lon="-8.470722">
<time>2021-10-05T15:07:31Z</time>
</trkpt>
<trkpt lat="39.48165" lon="-8.470587">
<time>2021-10-05T15:07:32Z</time>
</trkpt>
<trkpt lat="39.481648" lon="-8.470474">
<time>2021-10-05T15:07:33Z</time>
</trkpt>
<trkpt lat="39.481646" lon="-8.470359">
<time>2021-10-05T15:07:34Z</time>
</trkpt>
<trkpt lat="39.481646" lon="-8.470267">
<time>2021-10-05T15:07:35Z</time>
</trkpt>
<trkpt lat="39.481645" lon="-8.470152">
<time>2021-10-05T15:07:36Z</time>
</trkpt>
<trkpt lat="39.481645" lon="-8.470037">
<time>2021-10-05T15:07:37Z</time>
</trkpt>
<trkpt lat="39.481643" lon="-8.469902">
<time>2021-10-05T15:07:38Z</time>
</trkpt>
<trkpt lat="39.48164" lon="-8.469794">
<time>2021-10-05T15:07:39Z</time>
</trkpt>
<trkpt lat="39.481636" lon="-8.469709">
<time>2021-10-05T15:07:40Z</time>
</trkpt>
<trkpt lat="39.481633" lon="-8.469602">
<time>2021-10-05T15:07:41Z</time>
</trkpt>
<trkpt lat="39.48163" lon="-8.469479">
<time>2021-10-05T15:07:42Z</time>
</trkpt>
<trkpt lat="39.481626" lon="-8.469404">
<time>2021-10-05T15:07:43Z</time>
</trkpt>
<trkpt lat="39.481623" lon="-8.469314">
<time>2021-10-05T15:07:44Z</time>
</trkpt>
<trkpt lat="39.481621" lon="-8.469215">
<time>2021-10-05T15:07:45Z</time>
</trkpt>
<trkpt lat="39.481621" lon="-8.469139">
<time>2021-10-05T15:07:46Z</time>
</trkpt>
<trkpt lat="39.481618" lon="-8.469067">
<time>2021-10-05T15:07:47Z</time>
</trkpt>
<trkpt lat="39.481613" lon="-8.469005">
<time>2021-10-05T15:07:48Z</time>
</trkpt>
<trkpt lat="39.481611" lon="-8.468944">
<time>2021-10-05T15:07:49Z</time>
</trkpt>
<trkpt lat="39.481611" lon="-8.468884">
<time>2021-10-05T15:07:50Z</time>
</trkpt>
<trkpt lat="39.481618" lon="-8.46882">
<time>2021-10-05T15:07:51Z</time>
</trkpt>
<trkpt lat="39.481628" lon="-8.468767">
<time>2021-10-05T15:07:52Z</time>
</trkpt>
<trkpt lat="39.481655" lon="-8.468684">
<time>2021-10-05T15:07:53Z</time>
</trkpt>
<trkpt lat="39.481678" lon="-8.468609">
<time>2021-10-05T15:07:54Z</time>
</trkpt>
<trkpt lat="39.481698" lon="-8.468529">
<time>2021-10-05T15:07:55Z</time>
</trkpt>
<trkpt lat="39.481716" lon="-8.468442">
<time>2021-10-05T15:07:56Z</time>
</trkpt>
<trkpt lat="39.481733" lon="-8.46835">
<time>2021-10-05T15:07:57Z</time>
</trkpt>
<trkpt lat="39.48175" lon="-8.468254">
<time>2021-10-05T15:07:58Z</time>
</trkpt>
<trkpt lat="39.481766" lon="-8.468155">
<time>2021-10-05T15:07:59Z</time>
</trkpt>
<trkpt lat="39.481786" lon="-8.468052">
<time>2021-10-05T15:08:00Z</time>
</trkpt>
<trkpt lat="39.481806" lon="-8.467942">
<time>2021-10-05T15:08:01Z</time>
</trkpt>
<trkpt lat="39.481828" lon="-8.467825">
<time>2021-10-05T15:08:02Z</time>
</trkpt>
<trkpt lat="39.481841" lon="-8.467705">
<time>2021-10-05T15:08:03Z</time>
</trkpt>
<trkpt lat="39.481855" lon="-8.467579">
<time>2021-10-05T15:08:04Z</time>
</trkpt>
<trkpt lat="39.481871" lon="-8.467452">
<time>2021-10-05T15:08:05Z</time>
</trkpt>
<trkpt lat="39.48189" lon="-8.467325">
<time>2021-10-05T15:08:06Z</time>
</trkpt>
<trkpt lat="39.481913" lon="-8.467204">
<time>2021-10-05T15:08:07Z</time>
</trkpt>
<trkpt lat="39.481933" lon="-8.467087">
<time>2021-10-05T15:08:08Z</time>
</trkpt>
<trkpt lat="39.481958" lon="-8.466984">
<time>2021-10-05T15:08:09Z</time>
</trkpt>
<trkpt lat="39.481988" lon="-8.466902">
<time>2021-10-05T15:08:10Z</time>
</trkpt>
<trkpt lat="39.48202" lon="-8.466842">
<time>2021-10-05T15:08:11Z</time>
</trkpt>
<trkpt lat="39.482045" lon="-8.466802">
<time>2021-10-05T15:08:12Z</time>
</trkpt>
<trkpt lat="39.482055" lon="-8.466769">
<time>2021-10-05T15:08:13Z</time>
</trkpt>
<trkpt lat="39.482051" lon="-8.466737">
<time>2021-10-05T15:08:14Z</time>
</trkpt>
<trkpt lat="39.482038" lon="-8.46671">
<time>2021-10-05T15:08:15Z</time>
</trkpt>
<trkpt lat="39.482025" lon="-8.46668">
<time>2021-10-05T15:08:16Z</time>
</trkpt>
<trkpt lat="39.482018" lon="-8.466657">
<time>2021-10-05T15:08:17Z</time>
</trkpt>
<trkpt lat="39.482026" lon="-8.466639">
<time>2021-10-05T15:08:18Z</time>
</trkpt>
<trkpt lat="39.482048" lon="-8.46663">
<time>2021-10-05T15:08:19Z</time>
</trkpt>
<trkpt lat="39.482073" lon="-8.466625">
<time>2021-10-05T15:08:20Z</time>
</trkpt>
<trkpt lat="39.482098" lon="-8.46662">
<time>2021-10-05T15:08:21Z</time>
</trkpt>
<trkpt lat="39.482126" lon="-8.466614">
<time>2021-10-05T15:08:22Z</time>
</trkpt>
<trkpt lat="39.482156" lon="-8.466604">
<time>2021-10-05T15:08:23Z</time>
</trkpt>
<trkpt lat="39.482191" lon="-8.466594">
<time>2021-10-05T15:08:24Z</time>
</trkpt>
<trkpt lat="39.482231" lon="-8.466587">
<time>2021-10-05T15:08:25Z</time>
</trkpt>
<trkpt lat="39.482276" lon="-8.466577">
<time>2021-10-05T15:08:26Z</time>
</trkpt>
<trkpt lat="39.482325" lon="-8.466567">
<time>2021-10-05T15:08:27Z</time>
</trkpt>
<trkpt lat="39.482376" lon="-8.46656">
<time>2021-10-05T15:08:28Z</time>
</trkpt>
<trkpt lat="39.48243" lon="-8.466557">
<time>2021-10-05T15:08:29Z</time>
</trkpt>
<trkpt lat="39.482485" lon="-8.466555">
<time>2021-10-05T15:08:30Z</time>
</trkpt>
<trkpt lat="39.482528" lon="-8.466564">
<time>2021-10-05T15:08:31Z</time>
</trkpt>
<trkpt lat="39.482575" lon="-8.46658">
<time>2021-10-05T15:08:32Z</time>
</trkpt>
<trkpt lat="39.482623" lon="-8.4666">
<time>2021-10-05T15:08:33Z</time>
</trkpt>
<trkpt lat="39.482668" lon="-8.466625">
<time>2021-10-05T15:08:34Z</time>
</trkpt>
<trkpt lat="39.482715" lon="-8.466655">
<time>2021-10-05T15:08:35Z</time>
</trkpt>
<trkpt lat="39.482761" lon="-8.466689">
<time>2021-10-05T15:08:36Z</time>
</trkpt>
<trkpt lat="39.482805" lon="-8.46673">
<time>2021-10-05T15:08:37Z</time>
</trkpt>
<trkpt lat="39.48285" lon="-8.466767">
<time>2021-10-05T15:08:38Z</time>
</trkpt>
<trkpt lat="39.482893" lon="-8.466794">
<time>2021-10-05T15:08:39Z</time>
</trkpt>
<trkpt lat="39.482933" lon="-8.466814">
<time>2021-10-05T15:08:40Z</time>
</trkpt>
<trkpt lat="39.482973" lon="-8.466827">
<time>2021-10-05T15:08:41Z</time>
</trkpt>
<trkpt lat="39.483013" lon="-8.466837">
<time>2021-10-05T15:08:42Z</time>
</trkpt>
<trkpt lat="39.483055" lon="-8.466845">
<time>2021-10-05T15:08:43Z</time>
</trkpt>
<trkpt lat="39.483098" lon="-8.466855">
<time>2021-10-05T15:08:44Z</time>
</trkpt>
<trkpt lat="39.483133" lon="-8.466862">
<time>2021-10-05T15:08:45Z</time>
</trkpt>
<trkpt lat="39.483165" lon="-8.466854">
<time>2021-10-05T15:08:46Z</time>
</trkpt>
<trkpt lat="39.483193" lon="-8.46683">
<time>2021-10-05T15:08:47Z</time>
</trkpt>
<trkpt lat="39.483206" lon="-8.466799">
<time>2021-10-05T15:08:48Z</time>
</trkpt>
<trkpt lat="39.483203" lon="-8.466769">
<time>2021-10-05T15:08:49Z</time>
</trkpt>
<trkpt lat="39.483195" lon="-8.466747">
<time>2021-10-05T15:08:50Z</time>
</trkpt>
<trkpt lat="39.483181" lon="-8.466725">
<time>2021-10-05T15:08:51Z</time>
</trkpt>
<trkpt lat="39.483166" lon="-8.466705">
<time>2021-10-05T15:08:52Z</time>
</trkpt>
<trkpt lat="39.483145" lon="-8.466682">
<time>2021-10-05T15:08:53Z</time>
</trkpt>
<trkpt lat="39.483115" lon="-8.466652">
<time>2021-10-05T15:08:54Z</time>
</trkpt>
<trkpt lat="39.483071" lon="-8.466612">
<time>2021-10-05T15:08:55Z</time>
</trkpt>
<trkpt lat="39.483018" lon="-8.466572">
<time>2021-10-05T15:08:56Z</time>
</trkpt>
<trkpt lat="39.482958" lon="-8.466537">
<time>2021-10-05T15:08:57Z</time>
</trkpt>
<trkpt lat="39.482891" lon="-8.466507">
<time>2021-10-05T15:08:58Z</time>
</trkpt>
<trkpt lat="39.482816" lon="-8.466479">
<time>2021-10-05T15:08:59Z</time>
</trkpt>
<trkpt lat="39.482746" lon="-8.466452">
<time>2021-10-05T15:09:00Z</time>
</trkpt>
<trkpt lat="39.482676" lon="-8.46642">
<time>2021-10-05T15:09:01Z</time>
</trkpt>
<trkpt lat="39.482603" lon="-8.46639">
<time>2021-10-05T15:09:02Z</time>
</trkpt>
<trkpt lat="39.482533" lon="-8.466364">
<time>2021-10-05T15:09:03Z</time>
</trkpt>
<trkpt lat="39.482463" lon="-8.466342">
<time>2021-10-05T15:09:04Z</time>
</trkpt>
<trkpt lat="39.482386" lon="-8.466329">
<time>2021-10-05T15:09:05Z</time>
</trkpt>
<trkpt lat="39.482315" lon="-8.466325">
<time>2021-10-05T15:09:06Z</time>
</trkpt>
<trkpt lat="39.48224" lon="-8.466332">
<time>2021-10-05T15:09:07Z</time>
</trkpt>
<trkpt lat="39.482166" lon="-8.466347">
<time>2021-10-05T15:09:08Z</time>
</trkpt>
<trkpt lat="39.482101" lon="-8.466364">
<time>2021-10-05T15:09:09Z</time>
</trkpt>
<trkpt lat="39.48204" lon="-8.46638">
<time>2021-10-05T15:09:10Z</time>
</trkpt>
<trkpt lat="39.481983" lon="-8.466397">
<time>2021-10-05T15:09:11Z</time>
</trkpt>
<trkpt lat="39.481931" lon="-8.466414">
<time>2021-10-05T15:09:12Z</time>
</trkpt>
<trkpt lat="39.48188" lon="-8.466429">
<time>2021-10-05T15:09:13Z</time>
</trkpt>
<trkpt lat="39.48183" lon="-8.466445">
<time>2021-10-05T15:09:14Z</time>
</trkpt>
<trkpt lat="39.481776" lon="-8.466464">
<time>2021-10-05T15:09:15Z</time>
</trkpt>
<trkpt lat="39.481718" lon="-8.466485">
<time>2021-10-05T15:09:16Z</time>
</trkpt>
<trkpt lat="39.481656" lon="-8.466507">
<time>2021-10-05T15:09:17Z</time>
</trkpt>
<trkpt lat="39.481595" lon="-8.466524">
<time>2021-10-05T15:09:18Z</time>
</trkpt>
<trkpt lat="39.48153" lon="-8.466537">
<time>2021-10-05T15:09:19Z</time>
</trkpt>
<trkpt lat="39.481465" lon="-8.466547">
<time>2021-10-05T15:09:20Z</time>
</trkpt>
<trkpt lat="39.481398" lon="-8.466547">
<time>2021-10-05T15:09:21Z</time>
</trkpt>
<trkpt lat="39.48133" lon="-8.466535">
<time>2021-10-05T15:09:22Z</time>
</trkpt>
<trkpt lat="39.481258" lon="-8.46652">
<time>2021-10-05T15:09:23Z</time>
</trkpt>
<trkpt lat="39.481186" lon="-8.46651">
<time>2021-10-05T15:09:24Z</time>
</trkpt>
<trkpt lat="39.481116" lon="-8.46651">
<time>2021-10-05T15:09:25Z</time>
</trkpt>
<trkpt lat="39.481045" lon="-8.466517">
<time>2021-10-05T15:09:26Z</time>
</trkpt>
<trkpt lat="39.480971" lon="-8.46653">
<time>2021-10-05T15:09:27Z</time>
</trkpt>
<trkpt lat="39.480901" lon="-8.466547">
<time>2021-10-05T15:09:28Z</time>
</trkpt>
<trkpt lat="39.480831" lon="-8.466569">
<time>2021-10-05T15:09:29Z</time>
</trkpt>
<trkpt lat="39.48077" lon="-8.466587">
<time>2021-10-05T15:09:30Z</time>
</trkpt>
<trkpt lat="39.480723" lon="-8.466607">
<time>2021-10-05T15:09:31Z</time>
</trkpt>
<trkpt lat="39.480676" lon="-8.466635">
<time>2021-10-05T15:09:32Z</time>
</trkpt>
<trkpt lat="39.480636" lon="-8.466665">
<time>2021-10-05T15:09:33Z</time>
</trkpt>
<trkpt lat="39.4806" lon="-8.466692">
<time>2021-10-05T15:09:34Z</time>
</trkpt>
<trkpt lat="39.480561" lon="-8.466712">
<time>2021-10-05T15:09:35Z</time>
</trkpt>
<trkpt lat="39.480516" lon="-8.466722">
<time>2021-10-05T15:09:36Z</time>
</trkpt>
<trkpt lat="39.480463" lon="-8.466727">
<time>2021-10-05T15:09:37Z</time>
</trkpt>
<trkpt lat="39.480416" lon="-8.466727">
<time>2021-10-05T15:09:38Z</time>
</trkpt>
<trkpt lat="39.480368" lon="-8.466727">
<time>2021-10-05T15:09:39Z</time>
</trkpt>
<trkpt lat="39.480331" lon="-8.46673">
<time>2021-10-05T15:09:40Z</time>
</trkpt>
<trkpt lat="39.480295" lon="-8.466732">
<time>2021-10-05T15:09:41Z</time>
</trkpt>
<trkpt lat="39.480265" lon="-8.466734">
<time>2021-10-05T15:09:42Z</time>
</trkpt>
<trkpt lat="39.48024" lon="-8.466725">
<time>2021-10-05T15:09:43Z</time>
</trkpt>
<trkpt lat="39.480211" lon="-8.466717">
<time>2021-10-05T15:09:44Z</time>
</trkpt>
<trkpt lat="39.480185" lon="-8.466709">
<time>2021-10-05T15:09:45Z</time>
</trkpt>
<trkpt lat="39.480148" lon="-8.466699">
<time>2021-10-05T15:09:46Z</time>
</trkpt>
<trkpt lat="39.480101" lon="-8.466692">
<time>2021-10-05T15:09:47Z</time>
</trkpt>
<trkpt lat="39.480063" lon="-8.466704">
<time>2021-10-05T15:09:48Z</time>
</trkpt>
<trkpt lat="39.480033" lon="-8.466729">
<time>2021-10-05T15:09:49Z</time>
</trkpt>
<trkpt lat="39.480013" lon="-8.466755">
<time>2021-10-05T15:09:50Z</time>
</trkpt>
<trkpt lat="39.479985" lon="-8.466792">
<time>2021-10-05T15:09:51Z</time>
</trkpt>
<trkpt lat="39.47996" lon="-8.46683">
<time>2021-10-05T15:09:52Z</time>
</trkpt>
<trkpt lat="39.479935" lon="-8.46686">
<time>2021-10-05T15:09:53Z</time>
</trkpt>
<trkpt lat="39.479916" lon="-8.466885">
<time>2021-10-05T15:09:54Z</time>
</trkpt>
<trkpt lat="39.479896" lon="-8.466904">
<time>2021-10-05T15:09:55Z</time>
</trkpt>
<trkpt lat="39.479875" lon="-8.466915">
<time>2021-10-05T15:09:56Z</time>
</trkpt>
<trkpt lat="39.479851" lon="-8.466917">
<time>2021-10-05T15:09:57Z</time>
</trkpt>
<trkpt lat="39.47983" lon="-8.46691">
<time>2021-10-05T15:09:58Z</time>
</trkpt>
<trkpt lat="39.479808" lon="-8.46691">
<time>2021-10-05T15:09:59Z</time>
</trkpt>
<trkpt lat="39.47979" lon="-8.466919">
<time>2021-10-05T15:10:00Z</time>
</trkpt>
<trkpt lat="39.479771" lon="-8.466935">
<time>2021-10-05T15:10:01Z</time>
</trkpt>
<trkpt lat="39.479751" lon="-8.466959">
<time>2021-10-05T15:10:02Z</time>
</trkpt>
<trkpt lat="39.479736" lon="-8.466974">
<time>2021-10-05T15:10:03Z</time>
</trkpt>
<trkpt lat="39.479715" lon="-8.466999">
<time>2021-10-05T15:10:04Z</time>
</trkpt>
<trkpt lat="39.479701" lon="-8.46702">
<time>2021-10-05T15:10:05Z</time>
</trkpt>
<trkpt lat="39.47969" lon="-8.467044">
<time>2021-10-05T15:10:06Z</time>
</trkpt>
<trkpt lat="39.47968" lon="-8.467064">
<time>2021-10-05T15:10:07Z</time>
</trkpt>
<trkpt lat="39.479663" lon="-8.467074">
<time>2021-10-05T15:10:08Z</time>
</trkpt>
<trkpt lat="39.47964" lon="-8.467075">
<time>2021-10-05T15:10:09Z</time>
</trkpt>
<trkpt lat="39.479615" lon="-8.46707">
<time>2021-10-05T15:10:10Z</time>
</trkpt>
<trkpt lat="39.479586" lon="-8.467069">
<time>2021-10-05T15:10:11Z</time>
</trkpt>
<trkpt lat="39.479556" lon="-8.467072">
<time>2021-10-05T15:10:12Z</time>
</trkpt>
<trkpt lat="39.47953" lon="-8.467075">
<time>2021-10-05T15:10:13Z</time>
</trkpt>
<trkpt lat="39.479505" lon="-8.467079">
<time>2021-10-05T15:10:14Z</time>
</trkpt>
<trkpt lat="39.479478" lon="-8.467085">
<time>2021-10-05T15:10:15Z</time>
</trkpt>
<trkpt lat="39.479448" lon="-8.467097">
<time>2021-10-05T15:10:16Z</time>
</trkpt>
<trkpt lat="39.47942" lon="-8.46711">
<time>2021-10-05T15:10:17Z</time>
</trkpt>
<trkpt lat="39.479388" lon="-8.467127">
<time>2021-10-05T15:10:18Z</time>
</trkpt>
<trkpt lat="39.479355" lon="-8.467145">
<time>2021-10-05T15:10:19Z</time>
</trkpt>
<trkpt lat="39.479321" lon="-8.467165">
<time>2021-10-05T15:10:20Z</time>
</trkpt>
<trkpt lat="39.479285" lon="-8.467182">
<time>2021-10-05T15:10:21Z</time>
</trkpt>
<trkpt lat="39.479253" lon="-8.467197">
<time>2021-10-05T15:10:22Z</time>
</trkpt>
<trkpt lat="39.47922" lon="-8.467215">
<time>2021-10-05T15:10:23Z</time>
</trkpt>
<trkpt lat="39.479191" lon="-8.467239">
<time>2021-10-05T15:10:24Z</time>
</trkpt>
<trkpt lat="39.479161" lon="-8.46726">
<time>2021-10-05T15:10:25Z</time>
</trkpt>
<trkpt lat="39.479133" lon="-8.467279">
<time>2021-10-05T15:10:26Z</time>
</trkpt>
<trkpt lat="39.479106" lon="-8.467294">
<time>2021-10-05T15:10:27Z</time>
</trkpt>
<trkpt lat="39.479073" lon="-8.467309">
<time>2021-10-05T15:10:28Z</time>
</trkpt>
<trkpt lat="39.479036" lon="-8.467322">
<time>2021-10-05T15:10:29Z</time>
</trkpt>
<trkpt lat="39.478998" lon="-8.467334">
<time>2021-10-05T15:10:30Z</time>
</trkpt>
<trkpt lat="39.478956" lon="-8.467339">
<time>2021-10-05T15:10:31Z</time>
</trkpt>
<trkpt lat="39.478918" lon="-8.467347">
<time>2021-10-05T15:10:32Z</time>
</trkpt>
<trkpt lat="39.47888" lon="-8.467355">
<time>2021-10-05T15:10:33Z</time>
</trkpt>
<trkpt lat="39.478841" lon="-8.467352">
<time>2021-10-05T15:10:34Z</time>
</trkpt>
<trkpt lat="39.478805" lon="-8.46734">
<time>2021-10-05T15:10:35Z</time>
</trkpt>
<trkpt lat="39.478768" lon="-8.467327">
<time>2021-10-05T15:10:36Z</time>
</trkpt>
<trkpt lat="39.478731" lon="-8.467315">
<time>2021-10-05T15:10:37Z</time>
</trkpt>
<trkpt lat="39.478695" lon="-8.467295">
<time>2021-10-05T15:10:38Z</time>
</trkpt>
<trkpt lat="39.478665" lon="-8.467262">
<time>2021-10-05T15:10:39Z</time>
</trkpt>
<trkpt lat="39.478645" lon="-8.46722">
<time>2021-10-05T15:10:40Z</time>
</trkpt>
<trkpt lat="39.478633" lon="-8.46716">
<time>2021-10-05T15:10:41Z</time>
</trkpt>
<trkpt lat="39.478618" lon="-8.467092">
<time>2021-10-05T15:10:42Z</time>
</trkpt>
<trkpt lat="39.478616" lon="-8.467027">
<time>2021-10-05T15:10:43Z</time>
</trkpt>
<trkpt lat="39.47861" lon="-8.466957">
<time>2021-10-05T15:10:44Z</time>
</trkpt>
<trkpt lat="39.478593" lon="-8.466887">
<time>2021-10-05T15:10:45Z</time>
</trkpt>
<trkpt lat="39.478568" lon="-8.466814">
<time>2021-10-05T15:10:46Z</time>
</trkpt>
<trkpt lat="39.478535" lon="-8.46674">
<time>2021-10-05T15:10:47Z</time>
</trkpt>
<trkpt lat="39.4785" lon="-8.466672">
<time>2021-10-05T15:10:48Z</time>
</trkpt>
<trkpt lat="39.478461" lon="-8.466599">
<time>2021-10-05T15:10:49Z</time>
</trkpt>
<trkpt lat="39.478425" lon="-8.466519">
<time>2021-10-05T15:10:50Z</time>
</trkpt>
<trkpt lat="39.478388" lon="-8.466435">
<time>2021-10-05T15:10:51Z</time>
</trkpt>
<trkpt lat="39.478361" lon="-8.46635">
<time>2021-10-05T15:10:52Z</time>
</trkpt>
<trkpt lat="39.478331" lon="-8.466285">
<time>2021-10-05T15:10:53Z</time>
</trkpt>
<trkpt lat="39.478295" lon="-8.46624">
<time>2021-10-05T15:10:54Z</time>
</trkpt>
<trkpt lat="39.478253" lon="-8.466212">
<time>2021-10-05T15:10:55Z</time>
</trkpt>
<trkpt lat="39.478208" lon="-8.466199">
<time>2021-10-05T15:10:56Z</time>
</trkpt>
<trkpt lat="39.47816" lon="-8.466202">
<time>2021-10-05T15:10:57Z</time>
</trkpt>
<trkpt lat="39.478116" lon="-8.466219">
<time>2021-10-05T15:10:58Z</time>
</trkpt>
<trkpt lat="39.478073" lon="-8.466242">
<time>2021-10-05T15:10:59Z</time>
</trkpt>
<trkpt lat="39.478033" lon="-8.46627">
<time>2021-10-05T15:11:00Z</time>
</trkpt>
<trkpt lat="39.477993" lon="-8.4663">
<time>2021-10-05T15:11:01Z</time>
</trkpt>
<trkpt lat="39.477945" lon="-8.466337">
<time>2021-10-05T15:11:02Z</time>
</trkpt>
<trkpt lat="39.477908" lon="-8.466367">
<time>2021-10-05T15:11:03Z</time>
</trkpt>
<trkpt lat="39.47788" lon="-8.466395">
<time>2021-10-05T15:11:04Z</time>
</trkpt>
<trkpt lat="39.477861" lon="-8.466422">
<time>2021-10-05T15:11:05Z</time>
</trkpt>
<trkpt lat="39.477841" lon="-8.466452">
<time>2021-10-05T15:11:06Z</time>
</trkpt>
<trkpt lat="39.477825" lon="-8.466477">
<time>2021-10-05T15:11:07Z</time>
</trkpt>
<trkpt lat="39.477806" lon="-8.466497">
<time>2021-10-05T15:11:08Z</time>
</trkpt>
<trkpt lat="39.47779" lon="-8.466514">
<time>2021-10-05T15:11:09Z</time>
</trkpt>
<trkpt lat="39.47778" lon="-8.466524">
<time>2021-10-05T15:11:10Z</time>
</trkpt>
<trkpt lat="39.477775" lon="-8.46653">
<time>2021-10-05T15:11:11Z</time>
</trkpt>
<trkpt lat="39.477771" lon="-8.466532">
<time>2021-10-05T15:11:12Z</time>
</trkpt>
<trkpt lat="39.47777" lon="-8.46653">
<time>2021-10-05T15:11:13Z</time>
</trkpt>
<trkpt lat="39.47777" lon="-8.46653">
<time>2021-10-05T15:11:14Z</time>
</trkpt>
<trkpt lat="39.47777" lon="-8.466534">
<time>2021-10-05T15:11:15Z</time>
</trkpt>
<trkpt lat="39.47777" lon="-8.466534">
<time>2021-10-05T15:11:16Z</time>
</trkpt>
<trkpt lat="39.477771" lon="-8.466537">
<time>2021-10-05T15:11:17Z</time>
</trkpt>
<trkpt lat="39.477771" lon="-8.466539">
<time>2021-10-05T15:11:18Z</time>
</trkpt>
<trkpt lat="39.477776" lon="-8.466544">
<time>2021-10-05T15:11:19Z</time>
</trkpt>
<trkpt lat="39.477776" lon="-8.466542">
<time>2021-10-05T15:11:20Z</time>
</trkpt>
<trkpt lat="39.47778" lon="-8.46654">
<time>2021-10-05T15:11:21Z</time>
</trkpt>
<trkpt lat="39.477783" lon="-8.466537">
<time>2021-10-05T15:11:22Z</time>
</trkpt>
<trkpt lat="39.477791" lon="-8.466534">
<time>2021-10-05T15:11:23Z</time>
</trkpt>
<trkpt lat="39.477803" lon="-8.46653">
<time>2021-10-05T15:11:24Z</time>
</trkpt>
<trkpt lat="39.477815" lon="-8.46652">
<time>2021-10-05T15:11:25Z</time>
</trkpt>
<trkpt lat="39.477828" lon="-8.466509">
<time>2021-10-05T15:11:26Z</time>
</trkpt>
<trkpt lat="39.477843" lon="-8.466492">
<time>2021-10-05T15:11:27Z</time>
</trkpt>
<trkpt lat="39.477861" lon="-8.46647">
<time>2021-10-05T15:11:28Z</time>
</trkpt>
<trkpt lat="39.477886" lon="-8.466449">
<time>2021-10-05T15:11:29Z</time>
</trkpt>
<trkpt lat="39.477915" lon="-8.466425">
<time>2021-10-05T15:11:30Z</time>
</trkpt>
<trkpt lat="39.477943" lon="-8.466404">
<time>2021-10-05T15:11:31Z</time>
</trkpt>
<trkpt lat="39.477971" lon="-8.466382">
<time>2021-10-05T15:11:32Z</time>
</trkpt>
<trkpt lat="39.478001" lon="-8.466359">
<time>2021-10-05T15:11:33Z</time>
</trkpt>
<trkpt lat="39.47803" lon="-8.466335">
<time>2021-10-05T15:11:34Z</time>
</trkpt>
<trkpt lat="39.478063" lon="-8.466307">
<time>2021-10-05T15:11:35Z</time>
</trkpt>
<trkpt lat="39.478093" lon="-8.46628">
<time>2021-10-05T15:11:36Z</time>
</trkpt>
<trkpt lat="39.47813" lon="-8.466262">
<time>2021-10-05T15:11:37Z</time>
</trkpt>
<trkpt lat="39.478168" lon="-8.466254">
<time>2021-10-05T15:11:38Z</time>
</trkpt>
<trkpt lat="39.478208" lon="-8.466254">
<time>2021-10-05T15:11:39Z</time>
</trkpt>
<trkpt lat="39.47825" lon="-8.46626">
<time>2021-10-05T15:11:40Z</time>
</trkpt>
<trkpt lat="39.47829" lon="-8.466265">
<time>2021-10-05T15:11:41Z</time>
</trkpt>
<trkpt lat="39.478325" lon="-8.466269">
<time>2021-10-05T15:11:42Z</time>
</trkpt>
<trkpt lat="39.47836" lon="-8.466267">
<time>2021-10-05T15:11:43Z</time>
</trkpt>
<trkpt lat="39.478395" lon="-8.466257">
<time>2021-10-05T15:11:44Z</time>
</trkpt>
<trkpt lat="39.47842" lon="-8.46624">
<time>2021-10-05T15:11:45Z</time>
</trkpt>
<trkpt lat="39.478435" lon="-8.466215">
<time>2021-10-05T15:11:46Z</time>
</trkpt>
<trkpt lat="39.478441" lon="-8.466184">
<time>2021-10-05T15:11:47Z</time>
</trkpt>
<trkpt lat="39.478448" lon="-8.466145">
<time>2021-10-05T15:11:48Z</time>
</trkpt>
<trkpt lat="39.478456" lon="-8.4661">
<time>2021-10-05T15:11:49Z</time>
</trkpt>
<trkpt lat="39.478468" lon="-8.466054">
<time>2021-10-05T15:11:50Z</time>
</trkpt>
<trkpt lat="39.478473" lon="-8.466009">
<time>2021-10-05T15:11:51Z</time>
</trkpt>
<trkpt lat="39.478471" lon="-8.465975">
<time>2021-10-05T15:11:52Z</time>
</trkpt>
<trkpt lat="39.478463" lon="-8.465949">
<time>2021-10-05T15:11:53Z</time>
</trkpt>
<trkpt lat="39.478448" lon="-8.46592">
<time>2021-10-05T15:11:54Z</time>
</trkpt>
<trkpt lat="39.478428" lon="-8.465894">
<time>2021-10-05T15:11:55Z</time>
</trkpt>
<trkpt lat="39.478413" lon="-8.46587">
<time>2021-10-05T15:11:56Z</time>
</trkpt>
<trkpt lat="39.478408" lon="-8.465845">
<time>2021-10-05T15:11:57Z</time>
</trkpt>
<trkpt lat="39.478411" lon="-8.465812">
<time>2021-10-05T15:11:58Z</time>
</trkpt>
<trkpt lat="39.47842" lon="-8.46578">
<time>2021-10-05T15:11:59Z</time>
</trkpt>
<trkpt lat="39.478426" lon="-8.465747">
<time>2021-10-05T15:12:00Z</time>
</trkpt>
<trkpt lat="39.478425" lon="-8.465714">
<time>2021-10-05T15:12:01Z</time>
</trkpt>
<trkpt lat="39.47841" lon="-8.465685">
<time>2021-10-05T15:12:02Z</time>
</trkpt>
<trkpt lat="39.478388" lon="-8.465662">
<time>2021-10-05T15:12:03Z</time>
</trkpt>
<trkpt lat="39.478361" lon="-8.465645">
<time>2021-10-05T15:12:04Z</time>
</trkpt>
<trkpt lat="39.478326" lon="-8.465622">
<time>2021-10-05T15:12:05Z</time>
</trkpt>
<trkpt lat="39.478296" lon="-8.465585">
<time>2021-10-05T15:12:06Z</time>
</trkpt>
<trkpt lat="39.478276" lon="-8.465539">
<time>2021-10-05T15:12:07Z</time>
</trkpt>
<trkpt lat="39.478278" lon="-8.465494">
<time>2021-10-05T15:12:08Z</time>
</trkpt>
<trkpt lat="39.478295" lon="-8.465447">
<time>2021-10-05T15:12:09Z</time>
</trkpt>
<trkpt lat="39.478321" lon="-8.465402">
<time>2021-10-05T15:12:10Z</time>
</trkpt>
<trkpt lat="39.478346" lon="-8.465349">
<time>2021-10-05T15:12:11Z</time>
</trkpt>
<trkpt lat="39.478373" lon="-8.465294">
<time>2021-10-05T15:12:12Z</time>
</trkpt>
<trkpt lat="39.478401" lon="-8.465239">
<time>2021-10-05T15:12:13Z</time>
</trkpt>
<trkpt lat="39.478428" lon="-8.465184">
<time>2021-10-05T15:12:14Z</time>
</trkpt>
<trkpt lat="39.478456" lon="-8.465125">
<time>2021-10-05T15:12:15Z</time>
</trkpt>
<trkpt lat="39.478485" lon="-8.46507">
<time>2021-10-05T15:12:16Z</time>
</trkpt>
<trkpt lat="39.478513" lon="-8.465014">
<time>2021-10-05T15:12:17Z</time>
</trkpt>
<trkpt lat="39.478538" lon="-8.464957">
<time>2021-10-05T15:12:18Z</time>
</trkpt>
<trkpt lat="39.478565" lon="-8.464905">
<time>2021-10-05T15:12:19Z</time>
</trkpt>
<trkpt lat="39.478593" lon="-8.464864">
<time>2021-10-05T15:12:20Z</time>
</trkpt>
<trkpt lat="39.478626" lon="-8.464839">
<time>2021-10-05T15:12:21Z</time>
</trkpt>
<trkpt lat="39.478645" lon="-8.464842">
<time>2021-10-05T15:12:22Z</time>
</trkpt>
<trkpt lat="39.478665" lon="-8.464852">
<time>2021-10-05T15:12:23Z</time>
</trkpt>
<trkpt lat="39.478688" lon="-8.464862">
<time>2021-10-05T15:12:24Z</time>
</trkpt>
<trkpt lat="39.47871" lon="-8.464867">
<time>2021-10-05T15:12:25Z</time>
</trkpt>
<trkpt lat="39.478728" lon="-8.464865">
<time>2021-10-05T15:12:26Z</time>
</trkpt>
<trkpt lat="39.47874" lon="-8.46487">
<time>2021-10-05T15:12:27Z</time>
</trkpt>
<trkpt lat="39.478755" lon="-8.46488">
<time>2021-10-05T15:12:28Z</time>
</trkpt>
<trkpt lat="39.478778" lon="-8.464894">
<time>2021-10-05T15:12:29Z</time>
</trkpt>
<trkpt lat="39.478803" lon="-8.464895">
<time>2021-10-05T15:12:30Z</time>
</trkpt>
<trkpt lat="39.478828" lon="-8.4649">
<time>2021-10-05T15:12:31Z</time>
</trkpt>
<trkpt lat="39.478858" lon="-8.464904">
<time>2021-10-05T15:12:32Z</time>
</trkpt>
<trkpt lat="39.478888" lon="-8.464905">
<time>2021-10-05T15:12:33Z</time>
</trkpt>
<trkpt lat="39.47892" lon="-8.464905">
<time>2021-10-05T15:12:34Z</time>
</trkpt>
<trkpt lat="39.47895" lon="-8.4649">
<time>2021-10-05T15:12:35Z</time>
</trkpt>
<trkpt lat="39.47898" lon="-8.46489">
<time>2021-10-05T15:12:36Z</time>
</trkpt>
<trkpt lat="39.479008" lon="-8.464875">
<time>2021-10-05T15:12:37Z</time>
</trkpt>
<trkpt lat="39.479035" lon="-8.464854">
<time>2021-10-05T15:12:38Z</time>
</trkpt>
<trkpt lat="39.47906" lon="-8.46483">
<time>2021-10-05T15:12:39Z</time>
</trkpt>
<trkpt lat="39.479083" lon="-8.464802">
<time>2021-10-05T15:12:40Z</time>
</trkpt>
<trkpt lat="39.479108" lon="-8.464772">
<time>2021-10-05T15:12:41Z</time>
</trkpt>
<trkpt lat="39.479133" lon="-8.464739">
<time>2021-10-05T15:12:42Z</time>
</trkpt>
<trkpt lat="39.479158" lon="-8.464707">
<time>2021-10-05T15:12:43Z</time>
</trkpt>
<trkpt lat="39.479185" lon="-8.464679">
<time>2021-10-05T15:12:44Z</time>
</trkpt>
<trkpt lat="39.479215" lon="-8.464655">
<time>2021-10-05T15:12:45Z</time>
</trkpt>
<trkpt lat="39.479245" lon="-8.464629">
<time>2021-10-05T15:12:46Z</time>
</trkpt>
<trkpt lat="39.479276" lon="-8.464594">
<time>2021-10-05T15:12:47Z</time>
</trkpt>
<trkpt lat="39.479306" lon="-8.464555">
<time>2021-10-05T15:12:48Z</time>
</trkpt>
<trkpt lat="39.47934" lon="-8.464519">
<time>2021-10-05T15:12:49Z</time>
</trkpt>
<trkpt lat="39.479375" lon="-8.464487">
<time>2021-10-05T15:12:50Z</time>
</trkpt>
<trkpt lat="39.479411" lon="-8.46446">
<time>2021-10-05T15:12:51Z</time>
</trkpt>
<trkpt lat="39.47946" lon="-8.464429">
<time>2021-10-05T15:12:52Z</time>
</trkpt>
<trkpt lat="39.479493" lon="-8.464414">
<time>2021-10-05T15:12:53Z</time>
</trkpt>
<trkpt lat="39.479536" lon="-8.464392">
<time>2021-10-05T15:12:54Z</time>
</trkpt>
<trkpt lat="39.479578" lon="-8.464372">
<time>2021-10-05T15:12:55Z</time>
</trkpt>
<trkpt lat="39.479623" lon="-8.464354">
<time>2021-10-05T15:12:56Z</time>
</trkpt>
<trkpt lat="39.479666" lon="-8.464337">
<time>2021-10-05T15:12:57Z</time>
</trkpt>
<trkpt lat="39.479713" lon="-8.46432">
<time>2021-10-05T15:12:58Z</time>
</trkpt>
<trkpt lat="39.479761" lon="-8.464302">
<time>2021-10-05T15:12:59Z</time>
</trkpt>
<trkpt lat="39.47981" lon="-8.464279">
<time>2021-10-05T15:13:00Z</time>
</trkpt>
<trkpt lat="39.479866" lon="-8.464252">
<time>2021-10-05T15:13:01Z</time>
</trkpt>
<trkpt lat="39.479913" lon="-8.464225">
<time>2021-10-05T15:13:02Z</time>
</trkpt>
<trkpt lat="39.47995" lon="-8.464202">
<time>2021-10-05T15:13:03Z</time>
</trkpt>
<trkpt lat="39.479993" lon="-8.464174">
<time>2021-10-05T15:13:04Z</time>
</trkpt>
<trkpt lat="39.480036" lon="-8.464149">
<time>2021-10-05T15:13:05Z</time>
</trkpt>
<trkpt lat="39.480083" lon="-8.464129">
<time>2021-10-05T15:13:06Z</time>
</trkpt>
<trkpt lat="39.480136" lon="-8.464109">
<time>2021-10-05T15:13:07Z</time>
</trkpt>
<trkpt lat="39.480186" lon="-8.464089">
<time>2021-10-05T15:13:08Z</time>
</trkpt>
<trkpt lat="39.480226" lon="-8.464074">
<time>2021-10-05T15:13:09Z</time>
</trkpt>
<trkpt lat="39.480275" lon="-8.464054">
<time>2021-10-05T15:13:10Z</time>
</trkpt>
<trkpt lat="39.480336" lon="-8.464027">
<time>2021-10-05T15:13:11Z</time>
</trkpt>
<trkpt lat="39.480388" lon="-8.464002">
<time>2021-10-05T15:13:12Z</time>
</trkpt>
<trkpt lat="39.480431" lon="-8.463979">
<time>2021-10-05T15:13:13Z</time>
</trkpt>
<trkpt lat="39.480496" lon="-8.463949">
<time>2021-10-05T15:13:14Z</time>
</trkpt>
<trkpt lat="39.48055" lon="-8.463925">
<time>2021-10-05T15:13:15Z</time>
</trkpt>
<trkpt lat="39.480601" lon="-8.4639">
<time>2021-10-05T15:13:16Z</time>
</trkpt>
<trkpt lat="39.480653" lon="-8.463875">
<time>2021-10-05T15:13:17Z</time>
</trkpt>
<trkpt lat="39.480703" lon="-8.46385">
<time>2021-10-05T15:13:18Z</time>
</trkpt>
<trkpt lat="39.480753" lon="-8.463825">
<time>2021-10-05T15:13:19Z</time>
</trkpt>
<trkpt lat="39.480803" lon="-8.463802">
<time>2021-10-05T15:13:20Z</time>
</trkpt>
<trkpt lat="39.480846" lon="-8.463787">
<time>2021-10-05T15:13:21Z</time>
</trkpt>
<trkpt lat="39.480883" lon="-8.463784">
<time>2021-10-05T15:13:22Z</time>
</trkpt>
<trkpt lat="39.480918" lon="-8.463794">
<time>2021-10-05T15:13:23Z</time>
</trkpt>
<trkpt lat="39.480956" lon="-8.463819">
<time>2021-10-05T15:13:24Z</time>
</trkpt>
<trkpt lat="39.480995" lon="-8.463857">
<time>2021-10-05T15:13:25Z</time>
</trkpt>
<trkpt lat="39.481021" lon="-8.463905">
<time>2021-10-05T15:13:26Z</time>
</trkpt>
<trkpt lat="39.481033" lon="-8.46396">
<time>2021-10-05T15:13:27Z</time>
</trkpt>
<trkpt lat="39.481035" lon="-8.46402">
<time>2021-10-05T15:13:28Z</time>
</trkpt>
<trkpt lat="39.481023" lon="-8.464104">
<time>2021-10-05T15:13:29Z</time>
</trkpt>
<trkpt lat="39.48102" lon="-8.464187">
<time>2021-10-05T15:13:30Z</time>
</trkpt>
<trkpt lat="39.481018" lon="-8.464272">
<time>2021-10-05T15:13:31Z</time>
</trkpt>
<trkpt lat="39.481018" lon="-8.464359">
<time>2021-10-05T15:13:32Z</time>
</trkpt>
<trkpt lat="39.481025" lon="-8.46445">
<time>2021-10-05T15:13:33Z</time>
</trkpt>
<trkpt lat="39.48104" lon="-8.464525">
<time>2021-10-05T15:13:34Z</time>
</trkpt>
<trkpt lat="39.481071" lon="-8.464582">
<time>2021-10-05T15:13:35Z</time>
</trkpt>
<trkpt lat="39.481116" lon="-8.464629">
<time>2021-10-05T15:13:36Z</time>
</trkpt>
<trkpt lat="39.48117" lon="-8.464669">
<time>2021-10-05T15:13:37Z</time>
</trkpt>
<trkpt lat="39.481228" lon="-8.464707">
<time>2021-10-05T15:13:38Z</time>
</trkpt>
<trkpt lat="39.481283" lon="-8.464744">
<time>2021-10-05T15:13:39Z</time>
</trkpt>
<trkpt lat="39.481343" lon="-8.464784">
<time>2021-10-05T15:13:40Z</time>
</trkpt>
<trkpt lat="39.481406" lon="-8.464824">
<time>2021-10-05T15:13:41Z</time>
</trkpt>
<trkpt lat="39.481471" lon="-8.464859">
<time>2021-10-05T15:13:42Z</time>
</trkpt>
<trkpt lat="39.481536" lon="-8.464894">
<time>2021-10-05T15:13:43Z</time>
</trkpt>
<trkpt lat="39.481601" lon="-8.464927">
<time>2021-10-05T15:13:44Z</time>
</trkpt>
<trkpt lat="39.481663" lon="-8.464955">
<time>2021-10-05T15:13:45Z</time>
</trkpt>
<trkpt lat="39.481728" lon="-8.464987">
<time>2021-10-05T15:13:46Z</time>
</trkpt>
<trkpt lat="39.481785" lon="-8.465015">
<time>2021-10-05T15:13:47Z</time>
</trkpt>
<trkpt lat="39.48184" lon="-8.465049">
<time>2021-10-05T15:13:48Z</time>
</trkpt>
<trkpt lat="39.481898" lon="-8.465079">
<time>2021-10-05T15:13:49Z</time>
</trkpt>
<trkpt lat="39.481958" lon="-8.46511">
<time>2021-10-05T15:13:50Z</time>
</trkpt>
<trkpt lat="39.482018" lon="-8.465142">
<time>2021-10-05T15:13:51Z</time>
</trkpt>
<trkpt lat="39.482078" lon="-8.46518">
<time>2021-10-05T15:13:52Z</time>
</trkpt>
<trkpt lat="39.482138" lon="-8.465217">
<time>2021-10-05T15:13:53Z</time>
</trkpt>
<trkpt lat="39.4822" lon="-8.46526">
<time>2021-10-05T15:13:54Z</time>
</trkpt>
<trkpt lat="39.482258" lon="-8.465305">
<time>2021-10-05T15:13:55Z</time>
</trkpt>
<trkpt lat="39.482318" lon="-8.46535">
<time>2021-10-05T15:13:56Z</time>
</trkpt>
<trkpt lat="39.48238" lon="-8.465395">
<time>2021-10-05T15:13:57Z</time>
</trkpt>
<trkpt lat="39.482441" lon="-8.46544">
<time>2021-10-05T15:13:58Z</time>
</trkpt>
<trkpt lat="39.482503" lon="-8.465482">
<time>2021-10-05T15:13:59Z</time>
</trkpt>
<trkpt lat="39.482565" lon="-8.46552">
<time>2021-10-05T15:14:00Z</time>
</trkpt>
<trkpt lat="39.482623" lon="-8.465554">
<time>2021-10-05T15:14:01Z</time>
</trkpt>
<trkpt lat="39.482671" lon="-8.46558">
<time>2021-10-05T15:14:02Z</time>
</trkpt>
<trkpt lat="39.482703" lon="-8.465595">
<time>2021-10-05T15:14:03Z</time>
</trkpt>
</trkseg>
<name>Piero T</name>
</trk>
</gpx>